<?xml version="1.0" encoding="UTF-8" standalone="no" ?>
<gpx xmlns="http://www.topografix.com/GPX/1/1" xmlns:xsi="http://www.w3.org/2001/XMLSchema-instance" xsi:schemaLocation="http://www.topografix.com/GPX/1/1 http://www.topografix.com/GPX/1/1/gpx.xsd" version="1.1" creator="VisuGPX - https://www.visugpx.com">
  <metadata>
    <name>Ravin des arcs</name>
    <desc><![CDATA[belle rando sans aucune difficulté.
seul bémol : distance éloignée de Millau]]></desc>
  </metadata>
  <trk>
    <name><![CDATA[1 avr. 2014 09:39:56]]></name>
    <cmt><![CDATA[1 avr. 2014 09:39:56]]></cmt>
    <trkseg>
      <trkpt lat="43.8504" lon="3.74081">
        <ele>331</ele>
        <time>2014-04-01T07:39:56Z</time>
      </trkpt>
      <trkpt lat="43.85041" lon="3.74078">
        <ele>332</ele>
        <time>2014-04-01T07:40:16Z</time>
      </trkpt>
      <trkpt lat="43.85039" lon="3.74079">
        <ele>332</ele>
        <time>2014-04-01T07:40:30Z</time>
      </trkpt>
      <trkpt lat="43.85036" lon="3.74078">
        <ele>334</ele>
        <time>2014-04-01T07:41:32Z</time>
      </trkpt>
      <trkpt lat="43.85033" lon="3.74083">
        <ele>335</ele>
        <time>2014-04-01T07:41:51Z</time>
      </trkpt>
      <trkpt lat="43.85031" lon="3.74091">
        <ele>337</ele>
        <time>2014-04-01T07:41:57Z</time>
      </trkpt>
      <trkpt lat="43.85035" lon="3.74094">
        <ele>337</ele>
        <time>2014-04-01T07:42:15Z</time>
      </trkpt>
      <trkpt lat="43.85038" lon="3.7409">
        <ele>336</ele>
        <time>2014-04-01T07:42:30Z</time>
      </trkpt>
      <trkpt lat="43.85033" lon="3.74087">
        <ele>336</ele>
        <time>2014-04-01T07:44:48Z</time>
      </trkpt>
      <trkpt lat="43.8503" lon="3.74087">
        <ele>336</ele>
        <time>2014-04-01T07:45:05Z</time>
      </trkpt>
      <trkpt lat="43.85029" lon="3.7408">
        <ele>332</ele>
        <time>2014-04-01T07:45:09Z</time>
      </trkpt>
      <trkpt lat="43.85033" lon="3.74077">
        <ele>331</ele>
        <time>2014-04-01T07:45:14Z</time>
      </trkpt>
      <trkpt lat="43.85036" lon="3.74082">
        <ele>329</ele>
        <time>2014-04-01T07:45:29Z</time>
      </trkpt>
      <trkpt lat="43.85037" lon="3.74087">
        <ele>329</ele>
        <time>2014-04-01T07:45:33Z</time>
      </trkpt>
      <trkpt lat="43.85033" lon="3.74086">
        <ele>333</ele>
        <time>2014-04-01T07:46:43Z</time>
      </trkpt>
      <trkpt lat="43.85029" lon="3.74088">
        <ele>333</ele>
        <time>2014-04-01T07:46:51Z</time>
      </trkpt>
      <trkpt lat="43.85025" lon="3.74083">
        <ele>330</ele>
        <time>2014-04-01T07:46:55Z</time>
      </trkpt>
      <trkpt lat="43.85023" lon="3.74076">
        <ele>328</ele>
        <time>2014-04-01T07:46:59Z</time>
      </trkpt>
      <trkpt lat="43.85025" lon="3.7407">
        <ele>327</ele>
        <time>2014-04-01T07:47:03Z</time>
      </trkpt>
      <trkpt lat="43.85025" lon="3.74064">
        <ele>327</ele>
        <time>2014-04-01T07:47:08Z</time>
      </trkpt>
      <trkpt lat="43.85024" lon="3.74056">
        <ele>328</ele>
        <time>2014-04-01T07:47:19Z</time>
      </trkpt>
      <trkpt lat="43.85021" lon="3.74049">
        <ele>331</ele>
        <time>2014-04-01T07:47:22Z</time>
      </trkpt>
      <trkpt lat="43.85021" lon="3.74041">
        <ele>333</ele>
        <time>2014-04-01T07:47:26Z</time>
      </trkpt>
      <trkpt lat="43.85023" lon="3.74033">
        <ele>334</ele>
        <time>2014-04-01T07:47:30Z</time>
      </trkpt>
      <trkpt lat="43.85021" lon="3.74027">
        <ele>334</ele>
        <time>2014-04-01T07:47:34Z</time>
      </trkpt>
      <trkpt lat="43.85019" lon="3.74022">
        <ele>335</ele>
        <time>2014-04-01T07:47:37Z</time>
      </trkpt>
      <trkpt lat="43.85017" lon="3.7402">
        <ele>336</ele>
        <time>2014-04-01T07:47:43Z</time>
      </trkpt>
      <trkpt lat="43.85016" lon="3.74016">
        <ele>336</ele>
        <time>2014-04-01T07:47:54Z</time>
      </trkpt>
      <trkpt lat="43.85021" lon="3.74016">
        <ele>336</ele>
        <time>2014-04-01T07:48:00Z</time>
      </trkpt>
      <trkpt lat="43.85026" lon="3.74015">
        <ele>336</ele>
        <time>2014-04-01T07:48:07Z</time>
      </trkpt>
      <trkpt lat="43.85031" lon="3.74012">
        <ele>336</ele>
        <time>2014-04-01T07:48:12Z</time>
      </trkpt>
      <trkpt lat="43.85035" lon="3.74014">
        <ele>337</ele>
        <time>2014-04-01T07:48:21Z</time>
      </trkpt>
      <trkpt lat="43.85038" lon="3.74007">
        <ele>336</ele>
        <time>2014-04-01T07:48:32Z</time>
      </trkpt>
      <trkpt lat="43.85039" lon="3.74001">
        <ele>336</ele>
        <time>2014-04-01T07:48:37Z</time>
      </trkpt>
      <trkpt lat="43.85042" lon="3.74003">
        <ele>337</ele>
        <time>2014-04-01T07:48:51Z</time>
      </trkpt>
      <trkpt lat="43.85046" lon="3.74005">
        <ele>337</ele>
        <time>2014-04-01T07:48:56Z</time>
      </trkpt>
      <trkpt lat="43.85051" lon="3.74004">
        <ele>337</ele>
        <time>2014-04-01T07:49:01Z</time>
      </trkpt>
      <trkpt lat="43.85053" lon="3.74003">
        <ele>338</ele>
        <time>2014-04-01T07:49:07Z</time>
      </trkpt>
      <trkpt lat="43.85058" lon="3.74007">
        <ele>340</ele>
        <time>2014-04-01T07:49:19Z</time>
      </trkpt>
      <trkpt lat="43.85064" lon="3.7401">
        <ele>342</ele>
        <time>2014-04-01T07:49:36Z</time>
      </trkpt>
      <trkpt lat="43.85069" lon="3.74008">
        <ele>344</ele>
        <time>2014-04-01T07:49:41Z</time>
      </trkpt>
      <trkpt lat="43.85073" lon="3.74005">
        <ele>345</ele>
        <time>2014-04-01T07:49:45Z</time>
      </trkpt>
      <trkpt lat="43.85077" lon="3.74001">
        <ele>348</ele>
        <time>2014-04-01T07:49:54Z</time>
      </trkpt>
      <trkpt lat="43.85083" lon="3.74002">
        <ele>348</ele>
        <time>2014-04-01T07:50:01Z</time>
      </trkpt>
      <trkpt lat="43.85088" lon="3.74001">
        <ele>346</ele>
        <time>2014-04-01T07:50:04Z</time>
      </trkpt>
      <trkpt lat="43.85094" lon="3.74002">
        <ele>345</ele>
        <time>2014-04-01T07:50:08Z</time>
      </trkpt>
      <trkpt lat="43.85098" lon="3.73999">
        <ele>346</ele>
        <time>2014-04-01T07:50:16Z</time>
      </trkpt>
      <trkpt lat="43.85101" lon="3.73999">
        <ele>347</ele>
        <time>2014-04-01T07:50:22Z</time>
      </trkpt>
      <trkpt lat="43.85103" lon="3.73994">
        <ele>348</ele>
        <time>2014-04-01T07:50:27Z</time>
      </trkpt>
      <trkpt lat="43.85106" lon="3.73989">
        <ele>347</ele>
        <time>2014-04-01T07:50:37Z</time>
      </trkpt>
      <trkpt lat="43.85108" lon="3.73987">
        <ele>347</ele>
        <time>2014-04-01T07:50:42Z</time>
      </trkpt>
      <trkpt lat="43.85112" lon="3.73983">
        <ele>348</ele>
        <time>2014-04-01T07:50:50Z</time>
      </trkpt>
      <trkpt lat="43.85115" lon="3.73979">
        <ele>348</ele>
        <time>2014-04-01T07:50:56Z</time>
      </trkpt>
      <trkpt lat="43.85117" lon="3.73973">
        <ele>352</ele>
        <time>2014-04-01T07:51:00Z</time>
      </trkpt>
      <trkpt lat="43.85115" lon="3.73967">
        <ele>354</ele>
        <time>2014-04-01T07:51:09Z</time>
      </trkpt>
      <trkpt lat="43.85111" lon="3.73963">
        <ele>353</ele>
        <time>2014-04-01T07:51:13Z</time>
      </trkpt>
      <trkpt lat="43.85108" lon="3.73958">
        <ele>352</ele>
        <time>2014-04-01T07:51:17Z</time>
      </trkpt>
      <trkpt lat="43.85107" lon="3.73952">
        <ele>351</ele>
        <time>2014-04-01T07:51:23Z</time>
      </trkpt>
      <trkpt lat="43.85107" lon="3.73948">
        <ele>350</ele>
        <time>2014-04-01T07:51:29Z</time>
      </trkpt>
      <trkpt lat="43.85106" lon="3.73939">
        <ele>353</ele>
        <time>2014-04-01T07:51:39Z</time>
      </trkpt>
      <trkpt lat="43.85107" lon="3.73933">
        <ele>354</ele>
        <time>2014-04-01T07:51:47Z</time>
      </trkpt>
      <trkpt lat="43.85108" lon="3.73928">
        <ele>351</ele>
        <time>2014-04-01T07:51:56Z</time>
      </trkpt>
      <trkpt lat="43.85114" lon="3.73927">
        <ele>352</ele>
        <time>2014-04-01T07:52:00Z</time>
      </trkpt>
      <trkpt lat="43.85116" lon="3.73922">
        <ele>351</ele>
        <time>2014-04-01T07:52:05Z</time>
      </trkpt>
      <trkpt lat="43.85119" lon="3.73915">
        <ele>350</ele>
        <time>2014-04-01T07:52:09Z</time>
      </trkpt>
      <trkpt lat="43.8512" lon="3.73909">
        <ele>350</ele>
        <time>2014-04-01T07:52:15Z</time>
      </trkpt>
      <trkpt lat="43.85125" lon="3.73905">
        <ele>351</ele>
        <time>2014-04-01T07:52:23Z</time>
      </trkpt>
      <trkpt lat="43.85128" lon="3.73901">
        <ele>353</ele>
        <time>2014-04-01T07:52:27Z</time>
      </trkpt>
      <trkpt lat="43.85131" lon="3.73895">
        <ele>354</ele>
        <time>2014-04-01T07:52:31Z</time>
      </trkpt>
      <trkpt lat="43.85133" lon="3.73889">
        <ele>356</ele>
        <time>2014-04-01T07:52:36Z</time>
      </trkpt>
      <trkpt lat="43.85133" lon="3.7388">
        <ele>359</ele>
        <time>2014-04-01T07:52:50Z</time>
      </trkpt>
      <trkpt lat="43.85132" lon="3.73873">
        <ele>360</ele>
        <time>2014-04-01T07:52:57Z</time>
      </trkpt>
      <trkpt lat="43.85134" lon="3.73869">
        <ele>360</ele>
        <time>2014-04-01T07:53:08Z</time>
      </trkpt>
      <trkpt lat="43.85135" lon="3.73864">
        <ele>360</ele>
        <time>2014-04-01T07:53:17Z</time>
      </trkpt>
      <trkpt lat="43.85138" lon="3.73857">
        <ele>359</ele>
        <time>2014-04-01T07:53:33Z</time>
      </trkpt>
      <trkpt lat="43.85139" lon="3.7385">
        <ele>359</ele>
        <time>2014-04-01T07:53:37Z</time>
      </trkpt>
      <trkpt lat="43.85136" lon="3.73843">
        <ele>358</ele>
        <time>2014-04-01T07:53:46Z</time>
      </trkpt>
      <trkpt lat="43.85134" lon="3.73837">
        <ele>355</ele>
        <time>2014-04-01T07:53:50Z</time>
      </trkpt>
      <trkpt lat="43.8513" lon="3.73834">
        <ele>354</ele>
        <time>2014-04-01T07:54:00Z</time>
      </trkpt>
      <trkpt lat="43.85124" lon="3.73831">
        <ele>354</ele>
        <time>2014-04-01T07:54:03Z</time>
      </trkpt>
      <trkpt lat="43.85119" lon="3.73831">
        <ele>355</ele>
        <time>2014-04-01T07:54:06Z</time>
      </trkpt>
      <trkpt lat="43.85118" lon="3.73828">
        <ele>356</ele>
        <time>2014-04-01T07:54:12Z</time>
      </trkpt>
      <trkpt lat="43.85113" lon="3.73827">
        <ele>357</ele>
        <time>2014-04-01T07:54:20Z</time>
      </trkpt>
      <trkpt lat="43.85108" lon="3.73826">
        <ele>356</ele>
        <time>2014-04-01T07:54:26Z</time>
      </trkpt>
      <trkpt lat="43.85103" lon="3.73822">
        <ele>356</ele>
        <time>2014-04-01T07:54:32Z</time>
      </trkpt>
      <trkpt lat="43.85101" lon="3.73816">
        <ele>357</ele>
        <time>2014-04-01T07:54:37Z</time>
      </trkpt>
      <trkpt lat="43.85096" lon="3.73817">
        <ele>356</ele>
        <time>2014-04-01T07:54:45Z</time>
      </trkpt>
      <trkpt lat="43.85092" lon="3.73814">
        <ele>358</ele>
        <time>2014-04-01T07:54:51Z</time>
      </trkpt>
      <trkpt lat="43.85089" lon="3.73809">
        <ele>359</ele>
        <time>2014-04-01T07:54:56Z</time>
      </trkpt>
      <trkpt lat="43.85084" lon="3.73807">
        <ele>360</ele>
        <time>2014-04-01T07:55:00Z</time>
      </trkpt>
      <trkpt lat="43.85079" lon="3.73804">
        <ele>360</ele>
        <time>2014-04-01T07:55:03Z</time>
      </trkpt>
      <trkpt lat="43.85075" lon="3.73801">
        <ele>361</ele>
        <time>2014-04-01T07:55:05Z</time>
      </trkpt>
      <trkpt lat="43.8507" lon="3.73798">
        <ele>362</ele>
        <time>2014-04-01T07:55:08Z</time>
      </trkpt>
      <trkpt lat="43.8506" lon="3.738">
        <ele>368</ele>
        <time>2014-04-01T07:55:20Z</time>
      </trkpt>
      <trkpt lat="43.85055" lon="3.73797">
        <ele>370</ele>
        <time>2014-04-01T07:55:26Z</time>
      </trkpt>
      <trkpt lat="43.8505" lon="3.73794">
        <ele>372</ele>
        <time>2014-04-01T07:55:29Z</time>
      </trkpt>
      <trkpt lat="43.85046" lon="3.7379">
        <ele>374</ele>
        <time>2014-04-01T07:55:38Z</time>
      </trkpt>
      <trkpt lat="43.85048" lon="3.73787">
        <ele>369</ele>
        <time>2014-04-01T07:56:00Z</time>
      </trkpt>
      <trkpt lat="43.85046" lon="3.73781">
        <ele>368</ele>
        <time>2014-04-01T07:56:05Z</time>
      </trkpt>
      <trkpt lat="43.85041" lon="3.7377">
        <ele>361</ele>
        <time>2014-04-01T07:56:14Z</time>
      </trkpt>
      <trkpt lat="43.85037" lon="3.73765">
        <ele>360</ele>
        <time>2014-04-01T07:56:18Z</time>
      </trkpt>
      <trkpt lat="43.85033" lon="3.7376">
        <ele>360</ele>
        <time>2014-04-01T07:56:20Z</time>
      </trkpt>
      <trkpt lat="43.85028" lon="3.73756">
        <ele>360</ele>
        <time>2014-04-01T07:56:23Z</time>
      </trkpt>
      <trkpt lat="43.85023" lon="3.73756">
        <ele>361</ele>
        <time>2014-04-01T07:56:31Z</time>
      </trkpt>
      <trkpt lat="43.85018" lon="3.73755">
        <ele>362</ele>
        <time>2014-04-01T07:56:38Z</time>
      </trkpt>
      <trkpt lat="43.85014" lon="3.73753">
        <ele>362</ele>
        <time>2014-04-01T07:56:42Z</time>
      </trkpt>
      <trkpt lat="43.85009" lon="3.7375">
        <ele>362</ele>
        <time>2014-04-01T07:56:45Z</time>
      </trkpt>
      <trkpt lat="43.85005" lon="3.73748">
        <ele>362</ele>
        <time>2014-04-01T07:56:49Z</time>
      </trkpt>
      <trkpt lat="43.84999" lon="3.73742">
        <ele>362</ele>
        <time>2014-04-01T07:57:02Z</time>
      </trkpt>
      <trkpt lat="43.84997" lon="3.73737">
        <ele>361</ele>
        <time>2014-04-01T07:57:06Z</time>
      </trkpt>
      <trkpt lat="43.84993" lon="3.73734">
        <ele>359</ele>
        <time>2014-04-01T07:57:11Z</time>
      </trkpt>
      <trkpt lat="43.84988" lon="3.73729">
        <ele>358</ele>
        <time>2014-04-01T07:57:15Z</time>
      </trkpt>
      <trkpt lat="43.84986" lon="3.73723">
        <ele>356</ele>
        <time>2014-04-01T07:57:19Z</time>
      </trkpt>
      <trkpt lat="43.84981" lon="3.73721">
        <ele>355</ele>
        <time>2014-04-01T07:57:24Z</time>
      </trkpt>
      <trkpt lat="43.84976" lon="3.73719">
        <ele>355</ele>
        <time>2014-04-01T07:57:28Z</time>
      </trkpt>
      <trkpt lat="43.84972" lon="3.73717">
        <ele>355</ele>
        <time>2014-04-01T07:57:34Z</time>
      </trkpt>
      <trkpt lat="43.84967" lon="3.73712">
        <ele>356</ele>
        <time>2014-04-01T07:57:40Z</time>
      </trkpt>
      <trkpt lat="43.84963" lon="3.73708">
        <ele>357</ele>
        <time>2014-04-01T07:57:44Z</time>
      </trkpt>
      <trkpt lat="43.84959" lon="3.73704">
        <ele>358</ele>
        <time>2014-04-01T07:57:51Z</time>
      </trkpt>
      <trkpt lat="43.84954" lon="3.73702">
        <ele>358</ele>
        <time>2014-04-01T07:57:55Z</time>
      </trkpt>
      <trkpt lat="43.8495" lon="3.73699">
        <ele>359</ele>
        <time>2014-04-01T07:57:58Z</time>
      </trkpt>
      <trkpt lat="43.84946" lon="3.73694">
        <ele>356</ele>
        <time>2014-04-01T07:58:06Z</time>
      </trkpt>
      <trkpt lat="43.84943" lon="3.73688">
        <ele>355</ele>
        <time>2014-04-01T07:58:11Z</time>
      </trkpt>
      <trkpt lat="43.8494" lon="3.73681">
        <ele>355</ele>
        <time>2014-04-01T07:58:15Z</time>
      </trkpt>
      <trkpt lat="43.84936" lon="3.73677">
        <ele>355</ele>
        <time>2014-04-01T07:58:20Z</time>
      </trkpt>
      <trkpt lat="43.84932" lon="3.73675">
        <ele>354</ele>
        <time>2014-04-01T07:58:24Z</time>
      </trkpt>
      <trkpt lat="43.84926" lon="3.73672">
        <ele>354</ele>
        <time>2014-04-01T07:58:28Z</time>
      </trkpt>
      <trkpt lat="43.84924" lon="3.73675">
        <ele>353</ele>
        <time>2014-04-01T07:58:36Z</time>
      </trkpt>
      <trkpt lat="43.84919" lon="3.73674">
        <ele>352</ele>
        <time>2014-04-01T07:58:41Z</time>
      </trkpt>
      <trkpt lat="43.84914" lon="3.73671">
        <ele>351</ele>
        <time>2014-04-01T07:58:45Z</time>
      </trkpt>
      <trkpt lat="43.84914" lon="3.73664">
        <ele>349</ele>
        <time>2014-04-01T07:58:50Z</time>
      </trkpt>
      <trkpt lat="43.84908" lon="3.73667">
        <ele>349</ele>
        <time>2014-04-01T07:58:58Z</time>
      </trkpt>
      <trkpt lat="43.84903" lon="3.73668">
        <ele>349</ele>
        <time>2014-04-01T07:59:02Z</time>
      </trkpt>
      <trkpt lat="43.84898" lon="3.73672">
        <ele>351</ele>
        <time>2014-04-01T07:59:06Z</time>
      </trkpt>
      <trkpt lat="43.84893" lon="3.73673">
        <ele>352</ele>
        <time>2014-04-01T07:59:10Z</time>
      </trkpt>
      <trkpt lat="43.84888" lon="3.73675">
        <ele>354</ele>
        <time>2014-04-01T07:59:14Z</time>
      </trkpt>
      <trkpt lat="43.84883" lon="3.73678">
        <ele>356</ele>
        <time>2014-04-01T07:59:19Z</time>
      </trkpt>
      <trkpt lat="43.84881" lon="3.73684">
        <ele>359</ele>
        <time>2014-04-01T07:59:25Z</time>
      </trkpt>
      <trkpt lat="43.84876" lon="3.73689">
        <ele>360</ele>
        <time>2014-04-01T07:59:29Z</time>
      </trkpt>
      <trkpt lat="43.84872" lon="3.73693">
        <ele>362</ele>
        <time>2014-04-01T07:59:31Z</time>
      </trkpt>
      <trkpt lat="43.84868" lon="3.73697">
        <ele>364</ele>
        <time>2014-04-01T07:59:34Z</time>
      </trkpt>
      <trkpt lat="43.84864" lon="3.73699">
        <ele>366</ele>
        <time>2014-04-01T07:59:38Z</time>
      </trkpt>
      <trkpt lat="43.84859" lon="3.737">
        <ele>368</ele>
        <time>2014-04-01T07:59:45Z</time>
      </trkpt>
      <trkpt lat="43.84854" lon="3.73699">
        <ele>369</ele>
        <time>2014-04-01T07:59:50Z</time>
      </trkpt>
      <trkpt lat="43.84849" lon="3.73699">
        <ele>371</ele>
        <time>2014-04-01T07:59:56Z</time>
      </trkpt>
      <trkpt lat="43.84845" lon="3.73704">
        <ele>372</ele>
        <time>2014-04-01T08:00:02Z</time>
      </trkpt>
      <trkpt lat="43.84842" lon="3.73709">
        <ele>372</ele>
        <time>2014-04-01T08:00:09Z</time>
      </trkpt>
      <trkpt lat="43.84837" lon="3.73711">
        <ele>371</ele>
        <time>2014-04-01T08:00:13Z</time>
      </trkpt>
      <trkpt lat="43.84836" lon="3.73717">
        <ele>369</ele>
        <time>2014-04-01T08:00:22Z</time>
      </trkpt>
      <trkpt lat="43.84834" lon="3.73723">
        <ele>369</ele>
        <time>2014-04-01T08:00:24Z</time>
      </trkpt>
      <trkpt lat="43.84831" lon="3.73728">
        <ele>368</ele>
        <time>2014-04-01T08:00:26Z</time>
      </trkpt>
      <trkpt lat="43.84826" lon="3.73734">
        <ele>367</ele>
        <time>2014-04-01T08:00:29Z</time>
      </trkpt>
      <trkpt lat="43.84821" lon="3.73737">
        <ele>367</ele>
        <time>2014-04-01T08:00:33Z</time>
      </trkpt>
      <trkpt lat="43.84816" lon="3.73738">
        <ele>367</ele>
        <time>2014-04-01T08:00:37Z</time>
      </trkpt>
      <trkpt lat="43.84811" lon="3.73738">
        <ele>368</ele>
        <time>2014-04-01T08:00:43Z</time>
      </trkpt>
      <trkpt lat="43.84806" lon="3.7374">
        <ele>371</ele>
        <time>2014-04-01T08:00:49Z</time>
      </trkpt>
      <trkpt lat="43.84801" lon="3.7374">
        <ele>371</ele>
        <time>2014-04-01T08:00:53Z</time>
      </trkpt>
      <trkpt lat="43.84795" lon="3.7374">
        <ele>372</ele>
        <time>2014-04-01T08:00:57Z</time>
      </trkpt>
      <trkpt lat="43.84791" lon="3.73742">
        <ele>372</ele>
        <time>2014-04-01T08:01:01Z</time>
      </trkpt>
      <trkpt lat="43.84788" lon="3.73747">
        <ele>373</ele>
        <time>2014-04-01T08:01:05Z</time>
      </trkpt>
      <trkpt lat="43.84785" lon="3.73753">
        <ele>374</ele>
        <time>2014-04-01T08:01:10Z</time>
      </trkpt>
      <trkpt lat="43.84783" lon="3.73758">
        <ele>373</ele>
        <time>2014-04-01T08:01:16Z</time>
      </trkpt>
      <trkpt lat="43.84778" lon="3.73764">
        <ele>368</ele>
        <time>2014-04-01T08:01:26Z</time>
      </trkpt>
      <trkpt lat="43.84773" lon="3.73765">
        <ele>366</ele>
        <time>2014-04-01T08:01:31Z</time>
      </trkpt>
      <trkpt lat="43.84768" lon="3.73767">
        <ele>363</ele>
        <time>2014-04-01T08:01:35Z</time>
      </trkpt>
      <trkpt lat="43.84765" lon="3.73773">
        <ele>361</ele>
        <time>2014-04-01T08:01:43Z</time>
      </trkpt>
      <trkpt lat="43.8476" lon="3.73774">
        <ele>360</ele>
        <time>2014-04-01T08:01:46Z</time>
      </trkpt>
      <trkpt lat="43.84755" lon="3.73776">
        <ele>360</ele>
        <time>2014-04-01T08:01:49Z</time>
      </trkpt>
      <trkpt lat="43.8475" lon="3.73778">
        <ele>360</ele>
        <time>2014-04-01T08:01:52Z</time>
      </trkpt>
      <trkpt lat="43.84745" lon="3.73776">
        <ele>359</ele>
        <time>2014-04-01T08:01:55Z</time>
      </trkpt>
      <trkpt lat="43.84741" lon="3.73773">
        <ele>357</ele>
        <time>2014-04-01T08:02:00Z</time>
      </trkpt>
      <trkpt lat="43.84744" lon="3.73765">
        <ele>352</ele>
        <time>2014-04-01T08:02:09Z</time>
      </trkpt>
      <trkpt lat="43.8474" lon="3.73763">
        <ele>345</ele>
        <time>2014-04-01T08:02:16Z</time>
      </trkpt>
      <trkpt lat="43.84735" lon="3.73759">
        <ele>341</ele>
        <time>2014-04-01T08:02:22Z</time>
      </trkpt>
      <trkpt lat="43.8473" lon="3.73757">
        <ele>339</ele>
        <time>2014-04-01T08:02:25Z</time>
      </trkpt>
      <trkpt lat="43.84727" lon="3.73744">
        <ele>334</ele>
        <time>2014-04-01T08:02:39Z</time>
      </trkpt>
      <trkpt lat="43.84723" lon="3.7374">
        <ele>333</ele>
        <time>2014-04-01T08:02:44Z</time>
      </trkpt>
      <trkpt lat="43.84722" lon="3.73729">
        <ele>329</ele>
        <time>2014-04-01T08:02:58Z</time>
      </trkpt>
      <trkpt lat="43.84719" lon="3.73719">
        <ele>327</ele>
        <time>2014-04-01T08:03:09Z</time>
      </trkpt>
      <trkpt lat="43.84718" lon="3.73712">
        <ele>325</ele>
        <time>2014-04-01T08:03:13Z</time>
      </trkpt>
      <trkpt lat="43.84715" lon="3.73704">
        <ele>323</ele>
        <time>2014-04-01T08:03:17Z</time>
      </trkpt>
      <trkpt lat="43.84714" lon="3.73697">
        <ele>323</ele>
        <time>2014-04-01T08:03:20Z</time>
      </trkpt>
      <trkpt lat="43.84712" lon="3.73689">
        <ele>323</ele>
        <time>2014-04-01T08:03:23Z</time>
      </trkpt>
      <trkpt lat="43.84708" lon="3.73683">
        <ele>324</ele>
        <time>2014-04-01T08:03:27Z</time>
      </trkpt>
      <trkpt lat="43.84705" lon="3.73677">
        <ele>324</ele>
        <time>2014-04-01T08:03:30Z</time>
      </trkpt>
      <trkpt lat="43.84702" lon="3.73671">
        <ele>324</ele>
        <time>2014-04-01T08:03:35Z</time>
      </trkpt>
      <trkpt lat="43.84704" lon="3.73664">
        <ele>324</ele>
        <time>2014-04-01T08:03:43Z</time>
      </trkpt>
      <trkpt lat="43.84704" lon="3.73657">
        <ele>324</ele>
        <time>2014-04-01T08:03:48Z</time>
      </trkpt>
      <trkpt lat="43.84701" lon="3.73651">
        <ele>325</ele>
        <time>2014-04-01T08:03:52Z</time>
      </trkpt>
      <trkpt lat="43.84701" lon="3.73644">
        <ele>327</ele>
        <time>2014-04-01T08:03:55Z</time>
      </trkpt>
      <trkpt lat="43.84703" lon="3.73638">
        <ele>328</ele>
        <time>2014-04-01T08:04:01Z</time>
      </trkpt>
      <trkpt lat="43.84707" lon="3.73633">
        <ele>327</ele>
        <time>2014-04-01T08:04:06Z</time>
      </trkpt>
      <trkpt lat="43.84708" lon="3.73626">
        <ele>326</ele>
        <time>2014-04-01T08:04:10Z</time>
      </trkpt>
      <trkpt lat="43.84711" lon="3.73619">
        <ele>326</ele>
        <time>2014-04-01T08:04:16Z</time>
      </trkpt>
      <trkpt lat="43.84715" lon="3.73613">
        <ele>326</ele>
        <time>2014-04-01T08:04:20Z</time>
      </trkpt>
      <trkpt lat="43.84717" lon="3.73607">
        <ele>326</ele>
        <time>2014-04-01T08:04:25Z</time>
      </trkpt>
      <trkpt lat="43.84715" lon="3.73601">
        <ele>326</ele>
        <time>2014-04-01T08:04:30Z</time>
      </trkpt>
      <trkpt lat="43.84711" lon="3.73597">
        <ele>327</ele>
        <time>2014-04-01T08:04:34Z</time>
      </trkpt>
      <trkpt lat="43.84713" lon="3.7359">
        <ele>327</ele>
        <time>2014-04-01T08:04:40Z</time>
      </trkpt>
      <trkpt lat="43.84716" lon="3.73585">
        <ele>326</ele>
        <time>2014-04-01T08:04:45Z</time>
      </trkpt>
      <trkpt lat="43.84718" lon="3.73578">
        <ele>326</ele>
        <time>2014-04-01T08:04:49Z</time>
      </trkpt>
      <trkpt lat="43.84719" lon="3.73571">
        <ele>327</ele>
        <time>2014-04-01T08:04:54Z</time>
      </trkpt>
      <trkpt lat="43.8472" lon="3.73565">
        <ele>326</ele>
        <time>2014-04-01T08:04:57Z</time>
      </trkpt>
      <trkpt lat="43.84722" lon="3.73558">
        <ele>326</ele>
        <time>2014-04-01T08:05:01Z</time>
      </trkpt>
      <trkpt lat="43.84721" lon="3.73552">
        <ele>326</ele>
        <time>2014-04-01T08:05:05Z</time>
      </trkpt>
      <trkpt lat="43.84723" lon="3.73545">
        <ele>327</ele>
        <time>2014-04-01T08:05:09Z</time>
      </trkpt>
      <trkpt lat="43.84724" lon="3.73539">
        <ele>327</ele>
        <time>2014-04-01T08:05:14Z</time>
      </trkpt>
      <trkpt lat="43.84726" lon="3.73533">
        <ele>326</ele>
        <time>2014-04-01T08:05:20Z</time>
      </trkpt>
      <trkpt lat="43.84726" lon="3.73525">
        <ele>326</ele>
        <time>2014-04-01T08:05:25Z</time>
      </trkpt>
      <trkpt lat="43.84727" lon="3.73518">
        <ele>326</ele>
        <time>2014-04-01T08:05:28Z</time>
      </trkpt>
      <trkpt lat="43.84729" lon="3.73512">
        <ele>326</ele>
        <time>2014-04-01T08:05:32Z</time>
      </trkpt>
      <trkpt lat="43.84733" lon="3.73506">
        <ele>326</ele>
        <time>2014-04-01T08:05:35Z</time>
      </trkpt>
      <trkpt lat="43.84735" lon="3.73499">
        <ele>326</ele>
        <time>2014-04-01T08:05:40Z</time>
      </trkpt>
      <trkpt lat="43.84735" lon="3.73492">
        <ele>326</ele>
        <time>2014-04-01T08:05:45Z</time>
      </trkpt>
      <trkpt lat="43.84735" lon="3.73484">
        <ele>326</ele>
        <time>2014-04-01T08:05:50Z</time>
      </trkpt>
      <trkpt lat="43.84738" lon="3.73476">
        <ele>325</ele>
        <time>2014-04-01T08:05:54Z</time>
      </trkpt>
      <trkpt lat="43.84739" lon="3.7347">
        <ele>325</ele>
        <time>2014-04-01T08:05:57Z</time>
      </trkpt>
      <trkpt lat="43.84739" lon="3.73463">
        <ele>325</ele>
        <time>2014-04-01T08:06:02Z</time>
      </trkpt>
      <trkpt lat="43.84738" lon="3.73456">
        <ele>325</ele>
        <time>2014-04-01T08:06:07Z</time>
      </trkpt>
      <trkpt lat="43.84741" lon="3.73451">
        <ele>325</ele>
        <time>2014-04-01T08:06:10Z</time>
      </trkpt>
      <trkpt lat="43.84745" lon="3.73446">
        <ele>324</ele>
        <time>2014-04-01T08:06:14Z</time>
      </trkpt>
      <trkpt lat="43.84742" lon="3.7344">
        <ele>324</ele>
        <time>2014-04-01T08:06:19Z</time>
      </trkpt>
      <trkpt lat="43.84741" lon="3.73434">
        <ele>321</ele>
        <time>2014-04-01T08:06:27Z</time>
      </trkpt>
      <trkpt lat="43.84739" lon="3.73426">
        <ele>321</ele>
        <time>2014-04-01T08:06:31Z</time>
      </trkpt>
      <trkpt lat="43.84737" lon="3.7342">
        <ele>322</ele>
        <time>2014-04-01T08:06:34Z</time>
      </trkpt>
      <trkpt lat="43.84737" lon="3.73412">
        <ele>323</ele>
        <time>2014-04-01T08:06:37Z</time>
      </trkpt>
      <trkpt lat="43.84739" lon="3.73405">
        <ele>322</ele>
        <time>2014-04-01T08:06:43Z</time>
      </trkpt>
      <trkpt lat="43.84741" lon="3.73399">
        <ele>322</ele>
        <time>2014-04-01T08:06:48Z</time>
      </trkpt>
      <trkpt lat="43.84743" lon="3.73392">
        <ele>322</ele>
        <time>2014-04-01T08:06:54Z</time>
      </trkpt>
      <trkpt lat="43.84745" lon="3.73385">
        <ele>323</ele>
        <time>2014-04-01T08:06:57Z</time>
      </trkpt>
      <trkpt lat="43.84745" lon="3.73378">
        <ele>323</ele>
        <time>2014-04-01T08:07:01Z</time>
      </trkpt>
      <trkpt lat="43.84746" lon="3.7337">
        <ele>323</ele>
        <time>2014-04-01T08:07:05Z</time>
      </trkpt>
      <trkpt lat="43.84746" lon="3.73364">
        <ele>323</ele>
        <time>2014-04-01T08:07:08Z</time>
      </trkpt>
      <trkpt lat="43.84746" lon="3.73357">
        <ele>322</ele>
        <time>2014-04-01T08:07:12Z</time>
      </trkpt>
      <trkpt lat="43.84746" lon="3.73351">
        <ele>322</ele>
        <time>2014-04-01T08:07:17Z</time>
      </trkpt>
      <trkpt lat="43.84744" lon="3.73344">
        <ele>321</ele>
        <time>2014-04-01T08:07:22Z</time>
      </trkpt>
      <trkpt lat="43.84742" lon="3.73337">
        <ele>321</ele>
        <time>2014-04-01T08:07:26Z</time>
      </trkpt>
      <trkpt lat="43.84741" lon="3.73331">
        <ele>320</ele>
        <time>2014-04-01T08:07:30Z</time>
      </trkpt>
      <trkpt lat="43.8474" lon="3.73322">
        <ele>321</ele>
        <time>2014-04-01T08:07:35Z</time>
      </trkpt>
      <trkpt lat="43.84738" lon="3.73316">
        <ele>322</ele>
        <time>2014-04-01T08:07:38Z</time>
      </trkpt>
      <trkpt lat="43.84734" lon="3.73311">
        <ele>323</ele>
        <time>2014-04-01T08:07:43Z</time>
      </trkpt>
      <trkpt lat="43.84733" lon="3.73305">
        <ele>324</ele>
        <time>2014-04-01T08:07:46Z</time>
      </trkpt>
      <trkpt lat="43.84732" lon="3.73298">
        <ele>323</ele>
        <time>2014-04-01T08:07:50Z</time>
      </trkpt>
      <trkpt lat="43.84731" lon="3.7329">
        <ele>323</ele>
        <time>2014-04-01T08:07:55Z</time>
      </trkpt>
      <trkpt lat="43.84727" lon="3.73286">
        <ele>323</ele>
        <time>2014-04-01T08:07:59Z</time>
      </trkpt>
      <trkpt lat="43.84726" lon="3.73279">
        <ele>323</ele>
        <time>2014-04-01T08:08:04Z</time>
      </trkpt>
      <trkpt lat="43.84727" lon="3.73273">
        <ele>323</ele>
        <time>2014-04-01T08:08:07Z</time>
      </trkpt>
      <trkpt lat="43.84728" lon="3.73265">
        <ele>323</ele>
        <time>2014-04-01T08:08:11Z</time>
      </trkpt>
      <trkpt lat="43.84729" lon="3.73258">
        <ele>322</ele>
        <time>2014-04-01T08:08:14Z</time>
      </trkpt>
      <trkpt lat="43.84729" lon="3.7325">
        <ele>323</ele>
        <time>2014-04-01T08:08:17Z</time>
      </trkpt>
      <trkpt lat="43.84728" lon="3.73242">
        <ele>323</ele>
        <time>2014-04-01T08:08:20Z</time>
      </trkpt>
      <trkpt lat="43.84728" lon="3.73236">
        <ele>323</ele>
        <time>2014-04-01T08:08:23Z</time>
      </trkpt>
      <trkpt lat="43.84726" lon="3.73229">
        <ele>323</ele>
        <time>2014-04-01T08:08:29Z</time>
      </trkpt>
      <trkpt lat="43.84727" lon="3.73222">
        <ele>324</ele>
        <time>2014-04-01T08:08:33Z</time>
      </trkpt>
      <trkpt lat="43.84727" lon="3.73215">
        <ele>323</ele>
        <time>2014-04-01T08:08:38Z</time>
      </trkpt>
      <trkpt lat="43.84728" lon="3.73207">
        <ele>323</ele>
        <time>2014-04-01T08:08:43Z</time>
      </trkpt>
      <trkpt lat="43.84723" lon="3.73202">
        <ele>322</ele>
        <time>2014-04-01T08:08:50Z</time>
      </trkpt>
      <trkpt lat="43.84721" lon="3.73196">
        <ele>322</ele>
        <time>2014-04-01T08:08:55Z</time>
      </trkpt>
      <trkpt lat="43.84721" lon="3.73189">
        <ele>322</ele>
        <time>2014-04-01T08:09:00Z</time>
      </trkpt>
      <trkpt lat="43.84718" lon="3.73183">
        <ele>322</ele>
        <time>2014-04-01T08:09:04Z</time>
      </trkpt>
      <trkpt lat="43.8472" lon="3.73174">
        <ele>320</ele>
        <time>2014-04-01T08:09:14Z</time>
      </trkpt>
      <trkpt lat="43.84721" lon="3.73168">
        <ele>320</ele>
        <time>2014-04-01T08:09:18Z</time>
      </trkpt>
      <trkpt lat="43.84722" lon="3.73165">
        <ele>320</ele>
        <time>2014-04-01T08:09:25Z</time>
      </trkpt>
      <trkpt lat="43.84727" lon="3.7316">
        <ele>321</ele>
        <time>2014-04-01T08:09:34Z</time>
      </trkpt>
      <trkpt lat="43.84731" lon="3.73157">
        <ele>322</ele>
        <time>2014-04-01T08:09:37Z</time>
      </trkpt>
      <trkpt lat="43.84736" lon="3.73153">
        <ele>321</ele>
        <time>2014-04-01T08:09:42Z</time>
      </trkpt>
      <trkpt lat="43.84741" lon="3.73151">
        <ele>322</ele>
        <time>2014-04-01T08:09:45Z</time>
      </trkpt>
      <trkpt lat="43.84745" lon="3.73147">
        <ele>323</ele>
        <time>2014-04-01T08:09:50Z</time>
      </trkpt>
      <trkpt lat="43.84748" lon="3.73142">
        <ele>322</ele>
        <time>2014-04-01T08:09:56Z</time>
      </trkpt>
      <trkpt lat="43.84753" lon="3.73139">
        <ele>323</ele>
        <time>2014-04-01T08:10:00Z</time>
      </trkpt>
      <trkpt lat="43.84757" lon="3.73135">
        <ele>323</ele>
        <time>2014-04-01T08:10:04Z</time>
      </trkpt>
      <trkpt lat="43.84762" lon="3.73132">
        <ele>324</ele>
        <time>2014-04-01T08:10:09Z</time>
      </trkpt>
      <trkpt lat="43.84766" lon="3.73128">
        <ele>324</ele>
        <time>2014-04-01T08:10:14Z</time>
      </trkpt>
      <trkpt lat="43.84771" lon="3.73124">
        <ele>324</ele>
        <time>2014-04-01T08:10:18Z</time>
      </trkpt>
      <trkpt lat="43.84776" lon="3.73119">
        <ele>324</ele>
        <time>2014-04-01T08:10:23Z</time>
      </trkpt>
      <trkpt lat="43.8478" lon="3.73114">
        <ele>324</ele>
        <time>2014-04-01T08:10:25Z</time>
      </trkpt>
      <trkpt lat="43.84785" lon="3.7311">
        <ele>325</ele>
        <time>2014-04-01T08:10:30Z</time>
      </trkpt>
      <trkpt lat="43.8479" lon="3.73109">
        <ele>325</ele>
        <time>2014-04-01T08:10:35Z</time>
      </trkpt>
      <trkpt lat="43.84794" lon="3.73111">
        <ele>325</ele>
        <time>2014-04-01T08:10:39Z</time>
      </trkpt>
      <trkpt lat="43.848" lon="3.73111">
        <ele>325</ele>
        <time>2014-04-01T08:10:43Z</time>
      </trkpt>
      <trkpt lat="43.84805" lon="3.73111">
        <ele>324</ele>
        <time>2014-04-01T08:10:48Z</time>
      </trkpt>
      <trkpt lat="43.84809" lon="3.73113">
        <ele>324</ele>
        <time>2014-04-01T08:10:55Z</time>
      </trkpt>
      <trkpt lat="43.84814" lon="3.73113">
        <ele>324</ele>
        <time>2014-04-01T08:11:02Z</time>
      </trkpt>
      <trkpt lat="43.84819" lon="3.73113">
        <ele>325</ele>
        <time>2014-04-01T08:11:09Z</time>
      </trkpt>
      <trkpt lat="43.84825" lon="3.73114">
        <ele>326</ele>
        <time>2014-04-01T08:11:13Z</time>
      </trkpt>
      <trkpt lat="43.84829" lon="3.73114">
        <ele>327</ele>
        <time>2014-04-01T08:11:17Z</time>
      </trkpt>
      <trkpt lat="43.84834" lon="3.73115">
        <ele>328</ele>
        <time>2014-04-01T08:11:22Z</time>
      </trkpt>
      <trkpt lat="43.84838" lon="3.73118">
        <ele>329</ele>
        <time>2014-04-01T08:11:27Z</time>
      </trkpt>
      <trkpt lat="43.84843" lon="3.73119">
        <ele>330</ele>
        <time>2014-04-01T08:11:30Z</time>
      </trkpt>
      <trkpt lat="43.84848" lon="3.7312">
        <ele>333</ele>
        <time>2014-04-01T08:11:35Z</time>
      </trkpt>
      <trkpt lat="43.84848" lon="3.73112">
        <ele>334</ele>
        <time>2014-04-01T08:11:41Z</time>
      </trkpt>
      <trkpt lat="43.84844" lon="3.73107">
        <ele>335</ele>
        <time>2014-04-01T08:11:44Z</time>
      </trkpt>
      <trkpt lat="43.8484" lon="3.73104">
        <ele>335</ele>
        <time>2014-04-01T08:11:47Z</time>
      </trkpt>
      <trkpt lat="43.84837" lon="3.73098">
        <ele>334</ele>
        <time>2014-04-01T08:11:50Z</time>
      </trkpt>
      <trkpt lat="43.84836" lon="3.73091">
        <ele>333</ele>
        <time>2014-04-01T08:11:55Z</time>
      </trkpt>
      <trkpt lat="43.84831" lon="3.73087">
        <ele>332</ele>
        <time>2014-04-01T08:12:00Z</time>
      </trkpt>
      <trkpt lat="43.84827" lon="3.73083">
        <ele>331</ele>
        <time>2014-04-01T08:12:05Z</time>
      </trkpt>
      <trkpt lat="43.84824" lon="3.73077">
        <ele>330</ele>
        <time>2014-04-01T08:12:08Z</time>
      </trkpt>
      <trkpt lat="43.84821" lon="3.7307">
        <ele>328</ele>
        <time>2014-04-01T08:12:11Z</time>
      </trkpt>
      <trkpt lat="43.8482" lon="3.73062">
        <ele>327</ele>
        <time>2014-04-01T08:12:14Z</time>
      </trkpt>
      <trkpt lat="43.84817" lon="3.73056">
        <ele>327</ele>
        <time>2014-04-01T08:12:21Z</time>
      </trkpt>
      <trkpt lat="43.84813" lon="3.73052">
        <ele>326</ele>
        <time>2014-04-01T08:12:27Z</time>
      </trkpt>
      <trkpt lat="43.8481" lon="3.73045">
        <ele>325</ele>
        <time>2014-04-01T08:12:31Z</time>
      </trkpt>
      <trkpt lat="43.84807" lon="3.73039">
        <ele>326</ele>
        <time>2014-04-01T08:12:37Z</time>
      </trkpt>
      <trkpt lat="43.84804" lon="3.73032">
        <ele>327</ele>
        <time>2014-04-01T08:12:41Z</time>
      </trkpt>
      <trkpt lat="43.84801" lon="3.73027">
        <ele>327</ele>
        <time>2014-04-01T08:12:45Z</time>
      </trkpt>
      <trkpt lat="43.84799" lon="3.7302">
        <ele>327</ele>
        <time>2014-04-01T08:12:50Z</time>
      </trkpt>
      <trkpt lat="43.84799" lon="3.73017">
        <ele>326</ele>
        <time>2014-04-01T08:12:56Z</time>
      </trkpt>
      <trkpt lat="43.84796" lon="3.73012">
        <ele>326</ele>
        <time>2014-04-01T08:13:00Z</time>
      </trkpt>
      <trkpt lat="43.84792" lon="3.73006">
        <ele>326</ele>
        <time>2014-04-01T08:13:04Z</time>
      </trkpt>
      <trkpt lat="43.8479" lon="3.73001">
        <ele>325</ele>
        <time>2014-04-01T08:13:08Z</time>
      </trkpt>
      <trkpt lat="43.84786" lon="3.72995">
        <ele>325</ele>
        <time>2014-04-01T08:13:12Z</time>
      </trkpt>
      <trkpt lat="43.84783" lon="3.72989">
        <ele>325</ele>
        <time>2014-04-01T08:13:16Z</time>
      </trkpt>
      <trkpt lat="43.84781" lon="3.72984">
        <ele>325</ele>
        <time>2014-04-01T08:13:20Z</time>
      </trkpt>
      <trkpt lat="43.84777" lon="3.7298">
        <ele>324</ele>
        <time>2014-04-01T08:13:24Z</time>
      </trkpt>
      <trkpt lat="43.84774" lon="3.72975">
        <ele>325</ele>
        <time>2014-04-01T08:13:29Z</time>
      </trkpt>
      <trkpt lat="43.84774" lon="3.72967">
        <ele>325</ele>
        <time>2014-04-01T08:13:36Z</time>
      </trkpt>
      <trkpt lat="43.8477" lon="3.72964">
        <ele>321</ele>
        <time>2014-04-01T08:13:43Z</time>
      </trkpt>
      <trkpt lat="43.84767" lon="3.72958">
        <ele>321</ele>
        <time>2014-04-01T08:13:47Z</time>
      </trkpt>
      <trkpt lat="43.84765" lon="3.72952">
        <ele>322</ele>
        <time>2014-04-01T08:13:51Z</time>
      </trkpt>
      <trkpt lat="43.84762" lon="3.72945">
        <ele>321</ele>
        <time>2014-04-01T08:13:55Z</time>
      </trkpt>
      <trkpt lat="43.84758" lon="3.72939">
        <ele>320</ele>
        <time>2014-04-01T08:13:59Z</time>
      </trkpt>
      <trkpt lat="43.84755" lon="3.72934">
        <ele>320</ele>
        <time>2014-04-01T08:14:03Z</time>
      </trkpt>
      <trkpt lat="43.84752" lon="3.72928">
        <ele>321</ele>
        <time>2014-04-01T08:14:07Z</time>
      </trkpt>
      <trkpt lat="43.8475" lon="3.72922">
        <ele>320</ele>
        <time>2014-04-01T08:14:12Z</time>
      </trkpt>
      <trkpt lat="43.84746" lon="3.72918">
        <ele>320</ele>
        <time>2014-04-01T08:14:16Z</time>
      </trkpt>
      <trkpt lat="43.84743" lon="3.72915">
        <ele>319</ele>
        <time>2014-04-01T08:14:22Z</time>
      </trkpt>
      <trkpt lat="43.84738" lon="3.7291">
        <ele>319</ele>
        <time>2014-04-01T08:14:26Z</time>
      </trkpt>
      <trkpt lat="43.84735" lon="3.72906">
        <ele>319</ele>
        <time>2014-04-01T08:14:29Z</time>
      </trkpt>
      <trkpt lat="43.84731" lon="3.72902">
        <ele>318</ele>
        <time>2014-04-01T08:14:33Z</time>
      </trkpt>
      <trkpt lat="43.84728" lon="3.72896">
        <ele>318</ele>
        <time>2014-04-01T08:14:37Z</time>
      </trkpt>
      <trkpt lat="43.84727" lon="3.72889">
        <ele>318</ele>
        <time>2014-04-01T08:14:41Z</time>
      </trkpt>
      <trkpt lat="43.84728" lon="3.72882">
        <ele>319</ele>
        <time>2014-04-01T08:14:45Z</time>
      </trkpt>
      <trkpt lat="43.84728" lon="3.72876">
        <ele>319</ele>
        <time>2014-04-01T08:14:51Z</time>
      </trkpt>
      <trkpt lat="43.84728" lon="3.72869">
        <ele>319</ele>
        <time>2014-04-01T08:14:56Z</time>
      </trkpt>
      <trkpt lat="43.84728" lon="3.72862">
        <ele>320</ele>
        <time>2014-04-01T08:15:00Z</time>
      </trkpt>
      <trkpt lat="43.84728" lon="3.72855">
        <ele>320</ele>
        <time>2014-04-01T08:15:03Z</time>
      </trkpt>
      <trkpt lat="43.84728" lon="3.72847">
        <ele>320</ele>
        <time>2014-04-01T08:15:06Z</time>
      </trkpt>
      <trkpt lat="43.84727" lon="3.72841">
        <ele>319</ele>
        <time>2014-04-01T08:15:09Z</time>
      </trkpt>
      <trkpt lat="43.84725" lon="3.72834">
        <ele>319</ele>
        <time>2014-04-01T08:15:15Z</time>
      </trkpt>
      <trkpt lat="43.84724" lon="3.72828">
        <ele>318</ele>
        <time>2014-04-01T08:15:22Z</time>
      </trkpt>
      <trkpt lat="43.84724" lon="3.72821">
        <ele>318</ele>
        <time>2014-04-01T08:15:27Z</time>
      </trkpt>
      <trkpt lat="43.84723" lon="3.72814">
        <ele>317</ele>
        <time>2014-04-01T08:15:31Z</time>
      </trkpt>
      <trkpt lat="43.84723" lon="3.72808">
        <ele>316</ele>
        <time>2014-04-01T08:15:34Z</time>
      </trkpt>
      <trkpt lat="43.84723" lon="3.728">
        <ele>316</ele>
        <time>2014-04-01T08:15:38Z</time>
      </trkpt>
      <trkpt lat="43.84724" lon="3.72793">
        <ele>317</ele>
        <time>2014-04-01T08:15:43Z</time>
      </trkpt>
      <trkpt lat="43.84722" lon="3.72786">
        <ele>319</ele>
        <time>2014-04-01T08:15:49Z</time>
      </trkpt>
      <trkpt lat="43.84721" lon="3.72777">
        <ele>320</ele>
        <time>2014-04-01T08:15:59Z</time>
      </trkpt>
      <trkpt lat="43.84718" lon="3.7277">
        <ele>320</ele>
        <time>2014-04-01T08:16:05Z</time>
      </trkpt>
      <trkpt lat="43.84717" lon="3.72764">
        <ele>320</ele>
        <time>2014-04-01T08:16:09Z</time>
      </trkpt>
      <trkpt lat="43.84717" lon="3.72756">
        <ele>319</ele>
        <time>2014-04-01T08:16:13Z</time>
      </trkpt>
      <trkpt lat="43.84716" lon="3.72749">
        <ele>318</ele>
        <time>2014-04-01T08:16:18Z</time>
      </trkpt>
      <trkpt lat="43.84714" lon="3.72743">
        <ele>318</ele>
        <time>2014-04-01T08:16:25Z</time>
      </trkpt>
      <trkpt lat="43.84715" lon="3.72737">
        <ele>318</ele>
        <time>2014-04-01T08:16:29Z</time>
      </trkpt>
      <trkpt lat="43.84713" lon="3.72731">
        <ele>318</ele>
        <time>2014-04-01T08:16:32Z</time>
      </trkpt>
      <trkpt lat="43.8471" lon="3.72725">
        <ele>318</ele>
        <time>2014-04-01T08:16:35Z</time>
      </trkpt>
      <trkpt lat="43.84708" lon="3.72718">
        <ele>318</ele>
        <time>2014-04-01T08:16:39Z</time>
      </trkpt>
      <trkpt lat="43.84707" lon="3.72712">
        <ele>318</ele>
        <time>2014-04-01T08:16:42Z</time>
      </trkpt>
      <trkpt lat="43.84706" lon="3.72704">
        <ele>318</ele>
        <time>2014-04-01T08:16:46Z</time>
      </trkpt>
      <trkpt lat="43.84704" lon="3.72698">
        <ele>318</ele>
        <time>2014-04-01T08:16:51Z</time>
      </trkpt>
      <trkpt lat="43.84704" lon="3.72691">
        <ele>316</ele>
        <time>2014-04-01T08:16:58Z</time>
      </trkpt>
      <trkpt lat="43.84703" lon="3.72684">
        <ele>315</ele>
        <time>2014-04-01T08:17:02Z</time>
      </trkpt>
      <trkpt lat="43.84703" lon="3.72676">
        <ele>315</ele>
        <time>2014-04-01T08:17:08Z</time>
      </trkpt>
      <trkpt lat="43.84705" lon="3.72669">
        <ele>316</ele>
        <time>2014-04-01T08:17:12Z</time>
      </trkpt>
      <trkpt lat="43.84707" lon="3.72661">
        <ele>316</ele>
        <time>2014-04-01T08:17:17Z</time>
      </trkpt>
      <trkpt lat="43.84709" lon="3.72654">
        <ele>317</ele>
        <time>2014-04-01T08:17:21Z</time>
      </trkpt>
      <trkpt lat="43.84709" lon="3.72647">
        <ele>317</ele>
        <time>2014-04-01T08:17:26Z</time>
      </trkpt>
      <trkpt lat="43.84709" lon="3.72639">
        <ele>317</ele>
        <time>2014-04-01T08:17:32Z</time>
      </trkpt>
      <trkpt lat="43.84709" lon="3.72633">
        <ele>317</ele>
        <time>2014-04-01T08:17:35Z</time>
      </trkpt>
      <trkpt lat="43.84712" lon="3.72626">
        <ele>317</ele>
        <time>2014-04-01T08:17:40Z</time>
      </trkpt>
      <trkpt lat="43.84713" lon="3.72619">
        <ele>317</ele>
        <time>2014-04-01T08:17:45Z</time>
      </trkpt>
      <trkpt lat="43.84712" lon="3.72611">
        <ele>317</ele>
        <time>2014-04-01T08:17:49Z</time>
      </trkpt>
      <trkpt lat="43.84712" lon="3.72604">
        <ele>317</ele>
        <time>2014-04-01T08:17:53Z</time>
      </trkpt>
      <trkpt lat="43.84713" lon="3.72598">
        <ele>317</ele>
        <time>2014-04-01T08:17:57Z</time>
      </trkpt>
      <trkpt lat="43.84711" lon="3.72591">
        <ele>318</ele>
        <time>2014-04-01T08:18:04Z</time>
      </trkpt>
      <trkpt lat="43.84712" lon="3.72584">
        <ele>318</ele>
        <time>2014-04-01T08:18:08Z</time>
      </trkpt>
      <trkpt lat="43.84713" lon="3.72576">
        <ele>315</ele>
        <time>2014-04-01T08:18:14Z</time>
      </trkpt>
      <trkpt lat="43.84716" lon="3.72569">
        <ele>314</ele>
        <time>2014-04-01T08:18:17Z</time>
      </trkpt>
      <trkpt lat="43.84714" lon="3.72563">
        <ele>314</ele>
        <time>2014-04-01T08:18:22Z</time>
      </trkpt>
      <trkpt lat="43.84713" lon="3.72557">
        <ele>314</ele>
        <time>2014-04-01T08:18:27Z</time>
      </trkpt>
      <trkpt lat="43.84711" lon="3.7255">
        <ele>314</ele>
        <time>2014-04-01T08:18:32Z</time>
      </trkpt>
      <trkpt lat="43.84709" lon="3.72543">
        <ele>314</ele>
        <time>2014-04-01T08:18:36Z</time>
      </trkpt>
      <trkpt lat="43.84708" lon="3.72537">
        <ele>313</ele>
        <time>2014-04-01T08:18:40Z</time>
      </trkpt>
      <trkpt lat="43.84709" lon="3.7253">
        <ele>312</ele>
        <time>2014-04-01T08:18:44Z</time>
      </trkpt>
      <trkpt lat="43.84706" lon="3.72524">
        <ele>310</ele>
        <time>2014-04-01T08:18:50Z</time>
      </trkpt>
      <trkpt lat="43.84706" lon="3.72518">
        <ele>308</ele>
        <time>2014-04-01T08:18:56Z</time>
      </trkpt>
      <trkpt lat="43.84705" lon="3.72512">
        <ele>308</ele>
        <time>2014-04-01T08:19:02Z</time>
      </trkpt>
      <trkpt lat="43.84707" lon="3.72504">
        <ele>308</ele>
        <time>2014-04-01T08:19:09Z</time>
      </trkpt>
      <trkpt lat="43.84708" lon="3.72496">
        <ele>308</ele>
        <time>2014-04-01T08:19:12Z</time>
      </trkpt>
      <trkpt lat="43.84707" lon="3.72489">
        <ele>307</ele>
        <time>2014-04-01T08:19:15Z</time>
      </trkpt>
      <trkpt lat="43.84705" lon="3.72482">
        <ele>307</ele>
        <time>2014-04-01T08:19:20Z</time>
      </trkpt>
      <trkpt lat="43.84701" lon="3.72476">
        <ele>309</ele>
        <time>2014-04-01T08:19:24Z</time>
      </trkpt>
      <trkpt lat="43.84697" lon="3.72474">
        <ele>310</ele>
        <time>2014-04-01T08:19:29Z</time>
      </trkpt>
      <trkpt lat="43.84691" lon="3.72473">
        <ele>310</ele>
        <time>2014-04-01T08:19:34Z</time>
      </trkpt>
      <trkpt lat="43.84687" lon="3.7247">
        <ele>310</ele>
        <time>2014-04-01T08:19:37Z</time>
      </trkpt>
      <trkpt lat="43.84683" lon="3.72466">
        <ele>310</ele>
        <time>2014-04-01T08:19:41Z</time>
      </trkpt>
      <trkpt lat="43.84678" lon="3.72462">
        <ele>310</ele>
        <time>2014-04-01T08:19:47Z</time>
      </trkpt>
      <trkpt lat="43.84673" lon="3.72459">
        <ele>309</ele>
        <time>2014-04-01T08:19:50Z</time>
      </trkpt>
      <trkpt lat="43.84669" lon="3.72455">
        <ele>309</ele>
        <time>2014-04-01T08:19:54Z</time>
      </trkpt>
      <trkpt lat="43.84665" lon="3.72452">
        <ele>309</ele>
        <time>2014-04-01T08:19:58Z</time>
      </trkpt>
      <trkpt lat="43.84661" lon="3.72446">
        <ele>308</ele>
        <time>2014-04-01T08:20:03Z</time>
      </trkpt>
      <trkpt lat="43.84659" lon="3.72441">
        <ele>306</ele>
        <time>2014-04-01T08:20:07Z</time>
      </trkpt>
      <trkpt lat="43.84655" lon="3.72437">
        <ele>306</ele>
        <time>2014-04-01T08:20:12Z</time>
      </trkpt>
      <trkpt lat="43.8465" lon="3.72436">
        <ele>307</ele>
        <time>2014-04-01T08:20:16Z</time>
      </trkpt>
      <trkpt lat="43.84646" lon="3.72436">
        <ele>308</ele>
        <time>2014-04-01T08:20:22Z</time>
      </trkpt>
      <trkpt lat="43.84642" lon="3.72432">
        <ele>308</ele>
        <time>2014-04-01T08:20:25Z</time>
      </trkpt>
      <trkpt lat="43.84638" lon="3.72429">
        <ele>309</ele>
        <time>2014-04-01T08:20:28Z</time>
      </trkpt>
      <trkpt lat="43.84633" lon="3.72426">
        <ele>310</ele>
        <time>2014-04-01T08:20:32Z</time>
      </trkpt>
      <trkpt lat="43.8463" lon="3.72421">
        <ele>310</ele>
        <time>2014-04-01T08:20:36Z</time>
      </trkpt>
      <trkpt lat="43.84626" lon="3.72418">
        <ele>310</ele>
        <time>2014-04-01T08:20:40Z</time>
      </trkpt>
      <trkpt lat="43.84621" lon="3.72416">
        <ele>310</ele>
        <time>2014-04-01T08:20:44Z</time>
      </trkpt>
      <trkpt lat="43.84616" lon="3.72415">
        <ele>309</ele>
        <time>2014-04-01T08:20:51Z</time>
      </trkpt>
      <trkpt lat="43.84612" lon="3.72411">
        <ele>309</ele>
        <time>2014-04-01T08:20:55Z</time>
      </trkpt>
      <trkpt lat="43.84607" lon="3.72409">
        <ele>307</ele>
        <time>2014-04-01T08:21:03Z</time>
      </trkpt>
      <trkpt lat="43.84602" lon="3.72405">
        <ele>306</ele>
        <time>2014-04-01T08:21:07Z</time>
      </trkpt>
      <trkpt lat="43.84598" lon="3.72401">
        <ele>307</ele>
        <time>2014-04-01T08:21:10Z</time>
      </trkpt>
      <trkpt lat="43.84593" lon="3.72398">
        <ele>307</ele>
        <time>2014-04-01T08:21:14Z</time>
      </trkpt>
      <trkpt lat="43.84588" lon="3.72396">
        <ele>307</ele>
        <time>2014-04-01T08:21:19Z</time>
      </trkpt>
      <trkpt lat="43.84584" lon="3.72393">
        <ele>306</ele>
        <time>2014-04-01T08:21:24Z</time>
      </trkpt>
      <trkpt lat="43.84579" lon="3.7239">
        <ele>306</ele>
        <time>2014-04-01T08:21:31Z</time>
      </trkpt>
      <trkpt lat="43.84574" lon="3.72386">
        <ele>306</ele>
        <time>2014-04-01T08:21:35Z</time>
      </trkpt>
      <trkpt lat="43.8457" lon="3.72382">
        <ele>307</ele>
        <time>2014-04-01T08:21:38Z</time>
      </trkpt>
      <trkpt lat="43.84566" lon="3.72378">
        <ele>307</ele>
        <time>2014-04-01T08:21:43Z</time>
      </trkpt>
      <trkpt lat="43.84564" lon="3.72372">
        <ele>304</ele>
        <time>2014-04-01T08:21:49Z</time>
      </trkpt>
      <trkpt lat="43.8456" lon="3.72367">
        <ele>302</ele>
        <time>2014-04-01T08:21:54Z</time>
      </trkpt>
      <trkpt lat="43.84557" lon="3.72362">
        <ele>301</ele>
        <time>2014-04-01T08:21:59Z</time>
      </trkpt>
      <trkpt lat="43.84554" lon="3.72355">
        <ele>300</ele>
        <time>2014-04-01T08:22:04Z</time>
      </trkpt>
      <trkpt lat="43.84551" lon="3.7235">
        <ele>300</ele>
        <time>2014-04-01T08:22:09Z</time>
      </trkpt>
      <trkpt lat="43.84548" lon="3.72344">
        <ele>299</ele>
        <time>2014-04-01T08:22:15Z</time>
      </trkpt>
      <trkpt lat="43.84546" lon="3.72338">
        <ele>298</ele>
        <time>2014-04-01T08:22:21Z</time>
      </trkpt>
      <trkpt lat="43.84542" lon="3.72332">
        <ele>297</ele>
        <time>2014-04-01T08:22:26Z</time>
      </trkpt>
      <trkpt lat="43.84538" lon="3.72328">
        <ele>297</ele>
        <time>2014-04-01T08:22:29Z</time>
      </trkpt>
      <trkpt lat="43.84533" lon="3.72324">
        <ele>298</ele>
        <time>2014-04-01T08:22:34Z</time>
      </trkpt>
      <trkpt lat="43.84529" lon="3.7232">
        <ele>299</ele>
        <time>2014-04-01T08:22:39Z</time>
      </trkpt>
      <trkpt lat="43.84524" lon="3.72319">
        <ele>299</ele>
        <time>2014-04-01T08:22:44Z</time>
      </trkpt>
      <trkpt lat="43.8452" lon="3.72319">
        <ele>295</ele>
        <time>2014-04-01T08:22:52Z</time>
      </trkpt>
      <trkpt lat="43.84514" lon="3.7232">
        <ele>296</ele>
        <time>2014-04-01T08:22:56Z</time>
      </trkpt>
      <trkpt lat="43.84509" lon="3.72319">
        <ele>296</ele>
        <time>2014-04-01T08:22:59Z</time>
      </trkpt>
      <trkpt lat="43.84502" lon="3.72314">
        <ele>296</ele>
        <time>2014-04-01T08:23:05Z</time>
      </trkpt>
      <trkpt lat="43.84497" lon="3.7231">
        <ele>297</ele>
        <time>2014-04-01T08:23:09Z</time>
      </trkpt>
      <trkpt lat="43.84488" lon="3.72311">
        <ele>298</ele>
        <time>2014-04-01T08:23:13Z</time>
      </trkpt>
      <trkpt lat="43.84482" lon="3.72315">
        <ele>298</ele>
        <time>2014-04-01T08:23:15Z</time>
      </trkpt>
      <trkpt lat="43.84479" lon="3.72315">
        <ele>299</ele>
        <time>2014-04-01T08:23:17Z</time>
      </trkpt>
      <trkpt lat="43.84474" lon="3.72317">
        <ele>300</ele>
        <time>2014-04-01T08:23:25Z</time>
      </trkpt>
      <trkpt lat="43.84465" lon="3.72315">
        <ele>301</ele>
        <time>2014-04-01T08:23:33Z</time>
      </trkpt>
      <trkpt lat="43.8446" lon="3.72311">
        <ele>302</ele>
        <time>2014-04-01T08:23:38Z</time>
      </trkpt>
      <trkpt lat="43.84461" lon="3.72304">
        <ele>299</ele>
        <time>2014-04-01T08:23:43Z</time>
      </trkpt>
      <trkpt lat="43.84464" lon="3.72298">
        <ele>296</ele>
        <time>2014-04-01T08:23:47Z</time>
      </trkpt>
      <trkpt lat="43.84465" lon="3.72291">
        <ele>294</ele>
        <time>2014-04-01T08:23:50Z</time>
      </trkpt>
      <trkpt lat="43.84468" lon="3.72285">
        <ele>292</ele>
        <time>2014-04-01T08:23:54Z</time>
      </trkpt>
      <trkpt lat="43.84472" lon="3.72282">
        <ele>291</ele>
        <time>2014-04-01T08:23:59Z</time>
      </trkpt>
      <trkpt lat="43.84475" lon="3.72276">
        <ele>289</ele>
        <time>2014-04-01T08:24:03Z</time>
      </trkpt>
      <trkpt lat="43.84476" lon="3.7227">
        <ele>288</ele>
        <time>2014-04-01T08:24:07Z</time>
      </trkpt>
      <trkpt lat="43.84479" lon="3.72264">
        <ele>288</ele>
        <time>2014-04-01T08:24:13Z</time>
      </trkpt>
      <trkpt lat="43.84482" lon="3.72257">
        <ele>288</ele>
        <time>2014-04-01T08:24:16Z</time>
      </trkpt>
      <trkpt lat="43.84484" lon="3.72252">
        <ele>287</ele>
        <time>2014-04-01T08:24:22Z</time>
      </trkpt>
      <trkpt lat="43.84485" lon="3.72245">
        <ele>286</ele>
        <time>2014-04-01T08:24:29Z</time>
      </trkpt>
      <trkpt lat="43.84487" lon="3.72239">
        <ele>285</ele>
        <time>2014-04-01T08:24:37Z</time>
      </trkpt>
      <trkpt lat="43.8449" lon="3.72233">
        <ele>286</ele>
        <time>2014-04-01T08:24:41Z</time>
      </trkpt>
      <trkpt lat="43.84495" lon="3.72231">
        <ele>285</ele>
        <time>2014-04-01T08:24:44Z</time>
      </trkpt>
      <trkpt lat="43.84499" lon="3.72229">
        <ele>285</ele>
        <time>2014-04-01T08:24:48Z</time>
      </trkpt>
      <trkpt lat="43.84504" lon="3.72225">
        <ele>285</ele>
        <time>2014-04-01T08:24:53Z</time>
      </trkpt>
      <trkpt lat="43.84508" lon="3.72223">
        <ele>285</ele>
        <time>2014-04-01T08:24:56Z</time>
      </trkpt>
      <trkpt lat="43.84513" lon="3.72221">
        <ele>285</ele>
        <time>2014-04-01T08:25:00Z</time>
      </trkpt>
      <trkpt lat="43.84518" lon="3.72218">
        <ele>285</ele>
        <time>2014-04-01T08:25:05Z</time>
      </trkpt>
      <trkpt lat="43.84521" lon="3.72213">
        <ele>285</ele>
        <time>2014-04-01T08:25:10Z</time>
      </trkpt>
      <trkpt lat="43.84526" lon="3.7221">
        <ele>285</ele>
        <time>2014-04-01T08:25:14Z</time>
      </trkpt>
      <trkpt lat="43.8453" lon="3.72208">
        <ele>285</ele>
        <time>2014-04-01T08:25:18Z</time>
      </trkpt>
      <trkpt lat="43.84535" lon="3.72207">
        <ele>284</ele>
        <time>2014-04-01T08:25:22Z</time>
      </trkpt>
      <trkpt lat="43.84539" lon="3.72206">
        <ele>283</ele>
        <time>2014-04-01T08:25:27Z</time>
      </trkpt>
      <trkpt lat="43.84543" lon="3.72203">
        <ele>282</ele>
        <time>2014-04-01T08:25:32Z</time>
      </trkpt>
      <trkpt lat="43.84546" lon="3.72196">
        <ele>280</ele>
        <time>2014-04-01T08:25:38Z</time>
      </trkpt>
      <trkpt lat="43.84544" lon="3.7219">
        <ele>279</ele>
        <time>2014-04-01T08:25:42Z</time>
      </trkpt>
      <trkpt lat="43.8454" lon="3.72187">
        <ele>277</ele>
        <time>2014-04-01T08:25:47Z</time>
      </trkpt>
      <trkpt lat="43.84536" lon="3.72184">
        <ele>277</ele>
        <time>2014-04-01T08:25:54Z</time>
      </trkpt>
      <trkpt lat="43.84531" lon="3.72182">
        <ele>278</ele>
        <time>2014-04-01T08:25:58Z</time>
      </trkpt>
      <trkpt lat="43.84527" lon="3.72177">
        <ele>278</ele>
        <time>2014-04-01T08:26:01Z</time>
      </trkpt>
      <trkpt lat="43.84522" lon="3.72174">
        <ele>277</ele>
        <time>2014-04-01T08:26:06Z</time>
      </trkpt>
      <trkpt lat="43.84515" lon="3.72171">
        <ele>278</ele>
        <time>2014-04-01T08:26:16Z</time>
      </trkpt>
      <trkpt lat="43.8451" lon="3.72167">
        <ele>278</ele>
        <time>2014-04-01T08:26:19Z</time>
      </trkpt>
      <trkpt lat="43.84507" lon="3.72163">
        <ele>278</ele>
        <time>2014-04-01T08:26:23Z</time>
      </trkpt>
      <trkpt lat="43.84503" lon="3.72158">
        <ele>278</ele>
        <time>2014-04-01T08:26:29Z</time>
      </trkpt>
      <trkpt lat="43.84498" lon="3.72155">
        <ele>277</ele>
        <time>2014-04-01T08:26:33Z</time>
      </trkpt>
      <trkpt lat="43.84495" lon="3.7215">
        <ele>276</ele>
        <time>2014-04-01T08:26:40Z</time>
      </trkpt>
      <trkpt lat="43.84491" lon="3.72145">
        <ele>273</ele>
        <time>2014-04-01T08:26:47Z</time>
      </trkpt>
      <trkpt lat="43.84486" lon="3.72141">
        <ele>272</ele>
        <time>2014-04-01T08:26:51Z</time>
      </trkpt>
      <trkpt lat="43.84482" lon="3.72136">
        <ele>273</ele>
        <time>2014-04-01T08:26:54Z</time>
      </trkpt>
      <trkpt lat="43.84476" lon="3.72132">
        <ele>273</ele>
        <time>2014-04-01T08:26:58Z</time>
      </trkpt>
      <trkpt lat="43.84471" lon="3.72127">
        <ele>274</ele>
        <time>2014-04-01T08:27:02Z</time>
      </trkpt>
      <trkpt lat="43.84467" lon="3.72123">
        <ele>273</ele>
        <time>2014-04-01T08:27:07Z</time>
      </trkpt>
      <trkpt lat="43.84463" lon="3.7212">
        <ele>273</ele>
        <time>2014-04-01T08:27:11Z</time>
      </trkpt>
      <trkpt lat="43.84459" lon="3.72115">
        <ele>272</ele>
        <time>2014-04-01T08:27:16Z</time>
      </trkpt>
      <trkpt lat="43.84456" lon="3.7211">
        <ele>271</ele>
        <time>2014-04-01T08:27:21Z</time>
      </trkpt>
      <trkpt lat="43.84452" lon="3.72113">
        <ele>266</ele>
        <time>2014-04-01T08:27:30Z</time>
      </trkpt>
      <trkpt lat="43.84448" lon="3.7211">
        <ele>264</ele>
        <time>2014-04-01T08:27:37Z</time>
      </trkpt>
      <trkpt lat="43.84443" lon="3.72108">
        <ele>263</ele>
        <time>2014-04-01T08:27:41Z</time>
      </trkpt>
      <trkpt lat="43.84438" lon="3.72104">
        <ele>262</ele>
        <time>2014-04-01T08:27:45Z</time>
      </trkpt>
      <trkpt lat="43.84434" lon="3.72102">
        <ele>262</ele>
        <time>2014-04-01T08:27:49Z</time>
      </trkpt>
      <trkpt lat="43.84429" lon="3.721">
        <ele>261</ele>
        <time>2014-04-01T08:27:54Z</time>
      </trkpt>
      <trkpt lat="43.84424" lon="3.72098">
        <ele>261</ele>
        <time>2014-04-01T08:27:57Z</time>
      </trkpt>
      <trkpt lat="43.8442" lon="3.72095">
        <ele>262</ele>
        <time>2014-04-01T08:28:02Z</time>
      </trkpt>
      <trkpt lat="43.84415" lon="3.72094">
        <ele>262</ele>
        <time>2014-04-01T08:28:06Z</time>
      </trkpt>
      <trkpt lat="43.84411" lon="3.72092">
        <ele>261</ele>
        <time>2014-04-01T08:28:11Z</time>
      </trkpt>
      <trkpt lat="43.84409" lon="3.72085">
        <ele>261</ele>
        <time>2014-04-01T08:28:17Z</time>
      </trkpt>
      <trkpt lat="43.84409" lon="3.72078">
        <ele>261</ele>
        <time>2014-04-01T08:28:24Z</time>
      </trkpt>
      <trkpt lat="43.84413" lon="3.72073">
        <ele>260</ele>
        <time>2014-04-01T08:28:30Z</time>
      </trkpt>
      <trkpt lat="43.84415" lon="3.72067">
        <ele>260</ele>
        <time>2014-04-01T08:28:34Z</time>
      </trkpt>
      <trkpt lat="43.84419" lon="3.72066">
        <ele>259</ele>
        <time>2014-04-01T08:28:36Z</time>
      </trkpt>
      <trkpt lat="43.84424" lon="3.72063">
        <ele>258</ele>
        <time>2014-04-01T08:28:41Z</time>
      </trkpt>
      <trkpt lat="43.84428" lon="3.7206">
        <ele>258</ele>
        <time>2014-04-01T08:28:46Z</time>
      </trkpt>
      <trkpt lat="43.84433" lon="3.72057">
        <ele>257</ele>
        <time>2014-04-01T08:28:49Z</time>
      </trkpt>
      <trkpt lat="43.84437" lon="3.72054">
        <ele>255</ele>
        <time>2014-04-01T08:28:56Z</time>
      </trkpt>
      <trkpt lat="43.84441" lon="3.72049">
        <ele>253</ele>
        <time>2014-04-01T08:29:03Z</time>
      </trkpt>
      <trkpt lat="43.84443" lon="3.72048">
        <ele>252</ele>
        <time>2014-04-01T08:29:09Z</time>
      </trkpt>
      <trkpt lat="43.84448" lon="3.72045">
        <ele>252</ele>
        <time>2014-04-01T08:29:16Z</time>
      </trkpt>
      <trkpt lat="43.84453" lon="3.72042">
        <ele>251</ele>
        <time>2014-04-01T08:29:20Z</time>
      </trkpt>
      <trkpt lat="43.84459" lon="3.72043">
        <ele>251</ele>
        <time>2014-04-01T08:29:24Z</time>
      </trkpt>
      <trkpt lat="43.84463" lon="3.72044">
        <ele>251</ele>
        <time>2014-04-01T08:29:28Z</time>
      </trkpt>
      <trkpt lat="43.84468" lon="3.72044">
        <ele>252</ele>
        <time>2014-04-01T08:29:34Z</time>
      </trkpt>
      <trkpt lat="43.84473" lon="3.72044">
        <ele>254</ele>
        <time>2014-04-01T08:29:39Z</time>
      </trkpt>
      <trkpt lat="43.84478" lon="3.72043">
        <ele>256</ele>
        <time>2014-04-01T08:29:43Z</time>
      </trkpt>
      <trkpt lat="43.84483" lon="3.72043">
        <ele>256</ele>
        <time>2014-04-01T08:29:48Z</time>
      </trkpt>
      <trkpt lat="43.84488" lon="3.72042">
        <ele>255</ele>
        <time>2014-04-01T08:29:53Z</time>
      </trkpt>
      <trkpt lat="43.84494" lon="3.72043">
        <ele>255</ele>
        <time>2014-04-01T08:29:57Z</time>
      </trkpt>
      <trkpt lat="43.84492" lon="3.72036">
        <ele>252</ele>
        <time>2014-04-01T08:30:04Z</time>
      </trkpt>
      <trkpt lat="43.84488" lon="3.72034">
        <ele>249</ele>
        <time>2014-04-01T08:30:12Z</time>
      </trkpt>
      <trkpt lat="43.84486" lon="3.72031">
        <ele>247</ele>
        <time>2014-04-01T08:30:31Z</time>
      </trkpt>
      <trkpt lat="43.84483" lon="3.72026">
        <ele>246</ele>
        <time>2014-04-01T08:30:36Z</time>
      </trkpt>
      <trkpt lat="43.84477" lon="3.72022">
        <ele>244</ele>
        <time>2014-04-01T08:30:42Z</time>
      </trkpt>
      <trkpt lat="43.84472" lon="3.72023">
        <ele>244</ele>
        <time>2014-04-01T08:30:47Z</time>
      </trkpt>
      <trkpt lat="43.84467" lon="3.72024">
        <ele>242</ele>
        <time>2014-04-01T08:30:53Z</time>
      </trkpt>
      <trkpt lat="43.84463" lon="3.7202">
        <ele>241</ele>
        <time>2014-04-01T08:30:57Z</time>
      </trkpt>
      <trkpt lat="43.84459" lon="3.72018">
        <ele>239</ele>
        <time>2014-04-01T08:31:02Z</time>
      </trkpt>
      <trkpt lat="43.84455" lon="3.72015">
        <ele>239</ele>
        <time>2014-04-01T08:31:06Z</time>
      </trkpt>
      <trkpt lat="43.8445" lon="3.72011">
        <ele>239</ele>
        <time>2014-04-01T08:31:11Z</time>
      </trkpt>
      <trkpt lat="43.84445" lon="3.72008">
        <ele>239</ele>
        <time>2014-04-01T08:31:14Z</time>
      </trkpt>
      <trkpt lat="43.84441" lon="3.72006">
        <ele>240</ele>
        <time>2014-04-01T08:31:19Z</time>
      </trkpt>
      <trkpt lat="43.84436" lon="3.72006">
        <ele>241</ele>
        <time>2014-04-01T08:31:23Z</time>
      </trkpt>
      <trkpt lat="43.8443" lon="3.72008">
        <ele>242</ele>
        <time>2014-04-01T08:31:28Z</time>
      </trkpt>
      <trkpt lat="43.84425" lon="3.72007">
        <ele>242</ele>
        <time>2014-04-01T08:31:32Z</time>
      </trkpt>
      <trkpt lat="43.8442" lon="3.72008">
        <ele>243</ele>
        <time>2014-04-01T08:31:36Z</time>
      </trkpt>
      <trkpt lat="43.84415" lon="3.7201">
        <ele>243</ele>
        <time>2014-04-01T08:31:40Z</time>
      </trkpt>
      <trkpt lat="43.84409" lon="3.72012">
        <ele>243</ele>
        <time>2014-04-01T08:31:45Z</time>
      </trkpt>
      <trkpt lat="43.84404" lon="3.72012">
        <ele>244</ele>
        <time>2014-04-01T08:31:49Z</time>
      </trkpt>
      <trkpt lat="43.84399" lon="3.72012">
        <ele>244</ele>
        <time>2014-04-01T08:31:52Z</time>
      </trkpt>
      <trkpt lat="43.84394" lon="3.72007">
        <ele>244</ele>
        <time>2014-04-01T08:31:56Z</time>
      </trkpt>
      <trkpt lat="43.84391" lon="3.72003">
        <ele>244</ele>
        <time>2014-04-01T08:31:59Z</time>
      </trkpt>
      <trkpt lat="43.84387" lon="3.71999">
        <ele>243</ele>
        <time>2014-04-01T08:32:03Z</time>
      </trkpt>
      <trkpt lat="43.84382" lon="3.71997">
        <ele>243</ele>
        <time>2014-04-01T08:32:07Z</time>
      </trkpt>
      <trkpt lat="43.84377" lon="3.71997">
        <ele>244</ele>
        <time>2014-04-01T08:32:10Z</time>
      </trkpt>
      <trkpt lat="43.84372" lon="3.71998">
        <ele>244</ele>
        <time>2014-04-01T08:32:14Z</time>
      </trkpt>
      <trkpt lat="43.84368" lon="3.72001">
        <ele>243</ele>
        <time>2014-04-01T08:32:19Z</time>
      </trkpt>
      <trkpt lat="43.84366" lon="3.72009">
        <ele>242</ele>
        <time>2014-04-01T08:32:23Z</time>
      </trkpt>
      <trkpt lat="43.84365" lon="3.72016">
        <ele>241</ele>
        <time>2014-04-01T08:32:27Z</time>
      </trkpt>
      <trkpt lat="43.84367" lon="3.72018">
        <ele>241</ele>
        <time>2014-04-01T08:32:35Z</time>
      </trkpt>
      <trkpt lat="43.84372" lon="3.72015">
        <ele>241</ele>
        <time>2014-04-01T08:32:38Z</time>
      </trkpt>
      <trkpt lat="43.84372" lon="3.72021">
        <ele>240</ele>
        <time>2014-04-01T08:32:41Z</time>
      </trkpt>
      <trkpt lat="43.8437" lon="3.72029">
        <ele>239</ele>
        <time>2014-04-01T08:32:44Z</time>
      </trkpt>
      <trkpt lat="43.84367" lon="3.72036">
        <ele>239</ele>
        <time>2014-04-01T08:32:47Z</time>
      </trkpt>
      <trkpt lat="43.84365" lon="3.72041">
        <ele>238</ele>
        <time>2014-04-01T08:32:50Z</time>
      </trkpt>
      <trkpt lat="43.84364" lon="3.72049">
        <ele>238</ele>
        <time>2014-04-01T08:32:54Z</time>
      </trkpt>
      <trkpt lat="43.84368" lon="3.72053">
        <ele>235</ele>
        <time>2014-04-01T08:33:00Z</time>
      </trkpt>
      <trkpt lat="43.84371" lon="3.72058">
        <ele>232</ele>
        <time>2014-04-01T08:33:05Z</time>
      </trkpt>
      <trkpt lat="43.8437" lon="3.72064">
        <ele>230</ele>
        <time>2014-04-01T08:33:10Z</time>
      </trkpt>
      <trkpt lat="43.84369" lon="3.72072">
        <ele>230</ele>
        <time>2014-04-01T08:33:14Z</time>
      </trkpt>
      <trkpt lat="43.84368" lon="3.72079">
        <ele>230</ele>
        <time>2014-04-01T08:33:19Z</time>
      </trkpt>
      <trkpt lat="43.84367" lon="3.72087">
        <ele>231</ele>
        <time>2014-04-01T08:33:22Z</time>
      </trkpt>
      <trkpt lat="43.84365" lon="3.72093">
        <ele>232</ele>
        <time>2014-04-01T08:33:26Z</time>
      </trkpt>
      <trkpt lat="43.84363" lon="3.72099">
        <ele>234</ele>
        <time>2014-04-01T08:33:30Z</time>
      </trkpt>
      <trkpt lat="43.84359" lon="3.72104">
        <ele>236</ele>
        <time>2014-04-01T08:33:34Z</time>
      </trkpt>
      <trkpt lat="43.84355" lon="3.72106">
        <ele>237</ele>
        <time>2014-04-01T08:33:37Z</time>
      </trkpt>
      <trkpt lat="43.84353" lon="3.72112">
        <ele>237</ele>
        <time>2014-04-01T08:33:41Z</time>
      </trkpt>
      <trkpt lat="43.84351" lon="3.72118">
        <ele>237</ele>
        <time>2014-04-01T08:33:45Z</time>
      </trkpt>
      <trkpt lat="43.84349" lon="3.72124">
        <ele>238</ele>
        <time>2014-04-01T08:33:49Z</time>
      </trkpt>
      <trkpt lat="43.84343" lon="3.72125">
        <ele>238</ele>
        <time>2014-04-01T08:33:54Z</time>
      </trkpt>
      <trkpt lat="43.84337" lon="3.72125">
        <ele>238</ele>
        <time>2014-04-01T08:33:56Z</time>
      </trkpt>
      <trkpt lat="43.84329" lon="3.72128">
        <ele>238</ele>
        <time>2014-04-01T08:33:58Z</time>
      </trkpt>
      <trkpt lat="43.84325" lon="3.72132">
        <ele>238</ele>
        <time>2014-04-01T08:34:00Z</time>
      </trkpt>
      <trkpt lat="43.84323" lon="3.72138">
        <ele>237</ele>
        <time>2014-04-01T08:34:04Z</time>
      </trkpt>
      <trkpt lat="43.84323" lon="3.72145">
        <ele>236</ele>
        <time>2014-04-01T08:34:10Z</time>
      </trkpt>
      <trkpt lat="43.84318" lon="3.72148">
        <ele>235</ele>
        <time>2014-04-01T08:34:12Z</time>
      </trkpt>
      <trkpt lat="43.84313" lon="3.72146">
        <ele>235</ele>
        <time>2014-04-01T08:34:13Z</time>
      </trkpt>
      <trkpt lat="43.84309" lon="3.72143">
        <ele>236</ele>
        <time>2014-04-01T08:34:15Z</time>
      </trkpt>
      <trkpt lat="43.84306" lon="3.72146">
        <ele>236</ele>
        <time>2014-04-01T08:34:31Z</time>
      </trkpt>
      <trkpt lat="43.84301" lon="3.72145">
        <ele>236</ele>
        <time>2014-04-01T08:34:35Z</time>
      </trkpt>
      <trkpt lat="43.84297" lon="3.72145">
        <ele>236</ele>
        <time>2014-04-01T08:34:37Z</time>
      </trkpt>
      <trkpt lat="43.84292" lon="3.72145">
        <ele>236</ele>
        <time>2014-04-01T08:34:40Z</time>
      </trkpt>
      <trkpt lat="43.84288" lon="3.72142">
        <ele>235</ele>
        <time>2014-04-01T08:34:46Z</time>
      </trkpt>
      <trkpt lat="43.84291" lon="3.72135">
        <ele>231</ele>
        <time>2014-04-01T08:35:00Z</time>
      </trkpt>
      <trkpt lat="43.843" lon="3.72122">
        <ele>221</ele>
        <time>2014-04-01T08:35:12Z</time>
      </trkpt>
      <trkpt lat="43.84303" lon="3.72123">
        <ele>218</ele>
        <time>2014-04-01T08:35:18Z</time>
      </trkpt>
      <trkpt lat="43.84308" lon="3.72122">
        <ele>215</ele>
        <time>2014-04-01T08:35:26Z</time>
      </trkpt>
      <trkpt lat="43.84311" lon="3.72116">
        <ele>214</ele>
        <time>2014-04-01T08:35:30Z</time>
      </trkpt>
      <trkpt lat="43.84315" lon="3.72113">
        <ele>214</ele>
        <time>2014-04-01T08:35:35Z</time>
      </trkpt>
      <trkpt lat="43.84319" lon="3.72109">
        <ele>213</ele>
        <time>2014-04-01T08:35:41Z</time>
      </trkpt>
      <trkpt lat="43.84324" lon="3.72106">
        <ele>211</ele>
        <time>2014-04-01T08:35:46Z</time>
      </trkpt>
      <trkpt lat="43.84327" lon="3.72102">
        <ele>211</ele>
        <time>2014-04-01T08:35:52Z</time>
      </trkpt>
      <trkpt lat="43.8433" lon="3.72096">
        <ele>210</ele>
        <time>2014-04-01T08:35:58Z</time>
      </trkpt>
      <trkpt lat="43.84334" lon="3.72091">
        <ele>210</ele>
        <time>2014-04-01T08:36:03Z</time>
      </trkpt>
      <trkpt lat="43.84334" lon="3.72081">
        <ele>208</ele>
        <time>2014-04-01T08:36:15Z</time>
      </trkpt>
      <trkpt lat="43.8433" lon="3.72077">
        <ele>208</ele>
        <time>2014-04-01T08:36:22Z</time>
      </trkpt>
      <trkpt lat="43.84328" lon="3.72075">
        <ele>208</ele>
        <time>2014-04-01T08:36:28Z</time>
      </trkpt>
      <trkpt lat="43.8433" lon="3.72069">
        <ele>208</ele>
        <time>2014-04-01T08:36:33Z</time>
      </trkpt>
      <trkpt lat="43.8433" lon="3.72063">
        <ele>208</ele>
        <time>2014-04-01T08:36:38Z</time>
      </trkpt>
      <trkpt lat="43.8433" lon="3.72055">
        <ele>208</ele>
        <time>2014-04-01T08:36:42Z</time>
      </trkpt>
      <trkpt lat="43.84331" lon="3.72048">
        <ele>209</ele>
        <time>2014-04-01T08:36:50Z</time>
      </trkpt>
      <trkpt lat="43.8433" lon="3.72041">
        <ele>209</ele>
        <time>2014-04-01T08:36:54Z</time>
      </trkpt>
      <trkpt lat="43.8433" lon="3.72034">
        <ele>209</ele>
        <time>2014-04-01T08:36:56Z</time>
      </trkpt>
      <trkpt lat="43.8433" lon="3.72028">
        <ele>210</ele>
        <time>2014-04-01T08:36:58Z</time>
      </trkpt>
      <trkpt lat="43.84328" lon="3.72022">
        <ele>210</ele>
        <time>2014-04-01T08:37:01Z</time>
      </trkpt>
      <trkpt lat="43.84325" lon="3.72018">
        <ele>210</ele>
        <time>2014-04-01T08:37:03Z</time>
      </trkpt>
      <trkpt lat="43.84323" lon="3.72012">
        <ele>209</ele>
        <time>2014-04-01T08:37:08Z</time>
      </trkpt>
      <trkpt lat="43.84325" lon="3.72004">
        <ele>208</ele>
        <time>2014-04-01T08:37:12Z</time>
      </trkpt>
      <trkpt lat="43.84325" lon="3.71997">
        <ele>211</ele>
        <time>2014-04-01T08:37:18Z</time>
      </trkpt>
      <trkpt lat="43.84325" lon="3.71991">
        <ele>212</ele>
        <time>2014-04-01T08:37:22Z</time>
      </trkpt>
      <trkpt lat="43.84329" lon="3.71988">
        <ele>210</ele>
        <time>2014-04-01T08:37:28Z</time>
      </trkpt>
      <trkpt lat="43.84333" lon="3.71984">
        <ele>209</ele>
        <time>2014-04-01T08:37:32Z</time>
      </trkpt>
      <trkpt lat="43.84337" lon="3.71979">
        <ele>209</ele>
        <time>2014-04-01T08:37:35Z</time>
      </trkpt>
      <trkpt lat="43.8434" lon="3.71973">
        <ele>207</ele>
        <time>2014-04-01T08:37:39Z</time>
      </trkpt>
      <trkpt lat="43.84339" lon="3.71969">
        <ele>205</ele>
        <time>2014-04-01T08:37:46Z</time>
      </trkpt>
      <trkpt lat="43.84343" lon="3.71964">
        <ele>205</ele>
        <time>2014-04-01T08:37:50Z</time>
      </trkpt>
      <trkpt lat="43.84345" lon="3.71957">
        <ele>205</ele>
        <time>2014-04-01T08:37:52Z</time>
      </trkpt>
      <trkpt lat="43.84346" lon="3.71954">
        <ele>205</ele>
        <time>2014-04-01T08:37:53Z</time>
      </trkpt>
      <trkpt lat="43.84351" lon="3.71948">
        <ele>205</ele>
        <time>2014-04-01T08:38:01Z</time>
      </trkpt>
      <trkpt lat="43.84355" lon="3.71943">
        <ele>204</ele>
        <time>2014-04-01T08:38:05Z</time>
      </trkpt>
      <trkpt lat="43.84356" lon="3.71937">
        <ele>205</ele>
        <time>2014-04-01T08:38:13Z</time>
      </trkpt>
      <trkpt lat="43.8436" lon="3.71933">
        <ele>205</ele>
        <time>2014-04-01T08:38:17Z</time>
      </trkpt>
      <trkpt lat="43.8437" lon="3.7193">
        <ele>203</ele>
        <time>2014-04-01T08:38:29Z</time>
      </trkpt>
      <trkpt lat="43.84374" lon="3.71926">
        <ele>202</ele>
        <time>2014-04-01T08:38:33Z</time>
      </trkpt>
      <trkpt lat="43.84375" lon="3.71918">
        <ele>202</ele>
        <time>2014-04-01T08:38:37Z</time>
      </trkpt>
      <trkpt lat="43.84376" lon="3.71906">
        <ele>201</ele>
        <time>2014-04-01T08:38:39Z</time>
      </trkpt>
      <trkpt lat="43.84379" lon="3.71907">
        <ele>201</ele>
        <time>2014-04-01T08:38:46Z</time>
      </trkpt>
      <trkpt lat="43.84384" lon="3.71906">
        <ele>201</ele>
        <time>2014-04-01T08:38:53Z</time>
      </trkpt>
      <trkpt lat="43.84386" lon="3.71906">
        <ele>199</ele>
        <time>2014-04-01T08:38:58Z</time>
      </trkpt>
      <trkpt lat="43.84385" lon="3.719">
        <ele>198</ele>
        <time>2014-04-01T08:39:06Z</time>
      </trkpt>
      <trkpt lat="43.84384" lon="3.71893">
        <ele>199</ele>
        <time>2014-04-01T08:39:14Z</time>
      </trkpt>
      <trkpt lat="43.84386" lon="3.71887">
        <ele>199</ele>
        <time>2014-04-01T08:39:18Z</time>
      </trkpt>
      <trkpt lat="43.8439" lon="3.71883">
        <ele>199</ele>
        <time>2014-04-01T08:39:25Z</time>
      </trkpt>
      <trkpt lat="43.84395" lon="3.71882">
        <ele>200</ele>
        <time>2014-04-01T08:39:31Z</time>
      </trkpt>
      <trkpt lat="43.84399" lon="3.71876">
        <ele>200</ele>
        <time>2014-04-01T08:39:35Z</time>
      </trkpt>
      <trkpt lat="43.84402" lon="3.7188">
        <ele>201</ele>
        <time>2014-04-01T08:39:57Z</time>
      </trkpt>
      <trkpt lat="43.84407" lon="3.71882">
        <ele>202</ele>
        <time>2014-04-01T08:40:05Z</time>
      </trkpt>
      <trkpt lat="43.84414" lon="3.71882">
        <ele>202</ele>
        <time>2014-04-01T08:40:09Z</time>
      </trkpt>
      <trkpt lat="43.84419" lon="3.71884">
        <ele>201</ele>
        <time>2014-04-01T08:40:12Z</time>
      </trkpt>
      <trkpt lat="43.84423" lon="3.71882">
        <ele>201</ele>
        <time>2014-04-01T08:40:20Z</time>
      </trkpt>
      <trkpt lat="43.84428" lon="3.71884">
        <ele>200</ele>
        <time>2014-04-01T08:40:23Z</time>
      </trkpt>
      <trkpt lat="43.84433" lon="3.71888">
        <ele>199</ele>
        <time>2014-04-01T08:40:28Z</time>
      </trkpt>
      <trkpt lat="43.84438" lon="3.71889">
        <ele>197</ele>
        <time>2014-04-01T08:40:34Z</time>
      </trkpt>
      <trkpt lat="43.84442" lon="3.71894">
        <ele>197</ele>
        <time>2014-04-01T08:40:40Z</time>
      </trkpt>
      <trkpt lat="43.84446" lon="3.71897">
        <ele>197</ele>
        <time>2014-04-01T08:40:43Z</time>
      </trkpt>
      <trkpt lat="43.84451" lon="3.71899">
        <ele>197</ele>
        <time>2014-04-01T08:40:46Z</time>
      </trkpt>
      <trkpt lat="43.84456" lon="3.71899">
        <ele>197</ele>
        <time>2014-04-01T08:40:48Z</time>
      </trkpt>
      <trkpt lat="43.84461" lon="3.71896">
        <ele>195</ele>
        <time>2014-04-01T08:40:54Z</time>
      </trkpt>
      <trkpt lat="43.84466" lon="3.71895">
        <ele>193</ele>
        <time>2014-04-01T08:41:01Z</time>
      </trkpt>
      <trkpt lat="43.8447" lon="3.7189">
        <ele>193</ele>
        <time>2014-04-01T08:41:05Z</time>
      </trkpt>
      <trkpt lat="43.84476" lon="3.7189">
        <ele>194</ele>
        <time>2014-04-01T08:41:09Z</time>
      </trkpt>
      <trkpt lat="43.8448" lon="3.71894">
        <ele>194</ele>
        <time>2014-04-01T08:41:15Z</time>
      </trkpt>
      <trkpt lat="43.84483" lon="3.71897">
        <ele>193</ele>
        <time>2014-04-01T08:41:24Z</time>
      </trkpt>
      <trkpt lat="43.84488" lon="3.71898">
        <ele>193</ele>
        <time>2014-04-01T08:41:29Z</time>
      </trkpt>
      <trkpt lat="43.84493" lon="3.71899">
        <ele>193</ele>
        <time>2014-04-01T08:41:34Z</time>
      </trkpt>
      <trkpt lat="43.84495" lon="3.71902">
        <ele>194</ele>
        <time>2014-04-01T08:41:40Z</time>
      </trkpt>
      <trkpt lat="43.84501" lon="3.71904">
        <ele>195</ele>
        <time>2014-04-01T08:41:46Z</time>
      </trkpt>
      <trkpt lat="43.84507" lon="3.71903">
        <ele>196</ele>
        <time>2014-04-01T08:41:49Z</time>
      </trkpt>
      <trkpt lat="43.84513" lon="3.71902">
        <ele>196</ele>
        <time>2014-04-01T08:41:53Z</time>
      </trkpt>
      <trkpt lat="43.8452" lon="3.71903">
        <ele>194</ele>
        <time>2014-04-01T08:42:03Z</time>
      </trkpt>
      <trkpt lat="43.84525" lon="3.71903">
        <ele>193</ele>
        <time>2014-04-01T08:42:07Z</time>
      </trkpt>
      <trkpt lat="43.84531" lon="3.71904">
        <ele>193</ele>
        <time>2014-04-01T08:42:11Z</time>
      </trkpt>
      <trkpt lat="43.84536" lon="3.71902">
        <ele>193</ele>
        <time>2014-04-01T08:42:15Z</time>
      </trkpt>
      <trkpt lat="43.84539" lon="3.71898">
        <ele>193</ele>
        <time>2014-04-01T08:42:20Z</time>
      </trkpt>
      <trkpt lat="43.8454" lon="3.71892">
        <ele>192</ele>
        <time>2014-04-01T08:42:25Z</time>
      </trkpt>
      <trkpt lat="43.84544" lon="3.71886">
        <ele>191</ele>
        <time>2014-04-01T08:42:34Z</time>
      </trkpt>
      <trkpt lat="43.84549" lon="3.71885">
        <ele>191</ele>
        <time>2014-04-01T08:42:41Z</time>
      </trkpt>
      <trkpt lat="43.84554" lon="3.71884">
        <ele>190</ele>
        <time>2014-04-01T08:42:46Z</time>
      </trkpt>
      <trkpt lat="43.84559" lon="3.71881">
        <ele>189</ele>
        <time>2014-04-01T08:42:51Z</time>
      </trkpt>
      <trkpt lat="43.84563" lon="3.71877">
        <ele>186</ele>
        <time>2014-04-01T08:42:58Z</time>
      </trkpt>
      <trkpt lat="43.84567" lon="3.71872">
        <ele>185</ele>
        <time>2014-04-01T08:43:02Z</time>
      </trkpt>
      <trkpt lat="43.84574" lon="3.7186">
        <ele>177</ele>
        <time>2014-04-01T08:43:18Z</time>
      </trkpt>
      <trkpt lat="43.84577" lon="3.71855">
        <ele>177</ele>
        <time>2014-04-01T08:43:22Z</time>
      </trkpt>
      <trkpt lat="43.84582" lon="3.71855">
        <ele>176</ele>
        <time>2014-04-01T08:43:26Z</time>
      </trkpt>
      <trkpt lat="43.84587" lon="3.71855">
        <ele>175</ele>
        <time>2014-04-01T08:43:31Z</time>
      </trkpt>
      <trkpt lat="43.84592" lon="3.71856">
        <ele>174</ele>
        <time>2014-04-01T08:43:36Z</time>
      </trkpt>
      <trkpt lat="43.84596" lon="3.71852">
        <ele>171</ele>
        <time>2014-04-01T08:43:42Z</time>
      </trkpt>
      <trkpt lat="43.84599" lon="3.71845">
        <ele>170</ele>
        <time>2014-04-01T08:43:47Z</time>
      </trkpt>
      <trkpt lat="43.84602" lon="3.71838">
        <ele>170</ele>
        <time>2014-04-01T08:43:49Z</time>
      </trkpt>
      <trkpt lat="43.84606" lon="3.71833">
        <ele>171</ele>
        <time>2014-04-01T08:43:52Z</time>
      </trkpt>
      <trkpt lat="43.8461" lon="3.71834">
        <ele>170</ele>
        <time>2014-04-01T08:44:05Z</time>
      </trkpt>
      <trkpt lat="43.84615" lon="3.71834">
        <ele>170</ele>
        <time>2014-04-01T08:44:12Z</time>
      </trkpt>
      <trkpt lat="43.84619" lon="3.71835">
        <ele>170</ele>
        <time>2014-04-01T08:44:16Z</time>
      </trkpt>
      <trkpt lat="43.84623" lon="3.71831">
        <ele>170</ele>
        <time>2014-04-01T08:44:21Z</time>
      </trkpt>
      <trkpt lat="43.84626" lon="3.71826">
        <ele>170</ele>
        <time>2014-04-01T08:44:24Z</time>
      </trkpt>
      <trkpt lat="43.8463" lon="3.71821">
        <ele>170</ele>
        <time>2014-04-01T08:44:30Z</time>
      </trkpt>
      <trkpt lat="43.84635" lon="3.7182">
        <ele>171</ele>
        <time>2014-04-01T08:44:35Z</time>
      </trkpt>
      <trkpt lat="43.84632" lon="3.71814">
        <ele>172</ele>
        <time>2014-04-01T08:44:49Z</time>
      </trkpt>
      <trkpt lat="43.84633" lon="3.71806">
        <ele>172</ele>
        <time>2014-04-01T08:44:51Z</time>
      </trkpt>
      <trkpt lat="43.84634" lon="3.71798">
        <ele>172</ele>
        <time>2014-04-01T08:44:53Z</time>
      </trkpt>
      <trkpt lat="43.84635" lon="3.71794">
        <ele>172</ele>
        <time>2014-04-01T08:44:55Z</time>
      </trkpt>
      <trkpt lat="43.84635" lon="3.71785">
        <ele>171</ele>
        <time>2014-04-01T08:45:02Z</time>
      </trkpt>
      <trkpt lat="43.84636" lon="3.71778">
        <ele>170</ele>
        <time>2014-04-01T08:45:08Z</time>
      </trkpt>
      <trkpt lat="43.84636" lon="3.71772">
        <ele>169</ele>
        <time>2014-04-01T08:45:13Z</time>
      </trkpt>
      <trkpt lat="43.84636" lon="3.71765">
        <ele>168</ele>
        <time>2014-04-01T08:45:20Z</time>
      </trkpt>
      <trkpt lat="43.84635" lon="3.71758">
        <ele>168</ele>
        <time>2014-04-01T08:45:24Z</time>
      </trkpt>
      <trkpt lat="43.84634" lon="3.71752">
        <ele>168</ele>
        <time>2014-04-01T08:45:28Z</time>
      </trkpt>
      <trkpt lat="43.84636" lon="3.71744">
        <ele>168</ele>
        <time>2014-04-01T08:45:31Z</time>
      </trkpt>
      <trkpt lat="43.8464" lon="3.71741">
        <ele>167</ele>
        <time>2014-04-01T08:45:36Z</time>
      </trkpt>
      <trkpt lat="43.84644" lon="3.71737">
        <ele>169</ele>
        <time>2014-04-01T08:45:42Z</time>
      </trkpt>
      <trkpt lat="43.84646" lon="3.7173">
        <ele>170</ele>
        <time>2014-04-01T08:45:46Z</time>
      </trkpt>
      <trkpt lat="43.84648" lon="3.71722">
        <ele>170</ele>
        <time>2014-04-01T08:45:50Z</time>
      </trkpt>
      <trkpt lat="43.84647" lon="3.71716">
        <ele>169</ele>
        <time>2014-04-01T08:45:56Z</time>
      </trkpt>
      <trkpt lat="43.8465" lon="3.7171">
        <ele>168</ele>
        <time>2014-04-01T08:46:01Z</time>
      </trkpt>
      <trkpt lat="43.84654" lon="3.71707">
        <ele>167</ele>
        <time>2014-04-01T08:46:08Z</time>
      </trkpt>
      <trkpt lat="43.84657" lon="3.71701">
        <ele>165</ele>
        <time>2014-04-01T08:46:12Z</time>
      </trkpt>
      <trkpt lat="43.84656" lon="3.71695">
        <ele>164</ele>
        <time>2014-04-01T08:46:18Z</time>
      </trkpt>
      <trkpt lat="43.84658" lon="3.71688">
        <ele>162</ele>
        <time>2014-04-01T08:46:23Z</time>
      </trkpt>
      <trkpt lat="43.84662" lon="3.71683">
        <ele>162</ele>
        <time>2014-04-01T08:46:27Z</time>
      </trkpt>
      <trkpt lat="43.84665" lon="3.71677">
        <ele>162</ele>
        <time>2014-04-01T08:46:31Z</time>
      </trkpt>
      <trkpt lat="43.84668" lon="3.71672">
        <ele>162</ele>
        <time>2014-04-01T08:46:36Z</time>
      </trkpt>
      <trkpt lat="43.84674" lon="3.71665">
        <ele>163</ele>
        <time>2014-04-01T08:46:43Z</time>
      </trkpt>
      <trkpt lat="43.84679" lon="3.71664">
        <ele>162</ele>
        <time>2014-04-01T08:46:48Z</time>
      </trkpt>
      <trkpt lat="43.84684" lon="3.71663">
        <ele>162</ele>
        <time>2014-04-01T08:46:52Z</time>
      </trkpt>
      <trkpt lat="43.84688" lon="3.71663">
        <ele>162</ele>
        <time>2014-04-01T08:46:57Z</time>
      </trkpt>
      <trkpt lat="43.84693" lon="3.71664">
        <ele>163</ele>
        <time>2014-04-01T08:47:01Z</time>
      </trkpt>
      <trkpt lat="43.84698" lon="3.71664">
        <ele>165</ele>
        <time>2014-04-01T08:47:05Z</time>
      </trkpt>
      <trkpt lat="43.84703" lon="3.71664">
        <ele>166</ele>
        <time>2014-04-01T08:47:09Z</time>
      </trkpt>
      <trkpt lat="43.84709" lon="3.71662">
        <ele>167</ele>
        <time>2014-04-01T08:47:13Z</time>
      </trkpt>
      <trkpt lat="43.84713" lon="3.71661">
        <ele>168</ele>
        <time>2014-04-01T08:47:18Z</time>
      </trkpt>
      <trkpt lat="43.84718" lon="3.71663">
        <ele>168</ele>
        <time>2014-04-01T08:47:21Z</time>
      </trkpt>
      <trkpt lat="43.84722" lon="3.71659">
        <ele>168</ele>
        <time>2014-04-01T08:47:31Z</time>
      </trkpt>
      <trkpt lat="43.84727" lon="3.71657">
        <ele>167</ele>
        <time>2014-04-01T08:47:35Z</time>
      </trkpt>
      <trkpt lat="43.84731" lon="3.71653">
        <ele>166</ele>
        <time>2014-04-01T08:47:39Z</time>
      </trkpt>
      <trkpt lat="43.84735" lon="3.71649">
        <ele>166</ele>
        <time>2014-04-01T08:47:43Z</time>
      </trkpt>
      <trkpt lat="43.8474" lon="3.71649">
        <ele>165</ele>
        <time>2014-04-01T08:47:48Z</time>
      </trkpt>
      <trkpt lat="43.84746" lon="3.71653">
        <ele>165</ele>
        <time>2014-04-01T08:47:52Z</time>
      </trkpt>
      <trkpt lat="43.8475" lon="3.71654">
        <ele>165</ele>
        <time>2014-04-01T08:47:56Z</time>
      </trkpt>
      <trkpt lat="43.84756" lon="3.71655">
        <ele>166</ele>
        <time>2014-04-01T08:48:01Z</time>
      </trkpt>
      <trkpt lat="43.8476" lon="3.71657">
        <ele>166</ele>
        <time>2014-04-01T08:48:05Z</time>
      </trkpt>
      <trkpt lat="43.84764" lon="3.71662">
        <ele>166</ele>
        <time>2014-04-01T08:48:06Z</time>
      </trkpt>
      <trkpt lat="43.84769" lon="3.71666">
        <ele>166</ele>
        <time>2014-04-01T08:48:10Z</time>
      </trkpt>
      <trkpt lat="43.84773" lon="3.71661">
        <ele>167</ele>
        <time>2014-04-01T08:48:15Z</time>
      </trkpt>
      <trkpt lat="43.84776" lon="3.71657">
        <ele>167</ele>
        <time>2014-04-01T08:48:19Z</time>
      </trkpt>
      <trkpt lat="43.84781" lon="3.71654">
        <ele>164</ele>
        <time>2014-04-01T08:48:26Z</time>
      </trkpt>
      <trkpt lat="43.84786" lon="3.71653">
        <ele>164</ele>
        <time>2014-04-01T08:48:33Z</time>
      </trkpt>
      <trkpt lat="43.84792" lon="3.71653">
        <ele>163</ele>
        <time>2014-04-01T08:48:36Z</time>
      </trkpt>
      <trkpt lat="43.84797" lon="3.71652">
        <ele>162</ele>
        <time>2014-04-01T08:48:41Z</time>
      </trkpt>
      <trkpt lat="43.84801" lon="3.71648">
        <ele>162</ele>
        <time>2014-04-01T08:48:45Z</time>
      </trkpt>
      <trkpt lat="43.84806" lon="3.71645">
        <ele>161</ele>
        <time>2014-04-01T08:48:51Z</time>
      </trkpt>
      <trkpt lat="43.84811" lon="3.71644">
        <ele>161</ele>
        <time>2014-04-01T08:48:54Z</time>
      </trkpt>
      <trkpt lat="43.84818" lon="3.71643">
        <ele>158</ele>
        <time>2014-04-01T08:48:57Z</time>
      </trkpt>
      <trkpt lat="43.84823" lon="3.71643">
        <ele>156</ele>
        <time>2014-04-01T08:49:00Z</time>
      </trkpt>
      <trkpt lat="43.84827" lon="3.71646">
        <ele>154</ele>
        <time>2014-04-01T08:49:05Z</time>
      </trkpt>
      <trkpt lat="43.84832" lon="3.71644">
        <ele>154</ele>
        <time>2014-04-01T08:49:10Z</time>
      </trkpt>
      <trkpt lat="43.84837" lon="3.71644">
        <ele>154</ele>
        <time>2014-04-01T08:49:15Z</time>
      </trkpt>
      <trkpt lat="43.84841" lon="3.71644">
        <ele>155</ele>
        <time>2014-04-01T08:49:20Z</time>
      </trkpt>
      <trkpt lat="43.84846" lon="3.71642">
        <ele>155</ele>
        <time>2014-04-01T08:49:27Z</time>
      </trkpt>
      <trkpt lat="43.84852" lon="3.7164">
        <ele>158</ele>
        <time>2014-04-01T08:49:36Z</time>
      </trkpt>
      <trkpt lat="43.84858" lon="3.71639">
        <ele>159</ele>
        <time>2014-04-01T08:49:40Z</time>
      </trkpt>
      <trkpt lat="43.84861" lon="3.71634">
        <ele>159</ele>
        <time>2014-04-01T08:49:45Z</time>
      </trkpt>
      <trkpt lat="43.84866" lon="3.71631">
        <ele>159</ele>
        <time>2014-04-01T08:49:49Z</time>
      </trkpt>
      <trkpt lat="43.8487" lon="3.71627">
        <ele>157</ele>
        <time>2014-04-01T08:49:55Z</time>
      </trkpt>
      <trkpt lat="43.84874" lon="3.71625">
        <ele>156</ele>
        <time>2014-04-01T08:50:02Z</time>
      </trkpt>
      <trkpt lat="43.84878" lon="3.71621">
        <ele>155</ele>
        <time>2014-04-01T08:50:07Z</time>
      </trkpt>
      <trkpt lat="43.84882" lon="3.71618">
        <ele>155</ele>
        <time>2014-04-01T08:50:10Z</time>
      </trkpt>
      <trkpt lat="43.84887" lon="3.71615">
        <ele>155</ele>
        <time>2014-04-01T08:50:14Z</time>
      </trkpt>
      <trkpt lat="43.84891" lon="3.71611">
        <ele>155</ele>
        <time>2014-04-01T08:50:18Z</time>
      </trkpt>
      <trkpt lat="43.84895" lon="3.71607">
        <ele>155</ele>
        <time>2014-04-01T08:50:21Z</time>
      </trkpt>
      <trkpt lat="43.84899" lon="3.71605">
        <ele>153</ele>
        <time>2014-04-01T08:50:26Z</time>
      </trkpt>
      <trkpt lat="43.84904" lon="3.71604">
        <ele>153</ele>
        <time>2014-04-01T08:50:29Z</time>
      </trkpt>
      <trkpt lat="43.84909" lon="3.71601">
        <ele>153</ele>
        <time>2014-04-01T08:50:33Z</time>
      </trkpt>
      <trkpt lat="43.84913" lon="3.71599">
        <ele>153</ele>
        <time>2014-04-01T08:50:37Z</time>
      </trkpt>
      <trkpt lat="43.84918" lon="3.71598">
        <ele>152</ele>
        <time>2014-04-01T08:50:42Z</time>
      </trkpt>
      <trkpt lat="43.84923" lon="3.71596">
        <ele>151</ele>
        <time>2014-04-01T08:50:46Z</time>
      </trkpt>
      <trkpt lat="43.84928" lon="3.71594">
        <ele>151</ele>
        <time>2014-04-01T08:50:49Z</time>
      </trkpt>
      <trkpt lat="43.8494" lon="3.71584">
        <ele>143</ele>
        <time>2014-04-01T08:51:09Z</time>
      </trkpt>
      <trkpt lat="43.84943" lon="3.71578">
        <ele>143</ele>
        <time>2014-04-01T08:51:13Z</time>
      </trkpt>
      <trkpt lat="43.84946" lon="3.71572">
        <ele>142</ele>
        <time>2014-04-01T08:51:17Z</time>
      </trkpt>
      <trkpt lat="43.8495" lon="3.71569">
        <ele>143</ele>
        <time>2014-04-01T08:51:21Z</time>
      </trkpt>
      <trkpt lat="43.84954" lon="3.71567">
        <ele>143</ele>
        <time>2014-04-01T08:51:26Z</time>
      </trkpt>
      <trkpt lat="43.84959" lon="3.71566">
        <ele>143</ele>
        <time>2014-04-01T08:51:30Z</time>
      </trkpt>
      <trkpt lat="43.84963" lon="3.71562">
        <ele>144</ele>
        <time>2014-04-01T08:51:37Z</time>
      </trkpt>
      <trkpt lat="43.84967" lon="3.71559">
        <ele>144</ele>
        <time>2014-04-01T08:51:42Z</time>
      </trkpt>
      <trkpt lat="43.84972" lon="3.71556">
        <ele>145</ele>
        <time>2014-04-01T08:51:46Z</time>
      </trkpt>
      <trkpt lat="43.84977" lon="3.71554">
        <ele>145</ele>
        <time>2014-04-01T08:51:50Z</time>
      </trkpt>
      <trkpt lat="43.84982" lon="3.71553">
        <ele>145</ele>
        <time>2014-04-01T08:51:54Z</time>
      </trkpt>
      <trkpt lat="43.84987" lon="3.71551">
        <ele>146</ele>
        <time>2014-04-01T08:51:59Z</time>
      </trkpt>
      <trkpt lat="43.84991" lon="3.71548">
        <ele>146</ele>
        <time>2014-04-01T08:52:06Z</time>
      </trkpt>
      <trkpt lat="43.84996" lon="3.71546">
        <ele>147</ele>
        <time>2014-04-01T08:52:11Z</time>
      </trkpt>
      <trkpt lat="43.84999" lon="3.7154">
        <ele>149</ele>
        <time>2014-04-01T08:52:19Z</time>
      </trkpt>
      <trkpt lat="43.85004" lon="3.71539">
        <ele>149</ele>
        <time>2014-04-01T08:52:25Z</time>
      </trkpt>
      <trkpt lat="43.85009" lon="3.71538">
        <ele>148</ele>
        <time>2014-04-01T08:52:30Z</time>
      </trkpt>
      <trkpt lat="43.85014" lon="3.71536">
        <ele>147</ele>
        <time>2014-04-01T08:52:36Z</time>
      </trkpt>
      <trkpt lat="43.85019" lon="3.71534">
        <ele>147</ele>
        <time>2014-04-01T08:52:41Z</time>
      </trkpt>
      <trkpt lat="43.85024" lon="3.71533">
        <ele>147</ele>
        <time>2014-04-01T08:52:45Z</time>
      </trkpt>
      <trkpt lat="43.85027" lon="3.71527">
        <ele>145</ele>
        <time>2014-04-01T08:52:53Z</time>
      </trkpt>
      <trkpt lat="43.85033" lon="3.71524">
        <ele>144</ele>
        <time>2014-04-01T08:52:56Z</time>
      </trkpt>
      <trkpt lat="43.85038" lon="3.71524">
        <ele>143</ele>
        <time>2014-04-01T08:53:00Z</time>
      </trkpt>
      <trkpt lat="43.85044" lon="3.71522">
        <ele>142</ele>
        <time>2014-04-01T08:53:04Z</time>
      </trkpt>
      <trkpt lat="43.85048" lon="3.71518">
        <ele>142</ele>
        <time>2014-04-01T08:53:08Z</time>
      </trkpt>
      <trkpt lat="43.85056" lon="3.71515">
        <ele>142</ele>
        <time>2014-04-01T08:53:10Z</time>
      </trkpt>
      <trkpt lat="43.85061" lon="3.71515">
        <ele>142</ele>
        <time>2014-04-01T08:53:12Z</time>
      </trkpt>
      <trkpt lat="43.85065" lon="3.71512">
        <ele>142</ele>
        <time>2014-04-01T08:53:19Z</time>
      </trkpt>
      <trkpt lat="43.8507" lon="3.71509">
        <ele>142</ele>
        <time>2014-04-01T08:53:24Z</time>
      </trkpt>
      <trkpt lat="43.85075" lon="3.71507">
        <ele>140</ele>
        <time>2014-04-01T08:53:29Z</time>
      </trkpt>
      <trkpt lat="43.85078" lon="3.71507">
        <ele>139</ele>
        <time>2014-04-01T08:53:35Z</time>
      </trkpt>
      <trkpt lat="43.85083" lon="3.71503">
        <ele>139</ele>
        <time>2014-04-01T08:53:46Z</time>
      </trkpt>
      <trkpt lat="43.85088" lon="3.715">
        <ele>138</ele>
        <time>2014-04-01T08:53:49Z</time>
      </trkpt>
      <trkpt lat="43.85092" lon="3.71495">
        <ele>138</ele>
        <time>2014-04-01T08:53:52Z</time>
      </trkpt>
      <trkpt lat="43.85095" lon="3.7149">
        <ele>138</ele>
        <time>2014-04-01T08:53:55Z</time>
      </trkpt>
      <trkpt lat="43.85099" lon="3.71488">
        <ele>137</ele>
        <time>2014-04-01T08:53:59Z</time>
      </trkpt>
      <trkpt lat="43.85104" lon="3.71487">
        <ele>136</ele>
        <time>2014-04-01T08:54:08Z</time>
      </trkpt>
      <trkpt lat="43.85109" lon="3.71487">
        <ele>136</ele>
        <time>2014-04-01T08:54:11Z</time>
      </trkpt>
      <trkpt lat="43.85115" lon="3.71488">
        <ele>136</ele>
        <time>2014-04-01T08:54:14Z</time>
      </trkpt>
      <trkpt lat="43.85121" lon="3.71488">
        <ele>138</ele>
        <time>2014-04-01T08:54:18Z</time>
      </trkpt>
      <trkpt lat="43.85125" lon="3.7149">
        <ele>139</ele>
        <time>2014-04-01T08:54:22Z</time>
      </trkpt>
      <trkpt lat="43.8513" lon="3.71493">
        <ele>140</ele>
        <time>2014-04-01T08:54:28Z</time>
      </trkpt>
      <trkpt lat="43.85135" lon="3.71492">
        <ele>141</ele>
        <time>2014-04-01T08:54:32Z</time>
      </trkpt>
      <trkpt lat="43.8514" lon="3.71491">
        <ele>142</ele>
        <time>2014-04-01T08:54:37Z</time>
      </trkpt>
      <trkpt lat="43.85145" lon="3.71494">
        <ele>143</ele>
        <time>2014-04-01T08:54:40Z</time>
      </trkpt>
      <trkpt lat="43.85146" lon="3.71492">
        <ele>143</ele>
        <time>2014-04-01T08:54:46Z</time>
      </trkpt>
      <trkpt lat="43.85151" lon="3.7149">
        <ele>143</ele>
        <time>2014-04-01T08:54:53Z</time>
      </trkpt>
      <trkpt lat="43.85157" lon="3.7149">
        <ele>143</ele>
        <time>2014-04-01T08:54:57Z</time>
      </trkpt>
      <trkpt lat="43.85162" lon="3.71489">
        <ele>144</ele>
        <time>2014-04-01T08:55:00Z</time>
      </trkpt>
      <trkpt lat="43.85164" lon="3.71487">
        <ele>144</ele>
        <time>2014-04-01T08:55:06Z</time>
      </trkpt>
      <trkpt lat="43.85169" lon="3.71485">
        <ele>143</ele>
        <time>2014-04-01T08:55:13Z</time>
      </trkpt>
      <trkpt lat="43.85173" lon="3.71483">
        <ele>142</ele>
        <time>2014-04-01T08:55:18Z</time>
      </trkpt>
      <trkpt lat="43.85178" lon="3.71484">
        <ele>142</ele>
        <time>2014-04-01T08:55:24Z</time>
      </trkpt>
      <trkpt lat="43.85183" lon="3.71482">
        <ele>142</ele>
        <time>2014-04-01T08:55:27Z</time>
      </trkpt>
      <trkpt lat="43.85188" lon="3.71479">
        <ele>141</ele>
        <time>2014-04-01T08:55:31Z</time>
      </trkpt>
      <trkpt lat="43.85193" lon="3.71479">
        <ele>141</ele>
        <time>2014-04-01T08:55:34Z</time>
      </trkpt>
      <trkpt lat="43.85198" lon="3.71478">
        <ele>142</ele>
        <time>2014-04-01T08:55:38Z</time>
      </trkpt>
      <trkpt lat="43.85203" lon="3.71479">
        <ele>142</ele>
        <time>2014-04-01T08:55:42Z</time>
      </trkpt>
      <trkpt lat="43.85209" lon="3.71475">
        <ele>141</ele>
        <time>2014-04-01T08:55:46Z</time>
      </trkpt>
      <trkpt lat="43.85213" lon="3.71471">
        <ele>140</ele>
        <time>2014-04-01T08:55:49Z</time>
      </trkpt>
      <trkpt lat="43.85216" lon="3.71466">
        <ele>139</ele>
        <time>2014-04-01T08:55:54Z</time>
      </trkpt>
      <trkpt lat="43.8522" lon="3.71462">
        <ele>137</ele>
        <time>2014-04-01T08:55:59Z</time>
      </trkpt>
      <trkpt lat="43.85224" lon="3.71457">
        <ele>135</ele>
        <time>2014-04-01T08:56:06Z</time>
      </trkpt>
      <trkpt lat="43.85228" lon="3.71452">
        <ele>133</ele>
        <time>2014-04-01T08:56:10Z</time>
      </trkpt>
      <trkpt lat="43.8523" lon="3.71445">
        <ele>132</ele>
        <time>2014-04-01T08:56:15Z</time>
      </trkpt>
      <trkpt lat="43.85231" lon="3.71438">
        <ele>131</ele>
        <time>2014-04-01T08:56:20Z</time>
      </trkpt>
      <trkpt lat="43.85236" lon="3.71435">
        <ele>130</ele>
        <time>2014-04-01T08:56:26Z</time>
      </trkpt>
      <trkpt lat="43.8524" lon="3.71434">
        <ele>130</ele>
        <time>2014-04-01T08:56:37Z</time>
      </trkpt>
      <trkpt lat="43.85245" lon="3.71431">
        <ele>130</ele>
        <time>2014-04-01T08:56:41Z</time>
      </trkpt>
      <trkpt lat="43.85245" lon="3.71424">
        <ele>129</ele>
        <time>2014-04-01T08:56:51Z</time>
      </trkpt>
      <trkpt lat="43.85249" lon="3.71419">
        <ele>128</ele>
        <time>2014-04-01T08:56:57Z</time>
      </trkpt>
      <trkpt lat="43.85251" lon="3.71413">
        <ele>127</ele>
        <time>2014-04-01T08:57:02Z</time>
      </trkpt>
      <trkpt lat="43.85253" lon="3.71406">
        <ele>127</ele>
        <time>2014-04-01T08:57:06Z</time>
      </trkpt>
      <trkpt lat="43.85254" lon="3.71399">
        <ele>126</ele>
        <time>2014-04-01T08:57:11Z</time>
      </trkpt>
      <trkpt lat="43.85256" lon="3.7139">
        <ele>124</ele>
        <time>2014-04-01T08:57:15Z</time>
      </trkpt>
      <trkpt lat="43.85264" lon="3.71374">
        <ele>118</ele>
        <time>2014-04-01T08:57:31Z</time>
      </trkpt>
      <trkpt lat="43.85268" lon="3.71369">
        <ele>118</ele>
        <time>2014-04-01T08:57:36Z</time>
      </trkpt>
      <trkpt lat="43.85272" lon="3.71363">
        <ele>118</ele>
        <time>2014-04-01T08:57:39Z</time>
      </trkpt>
      <trkpt lat="43.85275" lon="3.71359">
        <ele>118</ele>
        <time>2014-04-01T08:57:43Z</time>
      </trkpt>
      <trkpt lat="43.85277" lon="3.71352">
        <ele>118</ele>
        <time>2014-04-01T08:57:47Z</time>
      </trkpt>
      <trkpt lat="43.85276" lon="3.71341">
        <ele>119</ele>
        <time>2014-04-01T08:57:51Z</time>
      </trkpt>
      <trkpt lat="43.85273" lon="3.71335">
        <ele>120</ele>
        <time>2014-04-01T08:57:56Z</time>
      </trkpt>
      <trkpt lat="43.85274" lon="3.71328">
        <ele>120</ele>
        <time>2014-04-01T08:58:02Z</time>
      </trkpt>
      <trkpt lat="43.85275" lon="3.71321">
        <ele>120</ele>
        <time>2014-04-01T08:58:06Z</time>
      </trkpt>
      <trkpt lat="43.85277" lon="3.71316">
        <ele>120</ele>
        <time>2014-04-01T08:58:11Z</time>
      </trkpt>
      <trkpt lat="43.85277" lon="3.71309">
        <ele>121</ele>
        <time>2014-04-01T08:58:18Z</time>
      </trkpt>
      <trkpt lat="43.8528" lon="3.71303">
        <ele>121</ele>
        <time>2014-04-01T08:58:22Z</time>
      </trkpt>
      <trkpt lat="43.85284" lon="3.71301">
        <ele>120</ele>
        <time>2014-04-01T08:58:28Z</time>
      </trkpt>
      <trkpt lat="43.85289" lon="3.71289">
        <ele>115</ele>
        <time>2014-04-01T08:58:37Z</time>
      </trkpt>
      <trkpt lat="43.8529" lon="3.71283">
        <ele>111</ele>
        <time>2014-04-01T08:58:44Z</time>
      </trkpt>
      <trkpt lat="43.85294" lon="3.71277">
        <ele>110</ele>
        <time>2014-04-01T08:58:50Z</time>
      </trkpt>
      <trkpt lat="43.85295" lon="3.71268">
        <ele>110</ele>
        <time>2014-04-01T08:58:54Z</time>
      </trkpt>
      <trkpt lat="43.85297" lon="3.71261">
        <ele>108</ele>
        <time>2014-04-01T08:58:58Z</time>
      </trkpt>
      <trkpt lat="43.853" lon="3.71255">
        <ele>109</ele>
        <time>2014-04-01T08:59:03Z</time>
      </trkpt>
      <trkpt lat="43.85303" lon="3.7125">
        <ele>108</ele>
        <time>2014-04-01T08:59:06Z</time>
      </trkpt>
      <trkpt lat="43.85303" lon="3.71242">
        <ele>108</ele>
        <time>2014-04-01T08:59:10Z</time>
      </trkpt>
      <trkpt lat="43.85306" lon="3.71236">
        <ele>107</ele>
        <time>2014-04-01T08:59:19Z</time>
      </trkpt>
      <trkpt lat="43.85308" lon="3.7123">
        <ele>106</ele>
        <time>2014-04-01T08:59:22Z</time>
      </trkpt>
      <trkpt lat="43.85308" lon="3.71223">
        <ele>107</ele>
        <time>2014-04-01T08:59:25Z</time>
      </trkpt>
      <trkpt lat="43.85309" lon="3.71209">
        <ele>108</ele>
        <time>2014-04-01T08:59:32Z</time>
      </trkpt>
      <trkpt lat="43.85311" lon="3.71198">
        <ele>109</ele>
        <time>2014-04-01T08:59:37Z</time>
      </trkpt>
      <trkpt lat="43.85317" lon="3.71188">
        <ele>112</ele>
        <time>2014-04-01T08:59:48Z</time>
      </trkpt>
      <trkpt lat="43.85316" lon="3.71175">
        <ele>116</ele>
        <time>2014-04-01T08:59:53Z</time>
      </trkpt>
      <trkpt lat="43.85316" lon="3.71147">
        <ele>125</ele>
        <time>2014-04-01T09:00:13Z</time>
      </trkpt>
      <trkpt lat="43.85321" lon="3.71135">
        <ele>124</ele>
        <time>2014-04-01T09:00:23Z</time>
      </trkpt>
      <trkpt lat="43.85321" lon="3.71129">
        <ele>123</ele>
        <time>2014-04-01T09:00:26Z</time>
      </trkpt>
      <trkpt lat="43.85319" lon="3.71122">
        <ele>123</ele>
        <time>2014-04-01T09:00:29Z</time>
      </trkpt>
      <trkpt lat="43.85317" lon="3.71116">
        <ele>122</ele>
        <time>2014-04-01T09:00:35Z</time>
      </trkpt>
      <trkpt lat="43.85316" lon="3.71108">
        <ele>123</ele>
        <time>2014-04-01T09:00:40Z</time>
      </trkpt>
      <trkpt lat="43.85313" lon="3.71102">
        <ele>125</ele>
        <time>2014-04-01T09:00:45Z</time>
      </trkpt>
      <trkpt lat="43.85311" lon="3.71096">
        <ele>125</ele>
        <time>2014-04-01T09:00:48Z</time>
      </trkpt>
      <trkpt lat="43.85309" lon="3.7109">
        <ele>122</ele>
        <time>2014-04-01T09:00:52Z</time>
      </trkpt>
      <trkpt lat="43.85305" lon="3.71087">
        <ele>122</ele>
        <time>2014-04-01T09:00:58Z</time>
      </trkpt>
      <trkpt lat="43.853" lon="3.7109">
        <ele>121</ele>
        <time>2014-04-01T09:01:03Z</time>
      </trkpt>
      <trkpt lat="43.85295" lon="3.71087">
        <ele>121</ele>
        <time>2014-04-01T09:01:07Z</time>
      </trkpt>
      <trkpt lat="43.85291" lon="3.71085">
        <ele>120</ele>
        <time>2014-04-01T09:01:11Z</time>
      </trkpt>
      <trkpt lat="43.85286" lon="3.71081">
        <ele>118</ele>
        <time>2014-04-01T09:01:16Z</time>
      </trkpt>
      <trkpt lat="43.85282" lon="3.71077">
        <ele>117</ele>
        <time>2014-04-01T09:01:20Z</time>
      </trkpt>
      <trkpt lat="43.85277" lon="3.71077">
        <ele>117</ele>
        <time>2014-04-01T09:01:25Z</time>
      </trkpt>
      <trkpt lat="43.85271" lon="3.71075">
        <ele>119</ele>
        <time>2014-04-01T09:01:30Z</time>
      </trkpt>
      <trkpt lat="43.85266" lon="3.7107">
        <ele>120</ele>
        <time>2014-04-01T09:01:32Z</time>
      </trkpt>
      <trkpt lat="43.85263" lon="3.71064">
        <ele>122</ele>
        <time>2014-04-01T09:01:36Z</time>
      </trkpt>
      <trkpt lat="43.85261" lon="3.71057">
        <ele>124</ele>
        <time>2014-04-01T09:01:42Z</time>
      </trkpt>
      <trkpt lat="43.85257" lon="3.71052">
        <ele>128</ele>
        <time>2014-04-01T09:01:49Z</time>
      </trkpt>
      <trkpt lat="43.85252" lon="3.7105">
        <ele>130</ele>
        <time>2014-04-01T09:01:56Z</time>
      </trkpt>
      <trkpt lat="43.85248" lon="3.71046">
        <ele>130</ele>
        <time>2014-04-01T09:01:59Z</time>
      </trkpt>
      <trkpt lat="43.85243" lon="3.71041">
        <ele>130</ele>
        <time>2014-04-01T09:02:02Z</time>
      </trkpt>
      <trkpt lat="43.85239" lon="3.71037">
        <ele>130</ele>
        <time>2014-04-01T09:02:06Z</time>
      </trkpt>
      <trkpt lat="43.85236" lon="3.7103">
        <ele>130</ele>
        <time>2014-04-01T09:02:10Z</time>
      </trkpt>
      <trkpt lat="43.85234" lon="3.71025">
        <ele>129</ele>
        <time>2014-04-01T09:02:13Z</time>
      </trkpt>
      <trkpt lat="43.8523" lon="3.71019">
        <ele>127</ele>
        <time>2014-04-01T09:02:17Z</time>
      </trkpt>
      <trkpt lat="43.85226" lon="3.71014">
        <ele>127</ele>
        <time>2014-04-01T09:02:21Z</time>
      </trkpt>
      <trkpt lat="43.85225" lon="3.71011">
        <ele>125</ele>
        <time>2014-04-01T09:02:27Z</time>
      </trkpt>
      <trkpt lat="43.8522" lon="3.7101">
        <ele>123</ele>
        <time>2014-04-01T09:02:35Z</time>
      </trkpt>
      <trkpt lat="43.85217" lon="3.71005">
        <ele>123</ele>
        <time>2014-04-01T09:02:38Z</time>
      </trkpt>
      <trkpt lat="43.85214" lon="3.70997">
        <ele>122</ele>
        <time>2014-04-01T09:02:41Z</time>
      </trkpt>
      <trkpt lat="43.85211" lon="3.70991">
        <ele>121</ele>
        <time>2014-04-01T09:02:43Z</time>
      </trkpt>
      <trkpt lat="43.85209" lon="3.70985">
        <ele>121</ele>
        <time>2014-04-01T09:02:46Z</time>
      </trkpt>
      <trkpt lat="43.85207" lon="3.70979">
        <ele>120</ele>
        <time>2014-04-01T09:02:49Z</time>
      </trkpt>
      <trkpt lat="43.85203" lon="3.70973">
        <ele>121</ele>
        <time>2014-04-01T09:02:52Z</time>
      </trkpt>
      <trkpt lat="43.85199" lon="3.70968">
        <ele>121</ele>
        <time>2014-04-01T09:02:57Z</time>
      </trkpt>
      <trkpt lat="43.85195" lon="3.70963">
        <ele>122</ele>
        <time>2014-04-01T09:03:00Z</time>
      </trkpt>
      <trkpt lat="43.85192" lon="3.70957">
        <ele>122</ele>
        <time>2014-04-01T09:03:04Z</time>
      </trkpt>
      <trkpt lat="43.85189" lon="3.7095">
        <ele>120</ele>
        <time>2014-04-01T09:03:14Z</time>
      </trkpt>
      <trkpt lat="43.85186" lon="3.70944">
        <ele>119</ele>
        <time>2014-04-01T09:03:18Z</time>
      </trkpt>
      <trkpt lat="43.85183" lon="3.70939">
        <ele>119</ele>
        <time>2014-04-01T09:03:22Z</time>
      </trkpt>
      <trkpt lat="43.8518" lon="3.70935">
        <ele>116</ele>
        <time>2014-04-01T09:03:32Z</time>
      </trkpt>
      <trkpt lat="43.85176" lon="3.7093">
        <ele>115</ele>
        <time>2014-04-01T09:03:36Z</time>
      </trkpt>
      <trkpt lat="43.85173" lon="3.70924">
        <ele>114</ele>
        <time>2014-04-01T09:03:41Z</time>
      </trkpt>
      <trkpt lat="43.85169" lon="3.70921">
        <ele>112</ele>
        <time>2014-04-01T09:03:45Z</time>
      </trkpt>
      <trkpt lat="43.85165" lon="3.70917">
        <ele>112</ele>
        <time>2014-04-01T09:03:50Z</time>
      </trkpt>
      <trkpt lat="43.85162" lon="3.70914">
        <ele>109</ele>
        <time>2014-04-01T09:03:58Z</time>
      </trkpt>
      <trkpt lat="43.85157" lon="3.70912">
        <ele>108</ele>
        <time>2014-04-01T09:04:05Z</time>
      </trkpt>
      <trkpt lat="43.85156" lon="3.70915">
        <ele>108</ele>
        <time>2014-04-01T09:04:11Z</time>
      </trkpt>
      <trkpt lat="43.85153" lon="3.70916">
        <ele>107</ele>
        <time>2014-04-01T09:04:21Z</time>
      </trkpt>
      <trkpt lat="43.85149" lon="3.7091">
        <ele>106</ele>
        <time>2014-04-01T09:04:25Z</time>
      </trkpt>
      <trkpt lat="43.85146" lon="3.70905">
        <ele>106</ele>
        <time>2014-04-01T09:04:30Z</time>
      </trkpt>
      <trkpt lat="43.85142" lon="3.70902">
        <ele>107</ele>
        <time>2014-04-01T09:04:33Z</time>
      </trkpt>
      <trkpt lat="43.85137" lon="3.70898">
        <ele>107</ele>
        <time>2014-04-01T09:04:37Z</time>
      </trkpt>
      <trkpt lat="43.85135" lon="3.70892">
        <ele>106</ele>
        <time>2014-04-01T09:04:43Z</time>
      </trkpt>
      <trkpt lat="43.85131" lon="3.70888">
        <ele>107</ele>
        <time>2014-04-01T09:04:47Z</time>
      </trkpt>
      <trkpt lat="43.85127" lon="3.70885">
        <ele>107</ele>
        <time>2014-04-01T09:04:52Z</time>
      </trkpt>
      <trkpt lat="43.85122" lon="3.70885">
        <ele>107</ele>
        <time>2014-04-01T09:04:58Z</time>
      </trkpt>
      <trkpt lat="43.85117" lon="3.70885">
        <ele>107</ele>
        <time>2014-04-01T09:05:04Z</time>
      </trkpt>
      <trkpt lat="43.85112" lon="3.70885">
        <ele>108</ele>
        <time>2014-04-01T09:05:09Z</time>
      </trkpt>
      <trkpt lat="43.85107" lon="3.70882">
        <ele>109</ele>
        <time>2014-04-01T09:05:14Z</time>
      </trkpt>
      <trkpt lat="43.85102" lon="3.70882">
        <ele>109</ele>
        <time>2014-04-01T09:05:22Z</time>
      </trkpt>
      <trkpt lat="43.85098" lon="3.70882">
        <ele>109</ele>
        <time>2014-04-01T09:05:26Z</time>
      </trkpt>
      <trkpt lat="43.85093" lon="3.70885">
        <ele>110</ele>
        <time>2014-04-01T09:05:36Z</time>
      </trkpt>
      <trkpt lat="43.85088" lon="3.70888">
        <ele>111</ele>
        <time>2014-04-01T09:05:42Z</time>
      </trkpt>
      <trkpt lat="43.85083" lon="3.70888">
        <ele>112</ele>
        <time>2014-04-01T09:05:46Z</time>
      </trkpt>
      <trkpt lat="43.85079" lon="3.70891">
        <ele>112</ele>
        <time>2014-04-01T09:05:53Z</time>
      </trkpt>
      <trkpt lat="43.85076" lon="3.70897">
        <ele>112</ele>
        <time>2014-04-01T09:05:57Z</time>
      </trkpt>
      <trkpt lat="43.85073" lon="3.70902">
        <ele>112</ele>
        <time>2014-04-01T09:06:02Z</time>
      </trkpt>
      <trkpt lat="43.85071" lon="3.70908">
        <ele>114</ele>
        <time>2014-04-01T09:06:07Z</time>
      </trkpt>
      <trkpt lat="43.85067" lon="3.70913">
        <ele>115</ele>
        <time>2014-04-01T09:06:12Z</time>
      </trkpt>
      <trkpt lat="43.85064" lon="3.70917">
        <ele>115</ele>
        <time>2014-04-01T09:06:17Z</time>
      </trkpt>
      <trkpt lat="43.8506" lon="3.70922">
        <ele>116</ele>
        <time>2014-04-01T09:06:22Z</time>
      </trkpt>
      <trkpt lat="43.85055" lon="3.70926">
        <ele>117</ele>
        <time>2014-04-01T09:06:31Z</time>
      </trkpt>
      <trkpt lat="43.85052" lon="3.70931">
        <ele>117</ele>
        <time>2014-04-01T09:06:34Z</time>
      </trkpt>
      <trkpt lat="43.85049" lon="3.70936">
        <ele>116</ele>
        <time>2014-04-01T09:06:39Z</time>
      </trkpt>
      <trkpt lat="43.85046" lon="3.70941">
        <ele>116</ele>
        <time>2014-04-01T09:06:44Z</time>
      </trkpt>
      <trkpt lat="43.85043" lon="3.70946">
        <ele>116</ele>
        <time>2014-04-01T09:06:48Z</time>
      </trkpt>
      <trkpt lat="43.85039" lon="3.7095">
        <ele>117</ele>
        <time>2014-04-01T09:06:52Z</time>
      </trkpt>
      <trkpt lat="43.85034" lon="3.70956">
        <ele>117</ele>
        <time>2014-04-01T09:06:59Z</time>
      </trkpt>
      <trkpt lat="43.8503" lon="3.70963">
        <ele>117</ele>
        <time>2014-04-01T09:07:03Z</time>
      </trkpt>
      <trkpt lat="43.85028" lon="3.70969">
        <ele>117</ele>
        <time>2014-04-01T09:07:07Z</time>
      </trkpt>
      <trkpt lat="43.85025" lon="3.70976">
        <ele>117</ele>
        <time>2014-04-01T09:07:14Z</time>
      </trkpt>
      <trkpt lat="43.85021" lon="3.70981">
        <ele>117</ele>
        <time>2014-04-01T09:07:17Z</time>
      </trkpt>
      <trkpt lat="43.85019" lon="3.70987">
        <ele>118</ele>
        <time>2014-04-01T09:07:20Z</time>
      </trkpt>
      <trkpt lat="43.85017" lon="3.70995">
        <ele>118</ele>
        <time>2014-04-01T09:07:24Z</time>
      </trkpt>
      <trkpt lat="43.85013" lon="3.71">
        <ele>119</ele>
        <time>2014-04-01T09:07:31Z</time>
      </trkpt>
      <trkpt lat="43.85009" lon="3.71003">
        <ele>120</ele>
        <time>2014-04-01T09:07:37Z</time>
      </trkpt>
      <trkpt lat="43.85006" lon="3.71004">
        <ele>122</ele>
        <time>2014-04-01T09:07:47Z</time>
      </trkpt>
      <trkpt lat="43.85003" lon="3.71009">
        <ele>122</ele>
        <time>2014-04-01T09:07:52Z</time>
      </trkpt>
      <trkpt lat="43.85" lon="3.71014">
        <ele>121</ele>
        <time>2014-04-01T09:07:56Z</time>
      </trkpt>
      <trkpt lat="43.84998" lon="3.7102">
        <ele>120</ele>
        <time>2014-04-01T09:08:00Z</time>
      </trkpt>
      <trkpt lat="43.84994" lon="3.71023">
        <ele>118</ele>
        <time>2014-04-01T09:08:07Z</time>
      </trkpt>
      <trkpt lat="43.84991" lon="3.71028">
        <ele>117</ele>
        <time>2014-04-01T09:08:12Z</time>
      </trkpt>
      <trkpt lat="43.84988" lon="3.71033">
        <ele>117</ele>
        <time>2014-04-01T09:08:19Z</time>
      </trkpt>
      <trkpt lat="43.84984" lon="3.71033">
        <ele>116</ele>
        <time>2014-04-01T09:08:24Z</time>
      </trkpt>
      <trkpt lat="43.84979" lon="3.7103">
        <ele>116</ele>
        <time>2014-04-01T09:08:28Z</time>
      </trkpt>
      <trkpt lat="43.84975" lon="3.71034">
        <ele>115</ele>
        <time>2014-04-01T09:08:32Z</time>
      </trkpt>
      <trkpt lat="43.84972" lon="3.7104">
        <ele>114</ele>
        <time>2014-04-01T09:08:36Z</time>
      </trkpt>
      <trkpt lat="43.84968" lon="3.71046">
        <ele>113</ele>
        <time>2014-04-01T09:08:39Z</time>
      </trkpt>
      <trkpt lat="43.84963" lon="3.71049">
        <ele>112</ele>
        <time>2014-04-01T09:08:43Z</time>
      </trkpt>
      <trkpt lat="43.8496" lon="3.71055">
        <ele>112</ele>
        <time>2014-04-01T09:08:47Z</time>
      </trkpt>
      <trkpt lat="43.84955" lon="3.7106">
        <ele>113</ele>
        <time>2014-04-01T09:08:50Z</time>
      </trkpt>
      <trkpt lat="43.84951" lon="3.71063">
        <ele>113</ele>
        <time>2014-04-01T09:08:55Z</time>
      </trkpt>
      <trkpt lat="43.84946" lon="3.71061">
        <ele>113</ele>
        <time>2014-04-01T09:08:59Z</time>
      </trkpt>
      <trkpt lat="43.84941" lon="3.71061">
        <ele>112</ele>
        <time>2014-04-01T09:09:04Z</time>
      </trkpt>
      <trkpt lat="43.84936" lon="3.71066">
        <ele>113</ele>
        <time>2014-04-01T09:09:08Z</time>
      </trkpt>
      <trkpt lat="43.84931" lon="3.71067">
        <ele>115</ele>
        <time>2014-04-01T09:09:13Z</time>
      </trkpt>
      <trkpt lat="43.84927" lon="3.71069">
        <ele>116</ele>
        <time>2014-04-01T09:09:18Z</time>
      </trkpt>
      <trkpt lat="43.84921" lon="3.71068">
        <ele>117</ele>
        <time>2014-04-01T09:09:23Z</time>
      </trkpt>
      <trkpt lat="43.84917" lon="3.7107">
        <ele>116</ele>
        <time>2014-04-01T09:09:27Z</time>
      </trkpt>
      <trkpt lat="43.84912" lon="3.71071">
        <ele>117</ele>
        <time>2014-04-01T09:09:32Z</time>
      </trkpt>
      <trkpt lat="43.84907" lon="3.71072">
        <ele>118</ele>
        <time>2014-04-01T09:09:36Z</time>
      </trkpt>
      <trkpt lat="43.84906" lon="3.71076">
        <ele>116</ele>
        <time>2014-04-01T09:09:43Z</time>
      </trkpt>
      <trkpt lat="43.84899" lon="3.71075">
        <ele>116</ele>
        <time>2014-04-01T09:09:49Z</time>
      </trkpt>
      <trkpt lat="43.84895" lon="3.71076">
        <ele>116</ele>
        <time>2014-04-01T09:09:53Z</time>
      </trkpt>
      <trkpt lat="43.8489" lon="3.71079">
        <ele>116</ele>
        <time>2014-04-01T09:09:56Z</time>
      </trkpt>
      <trkpt lat="43.84887" lon="3.71084">
        <ele>115</ele>
        <time>2014-04-01T09:10:00Z</time>
      </trkpt>
      <trkpt lat="43.84883" lon="3.71087">
        <ele>114</ele>
        <time>2014-04-01T09:10:04Z</time>
      </trkpt>
      <trkpt lat="43.84878" lon="3.7109">
        <ele>114</ele>
        <time>2014-04-01T09:10:07Z</time>
      </trkpt>
      <trkpt lat="43.84873" lon="3.71089">
        <ele>115</ele>
        <time>2014-04-01T09:10:11Z</time>
      </trkpt>
      <trkpt lat="43.84869" lon="3.71094">
        <ele>115</ele>
        <time>2014-04-01T09:10:16Z</time>
      </trkpt>
      <trkpt lat="43.84864" lon="3.71096">
        <ele>116</ele>
        <time>2014-04-01T09:10:20Z</time>
      </trkpt>
      <trkpt lat="43.84859" lon="3.71098">
        <ele>116</ele>
        <time>2014-04-01T09:10:24Z</time>
      </trkpt>
      <trkpt lat="43.84854" lon="3.71097">
        <ele>117</ele>
        <time>2014-04-01T09:10:29Z</time>
      </trkpt>
      <trkpt lat="43.8485" lon="3.71103">
        <ele>118</ele>
        <time>2014-04-01T09:10:34Z</time>
      </trkpt>
      <trkpt lat="43.84847" lon="3.71107">
        <ele>119</ele>
        <time>2014-04-01T09:10:37Z</time>
      </trkpt>
      <trkpt lat="43.84842" lon="3.7111">
        <ele>119</ele>
        <time>2014-04-01T09:10:40Z</time>
      </trkpt>
      <trkpt lat="43.84838" lon="3.71114">
        <ele>120</ele>
        <time>2014-04-01T09:10:44Z</time>
      </trkpt>
      <trkpt lat="43.84833" lon="3.71116">
        <ele>120</ele>
        <time>2014-04-01T09:10:47Z</time>
      </trkpt>
      <trkpt lat="43.84828" lon="3.71119">
        <ele>119</ele>
        <time>2014-04-01T09:10:52Z</time>
      </trkpt>
      <trkpt lat="43.84823" lon="3.71119">
        <ele>120</ele>
        <time>2014-04-01T09:10:56Z</time>
      </trkpt>
      <trkpt lat="43.8482" lon="3.71124">
        <ele>119</ele>
        <time>2014-04-01T09:11:01Z</time>
      </trkpt>
      <trkpt lat="43.84817" lon="3.71128">
        <ele>118</ele>
        <time>2014-04-01T09:11:05Z</time>
      </trkpt>
      <trkpt lat="43.84815" lon="3.71134">
        <ele>115</ele>
        <time>2014-04-01T09:11:11Z</time>
      </trkpt>
      <trkpt lat="43.84813" lon="3.7114">
        <ele>114</ele>
        <time>2014-04-01T09:11:14Z</time>
      </trkpt>
      <trkpt lat="43.84809" lon="3.71144">
        <ele>114</ele>
        <time>2014-04-01T09:11:18Z</time>
      </trkpt>
      <trkpt lat="43.84804" lon="3.71148">
        <ele>115</ele>
        <time>2014-04-01T09:11:22Z</time>
      </trkpt>
      <trkpt lat="43.848" lon="3.71152">
        <ele>115</ele>
        <time>2014-04-01T09:11:26Z</time>
      </trkpt>
      <trkpt lat="43.84795" lon="3.71154">
        <ele>116</ele>
        <time>2014-04-01T09:11:29Z</time>
      </trkpt>
      <trkpt lat="43.84791" lon="3.71151">
        <ele>116</ele>
        <time>2014-04-01T09:11:34Z</time>
      </trkpt>
      <trkpt lat="43.84785" lon="3.71157">
        <ele>109</ele>
        <time>2014-04-01T09:11:54Z</time>
      </trkpt>
      <trkpt lat="43.84781" lon="3.7116">
        <ele>109</ele>
        <time>2014-04-01T09:11:58Z</time>
      </trkpt>
      <trkpt lat="43.84776" lon="3.7116">
        <ele>109</ele>
        <time>2014-04-01T09:12:02Z</time>
      </trkpt>
      <trkpt lat="43.84771" lon="3.71162">
        <ele>108</ele>
        <time>2014-04-01T09:12:07Z</time>
      </trkpt>
      <trkpt lat="43.84766" lon="3.71162">
        <ele>107</ele>
        <time>2014-04-01T09:12:12Z</time>
      </trkpt>
      <trkpt lat="43.84764" lon="3.71155">
        <ele>106</ele>
        <time>2014-04-01T09:12:19Z</time>
      </trkpt>
      <trkpt lat="43.84762" lon="3.71153">
        <ele>105</ele>
        <time>2014-04-01T09:12:26Z</time>
      </trkpt>
      <trkpt lat="43.8476" lon="3.71147">
        <ele>106</ele>
        <time>2014-04-01T09:12:36Z</time>
      </trkpt>
      <trkpt lat="43.84755" lon="3.71142">
        <ele>106</ele>
        <time>2014-04-01T09:12:39Z</time>
      </trkpt>
      <trkpt lat="43.84751" lon="3.71144">
        <ele>105</ele>
        <time>2014-04-01T09:12:44Z</time>
      </trkpt>
      <trkpt lat="43.84748" lon="3.71133">
        <ele>104</ele>
        <time>2014-04-01T09:13:00Z</time>
      </trkpt>
      <trkpt lat="43.84743" lon="3.71137">
        <ele>104</ele>
        <time>2014-04-01T09:13:07Z</time>
      </trkpt>
      <trkpt lat="43.84737" lon="3.71137">
        <ele>103</ele>
        <time>2014-04-01T09:13:12Z</time>
      </trkpt>
      <trkpt lat="43.84731" lon="3.71139">
        <ele>102</ele>
        <time>2014-04-01T09:13:19Z</time>
      </trkpt>
      <trkpt lat="43.84727" lon="3.71139">
        <ele>100</ele>
        <time>2014-04-01T09:13:24Z</time>
      </trkpt>
      <trkpt lat="43.84723" lon="3.71134">
        <ele>100</ele>
        <time>2014-04-01T09:13:30Z</time>
      </trkpt>
      <trkpt lat="43.84718" lon="3.71133">
        <ele>99</ele>
        <time>2014-04-01T09:13:34Z</time>
      </trkpt>
      <trkpt lat="43.84712" lon="3.71133">
        <ele>97</ele>
        <time>2014-04-01T09:13:55Z</time>
      </trkpt>
      <trkpt lat="43.84707" lon="3.71132">
        <ele>97</ele>
        <time>2014-04-01T09:13:59Z</time>
      </trkpt>
      <trkpt lat="43.84702" lon="3.71132">
        <ele>96</ele>
        <time>2014-04-01T09:14:04Z</time>
      </trkpt>
      <trkpt lat="43.84697" lon="3.71134">
        <ele>97</ele>
        <time>2014-04-01T09:14:08Z</time>
      </trkpt>
      <trkpt lat="43.84692" lon="3.71136">
        <ele>98</ele>
        <time>2014-04-01T09:14:16Z</time>
      </trkpt>
      <trkpt lat="43.84687" lon="3.71136">
        <ele>100</ele>
        <time>2014-04-01T09:14:20Z</time>
      </trkpt>
      <trkpt lat="43.84686" lon="3.71143">
        <ele>99</ele>
        <time>2014-04-01T09:14:26Z</time>
      </trkpt>
      <trkpt lat="43.84685" lon="3.71147">
        <ele>96</ele>
        <time>2014-04-01T09:14:34Z</time>
      </trkpt>
      <trkpt lat="43.84678" lon="3.71139">
        <ele>94</ele>
        <time>2014-04-01T09:14:49Z</time>
      </trkpt>
      <trkpt lat="43.84673" lon="3.71137">
        <ele>95</ele>
        <time>2014-04-01T09:14:55Z</time>
      </trkpt>
      <trkpt lat="43.84671" lon="3.71137">
        <ele>95</ele>
        <time>2014-04-01T09:15:02Z</time>
      </trkpt>
      <trkpt lat="43.84667" lon="3.71133">
        <ele>96</ele>
        <time>2014-04-01T09:15:18Z</time>
      </trkpt>
      <trkpt lat="43.84667" lon="3.71129">
        <ele>96</ele>
        <time>2014-04-01T09:15:25Z</time>
      </trkpt>
      <trkpt lat="43.8467" lon="3.71124">
        <ele>96</ele>
        <time>2014-04-01T09:15:33Z</time>
      </trkpt>
      <trkpt lat="43.8466" lon="3.71127">
        <ele>95</ele>
        <time>2014-04-01T09:15:47Z</time>
      </trkpt>
      <trkpt lat="43.84659" lon="3.71133">
        <ele>94</ele>
        <time>2014-04-01T09:15:59Z</time>
      </trkpt>
      <trkpt lat="43.84654" lon="3.7113">
        <ele>92</ele>
        <time>2014-04-01T09:16:06Z</time>
      </trkpt>
      <trkpt lat="43.8465" lon="3.71125">
        <ele>90</ele>
        <time>2014-04-01T09:16:12Z</time>
      </trkpt>
      <trkpt lat="43.84646" lon="3.71128">
        <ele>89</ele>
        <time>2014-04-01T09:16:19Z</time>
      </trkpt>
      <trkpt lat="43.8464" lon="3.71125">
        <ele>86</ele>
        <time>2014-04-01T09:16:28Z</time>
      </trkpt>
      <trkpt lat="43.84633" lon="3.71127">
        <ele>83</ele>
        <time>2014-04-01T09:16:42Z</time>
      </trkpt>
      <trkpt lat="43.8463" lon="3.71121">
        <ele>84</ele>
        <time>2014-04-01T09:16:51Z</time>
      </trkpt>
      <trkpt lat="43.84624" lon="3.71119">
        <ele>84</ele>
        <time>2014-04-01T09:16:57Z</time>
      </trkpt>
      <trkpt lat="43.84619" lon="3.71115">
        <ele>84</ele>
        <time>2014-04-01T09:17:01Z</time>
      </trkpt>
      <trkpt lat="43.84615" lon="3.71114">
        <ele>86</ele>
        <time>2014-04-01T09:17:07Z</time>
      </trkpt>
      <trkpt lat="43.8461" lon="3.71116">
        <ele>89</ele>
        <time>2014-04-01T09:17:14Z</time>
      </trkpt>
      <trkpt lat="43.84604" lon="3.71112">
        <ele>91</ele>
        <time>2014-04-01T09:17:29Z</time>
      </trkpt>
      <trkpt lat="43.846" lon="3.71108">
        <ele>93</ele>
        <time>2014-04-01T09:17:35Z</time>
      </trkpt>
      <trkpt lat="43.84595" lon="3.71104">
        <ele>93</ele>
        <time>2014-04-01T09:17:40Z</time>
      </trkpt>
      <trkpt lat="43.84594" lon="3.71098">
        <ele>93</ele>
        <time>2014-04-01T09:17:49Z</time>
      </trkpt>
      <trkpt lat="43.84593" lon="3.71091">
        <ele>93</ele>
        <time>2014-04-01T09:17:57Z</time>
      </trkpt>
      <trkpt lat="43.84588" lon="3.71091">
        <ele>93</ele>
        <time>2014-04-01T09:18:06Z</time>
      </trkpt>
      <trkpt lat="43.84584" lon="3.71094">
        <ele>94</ele>
        <time>2014-04-01T09:18:11Z</time>
      </trkpt>
      <trkpt lat="43.84579" lon="3.71095">
        <ele>96</ele>
        <time>2014-04-01T09:18:19Z</time>
      </trkpt>
      <trkpt lat="43.84574" lon="3.71095">
        <ele>97</ele>
        <time>2014-04-01T09:18:31Z</time>
      </trkpt>
      <trkpt lat="43.84568" lon="3.71093">
        <ele>98</ele>
        <time>2014-04-01T09:19:03Z</time>
      </trkpt>
      <trkpt lat="43.84563" lon="3.71092">
        <ele>97</ele>
        <time>2014-04-01T09:19:11Z</time>
      </trkpt>
      <trkpt lat="43.84558" lon="3.71089">
        <ele>97</ele>
        <time>2014-04-01T09:19:14Z</time>
      </trkpt>
      <trkpt lat="43.84554" lon="3.71085">
        <ele>97</ele>
        <time>2014-04-01T09:19:18Z</time>
      </trkpt>
      <trkpt lat="43.8455" lon="3.71082">
        <ele>97</ele>
        <time>2014-04-01T09:19:24Z</time>
      </trkpt>
      <trkpt lat="43.84545" lon="3.71085">
        <ele>96</ele>
        <time>2014-04-01T09:19:29Z</time>
      </trkpt>
      <trkpt lat="43.84541" lon="3.71084">
        <ele>96</ele>
        <time>2014-04-01T09:19:35Z</time>
      </trkpt>
      <trkpt lat="43.84538" lon="3.71077">
        <ele>96</ele>
        <time>2014-04-01T09:19:43Z</time>
      </trkpt>
      <trkpt lat="43.84533" lon="3.71074">
        <ele>97</ele>
        <time>2014-04-01T09:19:45Z</time>
      </trkpt>
      <trkpt lat="43.84529" lon="3.71071">
        <ele>99</ele>
        <time>2014-04-01T09:19:49Z</time>
      </trkpt>
      <trkpt lat="43.84524" lon="3.71069">
        <ele>100</ele>
        <time>2014-04-01T09:19:53Z</time>
      </trkpt>
      <trkpt lat="43.8452" lon="3.71067">
        <ele>101</ele>
        <time>2014-04-01T09:20:01Z</time>
      </trkpt>
      <trkpt lat="43.84517" lon="3.71061">
        <ele>101</ele>
        <time>2014-04-01T09:20:05Z</time>
      </trkpt>
      <trkpt lat="43.84514" lon="3.71056">
        <ele>103</ele>
        <time>2014-04-01T09:20:11Z</time>
      </trkpt>
      <trkpt lat="43.84511" lon="3.7105">
        <ele>105</ele>
        <time>2014-04-01T09:20:15Z</time>
      </trkpt>
      <trkpt lat="43.84507" lon="3.71046">
        <ele>105</ele>
        <time>2014-04-01T09:20:23Z</time>
      </trkpt>
      <trkpt lat="43.84504" lon="3.71041">
        <ele>105</ele>
        <time>2014-04-01T09:20:29Z</time>
      </trkpt>
      <trkpt lat="43.84503" lon="3.71034">
        <ele>105</ele>
        <time>2014-04-01T09:20:36Z</time>
      </trkpt>
      <trkpt lat="43.84502" lon="3.71025">
        <ele>105</ele>
        <time>2014-04-01T09:20:41Z</time>
      </trkpt>
      <trkpt lat="43.84499" lon="3.71019">
        <ele>105</ele>
        <time>2014-04-01T09:20:44Z</time>
      </trkpt>
      <trkpt lat="43.84496" lon="3.71012">
        <ele>104</ele>
        <time>2014-04-01T09:20:48Z</time>
      </trkpt>
      <trkpt lat="43.84493" lon="3.71003">
        <ele>103</ele>
        <time>2014-04-01T09:21:01Z</time>
      </trkpt>
      <trkpt lat="43.8449" lon="3.70997">
        <ele>103</ele>
        <time>2014-04-01T09:21:06Z</time>
      </trkpt>
      <trkpt lat="43.84491" lon="3.70989">
        <ele>104</ele>
        <time>2014-04-01T09:21:18Z</time>
      </trkpt>
      <trkpt lat="43.84487" lon="3.70977">
        <ele>108</ele>
        <time>2014-04-01T09:21:23Z</time>
      </trkpt>
      <trkpt lat="43.84484" lon="3.70977">
        <ele>110</ele>
        <time>2014-04-01T09:21:30Z</time>
      </trkpt>
      <trkpt lat="43.84484" lon="3.70983">
        <ele>110</ele>
        <time>2014-04-01T09:21:34Z</time>
      </trkpt>
      <trkpt lat="43.84481" lon="3.70989">
        <ele>110</ele>
        <time>2014-04-01T09:21:38Z</time>
      </trkpt>
      <trkpt lat="43.84477" lon="3.70985">
        <ele>111</ele>
        <time>2014-04-01T09:21:43Z</time>
      </trkpt>
      <trkpt lat="43.84474" lon="3.70981">
        <ele>110</ele>
        <time>2014-04-01T09:21:54Z</time>
      </trkpt>
      <trkpt lat="43.84471" lon="3.70973">
        <ele>111</ele>
        <time>2014-04-01T09:22:00Z</time>
      </trkpt>
      <trkpt lat="43.84469" lon="3.70967">
        <ele>111</ele>
        <time>2014-04-01T09:22:05Z</time>
      </trkpt>
      <trkpt lat="43.84466" lon="3.70962">
        <ele>112</ele>
        <time>2014-04-01T09:22:10Z</time>
      </trkpt>
      <trkpt lat="43.84466" lon="3.70955">
        <ele>113</ele>
        <time>2014-04-01T09:22:15Z</time>
      </trkpt>
      <trkpt lat="43.8446" lon="3.70954">
        <ele>111</ele>
        <time>2014-04-01T09:22:27Z</time>
      </trkpt>
      <trkpt lat="43.84456" lon="3.70951">
        <ele>110</ele>
        <time>2014-04-01T09:22:33Z</time>
      </trkpt>
      <trkpt lat="43.84443" lon="3.70931">
        <ele>93</ele>
        <time>2014-04-01T09:23:05Z</time>
      </trkpt>
      <trkpt lat="43.84438" lon="3.70927">
        <ele>92</ele>
        <time>2014-04-01T09:23:10Z</time>
      </trkpt>
      <trkpt lat="43.84434" lon="3.70921">
        <ele>91</ele>
        <time>2014-04-01T09:23:14Z</time>
      </trkpt>
      <trkpt lat="43.84428" lon="3.70914">
        <ele>91</ele>
        <time>2014-04-01T09:23:28Z</time>
      </trkpt>
      <trkpt lat="43.84424" lon="3.70908">
        <ele>90</ele>
        <time>2014-04-01T09:23:32Z</time>
      </trkpt>
      <trkpt lat="43.8442" lon="3.70903">
        <ele>90</ele>
        <time>2014-04-01T09:23:36Z</time>
      </trkpt>
      <trkpt lat="43.84418" lon="3.70897">
        <ele>89</ele>
        <time>2014-04-01T09:23:41Z</time>
      </trkpt>
      <trkpt lat="43.84416" lon="3.7089">
        <ele>88</ele>
        <time>2014-04-01T09:23:47Z</time>
      </trkpt>
      <trkpt lat="43.84412" lon="3.70886">
        <ele>87</ele>
        <time>2014-04-01T09:23:52Z</time>
      </trkpt>
      <trkpt lat="43.84408" lon="3.7088">
        <ele>87</ele>
        <time>2014-04-01T09:23:57Z</time>
      </trkpt>
      <trkpt lat="43.84406" lon="3.70874">
        <ele>87</ele>
        <time>2014-04-01T09:24:01Z</time>
      </trkpt>
      <trkpt lat="43.84402" lon="3.70877">
        <ele>87</ele>
        <time>2014-04-01T09:24:07Z</time>
      </trkpt>
      <trkpt lat="43.84391" lon="3.70891">
        <ele>99</ele>
        <time>2014-04-01T09:24:24Z</time>
      </trkpt>
      <trkpt lat="43.84386" lon="3.7089">
        <ele>101</ele>
        <time>2014-04-01T09:24:31Z</time>
      </trkpt>
      <trkpt lat="43.84382" lon="3.70892">
        <ele>104</ele>
        <time>2014-04-01T09:24:40Z</time>
      </trkpt>
      <trkpt lat="43.84377" lon="3.70894">
        <ele>105</ele>
        <time>2014-04-01T09:24:43Z</time>
      </trkpt>
      <trkpt lat="43.84372" lon="3.70896">
        <ele>106</ele>
        <time>2014-04-01T09:24:49Z</time>
      </trkpt>
      <trkpt lat="43.84367" lon="3.70897">
        <ele>104</ele>
        <time>2014-04-01T09:24:52Z</time>
      </trkpt>
      <trkpt lat="43.84363" lon="3.70896">
        <ele>102</ele>
        <time>2014-04-01T09:24:56Z</time>
      </trkpt>
      <trkpt lat="43.84361" lon="3.7089">
        <ele>101</ele>
        <time>2014-04-01T09:25:08Z</time>
      </trkpt>
      <trkpt lat="43.84358" lon="3.70885">
        <ele>102</ele>
        <time>2014-04-01T09:25:13Z</time>
      </trkpt>
      <trkpt lat="43.84354" lon="3.7088">
        <ele>102</ele>
        <time>2014-04-01T09:25:18Z</time>
      </trkpt>
      <trkpt lat="43.8435" lon="3.70877">
        <ele>98</ele>
        <time>2014-04-01T09:25:28Z</time>
      </trkpt>
      <trkpt lat="43.84348" lon="3.70871">
        <ele>98</ele>
        <time>2014-04-01T09:25:36Z</time>
      </trkpt>
      <trkpt lat="43.84344" lon="3.70871">
        <ele>99</ele>
        <time>2014-04-01T09:25:42Z</time>
      </trkpt>
      <trkpt lat="43.84339" lon="3.70871">
        <ele>100</ele>
        <time>2014-04-01T09:25:47Z</time>
      </trkpt>
      <trkpt lat="43.84335" lon="3.70875">
        <ele>101</ele>
        <time>2014-04-01T09:25:52Z</time>
      </trkpt>
      <trkpt lat="43.84329" lon="3.70874">
        <ele>102</ele>
        <time>2014-04-01T09:26:11Z</time>
      </trkpt>
      <trkpt lat="43.8433" lon="3.70872">
        <ele>111</ele>
        <time>2014-04-01T09:28:14Z</time>
      </trkpt>
      <trkpt lat="43.84328" lon="3.70867">
        <ele>113</ele>
        <time>2014-04-01T09:29:20Z</time>
      </trkpt>
      <trkpt lat="43.84328" lon="3.70866">
        <ele>116</ele>
        <time>2014-04-01T09:30:22Z</time>
      </trkpt>
      <trkpt lat="43.84327" lon="3.7087">
        <ele>123</ele>
        <time>2014-04-01T09:31:17Z</time>
      </trkpt>
      <trkpt lat="43.84323" lon="3.70873">
        <ele>124</ele>
        <time>2014-04-01T09:31:21Z</time>
      </trkpt>
      <trkpt lat="43.84319" lon="3.70876">
        <ele>123</ele>
        <time>2014-04-01T09:31:25Z</time>
      </trkpt>
      <trkpt lat="43.84315" lon="3.70876">
        <ele>122</ele>
        <time>2014-04-01T09:31:34Z</time>
      </trkpt>
      <trkpt lat="43.84313" lon="3.70878">
        <ele>120</ele>
        <time>2014-04-01T09:31:42Z</time>
      </trkpt>
      <trkpt lat="43.84293" lon="3.70904">
        <ele>105</ele>
        <time>2014-04-01T09:32:17Z</time>
      </trkpt>
      <trkpt lat="43.84287" lon="3.70906">
        <ele>105</ele>
        <time>2014-04-01T09:32:21Z</time>
      </trkpt>
      <trkpt lat="43.84283" lon="3.70909">
        <ele>105</ele>
        <time>2014-04-01T09:32:26Z</time>
      </trkpt>
      <trkpt lat="43.84278" lon="3.70909">
        <ele>105</ele>
        <time>2014-04-01T09:32:34Z</time>
      </trkpt>
      <trkpt lat="43.84273" lon="3.7091">
        <ele>106</ele>
        <time>2014-04-01T09:32:42Z</time>
      </trkpt>
      <trkpt lat="43.84269" lon="3.70914">
        <ele>106</ele>
        <time>2014-04-01T09:32:45Z</time>
      </trkpt>
      <trkpt lat="43.84264" lon="3.70918">
        <ele>108</ele>
        <time>2014-04-01T09:32:49Z</time>
      </trkpt>
      <trkpt lat="43.8426" lon="3.70912">
        <ele>110</ele>
        <time>2014-04-01T09:32:55Z</time>
      </trkpt>
      <trkpt lat="43.84256" lon="3.70916">
        <ele>112</ele>
        <time>2014-04-01T09:33:01Z</time>
      </trkpt>
      <trkpt lat="43.84251" lon="3.70919">
        <ele>112</ele>
        <time>2014-04-01T09:33:06Z</time>
      </trkpt>
      <trkpt lat="43.84246" lon="3.70922">
        <ele>111</ele>
        <time>2014-04-01T09:33:10Z</time>
      </trkpt>
      <trkpt lat="43.84241" lon="3.70923">
        <ele>111</ele>
        <time>2014-04-01T09:33:14Z</time>
      </trkpt>
      <trkpt lat="43.84238" lon="3.70928">
        <ele>111</ele>
        <time>2014-04-01T09:33:20Z</time>
      </trkpt>
      <trkpt lat="43.84233" lon="3.70926">
        <ele>111</ele>
        <time>2014-04-01T09:33:29Z</time>
      </trkpt>
      <trkpt lat="43.84229" lon="3.7093">
        <ele>110</ele>
        <time>2014-04-01T09:33:35Z</time>
      </trkpt>
      <trkpt lat="43.84225" lon="3.70934">
        <ele>109</ele>
        <time>2014-04-01T09:33:38Z</time>
      </trkpt>
      <trkpt lat="43.84222" lon="3.70939">
        <ele>108</ele>
        <time>2014-04-01T09:33:41Z</time>
      </trkpt>
      <trkpt lat="43.84218" lon="3.70944">
        <ele>108</ele>
        <time>2014-04-01T09:33:44Z</time>
      </trkpt>
      <trkpt lat="43.84214" lon="3.70949">
        <ele>109</ele>
        <time>2014-04-01T09:33:48Z</time>
      </trkpt>
      <trkpt lat="43.8421" lon="3.70953">
        <ele>110</ele>
        <time>2014-04-01T09:33:52Z</time>
      </trkpt>
      <trkpt lat="43.84206" lon="3.70959">
        <ele>109</ele>
        <time>2014-04-01T09:33:56Z</time>
      </trkpt>
      <trkpt lat="43.84202" lon="3.70963">
        <ele>110</ele>
        <time>2014-04-01T09:34:01Z</time>
      </trkpt>
      <trkpt lat="43.84182" lon="3.70986">
        <ele>122</ele>
        <time>2014-04-01T09:34:28Z</time>
      </trkpt>
      <trkpt lat="43.84179" lon="3.70986">
        <ele>125</ele>
        <time>2014-04-01T09:34:35Z</time>
      </trkpt>
      <trkpt lat="43.84174" lon="3.70988">
        <ele>126</ele>
        <time>2014-04-01T09:34:41Z</time>
      </trkpt>
      <trkpt lat="43.84171" lon="3.70993">
        <ele>128</ele>
        <time>2014-04-01T09:34:46Z</time>
      </trkpt>
      <trkpt lat="43.84167" lon="3.70999">
        <ele>130</ele>
        <time>2014-04-01T09:34:52Z</time>
      </trkpt>
      <trkpt lat="43.84164" lon="3.71005">
        <ele>131</ele>
        <time>2014-04-01T09:34:55Z</time>
      </trkpt>
      <trkpt lat="43.84161" lon="3.7101">
        <ele>133</ele>
        <time>2014-04-01T09:34:59Z</time>
      </trkpt>
      <trkpt lat="43.84159" lon="3.71017">
        <ele>133</ele>
        <time>2014-04-01T09:35:03Z</time>
      </trkpt>
      <trkpt lat="43.84155" lon="3.71022">
        <ele>133</ele>
        <time>2014-04-01T09:35:07Z</time>
      </trkpt>
      <trkpt lat="43.8415" lon="3.71026">
        <ele>133</ele>
        <time>2014-04-01T09:35:10Z</time>
      </trkpt>
      <trkpt lat="43.84147" lon="3.7103">
        <ele>133</ele>
        <time>2014-04-01T09:35:14Z</time>
      </trkpt>
      <trkpt lat="43.84142" lon="3.71034">
        <ele>133</ele>
        <time>2014-04-01T09:35:20Z</time>
      </trkpt>
      <trkpt lat="43.84137" lon="3.71036">
        <ele>132</ele>
        <time>2014-04-01T09:35:25Z</time>
      </trkpt>
      <trkpt lat="43.84134" lon="3.7104">
        <ele>132</ele>
        <time>2014-04-01T09:35:30Z</time>
      </trkpt>
      <trkpt lat="43.8413" lon="3.71045">
        <ele>133</ele>
        <time>2014-04-01T09:35:34Z</time>
      </trkpt>
      <trkpt lat="43.84127" lon="3.71051">
        <ele>133</ele>
        <time>2014-04-01T09:35:38Z</time>
      </trkpt>
      <trkpt lat="43.84124" lon="3.71057">
        <ele>134</ele>
        <time>2014-04-01T09:35:43Z</time>
      </trkpt>
      <trkpt lat="43.84121" lon="3.71063">
        <ele>135</ele>
        <time>2014-04-01T09:35:51Z</time>
      </trkpt>
      <trkpt lat="43.84117" lon="3.71068">
        <ele>135</ele>
        <time>2014-04-01T09:35:57Z</time>
      </trkpt>
      <trkpt lat="43.84115" lon="3.71074">
        <ele>135</ele>
        <time>2014-04-01T09:36:01Z</time>
      </trkpt>
      <trkpt lat="43.84116" lon="3.71081">
        <ele>135</ele>
        <time>2014-04-01T09:36:08Z</time>
      </trkpt>
      <trkpt lat="43.84113" lon="3.71087">
        <ele>135</ele>
        <time>2014-04-01T09:36:13Z</time>
      </trkpt>
      <trkpt lat="43.8411" lon="3.71092">
        <ele>136</ele>
        <time>2014-04-01T09:36:17Z</time>
      </trkpt>
      <trkpt lat="43.84106" lon="3.71097">
        <ele>136</ele>
        <time>2014-04-01T09:36:23Z</time>
      </trkpt>
      <trkpt lat="43.84103" lon="3.71103">
        <ele>137</ele>
        <time>2014-04-01T09:36:27Z</time>
      </trkpt>
      <trkpt lat="43.84101" lon="3.71109">
        <ele>138</ele>
        <time>2014-04-01T09:36:34Z</time>
      </trkpt>
      <trkpt lat="43.84098" lon="3.71115">
        <ele>138</ele>
        <time>2014-04-01T09:36:39Z</time>
      </trkpt>
      <trkpt lat="43.84094" lon="3.71135">
        <ele>146</ele>
        <time>2014-04-01T09:36:56Z</time>
      </trkpt>
      <trkpt lat="43.84092" lon="3.71141">
        <ele>146</ele>
        <time>2014-04-01T09:37:00Z</time>
      </trkpt>
      <trkpt lat="43.84089" lon="3.71146">
        <ele>146</ele>
        <time>2014-04-01T09:37:05Z</time>
      </trkpt>
      <trkpt lat="43.84084" lon="3.71147">
        <ele>148</ele>
        <time>2014-04-01T09:37:11Z</time>
      </trkpt>
      <trkpt lat="43.84081" lon="3.71153">
        <ele>148</ele>
        <time>2014-04-01T09:37:16Z</time>
      </trkpt>
      <trkpt lat="43.8408" lon="3.71161">
        <ele>148</ele>
        <time>2014-04-01T09:37:20Z</time>
      </trkpt>
      <trkpt lat="43.84078" lon="3.71167">
        <ele>147</ele>
        <time>2014-04-01T09:37:25Z</time>
      </trkpt>
      <trkpt lat="43.84075" lon="3.71173">
        <ele>148</ele>
        <time>2014-04-01T09:37:31Z</time>
      </trkpt>
      <trkpt lat="43.84073" lon="3.71179">
        <ele>149</ele>
        <time>2014-04-01T09:37:34Z</time>
      </trkpt>
      <trkpt lat="43.84071" lon="3.71184">
        <ele>149</ele>
        <time>2014-04-01T09:37:38Z</time>
      </trkpt>
      <trkpt lat="43.84068" lon="3.71191">
        <ele>149</ele>
        <time>2014-04-01T09:37:43Z</time>
      </trkpt>
      <trkpt lat="43.84065" lon="3.71196">
        <ele>149</ele>
        <time>2014-04-01T09:37:47Z</time>
      </trkpt>
      <trkpt lat="43.84064" lon="3.71202">
        <ele>149</ele>
        <time>2014-04-01T09:37:53Z</time>
      </trkpt>
      <trkpt lat="43.8406" lon="3.71207">
        <ele>148</ele>
        <time>2014-04-01T09:37:59Z</time>
      </trkpt>
      <trkpt lat="43.84057" lon="3.71212">
        <ele>148</ele>
        <time>2014-04-01T09:38:03Z</time>
      </trkpt>
      <trkpt lat="43.84054" lon="3.71218">
        <ele>148</ele>
        <time>2014-04-01T09:38:09Z</time>
      </trkpt>
      <trkpt lat="43.84051" lon="3.71223">
        <ele>147</ele>
        <time>2014-04-01T09:38:14Z</time>
      </trkpt>
      <trkpt lat="43.84049" lon="3.71229">
        <ele>147</ele>
        <time>2014-04-01T09:38:21Z</time>
      </trkpt>
      <trkpt lat="43.84046" lon="3.71236">
        <ele>149</ele>
        <time>2014-04-01T09:38:27Z</time>
      </trkpt>
      <trkpt lat="43.84041" lon="3.71239">
        <ele>150</ele>
        <time>2014-04-01T09:38:31Z</time>
      </trkpt>
      <trkpt lat="43.84036" lon="3.71242">
        <ele>150</ele>
        <time>2014-04-01T09:38:35Z</time>
      </trkpt>
      <trkpt lat="43.84032" lon="3.71247">
        <ele>149</ele>
        <time>2014-04-01T09:38:40Z</time>
      </trkpt>
      <trkpt lat="43.84029" lon="3.71252">
        <ele>149</ele>
        <time>2014-04-01T09:38:44Z</time>
      </trkpt>
      <trkpt lat="43.84026" lon="3.71257">
        <ele>150</ele>
        <time>2014-04-01T09:38:48Z</time>
      </trkpt>
      <trkpt lat="43.84022" lon="3.71261">
        <ele>150</ele>
        <time>2014-04-01T09:38:51Z</time>
      </trkpt>
      <trkpt lat="43.84017" lon="3.71264">
        <ele>151</ele>
        <time>2014-04-01T09:38:55Z</time>
      </trkpt>
      <trkpt lat="43.84013" lon="3.71267">
        <ele>151</ele>
        <time>2014-04-01T09:38:59Z</time>
      </trkpt>
      <trkpt lat="43.84007" lon="3.71269">
        <ele>153</ele>
        <time>2014-04-01T09:39:05Z</time>
      </trkpt>
      <trkpt lat="43.84003" lon="3.71271">
        <ele>153</ele>
        <time>2014-04-01T09:39:09Z</time>
      </trkpt>
      <trkpt lat="43.83998" lon="3.71273">
        <ele>154</ele>
        <time>2014-04-01T09:39:14Z</time>
      </trkpt>
      <trkpt lat="43.83993" lon="3.71272">
        <ele>154</ele>
        <time>2014-04-01T09:39:20Z</time>
      </trkpt>
      <trkpt lat="43.83988" lon="3.71274">
        <ele>153</ele>
        <time>2014-04-01T09:39:26Z</time>
      </trkpt>
      <trkpt lat="43.83982" lon="3.71275">
        <ele>151</ele>
        <time>2014-04-01T09:39:31Z</time>
      </trkpt>
      <trkpt lat="43.83977" lon="3.71277">
        <ele>149</ele>
        <time>2014-04-01T09:39:36Z</time>
      </trkpt>
      <trkpt lat="43.83973" lon="3.7128">
        <ele>149</ele>
        <time>2014-04-01T09:39:40Z</time>
      </trkpt>
      <trkpt lat="43.83969" lon="3.71283">
        <ele>149</ele>
        <time>2014-04-01T09:39:43Z</time>
      </trkpt>
      <trkpt lat="43.83964" lon="3.71284">
        <ele>150</ele>
        <time>2014-04-01T09:39:48Z</time>
      </trkpt>
      <trkpt lat="43.83961" lon="3.71288">
        <ele>151</ele>
        <time>2014-04-01T09:39:52Z</time>
      </trkpt>
      <trkpt lat="43.83957" lon="3.71291">
        <ele>151</ele>
        <time>2014-04-01T09:39:57Z</time>
      </trkpt>
      <trkpt lat="43.83952" lon="3.71296">
        <ele>152</ele>
        <time>2014-04-01T09:40:05Z</time>
      </trkpt>
      <trkpt lat="43.83949" lon="3.71301">
        <ele>152</ele>
        <time>2014-04-01T09:40:11Z</time>
      </trkpt>
      <trkpt lat="43.83946" lon="3.71308">
        <ele>151</ele>
        <time>2014-04-01T09:40:15Z</time>
      </trkpt>
      <trkpt lat="43.83943" lon="3.71314">
        <ele>150</ele>
        <time>2014-04-01T09:40:19Z</time>
      </trkpt>
      <trkpt lat="43.83943" lon="3.71322">
        <ele>150</ele>
        <time>2014-04-01T09:40:27Z</time>
      </trkpt>
      <trkpt lat="43.83942" lon="3.71328">
        <ele>151</ele>
        <time>2014-04-01T09:40:29Z</time>
      </trkpt>
      <trkpt lat="43.83941" lon="3.71334">
        <ele>153</ele>
        <time>2014-04-01T09:40:35Z</time>
      </trkpt>
      <trkpt lat="43.83941" lon="3.71341">
        <ele>155</ele>
        <time>2014-04-01T09:40:44Z</time>
      </trkpt>
      <trkpt lat="43.8394" lon="3.71349">
        <ele>157</ele>
        <time>2014-04-01T09:40:51Z</time>
      </trkpt>
      <trkpt lat="43.83937" lon="3.71356">
        <ele>157</ele>
        <time>2014-04-01T09:40:56Z</time>
      </trkpt>
      <trkpt lat="43.83935" lon="3.71364">
        <ele>157</ele>
        <time>2014-04-01T09:41:00Z</time>
      </trkpt>
      <trkpt lat="43.83938" lon="3.71369">
        <ele>155</ele>
        <time>2014-04-01T09:41:07Z</time>
      </trkpt>
      <trkpt lat="43.83938" lon="3.71375">
        <ele>155</ele>
        <time>2014-04-01T09:41:12Z</time>
      </trkpt>
      <trkpt lat="43.83935" lon="3.71383">
        <ele>156</ele>
        <time>2014-04-01T09:41:17Z</time>
      </trkpt>
      <trkpt lat="43.83935" lon="3.71389">
        <ele>157</ele>
        <time>2014-04-01T09:41:21Z</time>
      </trkpt>
      <trkpt lat="43.83935" lon="3.71396">
        <ele>158</ele>
        <time>2014-04-01T09:41:25Z</time>
      </trkpt>
      <trkpt lat="43.83935" lon="3.71403">
        <ele>160</ele>
        <time>2014-04-01T09:41:31Z</time>
      </trkpt>
      <trkpt lat="43.83935" lon="3.7141">
        <ele>161</ele>
        <time>2014-04-01T09:41:37Z</time>
      </trkpt>
      <trkpt lat="43.83934" lon="3.71417">
        <ele>161</ele>
        <time>2014-04-01T09:41:42Z</time>
      </trkpt>
      <trkpt lat="43.83933" lon="3.71423">
        <ele>161</ele>
        <time>2014-04-01T09:41:48Z</time>
      </trkpt>
      <trkpt lat="43.83932" lon="3.71429">
        <ele>160</ele>
        <time>2014-04-01T09:41:53Z</time>
      </trkpt>
      <trkpt lat="43.83931" lon="3.71437">
        <ele>160</ele>
        <time>2014-04-01T09:41:58Z</time>
      </trkpt>
      <trkpt lat="43.8393" lon="3.71444">
        <ele>159</ele>
        <time>2014-04-01T09:42:02Z</time>
      </trkpt>
      <trkpt lat="43.83929" lon="3.7145">
        <ele>158</ele>
        <time>2014-04-01T09:42:07Z</time>
      </trkpt>
      <trkpt lat="43.8393" lon="3.71456">
        <ele>159</ele>
        <time>2014-04-01T09:42:12Z</time>
      </trkpt>
      <trkpt lat="43.83931" lon="3.71463">
        <ele>160</ele>
        <time>2014-04-01T09:42:17Z</time>
      </trkpt>
      <trkpt lat="43.83932" lon="3.7147">
        <ele>161</ele>
        <time>2014-04-01T09:42:23Z</time>
      </trkpt>
      <trkpt lat="43.8393" lon="3.71474">
        <ele>162</ele>
        <time>2014-04-01T09:42:30Z</time>
      </trkpt>
      <trkpt lat="43.83928" lon="3.71482">
        <ele>163</ele>
        <time>2014-04-01T09:42:38Z</time>
      </trkpt>
      <trkpt lat="43.83925" lon="3.71487">
        <ele>164</ele>
        <time>2014-04-01T09:42:41Z</time>
      </trkpt>
      <trkpt lat="43.83925" lon="3.71493">
        <ele>167</ele>
        <time>2014-04-01T09:42:48Z</time>
      </trkpt>
      <trkpt lat="43.83927" lon="3.71499">
        <ele>168</ele>
        <time>2014-04-01T09:42:53Z</time>
      </trkpt>
      <trkpt lat="43.83925" lon="3.71505">
        <ele>168</ele>
        <time>2014-04-01T09:42:57Z</time>
      </trkpt>
      <trkpt lat="43.83924" lon="3.71511">
        <ele>167</ele>
        <time>2014-04-01T09:43:02Z</time>
      </trkpt>
      <trkpt lat="43.83923" lon="3.71519">
        <ele>169</ele>
        <time>2014-04-01T09:43:12Z</time>
      </trkpt>
      <trkpt lat="43.83922" lon="3.71525">
        <ele>168</ele>
        <time>2014-04-01T09:43:15Z</time>
      </trkpt>
      <trkpt lat="43.8392" lon="3.71531">
        <ele>167</ele>
        <time>2014-04-01T09:43:19Z</time>
      </trkpt>
      <trkpt lat="43.83917" lon="3.71537">
        <ele>165</ele>
        <time>2014-04-01T09:43:28Z</time>
      </trkpt>
      <trkpt lat="43.83913" lon="3.7154">
        <ele>166</ele>
        <time>2014-04-01T09:43:33Z</time>
      </trkpt>
      <trkpt lat="43.83909" lon="3.71545">
        <ele>167</ele>
        <time>2014-04-01T09:43:39Z</time>
      </trkpt>
      <trkpt lat="43.83905" lon="3.7155">
        <ele>169</ele>
        <time>2014-04-01T09:43:43Z</time>
      </trkpt>
      <trkpt lat="43.83902" lon="3.71558">
        <ele>170</ele>
        <time>2014-04-01T09:43:49Z</time>
      </trkpt>
      <trkpt lat="43.83899" lon="3.71563">
        <ele>172</ele>
        <time>2014-04-01T09:43:53Z</time>
      </trkpt>
      <trkpt lat="43.83895" lon="3.71568">
        <ele>173</ele>
        <time>2014-04-01T09:43:57Z</time>
      </trkpt>
      <trkpt lat="43.83893" lon="3.71574">
        <ele>174</ele>
        <time>2014-04-01T09:44:01Z</time>
      </trkpt>
      <trkpt lat="43.83888" lon="3.71579">
        <ele>175</ele>
        <time>2014-04-01T09:44:06Z</time>
      </trkpt>
      <trkpt lat="43.83886" lon="3.71585">
        <ele>176</ele>
        <time>2014-04-01T09:44:10Z</time>
      </trkpt>
      <trkpt lat="43.83882" lon="3.71589">
        <ele>176</ele>
        <time>2014-04-01T09:44:12Z</time>
      </trkpt>
      <trkpt lat="43.83878" lon="3.71593">
        <ele>178</ele>
        <time>2014-04-01T09:44:16Z</time>
      </trkpt>
      <trkpt lat="43.83872" lon="3.71598">
        <ele>182</ele>
        <time>2014-04-01T09:44:29Z</time>
      </trkpt>
      <trkpt lat="43.83867" lon="3.71601">
        <ele>182</ele>
        <time>2014-04-01T09:44:36Z</time>
      </trkpt>
      <trkpt lat="43.83864" lon="3.71604">
        <ele>182</ele>
        <time>2014-04-01T09:44:41Z</time>
      </trkpt>
      <trkpt lat="43.83859" lon="3.71607">
        <ele>181</ele>
        <time>2014-04-01T09:44:46Z</time>
      </trkpt>
      <trkpt lat="43.83854" lon="3.71609">
        <ele>181</ele>
        <time>2014-04-01T09:44:50Z</time>
      </trkpt>
      <trkpt lat="43.8385" lon="3.71613">
        <ele>181</ele>
        <time>2014-04-01T09:44:54Z</time>
      </trkpt>
      <trkpt lat="43.83846" lon="3.71618">
        <ele>179</ele>
        <time>2014-04-01T09:44:58Z</time>
      </trkpt>
      <trkpt lat="43.83841" lon="3.71621">
        <ele>180</ele>
        <time>2014-04-01T09:45:02Z</time>
      </trkpt>
      <trkpt lat="43.83837" lon="3.71624">
        <ele>181</ele>
        <time>2014-04-01T09:45:05Z</time>
      </trkpt>
      <trkpt lat="43.83833" lon="3.71626">
        <ele>181</ele>
        <time>2014-04-01T09:45:10Z</time>
      </trkpt>
      <trkpt lat="43.83829" lon="3.7163">
        <ele>181</ele>
        <time>2014-04-01T09:45:15Z</time>
      </trkpt>
      <trkpt lat="43.83824" lon="3.71634">
        <ele>181</ele>
        <time>2014-04-01T09:45:18Z</time>
      </trkpt>
      <trkpt lat="43.8382" lon="3.71636">
        <ele>179</ele>
        <time>2014-04-01T09:45:23Z</time>
      </trkpt>
      <trkpt lat="43.83815" lon="3.71635">
        <ele>179</ele>
        <time>2014-04-01T09:45:30Z</time>
      </trkpt>
      <trkpt lat="43.83811" lon="3.71638">
        <ele>178</ele>
        <time>2014-04-01T09:45:37Z</time>
      </trkpt>
      <trkpt lat="43.83806" lon="3.71636">
        <ele>180</ele>
        <time>2014-04-01T09:45:41Z</time>
      </trkpt>
      <trkpt lat="43.83801" lon="3.71637">
        <ele>181</ele>
        <time>2014-04-01T09:45:45Z</time>
      </trkpt>
      <trkpt lat="43.83796" lon="3.71638">
        <ele>181</ele>
        <time>2014-04-01T09:45:49Z</time>
      </trkpt>
      <trkpt lat="43.83792" lon="3.7164">
        <ele>180</ele>
        <time>2014-04-01T09:45:53Z</time>
      </trkpt>
      <trkpt lat="43.83787" lon="3.7164">
        <ele>180</ele>
        <time>2014-04-01T09:45:57Z</time>
      </trkpt>
      <trkpt lat="43.83783" lon="3.71643">
        <ele>179</ele>
        <time>2014-04-01T09:46:03Z</time>
      </trkpt>
      <trkpt lat="43.83778" lon="3.71645">
        <ele>179</ele>
        <time>2014-04-01T09:46:08Z</time>
      </trkpt>
      <trkpt lat="43.83774" lon="3.71648">
        <ele>179</ele>
        <time>2014-04-01T09:46:13Z</time>
      </trkpt>
      <trkpt lat="43.8377" lon="3.7165">
        <ele>180</ele>
        <time>2014-04-01T09:46:19Z</time>
      </trkpt>
      <trkpt lat="43.83765" lon="3.71654">
        <ele>180</ele>
        <time>2014-04-01T09:46:24Z</time>
      </trkpt>
      <trkpt lat="43.83762" lon="3.71658">
        <ele>179</ele>
        <time>2014-04-01T09:46:29Z</time>
      </trkpt>
      <trkpt lat="43.83757" lon="3.7166">
        <ele>179</ele>
        <time>2014-04-01T09:46:34Z</time>
      </trkpt>
      <trkpt lat="43.83753" lon="3.71663">
        <ele>181</ele>
        <time>2014-04-01T09:46:40Z</time>
      </trkpt>
      <trkpt lat="43.83748" lon="3.71667">
        <ele>181</ele>
        <time>2014-04-01T09:46:45Z</time>
      </trkpt>
      <trkpt lat="43.83743" lon="3.71667">
        <ele>180</ele>
        <time>2014-04-01T09:46:50Z</time>
      </trkpt>
      <trkpt lat="43.83738" lon="3.71669">
        <ele>180</ele>
        <time>2014-04-01T09:46:57Z</time>
      </trkpt>
      <trkpt lat="43.83734" lon="3.71672">
        <ele>180</ele>
        <time>2014-04-01T09:47:02Z</time>
      </trkpt>
      <trkpt lat="43.83729" lon="3.71674">
        <ele>181</ele>
        <time>2014-04-01T09:47:07Z</time>
      </trkpt>
      <trkpt lat="43.83724" lon="3.71676">
        <ele>181</ele>
        <time>2014-04-01T09:47:13Z</time>
      </trkpt>
      <trkpt lat="43.8372" lon="3.71678">
        <ele>183</ele>
        <time>2014-04-01T09:47:21Z</time>
      </trkpt>
      <trkpt lat="43.83716" lon="3.71682">
        <ele>184</ele>
        <time>2014-04-01T09:47:26Z</time>
      </trkpt>
      <trkpt lat="43.83713" lon="3.71687">
        <ele>185</ele>
        <time>2014-04-01T09:47:33Z</time>
      </trkpt>
      <trkpt lat="43.83708" lon="3.7169">
        <ele>186</ele>
        <time>2014-04-01T09:47:39Z</time>
      </trkpt>
      <trkpt lat="43.83704" lon="3.71694">
        <ele>186</ele>
        <time>2014-04-01T09:47:44Z</time>
      </trkpt>
      <trkpt lat="43.837" lon="3.71697">
        <ele>186</ele>
        <time>2014-04-01T09:47:49Z</time>
      </trkpt>
      <trkpt lat="43.83696" lon="3.717">
        <ele>187</ele>
        <time>2014-04-01T09:47:52Z</time>
      </trkpt>
      <trkpt lat="43.83691" lon="3.71704">
        <ele>188</ele>
        <time>2014-04-01T09:47:57Z</time>
      </trkpt>
      <trkpt lat="43.83686" lon="3.71706">
        <ele>189</ele>
        <time>2014-04-01T09:48:02Z</time>
      </trkpt>
      <trkpt lat="43.83683" lon="3.71711">
        <ele>189</ele>
        <time>2014-04-01T09:48:07Z</time>
      </trkpt>
      <trkpt lat="43.83678" lon="3.71714">
        <ele>190</ele>
        <time>2014-04-01T09:48:11Z</time>
      </trkpt>
      <trkpt lat="43.83673" lon="3.71717">
        <ele>191</ele>
        <time>2014-04-01T09:48:14Z</time>
      </trkpt>
      <trkpt lat="43.83668" lon="3.71719">
        <ele>191</ele>
        <time>2014-04-01T09:48:19Z</time>
      </trkpt>
      <trkpt lat="43.83663" lon="3.71719">
        <ele>192</ele>
        <time>2014-04-01T09:48:23Z</time>
      </trkpt>
      <trkpt lat="43.83657" lon="3.71721">
        <ele>192</ele>
        <time>2014-04-01T09:48:29Z</time>
      </trkpt>
      <trkpt lat="43.83652" lon="3.71722">
        <ele>191</ele>
        <time>2014-04-01T09:48:33Z</time>
      </trkpt>
      <trkpt lat="43.83648" lon="3.71719">
        <ele>189</ele>
        <time>2014-04-01T09:48:40Z</time>
      </trkpt>
      <trkpt lat="43.83643" lon="3.71717">
        <ele>188</ele>
        <time>2014-04-01T09:48:45Z</time>
      </trkpt>
      <trkpt lat="43.83633" lon="3.71718">
        <ele>183</ele>
        <time>2014-04-01T09:48:58Z</time>
      </trkpt>
      <trkpt lat="43.83629" lon="3.71716">
        <ele>182</ele>
        <time>2014-04-01T09:49:04Z</time>
      </trkpt>
      <trkpt lat="43.83624" lon="3.71714">
        <ele>181</ele>
        <time>2014-04-01T09:49:08Z</time>
      </trkpt>
      <trkpt lat="43.83622" lon="3.71714">
        <ele>180</ele>
        <time>2014-04-01T09:49:14Z</time>
      </trkpt>
      <trkpt lat="43.83617" lon="3.71716">
        <ele>180</ele>
        <time>2014-04-01T09:49:18Z</time>
      </trkpt>
      <trkpt lat="43.83612" lon="3.71718">
        <ele>180</ele>
        <time>2014-04-01T09:49:22Z</time>
      </trkpt>
      <trkpt lat="43.83607" lon="3.7172">
        <ele>181</ele>
        <time>2014-04-01T09:49:25Z</time>
      </trkpt>
      <trkpt lat="43.83603" lon="3.71723">
        <ele>182</ele>
        <time>2014-04-01T09:49:31Z</time>
      </trkpt>
      <trkpt lat="43.83595" lon="3.71732">
        <ele>190</ele>
        <time>2014-04-01T09:49:41Z</time>
      </trkpt>
      <trkpt lat="43.83595" lon="3.71739">
        <ele>197</ele>
        <time>2014-04-01T09:49:51Z</time>
      </trkpt>
      <trkpt lat="43.836" lon="3.71765">
        <ele>206</ele>
        <time>2014-04-01T09:50:12Z</time>
      </trkpt>
      <trkpt lat="43.83598" lon="3.71778">
        <ele>208</ele>
        <time>2014-04-01T09:50:23Z</time>
      </trkpt>
      <trkpt lat="43.83609" lon="3.71777">
        <ele>209</ele>
        <time>2014-04-01T09:50:28Z</time>
      </trkpt>
      <trkpt lat="43.83614" lon="3.71788">
        <ele>209</ele>
        <time>2014-04-01T09:50:35Z</time>
      </trkpt>
      <trkpt lat="43.83615" lon="3.71796">
        <ele>210</ele>
        <time>2014-04-01T09:50:39Z</time>
      </trkpt>
      <trkpt lat="43.83613" lon="3.71803">
        <ele>210</ele>
        <time>2014-04-01T09:50:43Z</time>
      </trkpt>
      <trkpt lat="43.8361" lon="3.71811">
        <ele>210</ele>
        <time>2014-04-01T09:50:46Z</time>
      </trkpt>
      <trkpt lat="43.83608" lon="3.71817">
        <ele>211</ele>
        <time>2014-04-01T09:50:49Z</time>
      </trkpt>
      <trkpt lat="43.83606" lon="3.71824">
        <ele>212</ele>
        <time>2014-04-01T09:50:52Z</time>
      </trkpt>
      <trkpt lat="43.83604" lon="3.7183">
        <ele>212</ele>
        <time>2014-04-01T09:50:56Z</time>
      </trkpt>
      <trkpt lat="43.83603" lon="3.71833">
        <ele>212</ele>
        <time>2014-04-01T09:51:02Z</time>
      </trkpt>
      <trkpt lat="43.836" lon="3.71839">
        <ele>212</ele>
        <time>2014-04-01T09:51:07Z</time>
      </trkpt>
      <trkpt lat="43.83597" lon="3.71844">
        <ele>212</ele>
        <time>2014-04-01T09:51:12Z</time>
      </trkpt>
      <trkpt lat="43.83594" lon="3.71848">
        <ele>214</ele>
        <time>2014-04-01T09:51:17Z</time>
      </trkpt>
      <trkpt lat="43.83591" lon="3.71853">
        <ele>215</ele>
        <time>2014-04-01T09:51:21Z</time>
      </trkpt>
      <trkpt lat="43.83587" lon="3.71857">
        <ele>217</ele>
        <time>2014-04-01T09:51:23Z</time>
      </trkpt>
      <trkpt lat="43.83584" lon="3.71863">
        <ele>218</ele>
        <time>2014-04-01T09:51:28Z</time>
      </trkpt>
      <trkpt lat="43.83581" lon="3.71869">
        <ele>221</ele>
        <time>2014-04-01T09:51:34Z</time>
      </trkpt>
      <trkpt lat="43.83578" lon="3.71875">
        <ele>222</ele>
        <time>2014-04-01T09:51:38Z</time>
      </trkpt>
      <trkpt lat="43.83574" lon="3.71879">
        <ele>224</ele>
        <time>2014-04-01T09:51:45Z</time>
      </trkpt>
      <trkpt lat="43.83571" lon="3.71885">
        <ele>225</ele>
        <time>2014-04-01T09:51:50Z</time>
      </trkpt>
      <trkpt lat="43.83568" lon="3.7189">
        <ele>226</ele>
        <time>2014-04-01T09:51:54Z</time>
      </trkpt>
      <trkpt lat="43.83564" lon="3.71893">
        <ele>225</ele>
        <time>2014-04-01T09:52:00Z</time>
      </trkpt>
      <trkpt lat="43.83561" lon="3.719">
        <ele>226</ele>
        <time>2014-04-01T09:52:04Z</time>
      </trkpt>
      <trkpt lat="43.83557" lon="3.71904">
        <ele>227</ele>
        <time>2014-04-01T09:52:09Z</time>
      </trkpt>
      <trkpt lat="43.83552" lon="3.71909">
        <ele>228</ele>
        <time>2014-04-01T09:52:14Z</time>
      </trkpt>
      <trkpt lat="43.83549" lon="3.71914">
        <ele>228</ele>
        <time>2014-04-01T09:52:17Z</time>
      </trkpt>
      <trkpt lat="43.83548" lon="3.71921">
        <ele>227</ele>
        <time>2014-04-01T09:52:21Z</time>
      </trkpt>
      <trkpt lat="43.83546" lon="3.71928">
        <ele>226</ele>
        <time>2014-04-01T09:52:27Z</time>
      </trkpt>
      <trkpt lat="43.83545" lon="3.71934">
        <ele>227</ele>
        <time>2014-04-01T09:52:33Z</time>
      </trkpt>
      <trkpt lat="43.83546" lon="3.7194">
        <ele>225</ele>
        <time>2014-04-01T09:52:38Z</time>
      </trkpt>
      <trkpt lat="43.83549" lon="3.71951">
        <ele>230</ele>
        <time>2014-04-01T09:52:55Z</time>
      </trkpt>
      <trkpt lat="43.83547" lon="3.7196">
        <ele>234</ele>
        <time>2014-04-01T09:53:04Z</time>
      </trkpt>
      <trkpt lat="43.83546" lon="3.71971">
        <ele>234</ele>
        <time>2014-04-01T09:53:10Z</time>
      </trkpt>
      <trkpt lat="43.83545" lon="3.71977">
        <ele>234</ele>
        <time>2014-04-01T09:53:11Z</time>
      </trkpt>
      <trkpt lat="43.83544" lon="3.71985">
        <ele>233</ele>
        <time>2014-04-01T09:53:15Z</time>
      </trkpt>
      <trkpt lat="43.83543" lon="3.71991">
        <ele>233</ele>
        <time>2014-04-01T09:53:25Z</time>
      </trkpt>
      <trkpt lat="43.83539" lon="3.71988">
        <ele>234</ele>
        <time>2014-04-01T09:53:39Z</time>
      </trkpt>
      <trkpt lat="43.8354" lon="3.71993">
        <ele>237</ele>
        <time>2014-04-01T09:54:34Z</time>
      </trkpt>
      <trkpt lat="43.83538" lon="3.72001">
        <ele>235</ele>
        <time>2014-04-01T09:56:07Z</time>
      </trkpt>
      <trkpt lat="43.83536" lon="3.72008">
        <ele>234</ele>
        <time>2014-04-01T09:56:13Z</time>
      </trkpt>
      <trkpt lat="43.83538" lon="3.72011">
        <ele>234</ele>
        <time>2014-04-01T09:56:23Z</time>
      </trkpt>
      <trkpt lat="43.83536" lon="3.72017">
        <ele>234</ele>
        <time>2014-04-01T09:56:27Z</time>
      </trkpt>
      <trkpt lat="43.83534" lon="3.72023">
        <ele>232</ele>
        <time>2014-04-01T09:56:33Z</time>
      </trkpt>
      <trkpt lat="43.83533" lon="3.72029">
        <ele>231</ele>
        <time>2014-04-01T09:56:38Z</time>
      </trkpt>
      <trkpt lat="43.83532" lon="3.72036">
        <ele>231</ele>
        <time>2014-04-01T09:56:42Z</time>
      </trkpt>
      <trkpt lat="43.83529" lon="3.72045">
        <ele>229</ele>
        <time>2014-04-01T09:56:56Z</time>
      </trkpt>
      <trkpt lat="43.83526" lon="3.7205">
        <ele>227</ele>
        <time>2014-04-01T09:57:01Z</time>
      </trkpt>
      <trkpt lat="43.83526" lon="3.72057">
        <ele>225</ele>
        <time>2014-04-01T09:57:06Z</time>
      </trkpt>
      <trkpt lat="43.83524" lon="3.72063">
        <ele>225</ele>
        <time>2014-04-01T09:57:09Z</time>
      </trkpt>
      <trkpt lat="43.83522" lon="3.72069">
        <ele>223</ele>
        <time>2014-04-01T09:57:13Z</time>
      </trkpt>
      <trkpt lat="43.83522" lon="3.72076">
        <ele>222</ele>
        <time>2014-04-01T09:57:17Z</time>
      </trkpt>
      <trkpt lat="43.83523" lon="3.72082">
        <ele>221</ele>
        <time>2014-04-01T09:57:22Z</time>
      </trkpt>
      <trkpt lat="43.8352" lon="3.72089">
        <ele>221</ele>
        <time>2014-04-01T09:57:26Z</time>
      </trkpt>
      <trkpt lat="43.83518" lon="3.72094">
        <ele>222</ele>
        <time>2014-04-01T09:57:30Z</time>
      </trkpt>
      <trkpt lat="43.83517" lon="3.72102">
        <ele>223</ele>
        <time>2014-04-01T09:57:34Z</time>
      </trkpt>
      <trkpt lat="43.83518" lon="3.72109">
        <ele>225</ele>
        <time>2014-04-01T09:57:43Z</time>
      </trkpt>
      <trkpt lat="43.8352" lon="3.72111">
        <ele>224</ele>
        <time>2014-04-01T09:57:49Z</time>
      </trkpt>
      <trkpt lat="43.83518" lon="3.72119">
        <ele>224</ele>
        <time>2014-04-01T09:57:54Z</time>
      </trkpt>
      <trkpt lat="43.83519" lon="3.72125">
        <ele>224</ele>
        <time>2014-04-01T09:57:58Z</time>
      </trkpt>
      <trkpt lat="43.83517" lon="3.72132">
        <ele>224</ele>
        <time>2014-04-01T09:58:02Z</time>
      </trkpt>
      <trkpt lat="43.83514" lon="3.7214">
        <ele>225</ele>
        <time>2014-04-01T09:58:05Z</time>
      </trkpt>
      <trkpt lat="43.8351" lon="3.72146">
        <ele>227</ele>
        <time>2014-04-01T09:58:08Z</time>
      </trkpt>
      <trkpt lat="43.83509" lon="3.72154">
        <ele>226</ele>
        <time>2014-04-01T09:58:11Z</time>
      </trkpt>
      <trkpt lat="43.83509" lon="3.72161">
        <ele>225</ele>
        <time>2014-04-01T09:58:15Z</time>
      </trkpt>
      <trkpt lat="43.83507" lon="3.72168">
        <ele>226</ele>
        <time>2014-04-01T09:58:21Z</time>
      </trkpt>
      <trkpt lat="43.83492" lon="3.72192">
        <ele>238</ele>
        <time>2014-04-01T09:58:55Z</time>
      </trkpt>
      <trkpt lat="43.8349" lon="3.722">
        <ele>238</ele>
        <time>2014-04-01T09:59:02Z</time>
      </trkpt>
      <trkpt lat="43.83489" lon="3.72206">
        <ele>236</ele>
        <time>2014-04-01T09:59:07Z</time>
      </trkpt>
      <trkpt lat="43.83488" lon="3.72213">
        <ele>234</ele>
        <time>2014-04-01T09:59:13Z</time>
      </trkpt>
      <trkpt lat="43.83485" lon="3.72219">
        <ele>233</ele>
        <time>2014-04-01T09:59:19Z</time>
      </trkpt>
      <trkpt lat="43.83482" lon="3.72224">
        <ele>234</ele>
        <time>2014-04-01T09:59:25Z</time>
      </trkpt>
      <trkpt lat="43.83477" lon="3.72227">
        <ele>234</ele>
        <time>2014-04-01T09:59:32Z</time>
      </trkpt>
      <trkpt lat="43.83475" lon="3.72232">
        <ele>234</ele>
        <time>2014-04-01T09:59:36Z</time>
      </trkpt>
      <trkpt lat="43.83475" lon="3.72239">
        <ele>234</ele>
        <time>2014-04-01T09:59:39Z</time>
      </trkpt>
      <trkpt lat="43.83475" lon="3.72247">
        <ele>234</ele>
        <time>2014-04-01T09:59:46Z</time>
      </trkpt>
      <trkpt lat="43.83476" lon="3.72254">
        <ele>233</ele>
        <time>2014-04-01T09:59:50Z</time>
      </trkpt>
      <trkpt lat="43.83477" lon="3.72261">
        <ele>233</ele>
        <time>2014-04-01T09:59:54Z</time>
      </trkpt>
      <trkpt lat="43.83474" lon="3.72267">
        <ele>234</ele>
        <time>2014-04-01T09:59:59Z</time>
      </trkpt>
      <trkpt lat="43.83476" lon="3.72271">
        <ele>235</ele>
        <time>2014-04-01T10:00:07Z</time>
      </trkpt>
      <trkpt lat="43.83477" lon="3.72274">
        <ele>237</ele>
        <time>2014-04-01T10:00:14Z</time>
      </trkpt>
      <trkpt lat="43.83474" lon="3.7228">
        <ele>238</ele>
        <time>2014-04-01T10:00:20Z</time>
      </trkpt>
      <trkpt lat="43.83472" lon="3.72286">
        <ele>240</ele>
        <time>2014-04-01T10:00:27Z</time>
      </trkpt>
      <trkpt lat="43.8347" lon="3.72299">
        <ele>240</ele>
        <time>2014-04-01T10:00:34Z</time>
      </trkpt>
      <trkpt lat="43.83468" lon="3.72305">
        <ele>241</ele>
        <time>2014-04-01T10:00:39Z</time>
      </trkpt>
      <trkpt lat="43.83464" lon="3.72312">
        <ele>241</ele>
        <time>2014-04-01T10:00:45Z</time>
      </trkpt>
      <trkpt lat="43.8346" lon="3.72318">
        <ele>242</ele>
        <time>2014-04-01T10:00:48Z</time>
      </trkpt>
      <trkpt lat="43.83458" lon="3.72324">
        <ele>244</ele>
        <time>2014-04-01T10:00:56Z</time>
      </trkpt>
      <trkpt lat="43.83455" lon="3.72328">
        <ele>245</ele>
        <time>2014-04-01T10:01:00Z</time>
      </trkpt>
      <trkpt lat="43.83452" lon="3.72337">
        <ele>249</ele>
        <time>2014-04-01T10:01:12Z</time>
      </trkpt>
      <trkpt lat="43.83448" lon="3.72335">
        <ele>253</ele>
        <time>2014-04-01T10:01:21Z</time>
      </trkpt>
      <trkpt lat="43.83444" lon="3.7234">
        <ele>257</ele>
        <time>2014-04-01T10:01:28Z</time>
      </trkpt>
      <trkpt lat="43.83439" lon="3.72341">
        <ele>261</ele>
        <time>2014-04-01T10:01:33Z</time>
      </trkpt>
      <trkpt lat="43.83435" lon="3.72337">
        <ele>265</ele>
        <time>2014-04-01T10:01:38Z</time>
      </trkpt>
      <trkpt lat="43.8343" lon="3.72338">
        <ele>268</ele>
        <time>2014-04-01T10:01:43Z</time>
      </trkpt>
      <trkpt lat="43.83427" lon="3.72343">
        <ele>271</ele>
        <time>2014-04-01T10:01:50Z</time>
      </trkpt>
      <trkpt lat="43.83425" lon="3.7234">
        <ele>275</ele>
        <time>2014-04-01T10:02:03Z</time>
      </trkpt>
      <trkpt lat="43.83426" lon="3.72338">
        <ele>276</ele>
        <time>2014-04-01T10:02:29Z</time>
      </trkpt>
      <trkpt lat="43.83433" lon="3.72344">
        <ele>276</ele>
        <time>2014-04-01T10:02:37Z</time>
      </trkpt>
      <trkpt lat="43.83433" lon="3.72351">
        <ele>276</ele>
        <time>2014-04-01T10:02:42Z</time>
      </trkpt>
      <trkpt lat="43.83433" lon="3.72359">
        <ele>274</ele>
        <time>2014-04-01T10:02:46Z</time>
      </trkpt>
      <trkpt lat="43.83432" lon="3.72366">
        <ele>273</ele>
        <time>2014-04-01T10:02:50Z</time>
      </trkpt>
      <trkpt lat="43.83428" lon="3.72371">
        <ele>272</ele>
        <time>2014-04-01T10:02:55Z</time>
      </trkpt>
      <trkpt lat="43.83423" lon="3.72377">
        <ele>271</ele>
        <time>2014-04-01T10:02:58Z</time>
      </trkpt>
      <trkpt lat="43.8342" lon="3.72376">
        <ele>270</ele>
        <time>2014-04-01T10:03:08Z</time>
      </trkpt>
      <trkpt lat="43.83416" lon="3.72377">
        <ele>268</ele>
        <time>2014-04-01T10:03:33Z</time>
      </trkpt>
      <trkpt lat="43.83411" lon="3.72373">
        <ele>267</ele>
        <time>2014-04-01T10:03:51Z</time>
      </trkpt>
      <trkpt lat="43.83409" lon="3.72375">
        <ele>267</ele>
        <time>2014-04-01T10:04:16Z</time>
      </trkpt>
      <trkpt lat="43.83404" lon="3.72375">
        <ele>267</ele>
        <time>2014-04-01T10:04:26Z</time>
      </trkpt>
      <trkpt lat="43.83399" lon="3.72373">
        <ele>269</ele>
        <time>2014-04-01T10:04:30Z</time>
      </trkpt>
      <trkpt lat="43.83397" lon="3.72361">
        <ele>273</ele>
        <time>2014-04-01T10:04:41Z</time>
      </trkpt>
      <trkpt lat="43.83396" lon="3.72359">
        <ele>273</ele>
        <time>2014-04-01T10:05:14Z</time>
      </trkpt>
      <trkpt lat="43.83391" lon="3.72358">
        <ele>272</ele>
        <time>2014-04-01T10:05:30Z</time>
      </trkpt>
      <trkpt lat="43.83385" lon="3.72358">
        <ele>268</ele>
        <time>2014-04-01T10:05:38Z</time>
      </trkpt>
      <trkpt lat="43.83382" lon="3.72352">
        <ele>265</ele>
        <time>2014-04-01T10:05:46Z</time>
      </trkpt>
      <trkpt lat="43.83378" lon="3.72347">
        <ele>264</ele>
        <time>2014-04-01T10:05:51Z</time>
      </trkpt>
      <trkpt lat="43.83374" lon="3.72341">
        <ele>263</ele>
        <time>2014-04-01T10:05:56Z</time>
      </trkpt>
      <trkpt lat="43.8337" lon="3.72337">
        <ele>263</ele>
        <time>2014-04-01T10:06:00Z</time>
      </trkpt>
      <trkpt lat="43.83371" lon="3.72334">
        <ele>266</ele>
        <time>2014-04-01T10:07:03Z</time>
      </trkpt>
      <trkpt lat="43.83366" lon="3.72332">
        <ele>267</ele>
        <time>2014-04-01T10:07:08Z</time>
      </trkpt>
      <trkpt lat="43.83361" lon="3.72329">
        <ele>268</ele>
        <time>2014-04-01T10:07:11Z</time>
      </trkpt>
      <trkpt lat="43.83358" lon="3.72324">
        <ele>271</ele>
        <time>2014-04-01T10:07:18Z</time>
      </trkpt>
      <trkpt lat="43.83354" lon="3.72321">
        <ele>271</ele>
        <time>2014-04-01T10:07:23Z</time>
      </trkpt>
      <trkpt lat="43.8335" lon="3.72315">
        <ele>271</ele>
        <time>2014-04-01T10:07:34Z</time>
      </trkpt>
      <trkpt lat="43.83347" lon="3.72309">
        <ele>271</ele>
        <time>2014-04-01T10:07:43Z</time>
      </trkpt>
      <trkpt lat="43.83345" lon="3.72303">
        <ele>273</ele>
        <time>2014-04-01T10:07:53Z</time>
      </trkpt>
      <trkpt lat="43.83339" lon="3.72303">
        <ele>272</ele>
        <time>2014-04-01T10:08:09Z</time>
      </trkpt>
      <trkpt lat="43.83335" lon="3.72299">
        <ele>271</ele>
        <time>2014-04-01T10:08:15Z</time>
      </trkpt>
      <trkpt lat="43.83332" lon="3.72293">
        <ele>270</ele>
        <time>2014-04-01T10:08:21Z</time>
      </trkpt>
      <trkpt lat="43.83329" lon="3.72288">
        <ele>272</ele>
        <time>2014-04-01T10:08:25Z</time>
      </trkpt>
      <trkpt lat="43.83326" lon="3.72283">
        <ele>273</ele>
        <time>2014-04-01T10:08:31Z</time>
      </trkpt>
      <trkpt lat="43.83321" lon="3.72279">
        <ele>275</ele>
        <time>2014-04-01T10:08:39Z</time>
      </trkpt>
      <trkpt lat="43.83318" lon="3.72276">
        <ele>276</ele>
        <time>2014-04-01T10:08:46Z</time>
      </trkpt>
      <trkpt lat="43.83316" lon="3.72273">
        <ele>276</ele>
        <time>2014-04-01T10:08:58Z</time>
      </trkpt>
      <trkpt lat="43.83313" lon="3.72269">
        <ele>277</ele>
        <time>2014-04-01T10:09:03Z</time>
      </trkpt>
      <trkpt lat="43.83311" lon="3.72263">
        <ele>279</ele>
        <time>2014-04-01T10:09:08Z</time>
      </trkpt>
      <trkpt lat="43.8331" lon="3.72255">
        <ele>281</ele>
        <time>2014-04-01T10:09:15Z</time>
      </trkpt>
      <trkpt lat="43.83307" lon="3.7225">
        <ele>283</ele>
        <time>2014-04-01T10:09:19Z</time>
      </trkpt>
      <trkpt lat="43.83304" lon="3.72246">
        <ele>285</ele>
        <time>2014-04-01T10:09:25Z</time>
      </trkpt>
      <trkpt lat="43.833" lon="3.72242">
        <ele>287</ele>
        <time>2014-04-01T10:09:31Z</time>
      </trkpt>
      <trkpt lat="43.83296" lon="3.72239">
        <ele>288</ele>
        <time>2014-04-01T10:09:35Z</time>
      </trkpt>
      <trkpt lat="43.83292" lon="3.72234">
        <ele>290</ele>
        <time>2014-04-01T10:09:40Z</time>
      </trkpt>
      <trkpt lat="43.83288" lon="3.72231">
        <ele>292</ele>
        <time>2014-04-01T10:09:45Z</time>
      </trkpt>
      <trkpt lat="43.83284" lon="3.72228">
        <ele>293</ele>
        <time>2014-04-01T10:09:51Z</time>
      </trkpt>
      <trkpt lat="43.8328" lon="3.72223">
        <ele>294</ele>
        <time>2014-04-01T10:09:58Z</time>
      </trkpt>
      <trkpt lat="43.83277" lon="3.72217">
        <ele>294</ele>
        <time>2014-04-01T10:10:03Z</time>
      </trkpt>
      <trkpt lat="43.83272" lon="3.72214">
        <ele>295</ele>
        <time>2014-04-01T10:10:07Z</time>
      </trkpt>
      <trkpt lat="43.83268" lon="3.72211">
        <ele>295</ele>
        <time>2014-04-01T10:10:13Z</time>
      </trkpt>
      <trkpt lat="43.83266" lon="3.72205">
        <ele>296</ele>
        <time>2014-04-01T10:10:18Z</time>
      </trkpt>
      <trkpt lat="43.83264" lon="3.72199">
        <ele>298</ele>
        <time>2014-04-01T10:10:22Z</time>
      </trkpt>
      <trkpt lat="43.8326" lon="3.722">
        <ele>300</ele>
        <time>2014-04-01T10:10:36Z</time>
      </trkpt>
      <trkpt lat="43.83256" lon="3.72198">
        <ele>299</ele>
        <time>2014-04-01T10:10:46Z</time>
      </trkpt>
      <trkpt lat="43.83252" lon="3.72193">
        <ele>298</ele>
        <time>2014-04-01T10:10:51Z</time>
      </trkpt>
      <trkpt lat="43.83247" lon="3.7219">
        <ele>297</ele>
        <time>2014-04-01T10:10:56Z</time>
      </trkpt>
      <trkpt lat="43.83244" lon="3.72185">
        <ele>297</ele>
        <time>2014-04-01T10:11:00Z</time>
      </trkpt>
      <trkpt lat="43.8324" lon="3.7218">
        <ele>297</ele>
        <time>2014-04-01T10:11:07Z</time>
      </trkpt>
      <trkpt lat="43.83238" lon="3.72174">
        <ele>298</ele>
        <time>2014-04-01T10:11:11Z</time>
      </trkpt>
      <trkpt lat="43.83235" lon="3.72168">
        <ele>299</ele>
        <time>2014-04-01T10:11:15Z</time>
      </trkpt>
      <trkpt lat="43.83232" lon="3.72162">
        <ele>300</ele>
        <time>2014-04-01T10:11:19Z</time>
      </trkpt>
      <trkpt lat="43.83228" lon="3.72158">
        <ele>301</ele>
        <time>2014-04-01T10:11:25Z</time>
      </trkpt>
      <trkpt lat="43.83226" lon="3.72159">
        <ele>300</ele>
        <time>2014-04-01T10:11:37Z</time>
      </trkpt>
      <trkpt lat="43.83223" lon="3.72155">
        <ele>300</ele>
        <time>2014-04-01T10:11:45Z</time>
      </trkpt>
      <trkpt lat="43.83221" lon="3.72158">
        <ele>297</ele>
        <time>2014-04-01T10:11:57Z</time>
      </trkpt>
      <trkpt lat="43.83216" lon="3.72158">
        <ele>296</ele>
        <time>2014-04-01T10:12:02Z</time>
      </trkpt>
      <trkpt lat="43.83213" lon="3.72159">
        <ele>295</ele>
        <time>2014-04-01T10:12:10Z</time>
      </trkpt>
      <trkpt lat="43.83204" lon="3.72151">
        <ele>294</ele>
        <time>2014-04-01T10:12:20Z</time>
      </trkpt>
      <trkpt lat="43.832" lon="3.72149">
        <ele>295</ele>
        <time>2014-04-01T10:12:23Z</time>
      </trkpt>
      <trkpt lat="43.83195" lon="3.72149">
        <ele>296</ele>
        <time>2014-04-01T10:12:27Z</time>
      </trkpt>
      <trkpt lat="43.8319" lon="3.7215">
        <ele>296</ele>
        <time>2014-04-01T10:12:31Z</time>
      </trkpt>
      <trkpt lat="43.83189" lon="3.72153">
        <ele>297</ele>
        <time>2014-04-01T10:12:37Z</time>
      </trkpt>
      <trkpt lat="43.83187" lon="3.72159">
        <ele>296</ele>
        <time>2014-04-01T10:12:42Z</time>
      </trkpt>
      <trkpt lat="43.83182" lon="3.72164">
        <ele>295</ele>
        <time>2014-04-01T10:12:47Z</time>
      </trkpt>
      <trkpt lat="43.83177" lon="3.72164">
        <ele>294</ele>
        <time>2014-04-01T10:12:51Z</time>
      </trkpt>
      <trkpt lat="43.83171" lon="3.72165">
        <ele>294</ele>
        <time>2014-04-01T10:12:55Z</time>
      </trkpt>
      <trkpt lat="43.83167" lon="3.72167">
        <ele>293</ele>
        <time>2014-04-01T10:13:00Z</time>
      </trkpt>
      <trkpt lat="43.83163" lon="3.72172">
        <ele>292</ele>
        <time>2014-04-01T10:13:03Z</time>
      </trkpt>
      <trkpt lat="43.83158" lon="3.72174">
        <ele>290</ele>
        <time>2014-04-01T10:13:11Z</time>
      </trkpt>
      <trkpt lat="43.83155" lon="3.72179">
        <ele>289</ele>
        <time>2014-04-01T10:13:16Z</time>
      </trkpt>
      <trkpt lat="43.83151" lon="3.72183">
        <ele>287</ele>
        <time>2014-04-01T10:13:21Z</time>
      </trkpt>
      <trkpt lat="43.83146" lon="3.72184">
        <ele>287</ele>
        <time>2014-04-01T10:13:24Z</time>
      </trkpt>
      <trkpt lat="43.83141" lon="3.72184">
        <ele>288</ele>
        <time>2014-04-01T10:13:30Z</time>
      </trkpt>
      <trkpt lat="43.83136" lon="3.72187">
        <ele>289</ele>
        <time>2014-04-01T10:13:38Z</time>
      </trkpt>
      <trkpt lat="43.83131" lon="3.72186">
        <ele>291</ele>
        <time>2014-04-01T10:13:43Z</time>
      </trkpt>
      <trkpt lat="43.83127" lon="3.72189">
        <ele>291</ele>
        <time>2014-04-01T10:13:48Z</time>
      </trkpt>
      <trkpt lat="43.83125" lon="3.72186">
        <ele>296</ele>
        <time>2014-04-01T10:14:41Z</time>
      </trkpt>
      <trkpt lat="43.83124" lon="3.72186">
        <ele>298</ele>
        <time>2014-04-01T10:15:08Z</time>
      </trkpt>
      <trkpt lat="43.83121" lon="3.72192">
        <ele>298</ele>
        <time>2014-04-01T10:15:12Z</time>
      </trkpt>
      <trkpt lat="43.83118" lon="3.72198">
        <ele>297</ele>
        <time>2014-04-01T10:15:17Z</time>
      </trkpt>
      <trkpt lat="43.83114" lon="3.72203">
        <ele>294</ele>
        <time>2014-04-01T10:15:22Z</time>
      </trkpt>
      <trkpt lat="43.83111" lon="3.7221">
        <ele>292</ele>
        <time>2014-04-01T10:15:28Z</time>
      </trkpt>
      <trkpt lat="43.83106" lon="3.72212">
        <ele>292</ele>
        <time>2014-04-01T10:15:33Z</time>
      </trkpt>
      <trkpt lat="43.83104" lon="3.72217">
        <ele>292</ele>
        <time>2014-04-01T10:15:43Z</time>
      </trkpt>
      <trkpt lat="43.83086" lon="3.7219">
        <ele>298</ele>
        <time>2014-04-01T10:15:45Z</time>
      </trkpt>
      <trkpt lat="43.8309" lon="3.72199">
        <ele>299</ele>
        <time>2014-04-01T10:15:45Z</time>
      </trkpt>
      <trkpt lat="43.83088" lon="3.72206">
        <ele>301</ele>
        <time>2014-04-01T10:15:49Z</time>
      </trkpt>
      <trkpt lat="43.83088" lon="3.72213">
        <ele>303</ele>
        <time>2014-04-01T10:15:52Z</time>
      </trkpt>
      <trkpt lat="43.83086" lon="3.7222">
        <ele>303</ele>
        <time>2014-04-01T10:16:00Z</time>
      </trkpt>
      <trkpt lat="43.83085" lon="3.72227">
        <ele>303</ele>
        <time>2014-04-01T10:16:05Z</time>
      </trkpt>
      <trkpt lat="43.83083" lon="3.72234">
        <ele>302</ele>
        <time>2014-04-01T10:16:11Z</time>
      </trkpt>
      <trkpt lat="43.83081" lon="3.72241">
        <ele>300</ele>
        <time>2014-04-01T10:16:16Z</time>
      </trkpt>
      <trkpt lat="43.83078" lon="3.72246">
        <ele>298</ele>
        <time>2014-04-01T10:16:23Z</time>
      </trkpt>
      <trkpt lat="43.83073" lon="3.7225">
        <ele>297</ele>
        <time>2014-04-01T10:16:29Z</time>
      </trkpt>
      <trkpt lat="43.83069" lon="3.72254">
        <ele>296</ele>
        <time>2014-04-01T10:16:33Z</time>
      </trkpt>
      <trkpt lat="43.83065" lon="3.72257">
        <ele>296</ele>
        <time>2014-04-01T10:16:36Z</time>
      </trkpt>
      <trkpt lat="43.83061" lon="3.7226">
        <ele>296</ele>
        <time>2014-04-01T10:16:41Z</time>
      </trkpt>
      <trkpt lat="43.83058" lon="3.72267">
        <ele>295</ele>
        <time>2014-04-01T10:16:46Z</time>
      </trkpt>
      <trkpt lat="43.83055" lon="3.72273">
        <ele>294</ele>
        <time>2014-04-01T10:16:50Z</time>
      </trkpt>
      <trkpt lat="43.83053" lon="3.72279">
        <ele>292</ele>
        <time>2014-04-01T10:16:54Z</time>
      </trkpt>
      <trkpt lat="43.8305" lon="3.72286">
        <ele>289</ele>
        <time>2014-04-01T10:17:01Z</time>
      </trkpt>
      <trkpt lat="43.83049" lon="3.72289">
        <ele>287</ele>
        <time>2014-04-01T10:17:08Z</time>
      </trkpt>
      <trkpt lat="43.83046" lon="3.72294">
        <ele>286</ele>
        <time>2014-04-01T10:17:20Z</time>
      </trkpt>
      <trkpt lat="43.83043" lon="3.72299">
        <ele>284</ele>
        <time>2014-04-01T10:17:27Z</time>
      </trkpt>
      <trkpt lat="43.83039" lon="3.72302">
        <ele>283</ele>
        <time>2014-04-01T10:17:33Z</time>
      </trkpt>
      <trkpt lat="43.83034" lon="3.723">
        <ele>283</ele>
        <time>2014-04-01T10:17:40Z</time>
      </trkpt>
      <trkpt lat="43.8303" lon="3.72308">
        <ele>283</ele>
        <time>2014-04-01T10:17:51Z</time>
      </trkpt>
      <trkpt lat="43.83029" lon="3.72314">
        <ele>284</ele>
        <time>2014-04-01T10:18:00Z</time>
      </trkpt>
      <trkpt lat="43.83026" lon="3.72319">
        <ele>285</ele>
        <time>2014-04-01T10:18:04Z</time>
      </trkpt>
      <trkpt lat="43.83022" lon="3.72324">
        <ele>286</ele>
        <time>2014-04-01T10:18:08Z</time>
      </trkpt>
      <trkpt lat="43.83018" lon="3.72328">
        <ele>288</ele>
        <time>2014-04-01T10:18:14Z</time>
      </trkpt>
      <trkpt lat="43.83017" lon="3.72335">
        <ele>288</ele>
        <time>2014-04-01T10:18:22Z</time>
      </trkpt>
      <trkpt lat="43.83014" lon="3.7234">
        <ele>289</ele>
        <time>2014-04-01T10:18:28Z</time>
      </trkpt>
      <trkpt lat="43.83012" lon="3.72345">
        <ele>291</ele>
        <time>2014-04-01T10:18:38Z</time>
      </trkpt>
      <trkpt lat="43.83003" lon="3.72357">
        <ele>298</ele>
        <time>2014-04-01T10:18:52Z</time>
      </trkpt>
      <trkpt lat="43.82998" lon="3.72357">
        <ele>298</ele>
        <time>2014-04-01T10:18:59Z</time>
      </trkpt>
      <trkpt lat="43.82994" lon="3.72361">
        <ele>297</ele>
        <time>2014-04-01T10:19:07Z</time>
      </trkpt>
      <trkpt lat="43.8299" lon="3.72365">
        <ele>296</ele>
        <time>2014-04-01T10:19:12Z</time>
      </trkpt>
      <trkpt lat="43.82989" lon="3.72372">
        <ele>293</ele>
        <time>2014-04-01T10:19:19Z</time>
      </trkpt>
      <trkpt lat="43.82988" lon="3.72379">
        <ele>290</ele>
        <time>2014-04-01T10:19:27Z</time>
      </trkpt>
      <trkpt lat="43.82985" lon="3.72385">
        <ele>291</ele>
        <time>2014-04-01T10:19:32Z</time>
      </trkpt>
      <trkpt lat="43.82982" lon="3.72389">
        <ele>292</ele>
        <time>2014-04-01T10:19:39Z</time>
      </trkpt>
      <trkpt lat="43.82979" lon="3.72394">
        <ele>292</ele>
        <time>2014-04-01T10:19:45Z</time>
      </trkpt>
      <trkpt lat="43.82976" lon="3.72399">
        <ele>292</ele>
        <time>2014-04-01T10:19:50Z</time>
      </trkpt>
      <trkpt lat="43.82973" lon="3.72404">
        <ele>293</ele>
        <time>2014-04-01T10:19:54Z</time>
      </trkpt>
      <trkpt lat="43.8297" lon="3.72409">
        <ele>292</ele>
        <time>2014-04-01T10:19:59Z</time>
      </trkpt>
      <trkpt lat="43.82966" lon="3.72411">
        <ele>292</ele>
        <time>2014-04-01T10:20:03Z</time>
      </trkpt>
      <trkpt lat="43.82963" lon="3.72418">
        <ele>291</ele>
        <time>2014-04-01T10:20:08Z</time>
      </trkpt>
      <trkpt lat="43.82959" lon="3.72421">
        <ele>289</ele>
        <time>2014-04-01T10:20:17Z</time>
      </trkpt>
      <trkpt lat="43.82955" lon="3.72419">
        <ele>289</ele>
        <time>2014-04-01T10:20:24Z</time>
      </trkpt>
      <trkpt lat="43.82954" lon="3.72412">
        <ele>289</ele>
        <time>2014-04-01T10:20:31Z</time>
      </trkpt>
      <trkpt lat="43.82951" lon="3.72409">
        <ele>291</ele>
        <time>2014-04-01T10:20:35Z</time>
      </trkpt>
      <trkpt lat="43.82946" lon="3.72406">
        <ele>292</ele>
        <time>2014-04-01T10:20:39Z</time>
      </trkpt>
      <trkpt lat="43.82942" lon="3.72402">
        <ele>294</ele>
        <time>2014-04-01T10:20:42Z</time>
      </trkpt>
      <trkpt lat="43.82939" lon="3.72397">
        <ele>296</ele>
        <time>2014-04-01T10:20:47Z</time>
      </trkpt>
      <trkpt lat="43.8294" lon="3.72387">
        <ele>298</ele>
        <time>2014-04-01T10:20:56Z</time>
      </trkpt>
      <trkpt lat="43.8294" lon="3.72381">
        <ele>299</ele>
        <time>2014-04-01T10:21:01Z</time>
      </trkpt>
      <trkpt lat="43.82937" lon="3.72374">
        <ele>301</ele>
        <time>2014-04-01T10:21:04Z</time>
      </trkpt>
      <trkpt lat="43.8294" lon="3.72367">
        <ele>304</ele>
        <time>2014-04-01T10:21:18Z</time>
      </trkpt>
      <trkpt lat="43.82943" lon="3.72362">
        <ele>306</ele>
        <time>2014-04-01T10:21:24Z</time>
      </trkpt>
      <trkpt lat="43.82942" lon="3.72355">
        <ele>307</ele>
        <time>2014-04-01T10:21:28Z</time>
      </trkpt>
      <trkpt lat="43.8294" lon="3.72349">
        <ele>308</ele>
        <time>2014-04-01T10:21:32Z</time>
      </trkpt>
      <trkpt lat="43.8294" lon="3.72342">
        <ele>308</ele>
        <time>2014-04-01T10:21:36Z</time>
      </trkpt>
      <trkpt lat="43.8294" lon="3.72335">
        <ele>311</ele>
        <time>2014-04-01T10:21:40Z</time>
      </trkpt>
      <trkpt lat="43.82941" lon="3.72328">
        <ele>313</ele>
        <time>2014-04-01T10:21:47Z</time>
      </trkpt>
      <trkpt lat="43.82936" lon="3.7233">
        <ele>311</ele>
        <time>2014-04-01T10:21:57Z</time>
      </trkpt>
      <trkpt lat="43.82932" lon="3.72327">
        <ele>310</ele>
        <time>2014-04-01T10:22:02Z</time>
      </trkpt>
      <trkpt lat="43.82928" lon="3.72324">
        <ele>308</ele>
        <time>2014-04-01T10:22:06Z</time>
      </trkpt>
      <trkpt lat="43.82926" lon="3.72327">
        <ele>304</ele>
        <time>2014-04-01T10:22:17Z</time>
      </trkpt>
      <trkpt lat="43.82925" lon="3.72318">
        <ele>302</ele>
        <time>2014-04-01T10:22:26Z</time>
      </trkpt>
      <trkpt lat="43.82924" lon="3.72312">
        <ele>301</ele>
        <time>2014-04-01T10:22:30Z</time>
      </trkpt>
      <trkpt lat="43.8292" lon="3.72307">
        <ele>298</ele>
        <time>2014-04-01T10:22:39Z</time>
      </trkpt>
      <trkpt lat="43.82917" lon="3.72302">
        <ele>296</ele>
        <time>2014-04-01T10:22:45Z</time>
      </trkpt>
      <trkpt lat="43.82914" lon="3.72296">
        <ele>295</ele>
        <time>2014-04-01T10:22:51Z</time>
      </trkpt>
      <trkpt lat="43.8291" lon="3.72293">
        <ele>294</ele>
        <time>2014-04-01T10:22:53Z</time>
      </trkpt>
      <trkpt lat="43.82906" lon="3.72289">
        <ele>293</ele>
        <time>2014-04-01T10:22:57Z</time>
      </trkpt>
      <trkpt lat="43.82902" lon="3.72286">
        <ele>292</ele>
        <time>2014-04-01T10:23:01Z</time>
      </trkpt>
      <trkpt lat="43.82898" lon="3.7229">
        <ele>291</ele>
        <time>2014-04-01T10:23:08Z</time>
      </trkpt>
      <trkpt lat="43.82894" lon="3.72286">
        <ele>289</ele>
        <time>2014-04-01T10:23:18Z</time>
      </trkpt>
      <trkpt lat="43.8289" lon="3.7228">
        <ele>290</ele>
        <time>2014-04-01T10:23:23Z</time>
      </trkpt>
      <trkpt lat="43.82886" lon="3.72283">
        <ele>290</ele>
        <time>2014-04-01T10:23:28Z</time>
      </trkpt>
      <trkpt lat="43.82884" lon="3.72278">
        <ele>289</ele>
        <time>2014-04-01T10:23:39Z</time>
      </trkpt>
      <trkpt lat="43.82881" lon="3.72271">
        <ele>290</ele>
        <time>2014-04-01T10:23:44Z</time>
      </trkpt>
      <trkpt lat="43.82878" lon="3.72263">
        <ele>291</ele>
        <time>2014-04-01T10:23:51Z</time>
      </trkpt>
      <trkpt lat="43.82876" lon="3.72257">
        <ele>291</ele>
        <time>2014-04-01T10:23:59Z</time>
      </trkpt>
      <trkpt lat="43.82877" lon="3.72242">
        <ele>292</ele>
        <time>2014-04-01T10:24:09Z</time>
      </trkpt>
      <trkpt lat="43.82876" lon="3.72229">
        <ele>293</ele>
        <time>2014-04-01T10:24:13Z</time>
      </trkpt>
      <trkpt lat="43.82875" lon="3.72227">
        <ele>293</ele>
        <time>2014-04-01T10:24:24Z</time>
      </trkpt>
      <trkpt lat="43.82864" lon="3.72242">
        <ele>282</ele>
        <time>2014-04-01T10:24:41Z</time>
      </trkpt>
      <trkpt lat="43.82859" lon="3.72243">
        <ele>281</ele>
        <time>2014-04-01T10:24:48Z</time>
      </trkpt>
      <trkpt lat="43.82855" lon="3.72238">
        <ele>281</ele>
        <time>2014-04-01T10:24:55Z</time>
      </trkpt>
      <trkpt lat="43.82853" lon="3.72238">
        <ele>280</ele>
        <time>2014-04-01T10:25:01Z</time>
      </trkpt>
      <trkpt lat="43.82843" lon="3.72235">
        <ele>275</ele>
        <time>2014-04-01T10:25:14Z</time>
      </trkpt>
      <trkpt lat="43.82833" lon="3.72239">
        <ele>267</ele>
        <time>2014-04-01T10:25:36Z</time>
      </trkpt>
      <trkpt lat="43.82828" lon="3.72237">
        <ele>267</ele>
        <time>2014-04-01T10:25:41Z</time>
      </trkpt>
      <trkpt lat="43.82822" lon="3.72235">
        <ele>267</ele>
        <time>2014-04-01T10:25:47Z</time>
      </trkpt>
      <trkpt lat="43.82819" lon="3.72231">
        <ele>268</ele>
        <time>2014-04-01T10:25:52Z</time>
      </trkpt>
      <trkpt lat="43.82816" lon="3.72234">
        <ele>268</ele>
        <time>2014-04-01T10:26:01Z</time>
      </trkpt>
      <trkpt lat="43.82813" lon="3.72234">
        <ele>268</ele>
        <time>2014-04-01T10:26:06Z</time>
      </trkpt>
      <trkpt lat="43.82806" lon="3.72233">
        <ele>265</ele>
        <time>2014-04-01T10:26:22Z</time>
      </trkpt>
      <trkpt lat="43.82802" lon="3.72231">
        <ele>263</ele>
        <time>2014-04-01T10:26:29Z</time>
      </trkpt>
      <trkpt lat="43.82797" lon="3.72236">
        <ele>259</ele>
        <time>2014-04-01T10:26:43Z</time>
      </trkpt>
      <trkpt lat="43.82793" lon="3.72238">
        <ele>260</ele>
        <time>2014-04-01T10:26:52Z</time>
      </trkpt>
      <trkpt lat="43.82791" lon="3.72229">
        <ele>263</ele>
        <time>2014-04-01T10:27:19Z</time>
      </trkpt>
      <trkpt lat="43.82786" lon="3.72224">
        <ele>266</ele>
        <time>2014-04-01T10:27:28Z</time>
      </trkpt>
      <trkpt lat="43.82784" lon="3.72218">
        <ele>267</ele>
        <time>2014-04-01T10:27:32Z</time>
      </trkpt>
      <trkpt lat="43.82781" lon="3.72214">
        <ele>267</ele>
        <time>2014-04-01T10:27:39Z</time>
      </trkpt>
      <trkpt lat="43.8278" lon="3.72208">
        <ele>267</ele>
        <time>2014-04-01T10:27:44Z</time>
      </trkpt>
      <trkpt lat="43.82778" lon="3.72199">
        <ele>267</ele>
        <time>2014-04-01T10:27:56Z</time>
      </trkpt>
      <trkpt lat="43.82772" lon="3.72195">
        <ele>268</ele>
        <time>2014-04-01T10:27:59Z</time>
      </trkpt>
      <trkpt lat="43.82767" lon="3.72196">
        <ele>269</ele>
        <time>2014-04-01T10:28:04Z</time>
      </trkpt>
      <trkpt lat="43.82762" lon="3.7219">
        <ele>272</ele>
        <time>2014-04-01T10:28:14Z</time>
      </trkpt>
      <trkpt lat="43.82761" lon="3.72193">
        <ele>271</ele>
        <time>2014-04-01T10:28:20Z</time>
      </trkpt>
      <trkpt lat="43.82757" lon="3.72195">
        <ele>270</ele>
        <time>2014-04-01T10:28:31Z</time>
      </trkpt>
      <trkpt lat="43.82752" lon="3.72191">
        <ele>269</ele>
        <time>2014-04-01T10:28:57Z</time>
      </trkpt>
      <trkpt lat="43.82747" lon="3.72189">
        <ele>270</ele>
        <time>2014-04-01T10:29:04Z</time>
      </trkpt>
      <trkpt lat="43.82744" lon="3.72189">
        <ele>271</ele>
        <time>2014-04-01T10:29:13Z</time>
      </trkpt>
      <trkpt lat="43.8274" lon="3.72185">
        <ele>272</ele>
        <time>2014-04-01T10:29:17Z</time>
      </trkpt>
      <trkpt lat="43.82738" lon="3.72188">
        <ele>273</ele>
        <time>2014-04-01T10:29:38Z</time>
      </trkpt>
      <trkpt lat="43.82734" lon="3.72189">
        <ele>272</ele>
        <time>2014-04-01T10:29:46Z</time>
      </trkpt>
      <trkpt lat="43.82727" lon="3.72189">
        <ele>271</ele>
        <time>2014-04-01T10:29:59Z</time>
      </trkpt>
      <trkpt lat="43.82722" lon="3.72189">
        <ele>271</ele>
        <time>2014-04-01T10:30:08Z</time>
      </trkpt>
      <trkpt lat="43.82719" lon="3.72193">
        <ele>269</ele>
        <time>2014-04-01T10:30:17Z</time>
      </trkpt>
      <trkpt lat="43.82711" lon="3.72195">
        <ele>265</ele>
        <time>2014-04-01T10:30:31Z</time>
      </trkpt>
      <trkpt lat="43.82707" lon="3.72193">
        <ele>265</ele>
        <time>2014-04-01T10:30:39Z</time>
      </trkpt>
      <trkpt lat="43.82702" lon="3.72194">
        <ele>265</ele>
        <time>2014-04-01T10:30:47Z</time>
      </trkpt>
      <trkpt lat="43.827" lon="3.72192">
        <ele>265</ele>
        <time>2014-04-01T10:30:57Z</time>
      </trkpt>
      <trkpt lat="43.82701" lon="3.72185">
        <ele>265</ele>
        <time>2014-04-01T10:31:09Z</time>
      </trkpt>
      <trkpt lat="43.82696" lon="3.72183">
        <ele>265</ele>
        <time>2014-04-01T10:31:41Z</time>
      </trkpt>
      <trkpt lat="43.8269" lon="3.7218">
        <ele>265</ele>
        <time>2014-04-01T10:31:58Z</time>
      </trkpt>
      <trkpt lat="43.82692" lon="3.72184">
        <ele>264</ele>
        <time>2014-04-01T10:32:40Z</time>
      </trkpt>
      <trkpt lat="43.82694" lon="3.72179">
        <ele>265</ele>
        <time>2014-04-01T10:32:56Z</time>
      </trkpt>
      <trkpt lat="43.8269" lon="3.72175">
        <ele>265</ele>
        <time>2014-04-01T10:33:02Z</time>
      </trkpt>
      <trkpt lat="43.82686" lon="3.72179">
        <ele>265</ele>
        <time>2014-04-01T10:33:07Z</time>
      </trkpt>
      <trkpt lat="43.82688" lon="3.72179">
        <ele>263</ele>
        <time>2014-04-01T10:33:22Z</time>
      </trkpt>
      <trkpt lat="43.82682" lon="3.72183">
        <ele>258</ele>
        <time>2014-04-01T10:34:12Z</time>
      </trkpt>
      <trkpt lat="43.82684" lon="3.72184">
        <ele>257</ele>
        <time>2014-04-01T10:34:42Z</time>
      </trkpt>
      <trkpt lat="43.82685" lon="3.72187">
        <ele>258</ele>
        <time>2014-04-01T10:35:27Z</time>
      </trkpt>
      <trkpt lat="43.82681" lon="3.7219">
        <ele>259</ele>
        <time>2014-04-01T10:39:18Z</time>
      </trkpt>
      <trkpt lat="43.82679" lon="3.72192">
        <ele>259</ele>
        <time>2014-04-01T10:39:19Z</time>
      </trkpt>
      <trkpt lat="43.8268" lon="3.72189">
        <ele>260</ele>
        <time>2014-04-01T10:44:43Z</time>
      </trkpt>
      <trkpt lat="43.8268" lon="3.72186">
        <ele>264</ele>
        <time>2014-04-01T11:03:22Z</time>
      </trkpt>
      <trkpt lat="43.82681" lon="3.72184">
        <ele>264</ele>
        <time>2014-04-01T11:04:05Z</time>
      </trkpt>
      <trkpt lat="43.82682" lon="3.7218">
        <ele>264</ele>
        <time>2014-04-01T11:06:40Z</time>
      </trkpt>
      <trkpt lat="43.82681" lon="3.7218">
        <ele>264</ele>
        <time>2014-04-01T11:09:23Z</time>
      </trkpt>
      <trkpt lat="43.82686" lon="3.72179">
        <ele>264</ele>
        <time>2014-04-01T11:09:26Z</time>
      </trkpt>
      <trkpt lat="43.8269" lon="3.72177">
        <ele>265</ele>
        <time>2014-04-01T11:10:02Z</time>
      </trkpt>
      <trkpt lat="43.82694" lon="3.72178">
        <ele>268</ele>
        <time>2014-04-01T11:10:42Z</time>
      </trkpt>
      <trkpt lat="43.82694" lon="3.72184">
        <ele>268</ele>
        <time>2014-04-01T11:10:51Z</time>
      </trkpt>
      <trkpt lat="43.82698" lon="3.72187">
        <ele>268</ele>
        <time>2014-04-01T11:11:02Z</time>
      </trkpt>
      <trkpt lat="43.82703" lon="3.7219">
        <ele>269</ele>
        <time>2014-04-01T11:11:23Z</time>
      </trkpt>
      <trkpt lat="43.82707" lon="3.7219">
        <ele>274</ele>
        <time>2014-04-01T11:11:56Z</time>
      </trkpt>
      <trkpt lat="43.82712" lon="3.72192">
        <ele>276</ele>
        <time>2014-04-01T11:12:01Z</time>
      </trkpt>
      <trkpt lat="43.82716" lon="3.72193">
        <ele>277</ele>
        <time>2014-04-01T11:12:07Z</time>
      </trkpt>
      <trkpt lat="43.82721" lon="3.72193">
        <ele>278</ele>
        <time>2014-04-01T11:12:15Z</time>
      </trkpt>
      <trkpt lat="43.82726" lon="3.72193">
        <ele>281</ele>
        <time>2014-04-01T11:12:20Z</time>
      </trkpt>
      <trkpt lat="43.8273" lon="3.72191">
        <ele>282</ele>
        <time>2014-04-01T11:12:25Z</time>
      </trkpt>
      <trkpt lat="43.82734" lon="3.72188">
        <ele>283</ele>
        <time>2014-04-01T11:12:33Z</time>
      </trkpt>
      <trkpt lat="43.82737" lon="3.72188">
        <ele>281</ele>
        <time>2014-04-01T11:12:39Z</time>
      </trkpt>
      <trkpt lat="43.82742" lon="3.72188">
        <ele>280</ele>
        <time>2014-04-01T11:12:47Z</time>
      </trkpt>
      <trkpt lat="43.82744" lon="3.72194">
        <ele>280</ele>
        <time>2014-04-01T11:12:54Z</time>
      </trkpt>
      <trkpt lat="43.82743" lon="3.72195">
        <ele>279</ele>
        <time>2014-04-01T11:13:36Z</time>
      </trkpt>
      <trkpt lat="43.82738" lon="3.72195">
        <ele>277</ele>
        <time>2014-04-01T11:15:14Z</time>
      </trkpt>
      <trkpt lat="43.82736" lon="3.72197">
        <ele>272</ele>
        <time>2014-04-01T11:15:44Z</time>
      </trkpt>
      <trkpt lat="43.82737" lon="3.72192">
        <ele>272</ele>
        <time>2014-04-01T11:15:58Z</time>
      </trkpt>
      <trkpt lat="43.82742" lon="3.72193">
        <ele>272</ele>
        <time>2014-04-01T11:16:04Z</time>
      </trkpt>
      <trkpt lat="43.82744" lon="3.72196">
        <ele>273</ele>
        <time>2014-04-01T11:16:38Z</time>
      </trkpt>
      <trkpt lat="43.82749" lon="3.72196">
        <ele>274</ele>
        <time>2014-04-01T11:16:52Z</time>
      </trkpt>
      <trkpt lat="43.82754" lon="3.72198">
        <ele>274</ele>
        <time>2014-04-01T11:16:58Z</time>
      </trkpt>
      <trkpt lat="43.82758" lon="3.722">
        <ele>275</ele>
        <time>2014-04-01T11:17:03Z</time>
      </trkpt>
      <trkpt lat="43.82763" lon="3.72199">
        <ele>273</ele>
        <time>2014-04-01T11:17:09Z</time>
      </trkpt>
      <trkpt lat="43.82766" lon="3.72194">
        <ele>273</ele>
        <time>2014-04-01T11:17:12Z</time>
      </trkpt>
      <trkpt lat="43.82771" lon="3.72193">
        <ele>272</ele>
        <time>2014-04-01T11:17:17Z</time>
      </trkpt>
      <trkpt lat="43.82774" lon="3.72198">
        <ele>272</ele>
        <time>2014-04-01T11:17:22Z</time>
      </trkpt>
      <trkpt lat="43.82773" lon="3.72204">
        <ele>272</ele>
        <time>2014-04-01T11:17:30Z</time>
      </trkpt>
      <trkpt lat="43.82778" lon="3.72209">
        <ele>273</ele>
        <time>2014-04-01T11:17:42Z</time>
      </trkpt>
      <trkpt lat="43.8278" lon="3.72214">
        <ele>273</ele>
        <time>2014-04-01T11:17:48Z</time>
      </trkpt>
      <trkpt lat="43.82781" lon="3.72221">
        <ele>273</ele>
        <time>2014-04-01T11:17:54Z</time>
      </trkpt>
      <trkpt lat="43.82782" lon="3.72227">
        <ele>274</ele>
        <time>2014-04-01T11:18:00Z</time>
      </trkpt>
      <trkpt lat="43.82786" lon="3.7223">
        <ele>274</ele>
        <time>2014-04-01T11:18:04Z</time>
      </trkpt>
      <trkpt lat="43.82792" lon="3.72231">
        <ele>275</ele>
        <time>2014-04-01T11:18:09Z</time>
      </trkpt>
      <trkpt lat="43.82797" lon="3.72236">
        <ele>276</ele>
        <time>2014-04-01T11:18:21Z</time>
      </trkpt>
      <trkpt lat="43.828" lon="3.72241">
        <ele>277</ele>
        <time>2014-04-01T11:18:27Z</time>
      </trkpt>
      <trkpt lat="43.82804" lon="3.72238">
        <ele>278</ele>
        <time>2014-04-01T11:18:36Z</time>
      </trkpt>
      <trkpt lat="43.82808" lon="3.72235">
        <ele>279</ele>
        <time>2014-04-01T11:18:41Z</time>
      </trkpt>
      <trkpt lat="43.82813" lon="3.72236">
        <ele>280</ele>
        <time>2014-04-01T11:18:51Z</time>
      </trkpt>
      <trkpt lat="43.82817" lon="3.72237">
        <ele>281</ele>
        <time>2014-04-01T11:18:56Z</time>
      </trkpt>
      <trkpt lat="43.82823" lon="3.72237">
        <ele>280</ele>
        <time>2014-04-01T11:19:01Z</time>
      </trkpt>
      <trkpt lat="43.82828" lon="3.72237">
        <ele>280</ele>
        <time>2014-04-01T11:19:06Z</time>
      </trkpt>
      <trkpt lat="43.8283" lon="3.72232">
        <ele>280</ele>
        <time>2014-04-01T11:19:13Z</time>
      </trkpt>
      <trkpt lat="43.82835" lon="3.72233">
        <ele>279</ele>
        <time>2014-04-01T11:19:17Z</time>
      </trkpt>
      <trkpt lat="43.8284" lon="3.72232">
        <ele>278</ele>
        <time>2014-04-01T11:19:22Z</time>
      </trkpt>
      <trkpt lat="43.82844" lon="3.72236">
        <ele>279</ele>
        <time>2014-04-01T11:19:30Z</time>
      </trkpt>
      <trkpt lat="43.82848" lon="3.72238">
        <ele>281</ele>
        <time>2014-04-01T11:19:36Z</time>
      </trkpt>
      <trkpt lat="43.82852" lon="3.72242">
        <ele>283</ele>
        <time>2014-04-01T11:19:40Z</time>
      </trkpt>
      <trkpt lat="43.82856" lon="3.72243">
        <ele>285</ele>
        <time>2014-04-01T11:19:44Z</time>
      </trkpt>
      <trkpt lat="43.82861" lon="3.72241">
        <ele>285</ele>
        <time>2014-04-01T11:19:50Z</time>
      </trkpt>
      <trkpt lat="43.82866" lon="3.72238">
        <ele>286</ele>
        <time>2014-04-01T11:19:54Z</time>
      </trkpt>
      <trkpt lat="43.82871" lon="3.72236">
        <ele>286</ele>
        <time>2014-04-01T11:19:59Z</time>
      </trkpt>
      <trkpt lat="43.82876" lon="3.72236">
        <ele>284</ele>
        <time>2014-04-01T11:20:07Z</time>
      </trkpt>
      <trkpt lat="43.82881" lon="3.72237">
        <ele>284</ele>
        <time>2014-04-01T11:20:13Z</time>
      </trkpt>
      <trkpt lat="43.82883" lon="3.72244">
        <ele>284</ele>
        <time>2014-04-01T11:20:18Z</time>
      </trkpt>
      <trkpt lat="43.82879" lon="3.72249">
        <ele>285</ele>
        <time>2014-04-01T11:20:23Z</time>
      </trkpt>
      <trkpt lat="43.82879" lon="3.72256">
        <ele>287</ele>
        <time>2014-04-01T11:20:30Z</time>
      </trkpt>
      <trkpt lat="43.8288" lon="3.72262">
        <ele>287</ele>
        <time>2014-04-01T11:20:33Z</time>
      </trkpt>
      <trkpt lat="43.82881" lon="3.72269">
        <ele>286</ele>
        <time>2014-04-01T11:20:37Z</time>
      </trkpt>
      <trkpt lat="43.82877" lon="3.72274">
        <ele>287</ele>
        <time>2014-04-01T11:20:43Z</time>
      </trkpt>
      <trkpt lat="43.82877" lon="3.72282">
        <ele>288</ele>
        <time>2014-04-01T11:20:49Z</time>
      </trkpt>
      <trkpt lat="43.82879" lon="3.72283">
        <ele>288</ele>
        <time>2014-04-01T11:20:54Z</time>
      </trkpt>
      <trkpt lat="43.82883" lon="3.72288">
        <ele>291</ele>
        <time>2014-04-01T11:21:01Z</time>
      </trkpt>
      <trkpt lat="43.82887" lon="3.7229">
        <ele>292</ele>
        <time>2014-04-01T11:21:08Z</time>
      </trkpt>
      <trkpt lat="43.82892" lon="3.72289">
        <ele>290</ele>
        <time>2014-04-01T11:21:13Z</time>
      </trkpt>
      <trkpt lat="43.82896" lon="3.72289">
        <ele>288</ele>
        <time>2014-04-01T11:21:19Z</time>
      </trkpt>
      <trkpt lat="43.82902" lon="3.7229">
        <ele>288</ele>
        <time>2014-04-01T11:21:24Z</time>
      </trkpt>
      <trkpt lat="43.82902" lon="3.72297">
        <ele>288</ele>
        <time>2014-04-01T11:21:30Z</time>
      </trkpt>
      <trkpt lat="43.82905" lon="3.72302">
        <ele>287</ele>
        <time>2014-04-01T11:21:36Z</time>
      </trkpt>
      <trkpt lat="43.82909" lon="3.72306">
        <ele>286</ele>
        <time>2014-04-01T11:21:40Z</time>
      </trkpt>
      <trkpt lat="43.82913" lon="3.72309">
        <ele>287</ele>
        <time>2014-04-01T11:21:46Z</time>
      </trkpt>
      <trkpt lat="43.82916" lon="3.72315">
        <ele>290</ele>
        <time>2014-04-01T11:21:51Z</time>
      </trkpt>
      <trkpt lat="43.82919" lon="3.72321">
        <ele>289</ele>
        <time>2014-04-01T11:21:56Z</time>
      </trkpt>
      <trkpt lat="43.82923" lon="3.72325">
        <ele>290</ele>
        <time>2014-04-01T11:22:06Z</time>
      </trkpt>
      <trkpt lat="43.82923" lon="3.72328">
        <ele>290</ele>
        <time>2014-04-01T11:22:12Z</time>
      </trkpt>
      <trkpt lat="43.82928" lon="3.72327">
        <ele>292</ele>
        <time>2014-04-01T11:22:20Z</time>
      </trkpt>
      <trkpt lat="43.82933" lon="3.72327">
        <ele>291</ele>
        <time>2014-04-01T11:22:25Z</time>
      </trkpt>
      <trkpt lat="43.82937" lon="3.7233">
        <ele>291</ele>
        <time>2014-04-01T11:22:32Z</time>
      </trkpt>
      <trkpt lat="43.82939" lon="3.72336">
        <ele>292</ele>
        <time>2014-04-01T11:22:38Z</time>
      </trkpt>
      <trkpt lat="43.8294" lon="3.72343">
        <ele>294</ele>
        <time>2014-04-01T11:22:42Z</time>
      </trkpt>
      <trkpt lat="43.8294" lon="3.7235">
        <ele>295</ele>
        <time>2014-04-01T11:22:46Z</time>
      </trkpt>
      <trkpt lat="43.82939" lon="3.72356">
        <ele>297</ele>
        <time>2014-04-01T11:22:51Z</time>
      </trkpt>
      <trkpt lat="43.8294" lon="3.72363">
        <ele>297</ele>
        <time>2014-04-01T11:22:59Z</time>
      </trkpt>
      <trkpt lat="43.82943" lon="3.7237">
        <ele>296</ele>
        <time>2014-04-01T11:23:03Z</time>
      </trkpt>
      <trkpt lat="43.8294" lon="3.72374">
        <ele>297</ele>
        <time>2014-04-01T11:23:11Z</time>
      </trkpt>
      <trkpt lat="43.8294" lon="3.72381">
        <ele>295</ele>
        <time>2014-04-01T11:23:20Z</time>
      </trkpt>
      <trkpt lat="43.82942" lon="3.72387">
        <ele>295</ele>
        <time>2014-04-01T11:23:27Z</time>
      </trkpt>
      <trkpt lat="43.8294" lon="3.72392">
        <ele>294</ele>
        <time>2014-04-01T11:23:35Z</time>
      </trkpt>
      <trkpt lat="43.82942" lon="3.72398">
        <ele>294</ele>
        <time>2014-04-01T11:23:39Z</time>
      </trkpt>
      <trkpt lat="43.82946" lon="3.72403">
        <ele>293</ele>
        <time>2014-04-01T11:23:45Z</time>
      </trkpt>
      <trkpt lat="43.82947" lon="3.7241">
        <ele>293</ele>
        <time>2014-04-01T11:23:49Z</time>
      </trkpt>
      <trkpt lat="43.82947" lon="3.72413">
        <ele>293</ele>
        <time>2014-04-01T11:23:54Z</time>
      </trkpt>
      <trkpt lat="43.82947" lon="3.72418">
        <ele>293</ele>
        <time>2014-04-01T11:24:10Z</time>
      </trkpt>
      <trkpt lat="43.82948" lon="3.72422">
        <ele>295</ele>
        <time>2014-04-01T11:24:18Z</time>
      </trkpt>
      <trkpt lat="43.82946" lon="3.72431">
        <ele>295</ele>
        <time>2014-04-01T11:24:26Z</time>
      </trkpt>
      <trkpt lat="43.82944" lon="3.72437">
        <ele>296</ele>
        <time>2014-04-01T11:24:32Z</time>
      </trkpt>
      <trkpt lat="43.82944" lon="3.72445">
        <ele>297</ele>
        <time>2014-04-01T11:24:36Z</time>
      </trkpt>
      <trkpt lat="43.82943" lon="3.72453">
        <ele>297</ele>
        <time>2014-04-01T11:24:44Z</time>
      </trkpt>
      <trkpt lat="43.82942" lon="3.7246">
        <ele>296</ele>
        <time>2014-04-01T11:24:52Z</time>
      </trkpt>
      <trkpt lat="43.82944" lon="3.72466">
        <ele>295</ele>
        <time>2014-04-01T11:24:57Z</time>
      </trkpt>
      <trkpt lat="43.82944" lon="3.72473">
        <ele>294</ele>
        <time>2014-04-01T11:25:02Z</time>
      </trkpt>
      <trkpt lat="43.82942" lon="3.72479">
        <ele>293</ele>
        <time>2014-04-01T11:25:07Z</time>
      </trkpt>
      <trkpt lat="43.82942" lon="3.72486">
        <ele>293</ele>
        <time>2014-04-01T11:25:12Z</time>
      </trkpt>
      <trkpt lat="43.82941" lon="3.72493">
        <ele>294</ele>
        <time>2014-04-01T11:25:16Z</time>
      </trkpt>
      <trkpt lat="43.82941" lon="3.725">
        <ele>295</ele>
        <time>2014-04-01T11:25:18Z</time>
      </trkpt>
      <trkpt lat="43.82941" lon="3.72506">
        <ele>296</ele>
        <time>2014-04-01T11:25:22Z</time>
      </trkpt>
      <trkpt lat="43.82942" lon="3.72513">
        <ele>298</ele>
        <time>2014-04-01T11:25:28Z</time>
      </trkpt>
      <trkpt lat="43.82942" lon="3.7252">
        <ele>298</ele>
        <time>2014-04-01T11:25:36Z</time>
      </trkpt>
      <trkpt lat="43.82942" lon="3.72527">
        <ele>298</ele>
        <time>2014-04-01T11:25:40Z</time>
      </trkpt>
      <trkpt lat="43.82943" lon="3.72534">
        <ele>299</ele>
        <time>2014-04-01T11:25:44Z</time>
      </trkpt>
      <trkpt lat="43.82942" lon="3.72541">
        <ele>301</ele>
        <time>2014-04-01T11:25:49Z</time>
      </trkpt>
      <trkpt lat="43.82941" lon="3.72547">
        <ele>302</ele>
        <time>2014-04-01T11:25:52Z</time>
      </trkpt>
      <trkpt lat="43.82938" lon="3.72553">
        <ele>302</ele>
        <time>2014-04-01T11:25:56Z</time>
      </trkpt>
      <trkpt lat="43.82936" lon="3.72559">
        <ele>302</ele>
        <time>2014-04-01T11:26:00Z</time>
      </trkpt>
      <trkpt lat="43.82936" lon="3.72564">
        <ele>302</ele>
        <time>2014-04-01T11:26:08Z</time>
      </trkpt>
      <trkpt lat="43.82935" lon="3.7257">
        <ele>301</ele>
        <time>2014-04-01T11:26:15Z</time>
      </trkpt>
      <trkpt lat="43.82933" lon="3.72576">
        <ele>300</ele>
        <time>2014-04-01T11:26:18Z</time>
      </trkpt>
      <trkpt lat="43.82932" lon="3.72583">
        <ele>300</ele>
        <time>2014-04-01T11:26:22Z</time>
      </trkpt>
      <trkpt lat="43.82932" lon="3.72591">
        <ele>301</ele>
        <time>2014-04-01T11:26:26Z</time>
      </trkpt>
      <trkpt lat="43.8293" lon="3.72596">
        <ele>303</ele>
        <time>2014-04-01T11:26:31Z</time>
      </trkpt>
      <trkpt lat="43.82926" lon="3.72601">
        <ele>302</ele>
        <time>2014-04-01T11:26:38Z</time>
      </trkpt>
      <trkpt lat="43.82923" lon="3.72606">
        <ele>301</ele>
        <time>2014-04-01T11:26:43Z</time>
      </trkpt>
      <trkpt lat="43.82921" lon="3.72612">
        <ele>301</ele>
        <time>2014-04-01T11:26:48Z</time>
      </trkpt>
      <trkpt lat="43.82918" lon="3.72618">
        <ele>301</ele>
        <time>2014-04-01T11:26:54Z</time>
      </trkpt>
      <trkpt lat="43.82915" lon="3.72624">
        <ele>300</ele>
        <time>2014-04-01T11:27:02Z</time>
      </trkpt>
      <trkpt lat="43.82914" lon="3.72631">
        <ele>298</ele>
        <time>2014-04-01T11:27:09Z</time>
      </trkpt>
      <trkpt lat="43.8291" lon="3.72636">
        <ele>298</ele>
        <time>2014-04-01T11:27:16Z</time>
      </trkpt>
      <trkpt lat="43.82907" lon="3.72645">
        <ele>297</ele>
        <time>2014-04-01T11:27:26Z</time>
      </trkpt>
      <trkpt lat="43.82905" lon="3.72652">
        <ele>296</ele>
        <time>2014-04-01T11:27:30Z</time>
      </trkpt>
      <trkpt lat="43.82903" lon="3.72658">
        <ele>296</ele>
        <time>2014-04-01T11:27:35Z</time>
      </trkpt>
      <trkpt lat="43.829" lon="3.72663">
        <ele>295</ele>
        <time>2014-04-01T11:27:41Z</time>
      </trkpt>
      <trkpt lat="43.82901" lon="3.72669">
        <ele>295</ele>
        <time>2014-04-01T11:27:45Z</time>
      </trkpt>
      <trkpt lat="43.82896" lon="3.72674">
        <ele>295</ele>
        <time>2014-04-01T11:27:51Z</time>
      </trkpt>
      <trkpt lat="43.8289" lon="3.7268">
        <ele>295</ele>
        <time>2014-04-01T11:27:55Z</time>
      </trkpt>
      <trkpt lat="43.82886" lon="3.72684">
        <ele>292</ele>
        <time>2014-04-01T11:28:01Z</time>
      </trkpt>
      <trkpt lat="43.82885" lon="3.7269">
        <ele>292</ele>
        <time>2014-04-01T11:28:04Z</time>
      </trkpt>
      <trkpt lat="43.82883" lon="3.72697">
        <ele>292</ele>
        <time>2014-04-01T11:28:11Z</time>
      </trkpt>
      <trkpt lat="43.82881" lon="3.72702">
        <ele>293</ele>
        <time>2014-04-01T11:28:18Z</time>
      </trkpt>
      <trkpt lat="43.82876" lon="3.72705">
        <ele>293</ele>
        <time>2014-04-01T11:28:24Z</time>
      </trkpt>
      <trkpt lat="43.82874" lon="3.72711">
        <ele>293</ele>
        <time>2014-04-01T11:28:29Z</time>
      </trkpt>
      <trkpt lat="43.82872" lon="3.72718">
        <ele>293</ele>
        <time>2014-04-01T11:28:33Z</time>
      </trkpt>
      <trkpt lat="43.8287" lon="3.72725">
        <ele>293</ele>
        <time>2014-04-01T11:28:36Z</time>
      </trkpt>
      <trkpt lat="43.82866" lon="3.7273">
        <ele>293</ele>
        <time>2014-04-01T11:28:39Z</time>
      </trkpt>
      <trkpt lat="43.82862" lon="3.72735">
        <ele>293</ele>
        <time>2014-04-01T11:28:43Z</time>
      </trkpt>
      <trkpt lat="43.8286" lon="3.72738">
        <ele>292</ele>
        <time>2014-04-01T11:28:50Z</time>
      </trkpt>
      <trkpt lat="43.82856" lon="3.72743">
        <ele>290</ele>
        <time>2014-04-01T11:29:00Z</time>
      </trkpt>
      <trkpt lat="43.82851" lon="3.72746">
        <ele>290</ele>
        <time>2014-04-01T11:29:06Z</time>
      </trkpt>
      <trkpt lat="43.82847" lon="3.7275">
        <ele>290</ele>
        <time>2014-04-01T11:29:10Z</time>
      </trkpt>
      <trkpt lat="43.82844" lon="3.72756">
        <ele>290</ele>
        <time>2014-04-01T11:29:15Z</time>
      </trkpt>
      <trkpt lat="43.8284" lon="3.7276">
        <ele>289</ele>
        <time>2014-04-01T11:29:19Z</time>
      </trkpt>
      <trkpt lat="43.82838" lon="3.72767">
        <ele>287</ele>
        <time>2014-04-01T11:29:26Z</time>
      </trkpt>
      <trkpt lat="43.82838" lon="3.72774">
        <ele>285</ele>
        <time>2014-04-01T11:29:29Z</time>
      </trkpt>
      <trkpt lat="43.82835" lon="3.7278">
        <ele>285</ele>
        <time>2014-04-01T11:29:34Z</time>
      </trkpt>
      <trkpt lat="43.82833" lon="3.72783">
        <ele>284</ele>
        <time>2014-04-01T11:29:40Z</time>
      </trkpt>
      <trkpt lat="43.82829" lon="3.72788">
        <ele>284</ele>
        <time>2014-04-01T11:29:46Z</time>
      </trkpt>
      <trkpt lat="43.82828" lon="3.72795">
        <ele>284</ele>
        <time>2014-04-01T11:29:51Z</time>
      </trkpt>
      <trkpt lat="43.82828" lon="3.72801">
        <ele>284</ele>
        <time>2014-04-01T11:29:57Z</time>
      </trkpt>
      <trkpt lat="43.82831" lon="3.72808">
        <ele>283</ele>
        <time>2014-04-01T11:30:09Z</time>
      </trkpt>
      <trkpt lat="43.82832" lon="3.72815">
        <ele>283</ele>
        <time>2014-04-01T11:30:16Z</time>
      </trkpt>
      <trkpt lat="43.82833" lon="3.72822">
        <ele>281</ele>
        <time>2014-04-01T11:30:20Z</time>
      </trkpt>
      <trkpt lat="43.82831" lon="3.72828">
        <ele>282</ele>
        <time>2014-04-01T11:30:24Z</time>
      </trkpt>
      <trkpt lat="43.82827" lon="3.72832">
        <ele>282</ele>
        <time>2014-04-01T11:30:29Z</time>
      </trkpt>
      <trkpt lat="43.82825" lon="3.72838">
        <ele>281</ele>
        <time>2014-04-01T11:30:34Z</time>
      </trkpt>
      <trkpt lat="43.82828" lon="3.72843">
        <ele>281</ele>
        <time>2014-04-01T11:30:38Z</time>
      </trkpt>
      <trkpt lat="43.8283" lon="3.72848">
        <ele>281</ele>
        <time>2014-04-01T11:30:42Z</time>
      </trkpt>
      <trkpt lat="43.82834" lon="3.72854">
        <ele>281</ele>
        <time>2014-04-01T11:30:46Z</time>
      </trkpt>
      <trkpt lat="43.82837" lon="3.7286">
        <ele>282</ele>
        <time>2014-04-01T11:30:49Z</time>
      </trkpt>
      <trkpt lat="43.82841" lon="3.72864">
        <ele>281</ele>
        <time>2014-04-01T11:30:54Z</time>
      </trkpt>
      <trkpt lat="43.82844" lon="3.72869">
        <ele>282</ele>
        <time>2014-04-01T11:30:58Z</time>
      </trkpt>
      <trkpt lat="43.82848" lon="3.72871">
        <ele>282</ele>
        <time>2014-04-01T11:31:04Z</time>
      </trkpt>
      <trkpt lat="43.82852" lon="3.72875">
        <ele>282</ele>
        <time>2014-04-01T11:31:09Z</time>
      </trkpt>
      <trkpt lat="43.82856" lon="3.72881">
        <ele>282</ele>
        <time>2014-04-01T11:31:13Z</time>
      </trkpt>
      <trkpt lat="43.82861" lon="3.72884">
        <ele>281</ele>
        <time>2014-04-01T11:31:19Z</time>
      </trkpt>
      <trkpt lat="43.82865" lon="3.72888">
        <ele>280</ele>
        <time>2014-04-01T11:31:25Z</time>
      </trkpt>
      <trkpt lat="43.82868" lon="3.72895">
        <ele>279</ele>
        <time>2014-04-01T11:31:34Z</time>
      </trkpt>
      <trkpt lat="43.82872" lon="3.72899">
        <ele>279</ele>
        <time>2014-04-01T11:31:39Z</time>
      </trkpt>
      <trkpt lat="43.82875" lon="3.72903">
        <ele>279</ele>
        <time>2014-04-01T11:31:43Z</time>
      </trkpt>
      <trkpt lat="43.82878" lon="3.7291">
        <ele>278</ele>
        <time>2014-04-01T11:31:47Z</time>
      </trkpt>
      <trkpt lat="43.82882" lon="3.72914">
        <ele>278</ele>
        <time>2014-04-01T11:31:54Z</time>
      </trkpt>
      <trkpt lat="43.82887" lon="3.72918">
        <ele>277</ele>
        <time>2014-04-01T11:32:00Z</time>
      </trkpt>
      <trkpt lat="43.82891" lon="3.7292">
        <ele>278</ele>
        <time>2014-04-01T11:32:10Z</time>
      </trkpt>
      <trkpt lat="43.82894" lon="3.72925">
        <ele>278</ele>
        <time>2014-04-01T11:32:14Z</time>
      </trkpt>
      <trkpt lat="43.829" lon="3.72925">
        <ele>280</ele>
        <time>2014-04-01T11:32:18Z</time>
      </trkpt>
      <trkpt lat="43.82904" lon="3.72926">
        <ele>279</ele>
        <time>2014-04-01T11:32:25Z</time>
      </trkpt>
      <trkpt lat="43.82909" lon="3.72924">
        <ele>278</ele>
        <time>2014-04-01T11:32:31Z</time>
      </trkpt>
      <trkpt lat="43.82913" lon="3.72928">
        <ele>276</ele>
        <time>2014-04-01T11:32:37Z</time>
      </trkpt>
      <trkpt lat="43.82918" lon="3.7293">
        <ele>272</ele>
        <time>2014-04-01T11:32:42Z</time>
      </trkpt>
      <trkpt lat="43.82923" lon="3.7293">
        <ele>271</ele>
        <time>2014-04-01T11:32:47Z</time>
      </trkpt>
      <trkpt lat="43.82924" lon="3.72938">
        <ele>272</ele>
        <time>2014-04-01T11:32:51Z</time>
      </trkpt>
      <trkpt lat="43.82925" lon="3.72944">
        <ele>274</ele>
        <time>2014-04-01T11:32:56Z</time>
      </trkpt>
      <trkpt lat="43.82924" lon="3.72951">
        <ele>276</ele>
        <time>2014-04-01T11:33:02Z</time>
      </trkpt>
      <trkpt lat="43.82922" lon="3.72958">
        <ele>277</ele>
        <time>2014-04-01T11:33:05Z</time>
      </trkpt>
      <trkpt lat="43.8292" lon="3.72964">
        <ele>276</ele>
        <time>2014-04-01T11:33:13Z</time>
      </trkpt>
      <trkpt lat="43.82916" lon="3.72969">
        <ele>277</ele>
        <time>2014-04-01T11:33:19Z</time>
      </trkpt>
      <trkpt lat="43.82913" lon="3.72976">
        <ele>277</ele>
        <time>2014-04-01T11:33:25Z</time>
      </trkpt>
      <trkpt lat="43.82912" lon="3.72982">
        <ele>276</ele>
        <time>2014-04-01T11:33:30Z</time>
      </trkpt>
      <trkpt lat="43.8291" lon="3.72984">
        <ele>276</ele>
        <time>2014-04-01T11:33:37Z</time>
      </trkpt>
      <trkpt lat="43.82907" lon="3.72978">
        <ele>276</ele>
        <time>2014-04-01T11:33:43Z</time>
      </trkpt>
      <trkpt lat="43.82905" lon="3.72979">
        <ele>276</ele>
        <time>2014-04-01T11:33:49Z</time>
      </trkpt>
      <trkpt lat="43.82901" lon="3.7298">
        <ele>278</ele>
        <time>2014-04-01T11:34:08Z</time>
      </trkpt>
      <trkpt lat="43.82899" lon="3.72987">
        <ele>276</ele>
        <time>2014-04-01T11:34:21Z</time>
      </trkpt>
      <trkpt lat="43.82893" lon="3.72981">
        <ele>273</ele>
        <time>2014-04-01T11:34:32Z</time>
      </trkpt>
      <trkpt lat="43.82889" lon="3.72976">
        <ele>272</ele>
        <time>2014-04-01T11:34:37Z</time>
      </trkpt>
      <trkpt lat="43.82885" lon="3.72974">
        <ele>272</ele>
        <time>2014-04-01T11:34:41Z</time>
      </trkpt>
      <trkpt lat="43.8288" lon="3.72975">
        <ele>272</ele>
        <time>2014-04-01T11:34:48Z</time>
      </trkpt>
      <trkpt lat="43.82876" lon="3.72978">
        <ele>273</ele>
        <time>2014-04-01T11:34:55Z</time>
      </trkpt>
      <trkpt lat="43.82871" lon="3.72976">
        <ele>275</ele>
        <time>2014-04-01T11:35:01Z</time>
      </trkpt>
      <trkpt lat="43.82865" lon="3.72975">
        <ele>277</ele>
        <time>2014-04-01T11:35:07Z</time>
      </trkpt>
      <trkpt lat="43.82861" lon="3.72973">
        <ele>278</ele>
        <time>2014-04-01T11:35:11Z</time>
      </trkpt>
      <trkpt lat="43.82858" lon="3.72979">
        <ele>278</ele>
        <time>2014-04-01T11:35:19Z</time>
      </trkpt>
      <trkpt lat="43.82853" lon="3.7298">
        <ele>278</ele>
        <time>2014-04-01T11:35:28Z</time>
      </trkpt>
      <trkpt lat="43.82848" lon="3.72982">
        <ele>276</ele>
        <time>2014-04-01T11:35:35Z</time>
      </trkpt>
      <trkpt lat="43.82843" lon="3.72981">
        <ele>275</ele>
        <time>2014-04-01T11:35:41Z</time>
      </trkpt>
      <trkpt lat="43.82838" lon="3.72985">
        <ele>271</ele>
        <time>2014-04-01T11:35:49Z</time>
      </trkpt>
      <trkpt lat="43.82837" lon="3.72987">
        <ele>269</ele>
        <time>2014-04-01T11:35:55Z</time>
      </trkpt>
      <trkpt lat="43.82835" lon="3.72996">
        <ele>266</ele>
        <time>2014-04-01T11:36:05Z</time>
      </trkpt>
      <trkpt lat="43.82829" lon="3.72995">
        <ele>264</ele>
        <time>2014-04-01T11:36:14Z</time>
      </trkpt>
      <trkpt lat="43.82825" lon="3.72993">
        <ele>262</ele>
        <time>2014-04-01T11:36:19Z</time>
      </trkpt>
      <trkpt lat="43.82821" lon="3.72991">
        <ele>262</ele>
        <time>2014-04-01T11:36:26Z</time>
      </trkpt>
      <trkpt lat="43.82816" lon="3.72991">
        <ele>263</ele>
        <time>2014-04-01T11:36:31Z</time>
      </trkpt>
      <trkpt lat="43.82811" lon="3.72989">
        <ele>261</ele>
        <time>2014-04-01T11:36:40Z</time>
      </trkpt>
      <trkpt lat="43.82802" lon="3.72995">
        <ele>255</ele>
        <time>2014-04-01T11:36:54Z</time>
      </trkpt>
      <trkpt lat="43.82798" lon="3.72991">
        <ele>252</ele>
        <time>2014-04-01T11:37:01Z</time>
      </trkpt>
      <trkpt lat="43.82792" lon="3.72989">
        <ele>250</ele>
        <time>2014-04-01T11:37:08Z</time>
      </trkpt>
      <trkpt lat="43.82787" lon="3.72988">
        <ele>250</ele>
        <time>2014-04-01T11:37:10Z</time>
      </trkpt>
      <trkpt lat="43.82781" lon="3.72987">
        <ele>250</ele>
        <time>2014-04-01T11:37:14Z</time>
      </trkpt>
      <trkpt lat="43.82777" lon="3.72991">
        <ele>250</ele>
        <time>2014-04-01T11:37:20Z</time>
      </trkpt>
      <trkpt lat="43.82773" lon="3.72994">
        <ele>248</ele>
        <time>2014-04-01T11:37:30Z</time>
      </trkpt>
      <trkpt lat="43.82767" lon="3.72994">
        <ele>248</ele>
        <time>2014-04-01T11:37:34Z</time>
      </trkpt>
      <trkpt lat="43.82764" lon="3.72989">
        <ele>248</ele>
        <time>2014-04-01T11:37:39Z</time>
      </trkpt>
      <trkpt lat="43.82759" lon="3.72986">
        <ele>249</ele>
        <time>2014-04-01T11:37:43Z</time>
      </trkpt>
      <trkpt lat="43.82754" lon="3.72983">
        <ele>249</ele>
        <time>2014-04-01T11:37:48Z</time>
      </trkpt>
      <trkpt lat="43.82751" lon="3.72977">
        <ele>250</ele>
        <time>2014-04-01T11:37:54Z</time>
      </trkpt>
      <trkpt lat="43.82747" lon="3.72971">
        <ele>251</ele>
        <time>2014-04-01T11:37:58Z</time>
      </trkpt>
      <trkpt lat="43.82744" lon="3.72966">
        <ele>252</ele>
        <time>2014-04-01T11:38:07Z</time>
      </trkpt>
      <trkpt lat="43.82742" lon="3.7296">
        <ele>252</ele>
        <time>2014-04-01T11:38:14Z</time>
      </trkpt>
      <trkpt lat="43.82739" lon="3.72955">
        <ele>252</ele>
        <time>2014-04-01T11:38:22Z</time>
      </trkpt>
      <trkpt lat="43.82736" lon="3.72951">
        <ele>252</ele>
        <time>2014-04-01T11:38:27Z</time>
      </trkpt>
      <trkpt lat="43.82735" lon="3.72944">
        <ele>251</ele>
        <time>2014-04-01T11:38:34Z</time>
      </trkpt>
      <trkpt lat="43.82736" lon="3.72939">
        <ele>250</ele>
        <time>2014-04-01T11:38:43Z</time>
      </trkpt>
      <trkpt lat="43.8273" lon="3.72938">
        <ele>248</ele>
        <time>2014-04-01T11:38:51Z</time>
      </trkpt>
      <trkpt lat="43.82725" lon="3.72935">
        <ele>247</ele>
        <time>2014-04-01T11:38:58Z</time>
      </trkpt>
      <trkpt lat="43.8272" lon="3.72931">
        <ele>247</ele>
        <time>2014-04-01T11:39:02Z</time>
      </trkpt>
      <trkpt lat="43.82717" lon="3.72924">
        <ele>248</ele>
        <time>2014-04-01T11:39:06Z</time>
      </trkpt>
      <trkpt lat="43.82714" lon="3.7292">
        <ele>246</ele>
        <time>2014-04-01T11:39:16Z</time>
      </trkpt>
      <trkpt lat="43.82713" lon="3.7291">
        <ele>242</ele>
        <time>2014-04-01T11:39:31Z</time>
      </trkpt>
      <trkpt lat="43.82712" lon="3.72907">
        <ele>241</ele>
        <time>2014-04-01T11:39:38Z</time>
      </trkpt>
      <trkpt lat="43.82707" lon="3.7291">
        <ele>241</ele>
        <time>2014-04-01T11:39:40Z</time>
      </trkpt>
      <trkpt lat="43.82701" lon="3.7291">
        <ele>240</ele>
        <time>2014-04-01T11:39:43Z</time>
      </trkpt>
      <trkpt lat="43.82696" lon="3.72904">
        <ele>238</ele>
        <time>2014-04-01T11:39:49Z</time>
      </trkpt>
      <trkpt lat="43.82695" lon="3.72897">
        <ele>236</ele>
        <time>2014-04-01T11:39:53Z</time>
      </trkpt>
      <trkpt lat="43.82696" lon="3.72889">
        <ele>236</ele>
        <time>2014-04-01T11:39:57Z</time>
      </trkpt>
      <trkpt lat="43.82698" lon="3.72883">
        <ele>238</ele>
        <time>2014-04-01T11:40:02Z</time>
      </trkpt>
      <trkpt lat="43.82692" lon="3.72882">
        <ele>238</ele>
        <time>2014-04-01T11:40:19Z</time>
      </trkpt>
      <trkpt lat="43.82688" lon="3.72877">
        <ele>237</ele>
        <time>2014-04-01T11:40:26Z</time>
      </trkpt>
      <trkpt lat="43.82685" lon="3.72873">
        <ele>237</ele>
        <time>2014-04-01T11:40:29Z</time>
      </trkpt>
      <trkpt lat="43.82685" lon="3.72868">
        <ele>237</ele>
        <time>2014-04-01T11:40:38Z</time>
      </trkpt>
      <trkpt lat="43.8268" lon="3.72867">
        <ele>238</ele>
        <time>2014-04-01T11:40:58Z</time>
      </trkpt>
      <trkpt lat="43.82678" lon="3.72866">
        <ele>239</ele>
        <time>2014-04-01T11:41:25Z</time>
      </trkpt>
      <trkpt lat="43.82675" lon="3.72864">
        <ele>236</ele>
        <time>2014-04-01T11:41:40Z</time>
      </trkpt>
      <trkpt lat="43.8267" lon="3.72861">
        <ele>236</ele>
        <time>2014-04-01T11:41:43Z</time>
      </trkpt>
      <trkpt lat="43.82669" lon="3.72854">
        <ele>234</ele>
        <time>2014-04-01T11:41:48Z</time>
      </trkpt>
      <trkpt lat="43.82669" lon="3.72847">
        <ele>234</ele>
        <time>2014-04-01T11:41:53Z</time>
      </trkpt>
      <trkpt lat="43.82666" lon="3.72842">
        <ele>234</ele>
        <time>2014-04-01T11:42:00Z</time>
      </trkpt>
      <trkpt lat="43.82661" lon="3.72844">
        <ele>235</ele>
        <time>2014-04-01T11:42:04Z</time>
      </trkpt>
      <trkpt lat="43.82661" lon="3.72838">
        <ele>233</ele>
        <time>2014-04-01T11:42:16Z</time>
      </trkpt>
      <trkpt lat="43.82661" lon="3.72834">
        <ele>231</ele>
        <time>2014-04-01T11:42:25Z</time>
      </trkpt>
      <trkpt lat="43.82657" lon="3.7283">
        <ele>227</ele>
        <time>2014-04-01T11:42:35Z</time>
      </trkpt>
      <trkpt lat="43.82653" lon="3.72826">
        <ele>226</ele>
        <time>2014-04-01T11:42:39Z</time>
      </trkpt>
      <trkpt lat="43.82649" lon="3.72822">
        <ele>226</ele>
        <time>2014-04-01T11:42:44Z</time>
      </trkpt>
      <trkpt lat="43.82647" lon="3.72816">
        <ele>226</ele>
        <time>2014-04-01T11:42:49Z</time>
      </trkpt>
      <trkpt lat="43.82641" lon="3.72816">
        <ele>226</ele>
        <time>2014-04-01T11:42:54Z</time>
      </trkpt>
      <trkpt lat="43.82637" lon="3.72815">
        <ele>225</ele>
        <time>2014-04-01T11:42:58Z</time>
      </trkpt>
      <trkpt lat="43.82634" lon="3.72809">
        <ele>226</ele>
        <time>2014-04-01T11:43:06Z</time>
      </trkpt>
      <trkpt lat="43.82632" lon="3.72802">
        <ele>226</ele>
        <time>2014-04-01T11:43:11Z</time>
      </trkpt>
      <trkpt lat="43.82629" lon="3.72797">
        <ele>228</ele>
        <time>2014-04-01T11:43:15Z</time>
      </trkpt>
      <trkpt lat="43.82625" lon="3.72795">
        <ele>228</ele>
        <time>2014-04-01T11:43:20Z</time>
      </trkpt>
      <trkpt lat="43.82622" lon="3.72796">
        <ele>226</ele>
        <time>2014-04-01T11:43:35Z</time>
      </trkpt>
      <trkpt lat="43.82617" lon="3.72789">
        <ele>225</ele>
        <time>2014-04-01T11:43:40Z</time>
      </trkpt>
      <trkpt lat="43.82611" lon="3.72786">
        <ele>225</ele>
        <time>2014-04-01T11:43:43Z</time>
      </trkpt>
      <trkpt lat="43.82607" lon="3.72782">
        <ele>225</ele>
        <time>2014-04-01T11:43:46Z</time>
      </trkpt>
      <trkpt lat="43.82605" lon="3.72774">
        <ele>225</ele>
        <time>2014-04-01T11:43:50Z</time>
      </trkpt>
      <trkpt lat="43.82606" lon="3.72767">
        <ele>226</ele>
        <time>2014-04-01T11:43:53Z</time>
      </trkpt>
      <trkpt lat="43.82608" lon="3.72763">
        <ele>227</ele>
        <time>2014-04-01T11:44:04Z</time>
      </trkpt>
      <trkpt lat="43.82606" lon="3.72756">
        <ele>227</ele>
        <time>2014-04-01T11:44:09Z</time>
      </trkpt>
      <trkpt lat="43.82604" lon="3.72748">
        <ele>227</ele>
        <time>2014-04-01T11:44:17Z</time>
      </trkpt>
      <trkpt lat="43.82601" lon="3.72749">
        <ele>225</ele>
        <time>2014-04-01T11:44:28Z</time>
      </trkpt>
      <trkpt lat="43.82598" lon="3.72742">
        <ele>222</ele>
        <time>2014-04-01T11:44:35Z</time>
      </trkpt>
      <trkpt lat="43.82593" lon="3.72738">
        <ele>221</ele>
        <time>2014-04-01T11:44:39Z</time>
      </trkpt>
      <trkpt lat="43.8259" lon="3.72733">
        <ele>220</ele>
        <time>2014-04-01T11:44:43Z</time>
      </trkpt>
      <trkpt lat="43.82586" lon="3.7273">
        <ele>220</ele>
        <time>2014-04-01T11:44:50Z</time>
      </trkpt>
      <trkpt lat="43.82581" lon="3.7273">
        <ele>220</ele>
        <time>2014-04-01T11:44:54Z</time>
      </trkpt>
      <trkpt lat="43.82576" lon="3.72729">
        <ele>220</ele>
        <time>2014-04-01T11:45:03Z</time>
      </trkpt>
      <trkpt lat="43.82572" lon="3.72732">
        <ele>216</ele>
        <time>2014-04-01T11:45:11Z</time>
      </trkpt>
      <trkpt lat="43.8257" lon="3.72736">
        <ele>215</ele>
        <time>2014-04-01T11:45:19Z</time>
      </trkpt>
      <trkpt lat="43.82566" lon="3.72734">
        <ele>214</ele>
        <time>2014-04-01T11:45:32Z</time>
      </trkpt>
      <trkpt lat="43.82561" lon="3.72732">
        <ele>209</ele>
        <time>2014-04-01T11:45:48Z</time>
      </trkpt>
      <trkpt lat="43.82557" lon="3.72729">
        <ele>209</ele>
        <time>2014-04-01T11:45:52Z</time>
      </trkpt>
      <trkpt lat="43.82553" lon="3.72725">
        <ele>207</ele>
        <time>2014-04-01T11:45:56Z</time>
      </trkpt>
      <trkpt lat="43.82548" lon="3.72725">
        <ele>207</ele>
        <time>2014-04-01T11:46:02Z</time>
      </trkpt>
      <trkpt lat="43.82544" lon="3.72723">
        <ele>207</ele>
        <time>2014-04-01T11:46:07Z</time>
      </trkpt>
      <trkpt lat="43.82539" lon="3.72721">
        <ele>208</ele>
        <time>2014-04-01T11:46:10Z</time>
      </trkpt>
      <trkpt lat="43.82535" lon="3.72725">
        <ele>210</ele>
        <time>2014-04-01T11:46:18Z</time>
      </trkpt>
      <trkpt lat="43.82531" lon="3.72726">
        <ele>211</ele>
        <time>2014-04-01T11:46:21Z</time>
      </trkpt>
      <trkpt lat="43.82526" lon="3.72727">
        <ele>212</ele>
        <time>2014-04-01T11:46:28Z</time>
      </trkpt>
      <trkpt lat="43.82524" lon="3.72729">
        <ele>212</ele>
        <time>2014-04-01T11:46:34Z</time>
      </trkpt>
      <trkpt lat="43.82521" lon="3.72722">
        <ele>211</ele>
        <time>2014-04-01T11:46:45Z</time>
      </trkpt>
      <trkpt lat="43.82517" lon="3.72719">
        <ele>211</ele>
        <time>2014-04-01T11:46:51Z</time>
      </trkpt>
      <trkpt lat="43.82513" lon="3.72715">
        <ele>212</ele>
        <time>2014-04-01T11:46:55Z</time>
      </trkpt>
      <trkpt lat="43.82503" lon="3.72714">
        <ele>214</ele>
        <time>2014-04-01T11:47:00Z</time>
      </trkpt>
      <trkpt lat="43.82498" lon="3.72714">
        <ele>213</ele>
        <time>2014-04-01T11:47:02Z</time>
      </trkpt>
      <trkpt lat="43.82492" lon="3.72715">
        <ele>213</ele>
        <time>2014-04-01T11:47:05Z</time>
      </trkpt>
      <trkpt lat="43.82489" lon="3.72708">
        <ele>210</ele>
        <time>2014-04-01T11:47:17Z</time>
      </trkpt>
      <trkpt lat="43.82487" lon="3.72704">
        <ele>210</ele>
        <time>2014-04-01T11:47:26Z</time>
      </trkpt>
      <trkpt lat="43.82483" lon="3.72712">
        <ele>209</ele>
        <time>2014-04-01T11:47:28Z</time>
      </trkpt>
      <trkpt lat="43.8248" lon="3.72706">
        <ele>209</ele>
        <time>2014-04-01T11:47:38Z</time>
      </trkpt>
      <trkpt lat="43.82475" lon="3.72707">
        <ele>206</ele>
        <time>2014-04-01T11:47:47Z</time>
      </trkpt>
      <trkpt lat="43.8247" lon="3.72704">
        <ele>204</ele>
        <time>2014-04-01T11:47:51Z</time>
      </trkpt>
      <trkpt lat="43.82464" lon="3.72705">
        <ele>203</ele>
        <time>2014-04-01T11:47:54Z</time>
      </trkpt>
      <trkpt lat="43.82458" lon="3.72705">
        <ele>202</ele>
        <time>2014-04-01T11:47:57Z</time>
      </trkpt>
      <trkpt lat="43.82453" lon="3.72702">
        <ele>201</ele>
        <time>2014-04-01T11:48:01Z</time>
      </trkpt>
      <trkpt lat="43.82451" lon="3.72694">
        <ele>201</ele>
        <time>2014-04-01T11:48:05Z</time>
      </trkpt>
      <trkpt lat="43.82447" lon="3.72692">
        <ele>194</ele>
        <time>2014-04-01T11:48:34Z</time>
      </trkpt>
      <trkpt lat="43.82443" lon="3.72689">
        <ele>194</ele>
        <time>2014-04-01T11:48:42Z</time>
      </trkpt>
      <trkpt lat="43.82439" lon="3.7269">
        <ele>196</ele>
        <time>2014-04-01T11:49:06Z</time>
      </trkpt>
      <trkpt lat="43.82433" lon="3.72693">
        <ele>196</ele>
        <time>2014-04-01T11:49:14Z</time>
      </trkpt>
      <trkpt lat="43.8243" lon="3.72697">
        <ele>197</ele>
        <time>2014-04-01T11:49:18Z</time>
      </trkpt>
      <trkpt lat="43.82425" lon="3.72698">
        <ele>198</ele>
        <time>2014-04-01T11:49:21Z</time>
      </trkpt>
      <trkpt lat="43.82419" lon="3.72697">
        <ele>200</ele>
        <time>2014-04-01T11:49:26Z</time>
      </trkpt>
      <trkpt lat="43.82416" lon="3.72693">
        <ele>203</ele>
        <time>2014-04-01T11:49:32Z</time>
      </trkpt>
      <trkpt lat="43.82407" lon="3.7269">
        <ele>206</ele>
        <time>2014-04-01T11:49:47Z</time>
      </trkpt>
      <trkpt lat="43.82407" lon="3.72687">
        <ele>207</ele>
        <time>2014-04-01T11:50:00Z</time>
      </trkpt>
      <trkpt lat="43.82411" lon="3.72691">
        <ele>207</ele>
        <time>2014-04-01T11:50:10Z</time>
      </trkpt>
      <trkpt lat="43.82414" lon="3.72696">
        <ele>206</ele>
        <time>2014-04-01T11:50:17Z</time>
      </trkpt>
      <trkpt lat="43.82415" lon="3.727">
        <ele>203</ele>
        <time>2014-04-01T11:50:23Z</time>
      </trkpt>
      <trkpt lat="43.82416" lon="3.72706">
        <ele>203</ele>
        <time>2014-04-01T11:50:25Z</time>
      </trkpt>
      <trkpt lat="43.82418" lon="3.72709">
        <ele>204</ele>
        <time>2014-04-01T11:50:47Z</time>
      </trkpt>
      <trkpt lat="43.82419" lon="3.72712">
        <ele>205</ele>
        <time>2014-04-01T11:51:12Z</time>
      </trkpt>
      <trkpt lat="43.82416" lon="3.72719">
        <ele>205</ele>
        <time>2014-04-01T11:51:22Z</time>
      </trkpt>
      <trkpt lat="43.82414" lon="3.72725">
        <ele>204</ele>
        <time>2014-04-01T11:51:26Z</time>
      </trkpt>
      <trkpt lat="43.8241" lon="3.72728">
        <ele>204</ele>
        <time>2014-04-01T11:51:30Z</time>
      </trkpt>
      <trkpt lat="43.82407" lon="3.72733">
        <ele>204</ele>
        <time>2014-04-01T11:51:35Z</time>
      </trkpt>
      <trkpt lat="43.82404" lon="3.72738">
        <ele>204</ele>
        <time>2014-04-01T11:51:40Z</time>
      </trkpt>
      <trkpt lat="43.82404" lon="3.72745">
        <ele>202</ele>
        <time>2014-04-01T11:51:45Z</time>
      </trkpt>
      <trkpt lat="43.82398" lon="3.7274">
        <ele>200</ele>
        <time>2014-04-01T11:51:53Z</time>
      </trkpt>
      <trkpt lat="43.82395" lon="3.72736">
        <ele>201</ele>
        <time>2014-04-01T11:51:56Z</time>
      </trkpt>
      <trkpt lat="43.82389" lon="3.72744">
        <ele>202</ele>
        <time>2014-04-01T11:52:10Z</time>
      </trkpt>
      <trkpt lat="43.82381" lon="3.7275">
        <ele>201</ele>
        <time>2014-04-01T11:52:16Z</time>
      </trkpt>
      <trkpt lat="43.82381" lon="3.72757">
        <ele>200</ele>
        <time>2014-04-01T11:52:23Z</time>
      </trkpt>
      <trkpt lat="43.82381" lon="3.72764">
        <ele>198</ele>
        <time>2014-04-01T11:52:30Z</time>
      </trkpt>
      <trkpt lat="43.82378" lon="3.7277">
        <ele>196</ele>
        <time>2014-04-01T11:52:37Z</time>
      </trkpt>
      <trkpt lat="43.82374" lon="3.72773">
        <ele>195</ele>
        <time>2014-04-01T11:52:42Z</time>
      </trkpt>
      <trkpt lat="43.8237" lon="3.72776">
        <ele>194</ele>
        <time>2014-04-01T11:52:48Z</time>
      </trkpt>
      <trkpt lat="43.8237" lon="3.72781">
        <ele>193</ele>
        <time>2014-04-01T11:52:56Z</time>
      </trkpt>
      <trkpt lat="43.82367" lon="3.72786">
        <ele>192</ele>
        <time>2014-04-01T11:53:02Z</time>
      </trkpt>
      <trkpt lat="43.82363" lon="3.72791">
        <ele>192</ele>
        <time>2014-04-01T11:53:22Z</time>
      </trkpt>
      <trkpt lat="43.82367" lon="3.72795">
        <ele>191</ele>
        <time>2014-04-01T11:53:26Z</time>
      </trkpt>
      <trkpt lat="43.82368" lon="3.72802">
        <ele>191</ele>
        <time>2014-04-01T11:53:45Z</time>
      </trkpt>
      <trkpt lat="43.82363" lon="3.72813">
        <ele>192</ele>
        <time>2014-04-01T11:53:55Z</time>
      </trkpt>
      <trkpt lat="43.82358" lon="3.72815">
        <ele>194</ele>
        <time>2014-04-01T11:54:04Z</time>
      </trkpt>
      <trkpt lat="43.82354" lon="3.72815">
        <ele>197</ele>
        <time>2014-04-01T11:54:09Z</time>
      </trkpt>
      <trkpt lat="43.82354" lon="3.72822">
        <ele>201</ele>
        <time>2014-04-01T11:54:40Z</time>
      </trkpt>
      <trkpt lat="43.82327" lon="3.72788">
        <ele>207</ele>
        <time>2014-04-01T12:13:02Z</time>
      </trkpt>
      <trkpt lat="43.82324" lon="3.72798">
        <ele>208</ele>
        <time>2014-04-01T12:13:53Z</time>
      </trkpt>
      <trkpt lat="43.82324" lon="3.72827">
        <ele>210</ele>
        <time>2014-04-01T12:13:56Z</time>
      </trkpt>
      <trkpt lat="43.82323" lon="3.72833">
        <ele>208</ele>
        <time>2014-04-01T12:13:58Z</time>
      </trkpt>
      <trkpt lat="43.82314" lon="3.72838">
        <ele>203</ele>
        <time>2014-04-01T12:14:11Z</time>
      </trkpt>
      <trkpt lat="43.82305" lon="3.72842">
        <ele>203</ele>
        <time>2014-04-01T12:14:20Z</time>
      </trkpt>
      <trkpt lat="43.82301" lon="3.72856">
        <ele>202</ele>
        <time>2014-04-01T12:14:39Z</time>
      </trkpt>
      <trkpt lat="43.82293" lon="3.72849">
        <ele>201</ele>
        <time>2014-04-01T12:14:56Z</time>
      </trkpt>
      <trkpt lat="43.82286" lon="3.7284">
        <ele>198</ele>
        <time>2014-04-01T12:15:04Z</time>
      </trkpt>
      <trkpt lat="43.82277" lon="3.72846">
        <ele>195</ele>
        <time>2014-04-01T12:15:25Z</time>
      </trkpt>
      <trkpt lat="43.82264" lon="3.72856">
        <ele>191</ele>
        <time>2014-04-01T12:15:39Z</time>
      </trkpt>
      <trkpt lat="43.82259" lon="3.72853">
        <ele>188</ele>
        <time>2014-04-01T12:15:57Z</time>
      </trkpt>
      <trkpt lat="43.82257" lon="3.7285">
        <ele>188</ele>
        <time>2014-04-01T12:16:04Z</time>
      </trkpt>
      <trkpt lat="43.82255" lon="3.72849">
        <ele>189</ele>
        <time>2014-04-01T12:16:18Z</time>
      </trkpt>
      <trkpt lat="43.82251" lon="3.72854">
        <ele>189</ele>
        <time>2014-04-01T12:16:26Z</time>
      </trkpt>
      <trkpt lat="43.82247" lon="3.72858">
        <ele>189</ele>
        <time>2014-04-01T12:16:30Z</time>
      </trkpt>
      <trkpt lat="43.82243" lon="3.72863">
        <ele>189</ele>
        <time>2014-04-01T12:16:35Z</time>
      </trkpt>
      <trkpt lat="43.82235" lon="3.72858">
        <ele>189</ele>
        <time>2014-04-01T12:16:47Z</time>
      </trkpt>
      <trkpt lat="43.82232" lon="3.72854">
        <ele>189</ele>
        <time>2014-04-01T12:16:52Z</time>
      </trkpt>
      <trkpt lat="43.82228" lon="3.7285">
        <ele>188</ele>
        <time>2014-04-01T12:16:55Z</time>
      </trkpt>
      <trkpt lat="43.82225" lon="3.72854">
        <ele>186</ele>
        <time>2014-04-01T12:17:05Z</time>
      </trkpt>
      <trkpt lat="43.82222" lon="3.72847">
        <ele>185</ele>
        <time>2014-04-01T12:17:16Z</time>
      </trkpt>
      <trkpt lat="43.82219" lon="3.72842">
        <ele>185</ele>
        <time>2014-04-01T12:17:20Z</time>
      </trkpt>
      <trkpt lat="43.82214" lon="3.7284">
        <ele>185</ele>
        <time>2014-04-01T12:17:25Z</time>
      </trkpt>
      <trkpt lat="43.82209" lon="3.72837">
        <ele>187</ele>
        <time>2014-04-01T12:17:30Z</time>
      </trkpt>
      <trkpt lat="43.82206" lon="3.72843">
        <ele>186</ele>
        <time>2014-04-01T12:17:35Z</time>
      </trkpt>
      <trkpt lat="43.82204" lon="3.7285">
        <ele>184</ele>
        <time>2014-04-01T12:17:41Z</time>
      </trkpt>
      <trkpt lat="43.822" lon="3.72854">
        <ele>183</ele>
        <time>2014-04-01T12:17:48Z</time>
      </trkpt>
      <trkpt lat="43.82195" lon="3.72857">
        <ele>182</ele>
        <time>2014-04-01T12:17:54Z</time>
      </trkpt>
      <trkpt lat="43.82192" lon="3.72861">
        <ele>181</ele>
        <time>2014-04-01T12:18:00Z</time>
      </trkpt>
      <trkpt lat="43.82188" lon="3.72867">
        <ele>180</ele>
        <time>2014-04-01T12:18:06Z</time>
      </trkpt>
      <trkpt lat="43.82185" lon="3.72872">
        <ele>179</ele>
        <time>2014-04-01T12:18:10Z</time>
      </trkpt>
      <trkpt lat="43.82181" lon="3.72875">
        <ele>179</ele>
        <time>2014-04-01T12:18:14Z</time>
      </trkpt>
      <trkpt lat="43.82179" lon="3.72874">
        <ele>177</ele>
        <time>2014-04-01T12:18:34Z</time>
      </trkpt>
      <trkpt lat="43.82175" lon="3.7287">
        <ele>177</ele>
        <time>2014-04-01T12:18:39Z</time>
      </trkpt>
      <trkpt lat="43.82172" lon="3.72863">
        <ele>177</ele>
        <time>2014-04-01T12:18:43Z</time>
      </trkpt>
      <trkpt lat="43.82171" lon="3.72856">
        <ele>179</ele>
        <time>2014-04-01T12:18:47Z</time>
      </trkpt>
      <trkpt lat="43.82171" lon="3.72849">
        <ele>182</ele>
        <time>2014-04-01T12:18:54Z</time>
      </trkpt>
      <trkpt lat="43.82169" lon="3.72843">
        <ele>183</ele>
        <time>2014-04-01T12:18:58Z</time>
      </trkpt>
      <trkpt lat="43.82165" lon="3.72843">
        <ele>185</ele>
        <time>2014-04-01T12:19:04Z</time>
      </trkpt>
      <trkpt lat="43.8216" lon="3.72842">
        <ele>183</ele>
        <time>2014-04-01T12:19:15Z</time>
      </trkpt>
      <trkpt lat="43.82155" lon="3.7284">
        <ele>181</ele>
        <time>2014-04-01T12:19:20Z</time>
      </trkpt>
      <trkpt lat="43.82151" lon="3.72837">
        <ele>181</ele>
        <time>2014-04-01T12:19:26Z</time>
      </trkpt>
      <trkpt lat="43.82151" lon="3.72829">
        <ele>182</ele>
        <time>2014-04-01T12:19:31Z</time>
      </trkpt>
      <trkpt lat="43.82153" lon="3.72822">
        <ele>183</ele>
        <time>2014-04-01T12:19:34Z</time>
      </trkpt>
      <trkpt lat="43.82151" lon="3.72816">
        <ele>184</ele>
        <time>2014-04-01T12:19:39Z</time>
      </trkpt>
      <trkpt lat="43.82147" lon="3.72811">
        <ele>186</ele>
        <time>2014-04-01T12:19:45Z</time>
      </trkpt>
      <trkpt lat="43.82141" lon="3.72808">
        <ele>186</ele>
        <time>2014-04-01T12:19:50Z</time>
      </trkpt>
      <trkpt lat="43.82136" lon="3.7281">
        <ele>185</ele>
        <time>2014-04-01T12:19:52Z</time>
      </trkpt>
      <trkpt lat="43.82132" lon="3.72814">
        <ele>185</ele>
        <time>2014-04-01T12:19:57Z</time>
      </trkpt>
      <trkpt lat="43.82132" lon="3.72821">
        <ele>183</ele>
        <time>2014-04-01T12:20:04Z</time>
      </trkpt>
      <trkpt lat="43.82131" lon="3.72827">
        <ele>182</ele>
        <time>2014-04-01T12:20:09Z</time>
      </trkpt>
      <trkpt lat="43.82127" lon="3.72831">
        <ele>181</ele>
        <time>2014-04-01T12:20:16Z</time>
      </trkpt>
      <trkpt lat="43.82122" lon="3.72835">
        <ele>180</ele>
        <time>2014-04-01T12:20:22Z</time>
      </trkpt>
      <trkpt lat="43.82119" lon="3.72841">
        <ele>181</ele>
        <time>2014-04-01T12:20:30Z</time>
      </trkpt>
      <trkpt lat="43.82118" lon="3.72848">
        <ele>182</ele>
        <time>2014-04-01T12:20:35Z</time>
      </trkpt>
      <trkpt lat="43.82113" lon="3.72851">
        <ele>184</ele>
        <time>2014-04-01T12:20:44Z</time>
      </trkpt>
      <trkpt lat="43.82109" lon="3.72858">
        <ele>187</ele>
        <time>2014-04-01T12:20:55Z</time>
      </trkpt>
      <trkpt lat="43.82111" lon="3.7286">
        <ele>187</ele>
        <time>2014-04-01T12:21:02Z</time>
      </trkpt>
      <trkpt lat="43.82108" lon="3.72867">
        <ele>187</ele>
        <time>2014-04-01T12:21:15Z</time>
      </trkpt>
      <trkpt lat="43.82106" lon="3.72868">
        <ele>187</ele>
        <time>2014-04-01T12:21:31Z</time>
      </trkpt>
      <trkpt lat="43.82102" lon="3.72864">
        <ele>186</ele>
        <time>2014-04-01T12:21:36Z</time>
      </trkpt>
      <trkpt lat="43.821" lon="3.72864">
        <ele>185</ele>
        <time>2014-04-01T12:21:42Z</time>
      </trkpt>
      <trkpt lat="43.82095" lon="3.72866">
        <ele>181</ele>
        <time>2014-04-01T12:21:50Z</time>
      </trkpt>
      <trkpt lat="43.82093" lon="3.7286">
        <ele>179</ele>
        <time>2014-04-01T12:21:56Z</time>
      </trkpt>
      <trkpt lat="43.82088" lon="3.72857">
        <ele>177</ele>
        <time>2014-04-01T12:22:01Z</time>
      </trkpt>
      <trkpt lat="43.82083" lon="3.72854">
        <ele>176</ele>
        <time>2014-04-01T12:22:05Z</time>
      </trkpt>
      <trkpt lat="43.82079" lon="3.72855">
        <ele>175</ele>
        <time>2014-04-01T12:22:13Z</time>
      </trkpt>
      <trkpt lat="43.82072" lon="3.72851">
        <ele>174</ele>
        <time>2014-04-01T12:22:19Z</time>
      </trkpt>
      <trkpt lat="43.82067" lon="3.72849">
        <ele>173</ele>
        <time>2014-04-01T12:22:23Z</time>
      </trkpt>
      <trkpt lat="43.82063" lon="3.72846">
        <ele>171</ele>
        <time>2014-04-01T12:22:28Z</time>
      </trkpt>
      <trkpt lat="43.82061" lon="3.72858">
        <ele>170</ele>
        <time>2014-04-01T12:22:40Z</time>
      </trkpt>
      <trkpt lat="43.82061" lon="3.72865">
        <ele>169</ele>
        <time>2014-04-01T12:22:43Z</time>
      </trkpt>
      <trkpt lat="43.8206" lon="3.72872">
        <ele>168</ele>
        <time>2014-04-01T12:22:50Z</time>
      </trkpt>
      <trkpt lat="43.82057" lon="3.72874">
        <ele>167</ele>
        <time>2014-04-01T12:22:58Z</time>
      </trkpt>
      <trkpt lat="43.82052" lon="3.72874">
        <ele>166</ele>
        <time>2014-04-01T12:23:04Z</time>
      </trkpt>
      <trkpt lat="43.82048" lon="3.72877">
        <ele>166</ele>
        <time>2014-04-01T12:23:13Z</time>
      </trkpt>
      <trkpt lat="43.82043" lon="3.72878">
        <ele>166</ele>
        <time>2014-04-01T12:23:18Z</time>
      </trkpt>
      <trkpt lat="43.82043" lon="3.72885">
        <ele>166</ele>
        <time>2014-04-01T12:23:22Z</time>
      </trkpt>
      <trkpt lat="43.82041" lon="3.72891">
        <ele>165</ele>
        <time>2014-04-01T12:23:28Z</time>
      </trkpt>
      <trkpt lat="43.82039" lon="3.72897">
        <ele>164</ele>
        <time>2014-04-01T12:23:32Z</time>
      </trkpt>
      <trkpt lat="43.82037" lon="3.72901">
        <ele>165</ele>
        <time>2014-04-01T12:23:51Z</time>
      </trkpt>
      <trkpt lat="43.82034" lon="3.72897">
        <ele>164</ele>
        <time>2014-04-01T12:23:55Z</time>
      </trkpt>
      <trkpt lat="43.8203" lon="3.72892">
        <ele>162</ele>
        <time>2014-04-01T12:24:01Z</time>
      </trkpt>
      <trkpt lat="43.82025" lon="3.7289">
        <ele>160</ele>
        <time>2014-04-01T12:24:05Z</time>
      </trkpt>
      <trkpt lat="43.82025" lon="3.72895">
        <ele>158</ele>
        <time>2014-04-01T12:24:16Z</time>
      </trkpt>
      <trkpt lat="43.82016" lon="3.72894">
        <ele>157</ele>
        <time>2014-04-01T12:24:22Z</time>
      </trkpt>
      <trkpt lat="43.82017" lon="3.72909">
        <ele>157</ele>
        <time>2014-04-01T12:24:33Z</time>
      </trkpt>
      <trkpt lat="43.82014" lon="3.7291">
        <ele>155</ele>
        <time>2014-04-01T12:24:48Z</time>
      </trkpt>
      <trkpt lat="43.8201" lon="3.72909">
        <ele>152</ele>
        <time>2014-04-01T12:25:23Z</time>
      </trkpt>
      <trkpt lat="43.82011" lon="3.72917">
        <ele>153</ele>
        <time>2014-04-01T12:25:26Z</time>
      </trkpt>
      <trkpt lat="43.82002" lon="3.72918">
        <ele>154</ele>
        <time>2014-04-01T12:25:34Z</time>
      </trkpt>
      <trkpt lat="43.82003" lon="3.72922">
        <ele>154</ele>
        <time>2014-04-01T12:25:57Z</time>
      </trkpt>
      <trkpt lat="43.82003" lon="3.72929">
        <ele>154</ele>
        <time>2014-04-01T12:26:00Z</time>
      </trkpt>
      <trkpt lat="43.82003" lon="3.72937">
        <ele>154</ele>
        <time>2014-04-01T12:26:03Z</time>
      </trkpt>
      <trkpt lat="43.82001" lon="3.7294">
        <ele>153</ele>
        <time>2014-04-01T12:26:09Z</time>
      </trkpt>
      <trkpt lat="43.82001" lon="3.72945">
        <ele>155</ele>
        <time>2014-04-01T12:26:20Z</time>
      </trkpt>
      <trkpt lat="43.82" lon="3.72954">
        <ele>155</ele>
        <time>2014-04-01T12:26:26Z</time>
      </trkpt>
      <trkpt lat="43.82002" lon="3.72961">
        <ele>155</ele>
        <time>2014-04-01T12:26:28Z</time>
      </trkpt>
      <trkpt lat="43.81993" lon="3.72956">
        <ele>155</ele>
        <time>2014-04-01T12:26:34Z</time>
      </trkpt>
      <trkpt lat="43.81987" lon="3.7295">
        <ele>155</ele>
        <time>2014-04-01T12:26:37Z</time>
      </trkpt>
      <trkpt lat="43.81986" lon="3.72957">
        <ele>155</ele>
        <time>2014-04-01T12:26:45Z</time>
      </trkpt>
      <trkpt lat="43.81984" lon="3.72952">
        <ele>152</ele>
        <time>2014-04-01T12:27:08Z</time>
      </trkpt>
      <trkpt lat="43.81981" lon="3.72943">
        <ele>149</ele>
        <time>2014-04-01T12:27:17Z</time>
      </trkpt>
      <trkpt lat="43.81979" lon="3.72935">
        <ele>150</ele>
        <time>2014-04-01T12:27:21Z</time>
      </trkpt>
      <trkpt lat="43.8198" lon="3.72931">
        <ele>153</ele>
        <time>2014-04-01T12:27:55Z</time>
      </trkpt>
      <trkpt lat="43.81981" lon="3.72933">
        <ele>152</ele>
        <time>2014-04-01T12:28:31Z</time>
      </trkpt>
      <trkpt lat="43.8198" lon="3.72938">
        <ele>151</ele>
        <time>2014-04-01T12:28:40Z</time>
      </trkpt>
      <trkpt lat="43.8198" lon="3.72942">
        <ele>150</ele>
        <time>2014-04-01T12:28:51Z</time>
      </trkpt>
      <trkpt lat="43.81975" lon="3.72944">
        <ele>146</ele>
        <time>2014-04-01T12:29:18Z</time>
      </trkpt>
      <trkpt lat="43.81974" lon="3.72951">
        <ele>143</ele>
        <time>2014-04-01T12:29:27Z</time>
      </trkpt>
      <trkpt lat="43.81971" lon="3.72955">
        <ele>141</ele>
        <time>2014-04-01T12:29:38Z</time>
      </trkpt>
      <trkpt lat="43.81966" lon="3.72958">
        <ele>142</ele>
        <time>2014-04-01T12:29:48Z</time>
      </trkpt>
      <trkpt lat="43.81962" lon="3.72964">
        <ele>145</ele>
        <time>2014-04-01T12:30:16Z</time>
      </trkpt>
      <trkpt lat="43.8196" lon="3.72966">
        <ele>144</ele>
        <time>2014-04-01T12:30:21Z</time>
      </trkpt>
      <trkpt lat="43.81957" lon="3.72971">
        <ele>143</ele>
        <time>2014-04-01T12:30:28Z</time>
      </trkpt>
      <trkpt lat="43.81954" lon="3.72974">
        <ele>142</ele>
        <time>2014-04-01T12:30:37Z</time>
      </trkpt>
      <trkpt lat="43.81954" lon="3.72978">
        <ele>141</ele>
        <time>2014-04-01T12:30:50Z</time>
      </trkpt>
      <trkpt lat="43.81949" lon="3.72978">
        <ele>141</ele>
        <time>2014-04-01T12:30:52Z</time>
      </trkpt>
      <trkpt lat="43.81947" lon="3.72977">
        <ele>141</ele>
        <time>2014-04-01T12:30:58Z</time>
      </trkpt>
      <trkpt lat="43.81943" lon="3.7298">
        <ele>144</ele>
        <time>2014-04-01T12:31:08Z</time>
      </trkpt>
      <trkpt lat="43.81939" lon="3.72983">
        <ele>145</ele>
        <time>2014-04-01T12:31:14Z</time>
      </trkpt>
      <trkpt lat="43.81936" lon="3.7299">
        <ele>144</ele>
        <time>2014-04-01T12:31:18Z</time>
      </trkpt>
      <trkpt lat="43.81936" lon="3.72996">
        <ele>144</ele>
        <time>2014-04-01T12:31:23Z</time>
      </trkpt>
      <trkpt lat="43.81935" lon="3.72999">
        <ele>143</ele>
        <time>2014-04-01T12:31:28Z</time>
      </trkpt>
      <trkpt lat="43.81932" lon="3.73005">
        <ele>143</ele>
        <time>2014-04-01T12:31:34Z</time>
      </trkpt>
      <trkpt lat="43.81931" lon="3.73011">
        <ele>144</ele>
        <time>2014-04-01T12:31:43Z</time>
      </trkpt>
      <trkpt lat="43.81928" lon="3.73015">
        <ele>143</ele>
        <time>2014-04-01T12:31:56Z</time>
      </trkpt>
      <trkpt lat="43.81923" lon="3.73014">
        <ele>140</ele>
        <time>2014-04-01T12:32:10Z</time>
      </trkpt>
      <trkpt lat="43.81919" lon="3.73019">
        <ele>137</ele>
        <time>2014-04-01T12:32:18Z</time>
      </trkpt>
      <trkpt lat="43.81915" lon="3.73018">
        <ele>136</ele>
        <time>2014-04-01T12:32:23Z</time>
      </trkpt>
      <trkpt lat="43.81915" lon="3.73024">
        <ele>136</ele>
        <time>2014-04-01T12:32:34Z</time>
      </trkpt>
      <trkpt lat="43.81912" lon="3.7303">
        <ele>136</ele>
        <time>2014-04-01T12:32:41Z</time>
      </trkpt>
      <trkpt lat="43.8191" lon="3.73036">
        <ele>136</ele>
        <time>2014-04-01T12:32:47Z</time>
      </trkpt>
      <trkpt lat="43.81909" lon="3.73042">
        <ele>138</ele>
        <time>2014-04-01T12:32:52Z</time>
      </trkpt>
      <trkpt lat="43.81908" lon="3.73046">
        <ele>139</ele>
        <time>2014-04-01T12:32:58Z</time>
      </trkpt>
      <trkpt lat="43.81903" lon="3.73046">
        <ele>138</ele>
        <time>2014-04-01T12:33:04Z</time>
      </trkpt>
      <trkpt lat="43.81896" lon="3.73047">
        <ele>137</ele>
        <time>2014-04-01T12:33:15Z</time>
      </trkpt>
      <trkpt lat="43.81893" lon="3.7305">
        <ele>135</ele>
        <time>2014-04-01T12:33:24Z</time>
      </trkpt>
      <trkpt lat="43.8189" lon="3.73048">
        <ele>134</ele>
        <time>2014-04-01T12:33:36Z</time>
      </trkpt>
      <trkpt lat="43.81885" lon="3.73046">
        <ele>134</ele>
        <time>2014-04-01T12:33:45Z</time>
      </trkpt>
      <trkpt lat="43.81884" lon="3.73048">
        <ele>139</ele>
        <time>2014-04-01T12:34:19Z</time>
      </trkpt>
      <trkpt lat="43.81883" lon="3.73054">
        <ele>138</ele>
        <time>2014-04-01T12:34:29Z</time>
      </trkpt>
      <trkpt lat="43.81884" lon="3.73058">
        <ele>138</ele>
        <time>2014-04-01T12:34:35Z</time>
      </trkpt>
      <trkpt lat="43.81884" lon="3.73064">
        <ele>137</ele>
        <time>2014-04-01T12:34:39Z</time>
      </trkpt>
      <trkpt lat="43.8188" lon="3.73068">
        <ele>136</ele>
        <time>2014-04-01T12:34:49Z</time>
      </trkpt>
      <trkpt lat="43.81877" lon="3.73073">
        <ele>136</ele>
        <time>2014-04-01T12:34:55Z</time>
      </trkpt>
      <trkpt lat="43.81875" lon="3.73077">
        <ele>135</ele>
        <time>2014-04-01T12:35:03Z</time>
      </trkpt>
      <trkpt lat="43.81876" lon="3.73086">
        <ele>136</ele>
        <time>2014-04-01T12:35:32Z</time>
      </trkpt>
      <trkpt lat="43.81875" lon="3.73084">
        <ele>139</ele>
        <time>2014-04-01T12:35:46Z</time>
      </trkpt>
      <trkpt lat="43.81873" lon="3.73076">
        <ele>138</ele>
        <time>2014-04-01T12:35:59Z</time>
      </trkpt>
      <trkpt lat="43.81872" lon="3.73069">
        <ele>139</ele>
        <time>2014-04-01T12:36:10Z</time>
      </trkpt>
      <trkpt lat="43.81875" lon="3.73062">
        <ele>142</ele>
        <time>2014-04-01T12:36:28Z</time>
      </trkpt>
      <trkpt lat="43.81874" lon="3.73059">
        <ele>144</ele>
        <time>2014-04-01T12:36:58Z</time>
      </trkpt>
      <trkpt lat="43.81871" lon="3.73057">
        <ele>144</ele>
        <time>2014-04-01T12:37:07Z</time>
      </trkpt>
      <trkpt lat="43.81869" lon="3.73057">
        <ele>145</ele>
        <time>2014-04-01T12:37:20Z</time>
      </trkpt>
      <trkpt lat="43.81869" lon="3.73064">
        <ele>145</ele>
        <time>2014-04-01T12:37:31Z</time>
      </trkpt>
      <trkpt lat="43.81871" lon="3.73077">
        <ele>146</ele>
        <time>2014-04-01T12:37:40Z</time>
      </trkpt>
      <trkpt lat="43.81875" lon="3.73086">
        <ele>146</ele>
        <time>2014-04-01T12:37:45Z</time>
      </trkpt>
      <trkpt lat="43.81876" lon="3.73088">
        <ele>147</ele>
        <time>2014-04-01T12:37:58Z</time>
      </trkpt>
      <trkpt lat="43.81886" lon="3.73095">
        <ele>147</ele>
        <time>2014-04-01T12:38:06Z</time>
      </trkpt>
      <trkpt lat="43.81883" lon="3.73105">
        <ele>147</ele>
        <time>2014-04-01T12:38:24Z</time>
      </trkpt>
      <trkpt lat="43.81877" lon="3.73102">
        <ele>147</ele>
        <time>2014-04-01T12:38:28Z</time>
      </trkpt>
      <trkpt lat="43.81873" lon="3.73101">
        <ele>146</ele>
        <time>2014-04-01T12:38:30Z</time>
      </trkpt>
      <trkpt lat="43.81873" lon="3.73099">
        <ele>146</ele>
        <time>2014-04-01T12:38:48Z</time>
      </trkpt>
      <trkpt lat="43.81867" lon="3.731">
        <ele>147</ele>
        <time>2014-04-01T12:39:08Z</time>
      </trkpt>
      <trkpt lat="43.81865" lon="3.73104">
        <ele>146</ele>
        <time>2014-04-01T12:39:19Z</time>
      </trkpt>
      <trkpt lat="43.81861" lon="3.73102">
        <ele>148</ele>
        <time>2014-04-01T12:39:44Z</time>
      </trkpt>
      <trkpt lat="43.81856" lon="3.73073">
        <ele>149</ele>
        <time>2014-04-01T12:39:48Z</time>
      </trkpt>
      <trkpt lat="43.8186" lon="3.73067">
        <ele>159</ele>
        <time>2014-04-01T12:40:03Z</time>
      </trkpt>
      <trkpt lat="43.81857" lon="3.7308">
        <ele>162</ele>
        <time>2014-04-01T12:40:17Z</time>
      </trkpt>
      <trkpt lat="43.81862" lon="3.73094">
        <ele>160</ele>
        <time>2014-04-01T12:40:21Z</time>
      </trkpt>
      <trkpt lat="43.81865" lon="3.73109">
        <ele>158</ele>
        <time>2014-04-01T12:40:24Z</time>
      </trkpt>
      <trkpt lat="43.81861" lon="3.73107">
        <ele>152</ele>
        <time>2014-04-01T12:40:31Z</time>
      </trkpt>
      <trkpt lat="43.81857" lon="3.73099">
        <ele>148</ele>
        <time>2014-04-01T12:40:52Z</time>
      </trkpt>
      <trkpt lat="43.8186" lon="3.73096">
        <ele>147</ele>
        <time>2014-04-01T12:41:22Z</time>
      </trkpt>
      <trkpt lat="43.81861" lon="3.73092">
        <ele>147</ele>
        <time>2014-04-01T12:41:29Z</time>
      </trkpt>
      <trkpt lat="43.81864" lon="3.73089">
        <ele>147</ele>
        <time>2014-04-01T12:41:53Z</time>
      </trkpt>
      <trkpt lat="43.81867" lon="3.73095">
        <ele>147</ele>
        <time>2014-04-01T12:42:00Z</time>
      </trkpt>
      <trkpt lat="43.81857" lon="3.73097">
        <ele>146</ele>
        <time>2014-04-01T12:42:11Z</time>
      </trkpt>
      <trkpt lat="43.81858" lon="3.73103">
        <ele>144</ele>
        <time>2014-04-01T12:42:52Z</time>
      </trkpt>
      <trkpt lat="43.81866" lon="3.73108">
        <ele>144</ele>
        <time>2014-04-01T12:43:03Z</time>
      </trkpt>
      <trkpt lat="43.81872" lon="3.731">
        <ele>147</ele>
        <time>2014-04-01T12:43:33Z</time>
      </trkpt>
      <trkpt lat="43.81873" lon="3.73093">
        <ele>149</ele>
        <time>2014-04-01T12:43:37Z</time>
      </trkpt>
      <trkpt lat="43.8187" lon="3.73088">
        <ele>150</ele>
        <time>2014-04-01T12:43:39Z</time>
      </trkpt>
      <trkpt lat="43.81866" lon="3.73079">
        <ele>158</ele>
        <time>2014-04-01T12:43:51Z</time>
      </trkpt>
      <trkpt lat="43.8186" lon="3.73076">
        <ele>164</ele>
        <time>2014-04-01T12:44:05Z</time>
      </trkpt>
      <trkpt lat="43.81858" lon="3.73085">
        <ele>163</ele>
        <time>2014-04-01T12:44:15Z</time>
      </trkpt>
      <trkpt lat="43.81855" lon="3.73089">
        <ele>155</ele>
        <time>2014-04-01T12:44:24Z</time>
      </trkpt>
      <trkpt lat="43.8186" lon="3.73095">
        <ele>154</ele>
        <time>2014-04-01T12:44:27Z</time>
      </trkpt>
      <trkpt lat="43.81864" lon="3.73101">
        <ele>153</ele>
        <time>2014-04-01T12:44:29Z</time>
      </trkpt>
      <trkpt lat="43.81864" lon="3.73097">
        <ele>153</ele>
        <time>2014-04-01T12:44:36Z</time>
      </trkpt>
      <trkpt lat="43.81861" lon="3.73091">
        <ele>154</ele>
        <time>2014-04-01T12:44:39Z</time>
      </trkpt>
      <trkpt lat="43.81858" lon="3.73085">
        <ele>155</ele>
        <time>2014-04-01T12:44:45Z</time>
      </trkpt>
      <trkpt lat="43.81855" lon="3.7309">
        <ele>156</ele>
        <time>2014-04-01T12:45:09Z</time>
      </trkpt>
      <trkpt lat="43.81855" lon="3.73095">
        <ele>156</ele>
        <time>2014-04-01T12:45:16Z</time>
      </trkpt>
      <trkpt lat="43.8186" lon="3.73093">
        <ele>156</ele>
        <time>2014-04-01T12:45:27Z</time>
      </trkpt>
      <trkpt lat="43.8186" lon="3.73087">
        <ele>157</ele>
        <time>2014-04-01T12:45:42Z</time>
      </trkpt>
      <trkpt lat="43.81856" lon="3.73085">
        <ele>158</ele>
        <time>2014-04-01T12:45:54Z</time>
      </trkpt>
      <trkpt lat="43.81854" lon="3.73087">
        <ele>158</ele>
        <time>2014-04-01T12:46:06Z</time>
      </trkpt>
      <trkpt lat="43.8185" lon="3.73085">
        <ele>159</ele>
        <time>2014-04-01T12:46:11Z</time>
      </trkpt>
      <trkpt lat="43.81846" lon="3.73085">
        <ele>162</ele>
        <time>2014-04-01T12:46:20Z</time>
      </trkpt>
      <trkpt lat="43.81839" lon="3.73083">
        <ele>163</ele>
        <time>2014-04-01T12:46:31Z</time>
      </trkpt>
      <trkpt lat="43.81836" lon="3.73083">
        <ele>164</ele>
        <time>2014-04-01T12:46:39Z</time>
      </trkpt>
      <trkpt lat="43.81832" lon="3.73087">
        <ele>165</ele>
        <time>2014-04-01T12:46:48Z</time>
      </trkpt>
      <trkpt lat="43.81827" lon="3.73089">
        <ele>164</ele>
        <time>2014-04-01T12:46:56Z</time>
      </trkpt>
      <trkpt lat="43.81824" lon="3.7309">
        <ele>163</ele>
        <time>2014-04-01T12:47:04Z</time>
      </trkpt>
      <trkpt lat="43.81819" lon="3.73089">
        <ele>160</ele>
        <time>2014-04-01T12:47:11Z</time>
      </trkpt>
      <trkpt lat="43.81814" lon="3.73092">
        <ele>160</ele>
        <time>2014-04-01T12:47:16Z</time>
      </trkpt>
      <trkpt lat="43.81811" lon="3.73095">
        <ele>160</ele>
        <time>2014-04-01T12:47:24Z</time>
      </trkpt>
      <trkpt lat="43.81808" lon="3.73098">
        <ele>160</ele>
        <time>2014-04-01T12:47:43Z</time>
      </trkpt>
      <trkpt lat="43.81805" lon="3.73092">
        <ele>161</ele>
        <time>2014-04-01T12:47:49Z</time>
      </trkpt>
      <trkpt lat="43.81801" lon="3.73096">
        <ele>164</ele>
        <time>2014-04-01T12:47:55Z</time>
      </trkpt>
      <trkpt lat="43.81796" lon="3.73108">
        <ele>169</ele>
        <time>2014-04-01T12:48:06Z</time>
      </trkpt>
      <trkpt lat="43.81791" lon="3.73114">
        <ele>169</ele>
        <time>2014-04-01T12:48:17Z</time>
      </trkpt>
      <trkpt lat="43.81789" lon="3.7312">
        <ele>169</ele>
        <time>2014-04-01T12:48:23Z</time>
      </trkpt>
      <trkpt lat="43.8179" lon="3.73124">
        <ele>169</ele>
        <time>2014-04-01T12:48:31Z</time>
      </trkpt>
      <trkpt lat="43.81788" lon="3.7313">
        <ele>169</ele>
        <time>2014-04-01T12:48:41Z</time>
      </trkpt>
      <trkpt lat="43.81789" lon="3.73136">
        <ele>168</ele>
        <time>2014-04-01T12:48:46Z</time>
      </trkpt>
      <trkpt lat="43.8179" lon="3.73143">
        <ele>167</ele>
        <time>2014-04-01T12:48:52Z</time>
      </trkpt>
      <trkpt lat="43.81792" lon="3.73149">
        <ele>167</ele>
        <time>2014-04-01T12:48:57Z</time>
      </trkpt>
      <trkpt lat="43.81786" lon="3.73154">
        <ele>167</ele>
        <time>2014-04-01T12:49:08Z</time>
      </trkpt>
      <trkpt lat="43.81782" lon="3.73153">
        <ele>164</ele>
        <time>2014-04-01T12:49:14Z</time>
      </trkpt>
      <trkpt lat="43.81785" lon="3.73147">
        <ele>162</ele>
        <time>2014-04-01T12:49:23Z</time>
      </trkpt>
      <trkpt lat="43.81788" lon="3.73146">
        <ele>163</ele>
        <time>2014-04-01T12:49:29Z</time>
      </trkpt>
      <trkpt lat="43.81785" lon="3.73141">
        <ele>164</ele>
        <time>2014-04-01T12:49:36Z</time>
      </trkpt>
      <trkpt lat="43.81786" lon="3.73133">
        <ele>166</ele>
        <time>2014-04-01T12:49:50Z</time>
      </trkpt>
      <trkpt lat="43.81781" lon="3.73132">
        <ele>169</ele>
        <time>2014-04-01T12:50:00Z</time>
      </trkpt>
      <trkpt lat="43.81777" lon="3.73133">
        <ele>171</ele>
        <time>2014-04-01T12:50:02Z</time>
      </trkpt>
      <trkpt lat="43.81774" lon="3.73138">
        <ele>173</ele>
        <time>2014-04-01T12:50:08Z</time>
      </trkpt>
      <trkpt lat="43.81775" lon="3.73145">
        <ele>174</ele>
        <time>2014-04-01T12:50:13Z</time>
      </trkpt>
      <trkpt lat="43.81775" lon="3.73151">
        <ele>174</ele>
        <time>2014-04-01T12:50:19Z</time>
      </trkpt>
      <trkpt lat="43.81778" lon="3.73156">
        <ele>174</ele>
        <time>2014-04-01T12:50:28Z</time>
      </trkpt>
      <trkpt lat="43.81777" lon="3.73163">
        <ele>175</ele>
        <time>2014-04-01T12:50:39Z</time>
      </trkpt>
      <trkpt lat="43.81772" lon="3.73161">
        <ele>174</ele>
        <time>2014-04-01T12:50:51Z</time>
      </trkpt>
      <trkpt lat="43.81772" lon="3.73154">
        <ele>175</ele>
        <time>2014-04-01T12:50:59Z</time>
      </trkpt>
      <trkpt lat="43.81773" lon="3.73148">
        <ele>177</ele>
        <time>2014-04-01T12:51:10Z</time>
      </trkpt>
      <trkpt lat="43.81776" lon="3.73149">
        <ele>183</ele>
        <time>2014-04-01T12:51:32Z</time>
      </trkpt>
      <trkpt lat="43.81776" lon="3.73156">
        <ele>186</ele>
        <time>2014-04-01T12:51:35Z</time>
      </trkpt>
      <trkpt lat="43.81774" lon="3.73161">
        <ele>190</ele>
        <time>2014-04-01T12:51:40Z</time>
      </trkpt>
      <trkpt lat="43.81773" lon="3.73162">
        <ele>193</ele>
        <time>2014-04-01T12:52:29Z</time>
      </trkpt>
      <trkpt lat="43.81772" lon="3.73156">
        <ele>193</ele>
        <time>2014-04-01T12:52:36Z</time>
      </trkpt>
      <trkpt lat="43.81769" lon="3.73149">
        <ele>191</ele>
        <time>2014-04-01T12:52:42Z</time>
      </trkpt>
      <trkpt lat="43.81765" lon="3.7315">
        <ele>189</ele>
        <time>2014-04-01T12:52:52Z</time>
      </trkpt>
      <trkpt lat="43.81759" lon="3.73147">
        <ele>188</ele>
        <time>2014-04-01T12:53:05Z</time>
      </trkpt>
      <trkpt lat="43.81759" lon="3.73141">
        <ele>190</ele>
        <time>2014-04-01T12:53:12Z</time>
      </trkpt>
      <trkpt lat="43.81754" lon="3.73144">
        <ele>192</ele>
        <time>2014-04-01T12:53:22Z</time>
      </trkpt>
      <trkpt lat="43.81754" lon="3.73151">
        <ele>192</ele>
        <time>2014-04-01T12:53:31Z</time>
      </trkpt>
      <trkpt lat="43.81752" lon="3.73164">
        <ele>198</ele>
        <time>2014-04-01T12:53:48Z</time>
      </trkpt>
      <trkpt lat="43.81747" lon="3.73162">
        <ele>200</ele>
        <time>2014-04-01T12:53:58Z</time>
      </trkpt>
      <trkpt lat="43.81749" lon="3.73155">
        <ele>201</ele>
        <time>2014-04-01T12:54:06Z</time>
      </trkpt>
      <trkpt lat="43.81744" lon="3.73153">
        <ele>200</ele>
        <time>2014-04-01T12:54:14Z</time>
      </trkpt>
      <trkpt lat="43.8174" lon="3.73152">
        <ele>199</ele>
        <time>2014-04-01T12:54:22Z</time>
      </trkpt>
      <trkpt lat="43.81736" lon="3.73156">
        <ele>199</ele>
        <time>2014-04-01T12:54:31Z</time>
      </trkpt>
      <trkpt lat="43.81732" lon="3.73161">
        <ele>199</ele>
        <time>2014-04-01T12:54:38Z</time>
      </trkpt>
      <trkpt lat="43.81727" lon="3.73162">
        <ele>199</ele>
        <time>2014-04-01T12:54:43Z</time>
      </trkpt>
      <trkpt lat="43.81723" lon="3.73167">
        <ele>200</ele>
        <time>2014-04-01T12:54:49Z</time>
      </trkpt>
      <trkpt lat="43.81718" lon="3.73169">
        <ele>200</ele>
        <time>2014-04-01T12:54:56Z</time>
      </trkpt>
      <trkpt lat="43.81716" lon="3.73172">
        <ele>200</ele>
        <time>2014-04-01T12:55:05Z</time>
      </trkpt>
      <trkpt lat="43.81712" lon="3.73177">
        <ele>201</ele>
        <time>2014-04-01T12:55:14Z</time>
      </trkpt>
      <trkpt lat="43.81708" lon="3.73177">
        <ele>205</ele>
        <time>2014-04-01T12:55:22Z</time>
      </trkpt>
      <trkpt lat="43.81704" lon="3.73181">
        <ele>207</ele>
        <time>2014-04-01T12:55:27Z</time>
      </trkpt>
      <trkpt lat="43.81703" lon="3.73187">
        <ele>208</ele>
        <time>2014-04-01T12:55:32Z</time>
      </trkpt>
      <trkpt lat="43.81699" lon="3.73191">
        <ele>208</ele>
        <time>2014-04-01T12:55:40Z</time>
      </trkpt>
      <trkpt lat="43.81693" lon="3.73192">
        <ele>209</ele>
        <time>2014-04-01T12:55:54Z</time>
      </trkpt>
      <trkpt lat="43.81688" lon="3.73191">
        <ele>210</ele>
        <time>2014-04-01T12:56:00Z</time>
      </trkpt>
      <trkpt lat="43.81685" lon="3.73187">
        <ele>212</ele>
        <time>2014-04-01T12:56:10Z</time>
      </trkpt>
      <trkpt lat="43.8168" lon="3.73185">
        <ele>212</ele>
        <time>2014-04-01T12:56:16Z</time>
      </trkpt>
      <trkpt lat="43.81675" lon="3.73187">
        <ele>212</ele>
        <time>2014-04-01T12:56:22Z</time>
      </trkpt>
      <trkpt lat="43.81669" lon="3.73188">
        <ele>214</ele>
        <time>2014-04-01T12:56:34Z</time>
      </trkpt>
      <trkpt lat="43.81664" lon="3.73189">
        <ele>216</ele>
        <time>2014-04-01T12:56:40Z</time>
      </trkpt>
      <trkpt lat="43.81659" lon="3.7319">
        <ele>216</ele>
        <time>2014-04-01T12:56:47Z</time>
      </trkpt>
      <trkpt lat="43.81654" lon="3.7319">
        <ele>217</ele>
        <time>2014-04-01T12:56:54Z</time>
      </trkpt>
      <trkpt lat="43.8165" lon="3.73188">
        <ele>216</ele>
        <time>2014-04-01T12:56:59Z</time>
      </trkpt>
      <trkpt lat="43.81647" lon="3.73181">
        <ele>216</ele>
        <time>2014-04-01T12:57:03Z</time>
      </trkpt>
      <trkpt lat="43.81643" lon="3.73178">
        <ele>215</ele>
        <time>2014-04-01T12:57:10Z</time>
      </trkpt>
      <trkpt lat="43.81638" lon="3.73178">
        <ele>216</ele>
        <time>2014-04-01T12:57:16Z</time>
      </trkpt>
      <trkpt lat="43.81634" lon="3.73174">
        <ele>217</ele>
        <time>2014-04-01T12:57:21Z</time>
      </trkpt>
      <trkpt lat="43.8163" lon="3.73175">
        <ele>218</ele>
        <time>2014-04-01T12:57:30Z</time>
      </trkpt>
      <trkpt lat="43.81626" lon="3.73171">
        <ele>217</ele>
        <time>2014-04-01T12:57:35Z</time>
      </trkpt>
      <trkpt lat="43.81622" lon="3.73167">
        <ele>217</ele>
        <time>2014-04-01T12:57:42Z</time>
      </trkpt>
      <trkpt lat="43.81617" lon="3.73167">
        <ele>217</ele>
        <time>2014-04-01T12:57:48Z</time>
      </trkpt>
      <trkpt lat="43.81615" lon="3.73166">
        <ele>224</ele>
        <time>2014-04-01T13:00:06Z</time>
      </trkpt>
      <trkpt lat="43.81612" lon="3.73165">
        <ele>224</ele>
        <time>2014-04-01T13:00:35Z</time>
      </trkpt>
      <trkpt lat="43.81606" lon="3.73165">
        <ele>224</ele>
        <time>2014-04-01T13:00:39Z</time>
      </trkpt>
      <trkpt lat="43.81602" lon="3.73163">
        <ele>225</ele>
        <time>2014-04-01T13:00:45Z</time>
      </trkpt>
      <trkpt lat="43.81597" lon="3.73162">
        <ele>225</ele>
        <time>2014-04-01T13:00:50Z</time>
      </trkpt>
      <trkpt lat="43.81595" lon="3.73161">
        <ele>225</ele>
        <time>2014-04-01T13:00:55Z</time>
      </trkpt>
      <trkpt lat="43.8159" lon="3.73157">
        <ele>226</ele>
        <time>2014-04-01T13:01:10Z</time>
      </trkpt>
      <trkpt lat="43.81585" lon="3.73155">
        <ele>227</ele>
        <time>2014-04-01T13:01:14Z</time>
      </trkpt>
      <trkpt lat="43.81581" lon="3.73156">
        <ele>227</ele>
        <time>2014-04-01T13:01:18Z</time>
      </trkpt>
      <trkpt lat="43.81577" lon="3.73153">
        <ele>227</ele>
        <time>2014-04-01T13:01:25Z</time>
      </trkpt>
      <trkpt lat="43.81571" lon="3.73153">
        <ele>228</ele>
        <time>2014-04-01T13:01:31Z</time>
      </trkpt>
      <trkpt lat="43.81566" lon="3.73154">
        <ele>228</ele>
        <time>2014-04-01T13:01:38Z</time>
      </trkpt>
      <trkpt lat="43.81562" lon="3.73154">
        <ele>228</ele>
        <time>2014-04-01T13:01:44Z</time>
      </trkpt>
      <trkpt lat="43.81556" lon="3.73155">
        <ele>227</ele>
        <time>2014-04-01T13:01:50Z</time>
      </trkpt>
      <trkpt lat="43.81552" lon="3.73158">
        <ele>228</ele>
        <time>2014-04-01T13:01:57Z</time>
      </trkpt>
      <trkpt lat="43.81547" lon="3.73158">
        <ele>231</ele>
        <time>2014-04-01T13:02:03Z</time>
      </trkpt>
      <trkpt lat="43.81543" lon="3.73156">
        <ele>230</ele>
        <time>2014-04-01T13:02:12Z</time>
      </trkpt>
      <trkpt lat="43.81538" lon="3.73156">
        <ele>230</ele>
        <time>2014-04-01T13:02:20Z</time>
      </trkpt>
      <trkpt lat="43.81533" lon="3.73157">
        <ele>233</ele>
        <time>2014-04-01T13:02:28Z</time>
      </trkpt>
      <trkpt lat="43.81528" lon="3.73157">
        <ele>235</ele>
        <time>2014-04-01T13:02:36Z</time>
      </trkpt>
      <trkpt lat="43.81523" lon="3.73158">
        <ele>236</ele>
        <time>2014-04-01T13:02:41Z</time>
      </trkpt>
      <trkpt lat="43.81519" lon="3.73154">
        <ele>236</ele>
        <time>2014-04-01T13:02:45Z</time>
      </trkpt>
      <trkpt lat="43.81514" lon="3.73154">
        <ele>235</ele>
        <time>2014-04-01T13:02:53Z</time>
      </trkpt>
      <trkpt lat="43.81509" lon="3.73154">
        <ele>234</ele>
        <time>2014-04-01T13:02:57Z</time>
      </trkpt>
      <trkpt lat="43.81505" lon="3.73156">
        <ele>235</ele>
        <time>2014-04-01T13:03:04Z</time>
      </trkpt>
      <trkpt lat="43.815" lon="3.73158">
        <ele>233</ele>
        <time>2014-04-01T13:03:11Z</time>
      </trkpt>
      <trkpt lat="43.81495" lon="3.7316">
        <ele>232</ele>
        <time>2014-04-01T13:03:19Z</time>
      </trkpt>
      <trkpt lat="43.8149" lon="3.73161">
        <ele>233</ele>
        <time>2014-04-01T13:03:24Z</time>
      </trkpt>
      <trkpt lat="43.81485" lon="3.73165">
        <ele>234</ele>
        <time>2014-04-01T13:03:28Z</time>
      </trkpt>
      <trkpt lat="43.81481" lon="3.73168">
        <ele>235</ele>
        <time>2014-04-01T13:03:32Z</time>
      </trkpt>
      <trkpt lat="43.81477" lon="3.73173">
        <ele>236</ele>
        <time>2014-04-01T13:03:36Z</time>
      </trkpt>
      <trkpt lat="43.81473" lon="3.73177">
        <ele>237</ele>
        <time>2014-04-01T13:03:40Z</time>
      </trkpt>
      <trkpt lat="43.81467" lon="3.7318">
        <ele>239</ele>
        <time>2014-04-01T13:03:45Z</time>
      </trkpt>
      <trkpt lat="43.81462" lon="3.7318">
        <ele>239</ele>
        <time>2014-04-01T13:03:50Z</time>
      </trkpt>
      <trkpt lat="43.81458" lon="3.7318">
        <ele>240</ele>
        <time>2014-04-01T13:03:55Z</time>
      </trkpt>
      <trkpt lat="43.81453" lon="3.7318">
        <ele>241</ele>
        <time>2014-04-01T13:04:02Z</time>
      </trkpt>
      <trkpt lat="43.81449" lon="3.73176">
        <ele>242</ele>
        <time>2014-04-01T13:04:06Z</time>
      </trkpt>
      <trkpt lat="43.81445" lon="3.73173">
        <ele>242</ele>
        <time>2014-04-01T13:04:10Z</time>
      </trkpt>
      <trkpt lat="43.8144" lon="3.73173">
        <ele>242</ele>
        <time>2014-04-01T13:04:15Z</time>
      </trkpt>
      <trkpt lat="43.81436" lon="3.73177">
        <ele>240</ele>
        <time>2014-04-01T13:04:19Z</time>
      </trkpt>
      <trkpt lat="43.81431" lon="3.73179">
        <ele>240</ele>
        <time>2014-04-01T13:04:24Z</time>
      </trkpt>
      <trkpt lat="43.8143" lon="3.73183">
        <ele>241</ele>
        <time>2014-04-01T13:04:31Z</time>
      </trkpt>
      <trkpt lat="43.8143" lon="3.73191">
        <ele>244</ele>
        <time>2014-04-01T13:04:38Z</time>
      </trkpt>
      <trkpt lat="43.8143" lon="3.73198">
        <ele>245</ele>
        <time>2014-04-01T13:04:43Z</time>
      </trkpt>
      <trkpt lat="43.81429" lon="3.73206">
        <ele>243</ele>
        <time>2014-04-01T13:04:47Z</time>
      </trkpt>
      <trkpt lat="43.81431" lon="3.73217">
        <ele>236</ele>
        <time>2014-04-01T13:05:05Z</time>
      </trkpt>
      <trkpt lat="43.81431" lon="3.73223">
        <ele>236</ele>
        <time>2014-04-01T13:05:11Z</time>
      </trkpt>
      <trkpt lat="43.81431" lon="3.7323">
        <ele>236</ele>
        <time>2014-04-01T13:05:19Z</time>
      </trkpt>
      <trkpt lat="43.81429" lon="3.73237">
        <ele>236</ele>
        <time>2014-04-01T13:05:27Z</time>
      </trkpt>
      <trkpt lat="43.81431" lon="3.73243">
        <ele>236</ele>
        <time>2014-04-01T13:05:34Z</time>
      </trkpt>
      <trkpt lat="43.81435" lon="3.73246">
        <ele>237</ele>
        <time>2014-04-01T13:05:37Z</time>
      </trkpt>
      <trkpt lat="43.81436" lon="3.73252">
        <ele>237</ele>
        <time>2014-04-01T13:05:43Z</time>
      </trkpt>
      <trkpt lat="43.81435" lon="3.73258">
        <ele>236</ele>
        <time>2014-04-01T13:05:49Z</time>
      </trkpt>
      <trkpt lat="43.81433" lon="3.73265">
        <ele>237</ele>
        <time>2014-04-01T13:05:57Z</time>
      </trkpt>
      <trkpt lat="43.81429" lon="3.73271">
        <ele>240</ele>
        <time>2014-04-01T13:06:04Z</time>
      </trkpt>
      <trkpt lat="43.81427" lon="3.73279">
        <ele>241</ele>
        <time>2014-04-01T13:06:07Z</time>
      </trkpt>
      <trkpt lat="43.81429" lon="3.73286">
        <ele>244</ele>
        <time>2014-04-01T13:06:11Z</time>
      </trkpt>
      <trkpt lat="43.81429" lon="3.73293">
        <ele>245</ele>
        <time>2014-04-01T13:06:18Z</time>
      </trkpt>
      <trkpt lat="43.81429" lon="3.733">
        <ele>245</ele>
        <time>2014-04-01T13:06:22Z</time>
      </trkpt>
      <trkpt lat="43.81426" lon="3.73309">
        <ele>247</ele>
        <time>2014-04-01T13:06:25Z</time>
      </trkpt>
      <trkpt lat="43.81427" lon="3.73315">
        <ele>247</ele>
        <time>2014-04-01T13:06:33Z</time>
      </trkpt>
      <trkpt lat="43.81431" lon="3.73318">
        <ele>249</ele>
        <time>2014-04-01T13:06:41Z</time>
      </trkpt>
      <trkpt lat="43.8143" lon="3.73325">
        <ele>253</ele>
        <time>2014-04-01T13:06:49Z</time>
      </trkpt>
      <trkpt lat="43.81433" lon="3.73332">
        <ele>253</ele>
        <time>2014-04-01T13:06:54Z</time>
      </trkpt>
      <trkpt lat="43.81434" lon="3.7334">
        <ele>252</ele>
        <time>2014-04-01T13:06:58Z</time>
      </trkpt>
      <trkpt lat="43.81434" lon="3.73347">
        <ele>252</ele>
        <time>2014-04-01T13:07:01Z</time>
      </trkpt>
      <trkpt lat="43.81431" lon="3.73352">
        <ele>252</ele>
        <time>2014-04-01T13:07:06Z</time>
      </trkpt>
      <trkpt lat="43.81434" lon="3.73358">
        <ele>251</ele>
        <time>2014-04-01T13:07:11Z</time>
      </trkpt>
      <trkpt lat="43.81435" lon="3.73365">
        <ele>251</ele>
        <time>2014-04-01T13:07:15Z</time>
      </trkpt>
      <trkpt lat="43.81435" lon="3.73371">
        <ele>251</ele>
        <time>2014-04-01T13:07:18Z</time>
      </trkpt>
      <trkpt lat="43.81433" lon="3.73377">
        <ele>252</ele>
        <time>2014-04-01T13:07:21Z</time>
      </trkpt>
      <trkpt lat="43.8143" lon="3.73383">
        <ele>252</ele>
        <time>2014-04-01T13:07:26Z</time>
      </trkpt>
      <trkpt lat="43.81427" lon="3.7339">
        <ele>252</ele>
        <time>2014-04-01T13:07:30Z</time>
      </trkpt>
      <trkpt lat="43.81423" lon="3.73396">
        <ele>251</ele>
        <time>2014-04-01T13:07:34Z</time>
      </trkpt>
      <trkpt lat="43.81419" lon="3.73404">
        <ele>251</ele>
        <time>2014-04-01T13:07:38Z</time>
      </trkpt>
      <trkpt lat="43.81415" lon="3.73407">
        <ele>248</ele>
        <time>2014-04-01T13:07:42Z</time>
      </trkpt>
      <trkpt lat="43.81414" lon="3.73415">
        <ele>240</ele>
        <time>2014-04-01T13:08:01Z</time>
      </trkpt>
      <trkpt lat="43.81409" lon="3.73419">
        <ele>239</ele>
        <time>2014-04-01T13:08:04Z</time>
      </trkpt>
      <trkpt lat="43.81406" lon="3.73426">
        <ele>238</ele>
        <time>2014-04-01T13:08:07Z</time>
      </trkpt>
      <trkpt lat="43.81405" lon="3.73433">
        <ele>235</ele>
        <time>2014-04-01T13:08:13Z</time>
      </trkpt>
      <trkpt lat="43.81407" lon="3.73441">
        <ele>233</ele>
        <time>2014-04-01T13:08:17Z</time>
      </trkpt>
      <trkpt lat="43.81406" lon="3.73447">
        <ele>232</ele>
        <time>2014-04-01T13:08:21Z</time>
      </trkpt>
      <trkpt lat="43.81405" lon="3.73454">
        <ele>231</ele>
        <time>2014-04-01T13:08:27Z</time>
      </trkpt>
      <trkpt lat="43.81406" lon="3.7346">
        <ele>232</ele>
        <time>2014-04-01T13:08:32Z</time>
      </trkpt>
      <trkpt lat="43.81407" lon="3.73467">
        <ele>232</ele>
        <time>2014-04-01T13:08:37Z</time>
      </trkpt>
      <trkpt lat="43.81408" lon="3.73475">
        <ele>232</ele>
        <time>2014-04-01T13:08:40Z</time>
      </trkpt>
      <trkpt lat="43.81408" lon="3.73481">
        <ele>232</ele>
        <time>2014-04-01T13:08:44Z</time>
      </trkpt>
      <trkpt lat="43.81407" lon="3.7349">
        <ele>234</ele>
        <time>2014-04-01T13:08:49Z</time>
      </trkpt>
      <trkpt lat="43.81407" lon="3.73518">
        <ele>248</ele>
        <time>2014-04-01T13:09:03Z</time>
      </trkpt>
      <trkpt lat="43.81408" lon="3.73525">
        <ele>247</ele>
        <time>2014-04-01T13:09:09Z</time>
      </trkpt>
      <trkpt lat="43.81407" lon="3.73531">
        <ele>249</ele>
        <time>2014-04-01T13:09:17Z</time>
      </trkpt>
      <trkpt lat="43.81409" lon="3.73536">
        <ele>250</ele>
        <time>2014-04-01T13:09:22Z</time>
      </trkpt>
      <trkpt lat="43.81409" lon="3.73543">
        <ele>249</ele>
        <time>2014-04-01T13:09:30Z</time>
      </trkpt>
      <trkpt lat="43.8141" lon="3.7355">
        <ele>246</ele>
        <time>2014-04-01T13:09:35Z</time>
      </trkpt>
      <trkpt lat="43.81413" lon="3.73556">
        <ele>244</ele>
        <time>2014-04-01T13:09:41Z</time>
      </trkpt>
      <trkpt lat="43.81414" lon="3.73563">
        <ele>244</ele>
        <time>2014-04-01T13:09:46Z</time>
      </trkpt>
      <trkpt lat="43.81413" lon="3.73569">
        <ele>243</ele>
        <time>2014-04-01T13:09:50Z</time>
      </trkpt>
      <trkpt lat="43.81414" lon="3.73597">
        <ele>235</ele>
        <time>2014-04-01T13:10:12Z</time>
      </trkpt>
      <trkpt lat="43.81412" lon="3.73603">
        <ele>235</ele>
        <time>2014-04-01T13:10:15Z</time>
      </trkpt>
      <trkpt lat="43.81409" lon="3.73616">
        <ele>225</ele>
        <time>2014-04-01T13:10:26Z</time>
      </trkpt>
      <trkpt lat="43.81411" lon="3.73622">
        <ele>223</ele>
        <time>2014-04-01T13:10:30Z</time>
      </trkpt>
      <trkpt lat="43.81414" lon="3.73627">
        <ele>222</ele>
        <time>2014-04-01T13:10:36Z</time>
      </trkpt>
      <trkpt lat="43.81416" lon="3.73634">
        <ele>221</ele>
        <time>2014-04-01T13:10:41Z</time>
      </trkpt>
      <trkpt lat="43.81418" lon="3.73639">
        <ele>222</ele>
        <time>2014-04-01T13:10:44Z</time>
      </trkpt>
      <trkpt lat="43.81422" lon="3.73643">
        <ele>223</ele>
        <time>2014-04-01T13:10:52Z</time>
      </trkpt>
      <trkpt lat="43.81427" lon="3.73648">
        <ele>223</ele>
        <time>2014-04-01T13:10:57Z</time>
      </trkpt>
      <trkpt lat="43.81429" lon="3.73653">
        <ele>223</ele>
        <time>2014-04-01T13:11:05Z</time>
      </trkpt>
      <trkpt lat="43.8143" lon="3.7366">
        <ele>224</ele>
        <time>2014-04-01T13:11:12Z</time>
      </trkpt>
      <trkpt lat="43.81426" lon="3.73664">
        <ele>223</ele>
        <time>2014-04-01T13:11:19Z</time>
      </trkpt>
      <trkpt lat="43.81423" lon="3.7367">
        <ele>223</ele>
        <time>2014-04-01T13:11:26Z</time>
      </trkpt>
      <trkpt lat="43.81419" lon="3.73674">
        <ele>223</ele>
        <time>2014-04-01T13:11:30Z</time>
      </trkpt>
      <trkpt lat="43.81414" lon="3.73676">
        <ele>223</ele>
        <time>2014-04-01T13:11:35Z</time>
      </trkpt>
      <trkpt lat="43.81409" lon="3.73678">
        <ele>225</ele>
        <time>2014-04-01T13:11:41Z</time>
      </trkpt>
      <trkpt lat="43.81407" lon="3.73685">
        <ele>227</ele>
        <time>2014-04-01T13:11:47Z</time>
      </trkpt>
      <trkpt lat="43.81406" lon="3.73691">
        <ele>227</ele>
        <time>2014-04-01T13:11:51Z</time>
      </trkpt>
      <trkpt lat="43.81403" lon="3.73695">
        <ele>227</ele>
        <time>2014-04-01T13:11:58Z</time>
      </trkpt>
      <trkpt lat="43.81399" lon="3.737">
        <ele>227</ele>
        <time>2014-04-01T13:12:01Z</time>
      </trkpt>
      <trkpt lat="43.81395" lon="3.73704">
        <ele>227</ele>
        <time>2014-04-01T13:12:07Z</time>
      </trkpt>
      <trkpt lat="43.81391" lon="3.7371">
        <ele>227</ele>
        <time>2014-04-01T13:12:11Z</time>
      </trkpt>
      <trkpt lat="43.81387" lon="3.73715">
        <ele>225</ele>
        <time>2014-04-01T13:12:15Z</time>
      </trkpt>
      <trkpt lat="43.81384" lon="3.73719">
        <ele>226</ele>
        <time>2014-04-01T13:12:22Z</time>
      </trkpt>
      <trkpt lat="43.81384" lon="3.73723">
        <ele>226</ele>
        <time>2014-04-01T13:12:28Z</time>
      </trkpt>
      <trkpt lat="43.8138" lon="3.73729">
        <ele>224</ele>
        <time>2014-04-01T13:12:38Z</time>
      </trkpt>
      <trkpt lat="43.81376" lon="3.73735">
        <ele>223</ele>
        <time>2014-04-01T13:12:42Z</time>
      </trkpt>
      <trkpt lat="43.81373" lon="3.73739">
        <ele>222</ele>
        <time>2014-04-01T13:12:45Z</time>
      </trkpt>
      <trkpt lat="43.81368" lon="3.73743">
        <ele>222</ele>
        <time>2014-04-01T13:12:49Z</time>
      </trkpt>
      <trkpt lat="43.81366" lon="3.73749">
        <ele>223</ele>
        <time>2014-04-01T13:12:56Z</time>
      </trkpt>
      <trkpt lat="43.81363" lon="3.73754">
        <ele>222</ele>
        <time>2014-04-01T13:13:05Z</time>
      </trkpt>
      <trkpt lat="43.81361" lon="3.73761">
        <ele>222</ele>
        <time>2014-04-01T13:13:10Z</time>
      </trkpt>
      <trkpt lat="43.8136" lon="3.73768">
        <ele>220</ele>
        <time>2014-04-01T13:13:14Z</time>
      </trkpt>
      <trkpt lat="43.81356" lon="3.73773">
        <ele>219</ele>
        <time>2014-04-01T13:13:17Z</time>
      </trkpt>
      <trkpt lat="43.81355" lon="3.73779">
        <ele>218</ele>
        <time>2014-04-01T13:13:21Z</time>
      </trkpt>
      <trkpt lat="43.81356" lon="3.73785">
        <ele>217</ele>
        <time>2014-04-01T13:13:30Z</time>
      </trkpt>
      <trkpt lat="43.8136" lon="3.73792">
        <ele>218</ele>
        <time>2014-04-01T13:13:36Z</time>
      </trkpt>
      <trkpt lat="43.8136" lon="3.73799">
        <ele>218</ele>
        <time>2014-04-01T13:13:40Z</time>
      </trkpt>
      <trkpt lat="43.81359" lon="3.73802">
        <ele>215</ele>
        <time>2014-04-01T13:13:52Z</time>
      </trkpt>
      <trkpt lat="43.81361" lon="3.73806">
        <ele>213</ele>
        <time>2014-04-01T13:14:16Z</time>
      </trkpt>
      <trkpt lat="43.81359" lon="3.73809">
        <ele>204</ele>
        <time>2014-04-01T13:16:32Z</time>
      </trkpt>
      <trkpt lat="43.81361" lon="3.73815">
        <ele>204</ele>
        <time>2014-04-01T13:16:37Z</time>
      </trkpt>
      <trkpt lat="43.81359" lon="3.73821">
        <ele>201</ele>
        <time>2014-04-01T13:16:42Z</time>
      </trkpt>
      <trkpt lat="43.81358" lon="3.73828">
        <ele>199</ele>
        <time>2014-04-01T13:16:46Z</time>
      </trkpt>
      <trkpt lat="43.81362" lon="3.73831">
        <ele>198</ele>
        <time>2014-04-01T13:16:52Z</time>
      </trkpt>
      <trkpt lat="43.81366" lon="3.73828">
        <ele>197</ele>
        <time>2014-04-01T13:17:00Z</time>
      </trkpt>
      <trkpt lat="43.81372" lon="3.73827">
        <ele>194</ele>
        <time>2014-04-01T13:17:07Z</time>
      </trkpt>
      <trkpt lat="43.81377" lon="3.73825">
        <ele>194</ele>
        <time>2014-04-01T13:17:11Z</time>
      </trkpt>
      <trkpt lat="43.81381" lon="3.73823">
        <ele>193</ele>
        <time>2014-04-01T13:17:14Z</time>
      </trkpt>
      <trkpt lat="43.81387" lon="3.73823">
        <ele>193</ele>
        <time>2014-04-01T13:17:21Z</time>
      </trkpt>
      <trkpt lat="43.81392" lon="3.7382">
        <ele>192</ele>
        <time>2014-04-01T13:17:30Z</time>
      </trkpt>
      <trkpt lat="43.81396" lon="3.73821">
        <ele>192</ele>
        <time>2014-04-01T13:17:36Z</time>
      </trkpt>
      <trkpt lat="43.81401" lon="3.73825">
        <ele>193</ele>
        <time>2014-04-01T13:17:43Z</time>
      </trkpt>
      <trkpt lat="43.81405" lon="3.7383">
        <ele>194</ele>
        <time>2014-04-01T13:17:49Z</time>
      </trkpt>
      <trkpt lat="43.8141" lon="3.73832">
        <ele>194</ele>
        <time>2014-04-01T13:17:53Z</time>
      </trkpt>
      <trkpt lat="43.81415" lon="3.73834">
        <ele>194</ele>
        <time>2014-04-01T13:17:57Z</time>
      </trkpt>
      <trkpt lat="43.81418" lon="3.73838">
        <ele>196</ele>
        <time>2014-04-01T13:18:00Z</time>
      </trkpt>
      <trkpt lat="43.81422" lon="3.73843">
        <ele>199</ele>
        <time>2014-04-01T13:18:03Z</time>
      </trkpt>
      <trkpt lat="43.81425" lon="3.73849">
        <ele>201</ele>
        <time>2014-04-01T13:18:08Z</time>
      </trkpt>
      <trkpt lat="43.81426" lon="3.73853">
        <ele>201</ele>
        <time>2014-04-01T13:18:14Z</time>
      </trkpt>
      <trkpt lat="43.81421" lon="3.73854">
        <ele>198</ele>
        <time>2014-04-01T13:18:27Z</time>
      </trkpt>
      <trkpt lat="43.81418" lon="3.7386">
        <ele>198</ele>
        <time>2014-04-01T13:18:33Z</time>
      </trkpt>
      <trkpt lat="43.81416" lon="3.73866">
        <ele>197</ele>
        <time>2014-04-01T13:18:41Z</time>
      </trkpt>
      <trkpt lat="43.81414" lon="3.73872">
        <ele>195</ele>
        <time>2014-04-01T13:18:46Z</time>
      </trkpt>
      <trkpt lat="43.81412" lon="3.73878">
        <ele>195</ele>
        <time>2014-04-01T13:18:52Z</time>
      </trkpt>
      <trkpt lat="43.81408" lon="3.73884">
        <ele>194</ele>
        <time>2014-04-01T13:18:56Z</time>
      </trkpt>
      <trkpt lat="43.81406" lon="3.73889">
        <ele>193</ele>
        <time>2014-04-01T13:18:59Z</time>
      </trkpt>
      <trkpt lat="43.81404" lon="3.73895">
        <ele>193</ele>
        <time>2014-04-01T13:19:04Z</time>
      </trkpt>
      <trkpt lat="43.81401" lon="3.73902">
        <ele>192</ele>
        <time>2014-04-01T13:19:08Z</time>
      </trkpt>
      <trkpt lat="43.814" lon="3.73911">
        <ele>191</ele>
        <time>2014-04-01T13:19:12Z</time>
      </trkpt>
      <trkpt lat="43.81398" lon="3.73917">
        <ele>191</ele>
        <time>2014-04-01T13:19:15Z</time>
      </trkpt>
      <trkpt lat="43.81396" lon="3.73923">
        <ele>190</ele>
        <time>2014-04-01T13:19:22Z</time>
      </trkpt>
      <trkpt lat="43.81398" lon="3.7393">
        <ele>190</ele>
        <time>2014-04-01T13:19:27Z</time>
      </trkpt>
      <trkpt lat="43.81399" lon="3.73935">
        <ele>188</ele>
        <time>2014-04-01T13:19:36Z</time>
      </trkpt>
      <trkpt lat="43.81395" lon="3.73937">
        <ele>186</ele>
        <time>2014-04-01T13:19:51Z</time>
      </trkpt>
      <trkpt lat="43.81396" lon="3.73945">
        <ele>185</ele>
        <time>2014-04-01T13:19:54Z</time>
      </trkpt>
      <trkpt lat="43.81397" lon="3.73951">
        <ele>183</ele>
        <time>2014-04-01T13:20:00Z</time>
      </trkpt>
      <trkpt lat="43.81396" lon="3.73957">
        <ele>183</ele>
        <time>2014-04-01T13:20:05Z</time>
      </trkpt>
      <trkpt lat="43.81396" lon="3.73964">
        <ele>183</ele>
        <time>2014-04-01T13:20:08Z</time>
      </trkpt>
      <trkpt lat="43.814" lon="3.73969">
        <ele>184</ele>
        <time>2014-04-01T13:20:13Z</time>
      </trkpt>
      <trkpt lat="43.81405" lon="3.73972">
        <ele>183</ele>
        <time>2014-04-01T13:20:17Z</time>
      </trkpt>
      <trkpt lat="43.81408" lon="3.73978">
        <ele>183</ele>
        <time>2014-04-01T13:20:21Z</time>
      </trkpt>
      <trkpt lat="43.81411" lon="3.73984">
        <ele>183</ele>
        <time>2014-04-01T13:20:25Z</time>
      </trkpt>
      <trkpt lat="43.81414" lon="3.7399">
        <ele>182</ele>
        <time>2014-04-01T13:20:30Z</time>
      </trkpt>
      <trkpt lat="43.81413" lon="3.73997">
        <ele>182</ele>
        <time>2014-04-01T13:20:34Z</time>
      </trkpt>
      <trkpt lat="43.81414" lon="3.74004">
        <ele>181</ele>
        <time>2014-04-01T13:20:41Z</time>
      </trkpt>
      <trkpt lat="43.81416" lon="3.74009">
        <ele>181</ele>
        <time>2014-04-01T13:20:47Z</time>
      </trkpt>
      <trkpt lat="43.81419" lon="3.74016">
        <ele>181</ele>
        <time>2014-04-01T13:20:54Z</time>
      </trkpt>
      <trkpt lat="43.8142" lon="3.74022">
        <ele>181</ele>
        <time>2014-04-01T13:20:59Z</time>
      </trkpt>
      <trkpt lat="43.81421" lon="3.7403">
        <ele>180</ele>
        <time>2014-04-01T13:21:05Z</time>
      </trkpt>
      <trkpt lat="43.81422" lon="3.74037">
        <ele>181</ele>
        <time>2014-04-01T13:21:09Z</time>
      </trkpt>
      <trkpt lat="43.81425" lon="3.74041">
        <ele>181</ele>
        <time>2014-04-01T13:21:14Z</time>
      </trkpt>
      <trkpt lat="43.81429" lon="3.74046">
        <ele>180</ele>
        <time>2014-04-01T13:21:21Z</time>
      </trkpt>
      <trkpt lat="43.81432" lon="3.7405">
        <ele>180</ele>
        <time>2014-04-01T13:21:26Z</time>
      </trkpt>
      <trkpt lat="43.81437" lon="3.74058">
        <ele>178</ele>
        <time>2014-04-01T13:21:36Z</time>
      </trkpt>
      <trkpt lat="43.81439" lon="3.74064">
        <ele>177</ele>
        <time>2014-04-01T13:21:41Z</time>
      </trkpt>
      <trkpt lat="43.81439" lon="3.74067">
        <ele>175</ele>
        <time>2014-04-01T13:21:47Z</time>
      </trkpt>
      <trkpt lat="43.81435" lon="3.74072">
        <ele>175</ele>
        <time>2014-04-01T13:22:00Z</time>
      </trkpt>
      <trkpt lat="43.8143" lon="3.74072">
        <ele>174</ele>
        <time>2014-04-01T13:22:03Z</time>
      </trkpt>
      <trkpt lat="43.81425" lon="3.74073">
        <ele>172</ele>
        <time>2014-04-01T13:22:08Z</time>
      </trkpt>
      <trkpt lat="43.81421" lon="3.74071">
        <ele>173</ele>
        <time>2014-04-01T13:22:13Z</time>
      </trkpt>
      <trkpt lat="43.81417" lon="3.74067">
        <ele>173</ele>
        <time>2014-04-01T13:22:18Z</time>
      </trkpt>
      <trkpt lat="43.81412" lon="3.74069">
        <ele>175</ele>
        <time>2014-04-01T13:22:25Z</time>
      </trkpt>
      <trkpt lat="43.81408" lon="3.74072">
        <ele>176</ele>
        <time>2014-04-01T13:22:30Z</time>
      </trkpt>
      <trkpt lat="43.81407" lon="3.74079">
        <ele>176</ele>
        <time>2014-04-01T13:22:35Z</time>
      </trkpt>
      <trkpt lat="43.81404" lon="3.74084">
        <ele>176</ele>
        <time>2014-04-01T13:22:44Z</time>
      </trkpt>
      <trkpt lat="43.81399" lon="3.74082">
        <ele>176</ele>
        <time>2014-04-01T13:22:47Z</time>
      </trkpt>
      <trkpt lat="43.81397" lon="3.74084">
        <ele>178</ele>
        <time>2014-04-01T13:22:54Z</time>
      </trkpt>
      <trkpt lat="43.81397" lon="3.74091">
        <ele>179</ele>
        <time>2014-04-01T13:22:59Z</time>
      </trkpt>
      <trkpt lat="43.81394" lon="3.74097">
        <ele>183</ele>
        <time>2014-04-01T13:23:05Z</time>
      </trkpt>
      <trkpt lat="43.81389" lon="3.74098">
        <ele>184</ele>
        <time>2014-04-01T13:23:09Z</time>
      </trkpt>
      <trkpt lat="43.81385" lon="3.74101">
        <ele>185</ele>
        <time>2014-04-01T13:23:14Z</time>
      </trkpt>
      <trkpt lat="43.81381" lon="3.74105">
        <ele>186</ele>
        <time>2014-04-01T13:23:20Z</time>
      </trkpt>
      <trkpt lat="43.81378" lon="3.74109">
        <ele>184</ele>
        <time>2014-04-01T13:23:31Z</time>
      </trkpt>
      <trkpt lat="43.81374" lon="3.74107">
        <ele>185</ele>
        <time>2014-04-01T13:23:37Z</time>
      </trkpt>
      <trkpt lat="43.8137" lon="3.74102">
        <ele>186</ele>
        <time>2014-04-01T13:23:42Z</time>
      </trkpt>
      <trkpt lat="43.81366" lon="3.74099">
        <ele>185</ele>
        <time>2014-04-01T13:23:47Z</time>
      </trkpt>
      <trkpt lat="43.81362" lon="3.74105">
        <ele>185</ele>
        <time>2014-04-01T13:23:51Z</time>
      </trkpt>
      <trkpt lat="43.81358" lon="3.74111">
        <ele>185</ele>
        <time>2014-04-01T13:23:55Z</time>
      </trkpt>
      <trkpt lat="43.81353" lon="3.74111">
        <ele>184</ele>
        <time>2014-04-01T13:24:00Z</time>
      </trkpt>
      <trkpt lat="43.81348" lon="3.7411">
        <ele>184</ele>
        <time>2014-04-01T13:24:09Z</time>
      </trkpt>
      <trkpt lat="43.81343" lon="3.74113">
        <ele>187</ele>
        <time>2014-04-01T13:24:14Z</time>
      </trkpt>
      <trkpt lat="43.81339" lon="3.74115">
        <ele>189</ele>
        <time>2014-04-01T13:24:19Z</time>
      </trkpt>
      <trkpt lat="43.81336" lon="3.7412">
        <ele>188</ele>
        <time>2014-04-01T13:24:26Z</time>
      </trkpt>
      <trkpt lat="43.81334" lon="3.74126">
        <ele>188</ele>
        <time>2014-04-01T13:24:31Z</time>
      </trkpt>
      <trkpt lat="43.81331" lon="3.74131">
        <ele>188</ele>
        <time>2014-04-01T13:24:36Z</time>
      </trkpt>
      <trkpt lat="43.81325" lon="3.74134">
        <ele>188</ele>
        <time>2014-04-01T13:24:40Z</time>
      </trkpt>
      <trkpt lat="43.8132" lon="3.74135">
        <ele>188</ele>
        <time>2014-04-01T13:24:44Z</time>
      </trkpt>
      <trkpt lat="43.81316" lon="3.74136">
        <ele>188</ele>
        <time>2014-04-01T13:24:49Z</time>
      </trkpt>
      <trkpt lat="43.81311" lon="3.74138">
        <ele>187</ele>
        <time>2014-04-01T13:24:57Z</time>
      </trkpt>
      <trkpt lat="43.81306" lon="3.74139">
        <ele>186</ele>
        <time>2014-04-01T13:25:02Z</time>
      </trkpt>
      <trkpt lat="43.81301" lon="3.74139">
        <ele>185</ele>
        <time>2014-04-01T13:25:09Z</time>
      </trkpt>
      <trkpt lat="43.81296" lon="3.7414">
        <ele>185</ele>
        <time>2014-04-01T13:25:11Z</time>
      </trkpt>
      <trkpt lat="43.81291" lon="3.74142">
        <ele>185</ele>
        <time>2014-04-01T13:25:14Z</time>
      </trkpt>
      <trkpt lat="43.81291" lon="3.74149">
        <ele>184</ele>
        <time>2014-04-01T13:25:23Z</time>
      </trkpt>
      <trkpt lat="43.8129" lon="3.74156">
        <ele>181</ele>
        <time>2014-04-01T13:25:31Z</time>
      </trkpt>
      <trkpt lat="43.81285" lon="3.74158">
        <ele>178</ele>
        <time>2014-04-01T13:25:36Z</time>
      </trkpt>
      <trkpt lat="43.81278" lon="3.7416">
        <ele>174</ele>
        <time>2014-04-01T13:25:46Z</time>
      </trkpt>
      <trkpt lat="43.81274" lon="3.74165">
        <ele>174</ele>
        <time>2014-04-01T13:25:50Z</time>
      </trkpt>
      <trkpt lat="43.81269" lon="3.74165">
        <ele>173</ele>
        <time>2014-04-01T13:26:00Z</time>
      </trkpt>
      <trkpt lat="43.81265" lon="3.74166">
        <ele>173</ele>
        <time>2014-04-01T13:26:06Z</time>
      </trkpt>
      <trkpt lat="43.81259" lon="3.74166">
        <ele>174</ele>
        <time>2014-04-01T13:26:10Z</time>
      </trkpt>
      <trkpt lat="43.81254" lon="3.74166">
        <ele>174</ele>
        <time>2014-04-01T13:26:13Z</time>
      </trkpt>
      <trkpt lat="43.81251" lon="3.74173">
        <ele>173</ele>
        <time>2014-04-01T13:26:17Z</time>
      </trkpt>
      <trkpt lat="43.81251" lon="3.74179">
        <ele>172</ele>
        <time>2014-04-01T13:26:21Z</time>
      </trkpt>
      <trkpt lat="43.81246" lon="3.74183">
        <ele>170</ele>
        <time>2014-04-01T13:26:28Z</time>
      </trkpt>
      <trkpt lat="43.81242" lon="3.74185">
        <ele>169</ele>
        <time>2014-04-01T13:26:33Z</time>
      </trkpt>
      <trkpt lat="43.81239" lon="3.7418">
        <ele>168</ele>
        <time>2014-04-01T13:26:39Z</time>
      </trkpt>
      <trkpt lat="43.81235" lon="3.7418">
        <ele>168</ele>
        <time>2014-04-01T13:26:47Z</time>
      </trkpt>
      <trkpt lat="43.81231" lon="3.74185">
        <ele>166</ele>
        <time>2014-04-01T13:26:52Z</time>
      </trkpt>
      <trkpt lat="43.81226" lon="3.74186">
        <ele>162</ele>
        <time>2014-04-01T13:27:01Z</time>
      </trkpt>
      <trkpt lat="43.81221" lon="3.74189">
        <ele>161</ele>
        <time>2014-04-01T13:27:07Z</time>
      </trkpt>
      <trkpt lat="43.81216" lon="3.74189">
        <ele>161</ele>
        <time>2014-04-01T13:27:14Z</time>
      </trkpt>
      <trkpt lat="43.81212" lon="3.74185">
        <ele>161</ele>
        <time>2014-04-01T13:27:20Z</time>
      </trkpt>
      <trkpt lat="43.81206" lon="3.74185">
        <ele>163</ele>
        <time>2014-04-01T13:27:24Z</time>
      </trkpt>
      <trkpt lat="43.81201" lon="3.74184">
        <ele>165</ele>
        <time>2014-04-01T13:27:27Z</time>
      </trkpt>
      <trkpt lat="43.81196" lon="3.74183">
        <ele>166</ele>
        <time>2014-04-01T13:27:32Z</time>
      </trkpt>
      <trkpt lat="43.81192" lon="3.74185">
        <ele>166</ele>
        <time>2014-04-01T13:27:41Z</time>
      </trkpt>
      <trkpt lat="43.8119" lon="3.74181">
        <ele>166</ele>
        <time>2014-04-01T13:28:03Z</time>
      </trkpt>
      <trkpt lat="43.81187" lon="3.74185">
        <ele>169</ele>
        <time>2014-04-01T13:28:09Z</time>
      </trkpt>
      <trkpt lat="43.81182" lon="3.74187">
        <ele>169</ele>
        <time>2014-04-01T13:28:14Z</time>
      </trkpt>
      <trkpt lat="43.81182" lon="3.7418">
        <ele>169</ele>
        <time>2014-04-01T13:28:32Z</time>
      </trkpt>
      <trkpt lat="43.8118" lon="3.74173">
        <ele>167</ele>
        <time>2014-04-01T13:28:37Z</time>
      </trkpt>
      <trkpt lat="43.81176" lon="3.74169">
        <ele>167</ele>
        <time>2014-04-01T13:28:44Z</time>
      </trkpt>
      <trkpt lat="43.81174" lon="3.74174">
        <ele>169</ele>
        <time>2014-04-01T13:28:56Z</time>
      </trkpt>
      <trkpt lat="43.8117" lon="3.7418">
        <ele>169</ele>
        <time>2014-04-01T13:29:02Z</time>
      </trkpt>
      <trkpt lat="43.81166" lon="3.74184">
        <ele>169</ele>
        <time>2014-04-01T13:29:05Z</time>
      </trkpt>
      <trkpt lat="43.81167" lon="3.7419">
        <ele>169</ele>
        <time>2014-04-01T13:32:33Z</time>
      </trkpt>
      <trkpt lat="43.81171" lon="3.74193">
        <ele>169</ele>
        <time>2014-04-01T13:32:39Z</time>
      </trkpt>
      <trkpt lat="43.81177" lon="3.74193">
        <ele>168</ele>
        <time>2014-04-01T13:32:42Z</time>
      </trkpt>
      <trkpt lat="43.8118" lon="3.74195">
        <ele>170</ele>
        <time>2014-04-01T13:33:21Z</time>
      </trkpt>
      <trkpt lat="43.81184" lon="3.74199">
        <ele>171</ele>
        <time>2014-04-01T13:33:43Z</time>
      </trkpt>
      <trkpt lat="43.81188" lon="3.74203">
        <ele>171</ele>
        <time>2014-04-01T13:33:46Z</time>
      </trkpt>
      <trkpt lat="43.8119" lon="3.74211">
        <ele>171</ele>
        <time>2014-04-01T13:33:49Z</time>
      </trkpt>
      <trkpt lat="43.81193" lon="3.74218">
        <ele>172</ele>
        <time>2014-04-01T13:33:52Z</time>
      </trkpt>
      <trkpt lat="43.81195" lon="3.74224">
        <ele>173</ele>
        <time>2014-04-01T13:33:55Z</time>
      </trkpt>
      <trkpt lat="43.81198" lon="3.7423">
        <ele>174</ele>
        <time>2014-04-01T13:33:58Z</time>
      </trkpt>
      <trkpt lat="43.812" lon="3.74236">
        <ele>175</ele>
        <time>2014-04-01T13:34:00Z</time>
      </trkpt>
      <trkpt lat="43.81202" lon="3.74244">
        <ele>176</ele>
        <time>2014-04-01T13:34:04Z</time>
      </trkpt>
      <trkpt lat="43.81203" lon="3.74251">
        <ele>177</ele>
        <time>2014-04-01T13:34:08Z</time>
      </trkpt>
      <trkpt lat="43.81205" lon="3.74258">
        <ele>179</ele>
        <time>2014-04-01T13:34:12Z</time>
      </trkpt>
      <trkpt lat="43.81208" lon="3.74264">
        <ele>179</ele>
        <time>2014-04-01T13:34:17Z</time>
      </trkpt>
      <trkpt lat="43.81213" lon="3.74268">
        <ele>178</ele>
        <time>2014-04-01T13:34:21Z</time>
      </trkpt>
      <trkpt lat="43.81217" lon="3.74273">
        <ele>177</ele>
        <time>2014-04-01T13:34:26Z</time>
      </trkpt>
      <trkpt lat="43.81218" lon="3.74281">
        <ele>178</ele>
        <time>2014-04-01T13:34:29Z</time>
      </trkpt>
      <trkpt lat="43.81219" lon="3.74288">
        <ele>179</ele>
        <time>2014-04-01T13:34:32Z</time>
      </trkpt>
      <trkpt lat="43.8122" lon="3.74294">
        <ele>179</ele>
        <time>2014-04-01T13:34:36Z</time>
      </trkpt>
      <trkpt lat="43.81224" lon="3.743">
        <ele>179</ele>
        <time>2014-04-01T13:34:40Z</time>
      </trkpt>
      <trkpt lat="43.81225" lon="3.74307">
        <ele>178</ele>
        <time>2014-04-01T13:34:50Z</time>
      </trkpt>
      <trkpt lat="43.81225" lon="3.74314">
        <ele>177</ele>
        <time>2014-04-01T13:34:56Z</time>
      </trkpt>
      <trkpt lat="43.81228" lon="3.7432">
        <ele>176</ele>
        <time>2014-04-01T13:35:00Z</time>
      </trkpt>
      <trkpt lat="43.8123" lon="3.74326">
        <ele>174</ele>
        <time>2014-04-01T13:35:07Z</time>
      </trkpt>
      <trkpt lat="43.8123" lon="3.74333">
        <ele>173</ele>
        <time>2014-04-01T13:35:12Z</time>
      </trkpt>
      <trkpt lat="43.81228" lon="3.74339">
        <ele>172</ele>
        <time>2014-04-01T13:35:16Z</time>
      </trkpt>
      <trkpt lat="43.81227" lon="3.74346">
        <ele>172</ele>
        <time>2014-04-01T13:35:21Z</time>
      </trkpt>
      <trkpt lat="43.81229" lon="3.74352">
        <ele>171</ele>
        <time>2014-04-01T13:35:26Z</time>
      </trkpt>
      <trkpt lat="43.81231" lon="3.74358">
        <ele>171</ele>
        <time>2014-04-01T13:35:31Z</time>
      </trkpt>
      <trkpt lat="43.8123" lon="3.74365">
        <ele>170</ele>
        <time>2014-04-01T13:35:34Z</time>
      </trkpt>
      <trkpt lat="43.8123" lon="3.74374">
        <ele>172</ele>
        <time>2014-04-01T13:35:39Z</time>
      </trkpt>
      <trkpt lat="43.81231" lon="3.74381">
        <ele>174</ele>
        <time>2014-04-01T13:35:42Z</time>
      </trkpt>
      <trkpt lat="43.81232" lon="3.74388">
        <ele>175</ele>
        <time>2014-04-01T13:35:46Z</time>
      </trkpt>
      <trkpt lat="43.81234" lon="3.74394">
        <ele>176</ele>
        <time>2014-04-01T13:35:51Z</time>
      </trkpt>
      <trkpt lat="43.81236" lon="3.744">
        <ele>176</ele>
        <time>2014-04-01T13:35:54Z</time>
      </trkpt>
      <trkpt lat="43.81238" lon="3.74407">
        <ele>176</ele>
        <time>2014-04-01T13:35:58Z</time>
      </trkpt>
      <trkpt lat="43.81243" lon="3.74404">
        <ele>176</ele>
        <time>2014-04-01T13:36:01Z</time>
      </trkpt>
      <trkpt lat="43.81248" lon="3.74402">
        <ele>176</ele>
        <time>2014-04-01T13:36:07Z</time>
      </trkpt>
      <trkpt lat="43.81253" lon="3.74401">
        <ele>176</ele>
        <time>2014-04-01T13:36:10Z</time>
      </trkpt>
      <trkpt lat="43.81257" lon="3.74401">
        <ele>176</ele>
        <time>2014-04-01T13:36:15Z</time>
      </trkpt>
      <trkpt lat="43.81262" lon="3.744">
        <ele>175</ele>
        <time>2014-04-01T13:36:19Z</time>
      </trkpt>
      <trkpt lat="43.81267" lon="3.74401">
        <ele>174</ele>
        <time>2014-04-01T13:36:25Z</time>
      </trkpt>
      <trkpt lat="43.81272" lon="3.74403">
        <ele>174</ele>
        <time>2014-04-01T13:36:30Z</time>
      </trkpt>
      <trkpt lat="43.81276" lon="3.74406">
        <ele>175</ele>
        <time>2014-04-01T13:36:35Z</time>
      </trkpt>
      <trkpt lat="43.81282" lon="3.74408">
        <ele>174</ele>
        <time>2014-04-01T13:36:39Z</time>
      </trkpt>
      <trkpt lat="43.81285" lon="3.74413">
        <ele>176</ele>
        <time>2014-04-01T13:36:43Z</time>
      </trkpt>
      <trkpt lat="43.81289" lon="3.74416">
        <ele>176</ele>
        <time>2014-04-01T13:36:47Z</time>
      </trkpt>
      <trkpt lat="43.81294" lon="3.74418">
        <ele>178</ele>
        <time>2014-04-01T13:36:51Z</time>
      </trkpt>
      <trkpt lat="43.81299" lon="3.74417">
        <ele>178</ele>
        <time>2014-04-01T13:36:55Z</time>
      </trkpt>
      <trkpt lat="43.81304" lon="3.74419">
        <ele>178</ele>
        <time>2014-04-01T13:37:00Z</time>
      </trkpt>
      <trkpt lat="43.81309" lon="3.74421">
        <ele>178</ele>
        <time>2014-04-01T13:37:04Z</time>
      </trkpt>
      <trkpt lat="43.81313" lon="3.74423">
        <ele>179</ele>
        <time>2014-04-01T13:37:08Z</time>
      </trkpt>
      <trkpt lat="43.81318" lon="3.74422">
        <ele>179</ele>
        <time>2014-04-01T13:37:14Z</time>
      </trkpt>
      <trkpt lat="43.81323" lon="3.74423">
        <ele>179</ele>
        <time>2014-04-01T13:37:20Z</time>
      </trkpt>
      <trkpt lat="43.81328" lon="3.74422">
        <ele>178</ele>
        <time>2014-04-01T13:37:24Z</time>
      </trkpt>
      <trkpt lat="43.81333" lon="3.74423">
        <ele>177</ele>
        <time>2014-04-01T13:37:29Z</time>
      </trkpt>
      <trkpt lat="43.81338" lon="3.74425">
        <ele>177</ele>
        <time>2014-04-01T13:37:32Z</time>
      </trkpt>
      <trkpt lat="43.81344" lon="3.74425">
        <ele>176</ele>
        <time>2014-04-01T13:37:37Z</time>
      </trkpt>
      <trkpt lat="43.81349" lon="3.74424">
        <ele>176</ele>
        <time>2014-04-01T13:37:41Z</time>
      </trkpt>
      <trkpt lat="43.81354" lon="3.74423">
        <ele>175</ele>
        <time>2014-04-01T13:37:44Z</time>
      </trkpt>
      <trkpt lat="43.81358" lon="3.74421">
        <ele>176</ele>
        <time>2014-04-01T13:37:49Z</time>
      </trkpt>
      <trkpt lat="43.81364" lon="3.74421">
        <ele>176</ele>
        <time>2014-04-01T13:37:55Z</time>
      </trkpt>
      <trkpt lat="43.81368" lon="3.74419">
        <ele>176</ele>
        <time>2014-04-01T13:37:59Z</time>
      </trkpt>
      <trkpt lat="43.81373" lon="3.74417">
        <ele>176</ele>
        <time>2014-04-01T13:38:06Z</time>
      </trkpt>
      <trkpt lat="43.81378" lon="3.7442">
        <ele>176</ele>
        <time>2014-04-01T13:38:12Z</time>
      </trkpt>
      <trkpt lat="43.81382" lon="3.74424">
        <ele>176</ele>
        <time>2014-04-01T13:38:17Z</time>
      </trkpt>
      <trkpt lat="43.81386" lon="3.74428">
        <ele>177</ele>
        <time>2014-04-01T13:38:21Z</time>
      </trkpt>
      <trkpt lat="43.8139" lon="3.74431">
        <ele>178</ele>
        <time>2014-04-01T13:38:26Z</time>
      </trkpt>
      <trkpt lat="43.81394" lon="3.74434">
        <ele>180</ele>
        <time>2014-04-01T13:38:29Z</time>
      </trkpt>
      <trkpt lat="43.81399" lon="3.74437">
        <ele>180</ele>
        <time>2014-04-01T13:38:33Z</time>
      </trkpt>
      <trkpt lat="43.81404" lon="3.74437">
        <ele>179</ele>
        <time>2014-04-01T13:38:36Z</time>
      </trkpt>
      <trkpt lat="43.81408" lon="3.74441">
        <ele>179</ele>
        <time>2014-04-01T13:38:41Z</time>
      </trkpt>
      <trkpt lat="43.81412" lon="3.74447">
        <ele>179</ele>
        <time>2014-04-01T13:38:46Z</time>
      </trkpt>
      <trkpt lat="43.81417" lon="3.74451">
        <ele>180</ele>
        <time>2014-04-01T13:38:52Z</time>
      </trkpt>
      <trkpt lat="43.81422" lon="3.74454">
        <ele>180</ele>
        <time>2014-04-01T13:38:57Z</time>
      </trkpt>
      <trkpt lat="43.81426" lon="3.74455">
        <ele>180</ele>
        <time>2014-04-01T13:39:01Z</time>
      </trkpt>
      <trkpt lat="43.81431" lon="3.74466">
        <ele>180</ele>
        <time>2014-04-01T13:39:14Z</time>
      </trkpt>
      <trkpt lat="43.81431" lon="3.74472">
        <ele>180</ele>
        <time>2014-04-01T13:39:19Z</time>
      </trkpt>
      <trkpt lat="43.81432" lon="3.7448">
        <ele>181</ele>
        <time>2014-04-01T13:39:23Z</time>
      </trkpt>
      <trkpt lat="43.81433" lon="3.74488">
        <ele>182</ele>
        <time>2014-04-01T13:39:27Z</time>
      </trkpt>
      <trkpt lat="43.81432" lon="3.74495">
        <ele>184</ele>
        <time>2014-04-01T13:39:30Z</time>
      </trkpt>
      <trkpt lat="43.81429" lon="3.74501">
        <ele>186</ele>
        <time>2014-04-01T13:39:41Z</time>
      </trkpt>
      <trkpt lat="43.81429" lon="3.74509">
        <ele>187</ele>
        <time>2014-04-01T13:39:44Z</time>
      </trkpt>
      <trkpt lat="43.81428" lon="3.74516">
        <ele>187</ele>
        <time>2014-04-01T13:39:48Z</time>
      </trkpt>
      <trkpt lat="43.81427" lon="3.74524">
        <ele>187</ele>
        <time>2014-04-01T13:39:51Z</time>
      </trkpt>
      <trkpt lat="43.81428" lon="3.74531">
        <ele>188</ele>
        <time>2014-04-01T13:39:55Z</time>
      </trkpt>
      <trkpt lat="43.81427" lon="3.74539">
        <ele>189</ele>
        <time>2014-04-01T13:39:58Z</time>
      </trkpt>
      <trkpt lat="43.81424" lon="3.74545">
        <ele>191</ele>
        <time>2014-04-01T13:40:02Z</time>
      </trkpt>
      <trkpt lat="43.81426" lon="3.74552">
        <ele>191</ele>
        <time>2014-04-01T13:40:07Z</time>
      </trkpt>
      <trkpt lat="43.81429" lon="3.74558">
        <ele>190</ele>
        <time>2014-04-01T13:40:13Z</time>
      </trkpt>
      <trkpt lat="43.8143" lon="3.74565">
        <ele>189</ele>
        <time>2014-04-01T13:40:17Z</time>
      </trkpt>
      <trkpt lat="43.8143" lon="3.74571">
        <ele>189</ele>
        <time>2014-04-01T13:40:20Z</time>
      </trkpt>
      <trkpt lat="43.81431" lon="3.74578">
        <ele>189</ele>
        <time>2014-04-01T13:40:23Z</time>
      </trkpt>
      <trkpt lat="43.81434" lon="3.74583">
        <ele>190</ele>
        <time>2014-04-01T13:40:28Z</time>
      </trkpt>
      <trkpt lat="43.81437" lon="3.74589">
        <ele>190</ele>
        <time>2014-04-01T13:40:33Z</time>
      </trkpt>
      <trkpt lat="43.8144" lon="3.74596">
        <ele>191</ele>
        <time>2014-04-01T13:40:36Z</time>
      </trkpt>
      <trkpt lat="43.81443" lon="3.74603">
        <ele>193</ele>
        <time>2014-04-01T13:40:42Z</time>
      </trkpt>
      <trkpt lat="43.81447" lon="3.74607">
        <ele>193</ele>
        <time>2014-04-01T13:40:48Z</time>
      </trkpt>
      <trkpt lat="43.81447" lon="3.74616">
        <ele>194</ele>
        <time>2014-04-01T13:40:50Z</time>
      </trkpt>
      <trkpt lat="43.81447" lon="3.74622">
        <ele>195</ele>
        <time>2014-04-01T13:40:54Z</time>
      </trkpt>
      <trkpt lat="43.8145" lon="3.74627">
        <ele>195</ele>
        <time>2014-04-01T13:40:59Z</time>
      </trkpt>
      <trkpt lat="43.81452" lon="3.74633">
        <ele>196</ele>
        <time>2014-04-01T13:41:03Z</time>
      </trkpt>
      <trkpt lat="43.81455" lon="3.74639">
        <ele>196</ele>
        <time>2014-04-01T13:41:09Z</time>
      </trkpt>
      <trkpt lat="43.81456" lon="3.74646">
        <ele>197</ele>
        <time>2014-04-01T13:41:12Z</time>
      </trkpt>
      <trkpt lat="43.81457" lon="3.74652">
        <ele>198</ele>
        <time>2014-04-01T13:41:18Z</time>
      </trkpt>
      <trkpt lat="43.81462" lon="3.74647">
        <ele>197</ele>
        <time>2014-04-01T13:41:23Z</time>
      </trkpt>
      <trkpt lat="43.81465" lon="3.74647">
        <ele>194</ele>
        <time>2014-04-01T13:41:30Z</time>
      </trkpt>
      <trkpt lat="43.81467" lon="3.74652">
        <ele>194</ele>
        <time>2014-04-01T13:41:33Z</time>
      </trkpt>
      <trkpt lat="43.81469" lon="3.7466">
        <ele>193</ele>
        <time>2014-04-01T13:41:38Z</time>
      </trkpt>
      <trkpt lat="43.81468" lon="3.74669">
        <ele>194</ele>
        <time>2014-04-01T13:41:41Z</time>
      </trkpt>
      <trkpt lat="43.81472" lon="3.74673">
        <ele>194</ele>
        <time>2014-04-01T13:41:44Z</time>
      </trkpt>
      <trkpt lat="43.81476" lon="3.74678">
        <ele>194</ele>
        <time>2014-04-01T13:41:49Z</time>
      </trkpt>
      <trkpt lat="43.81481" lon="3.7468">
        <ele>194</ele>
        <time>2014-04-01T13:41:54Z</time>
      </trkpt>
      <trkpt lat="43.81484" lon="3.74685">
        <ele>194</ele>
        <time>2014-04-01T13:41:57Z</time>
      </trkpt>
      <trkpt lat="43.81488" lon="3.74689">
        <ele>195</ele>
        <time>2014-04-01T13:42:01Z</time>
      </trkpt>
      <trkpt lat="43.81492" lon="3.74693">
        <ele>196</ele>
        <time>2014-04-01T13:42:06Z</time>
      </trkpt>
      <trkpt lat="43.81496" lon="3.74697">
        <ele>196</ele>
        <time>2014-04-01T13:42:10Z</time>
      </trkpt>
      <trkpt lat="43.815" lon="3.74702">
        <ele>196</ele>
        <time>2014-04-01T13:42:14Z</time>
      </trkpt>
      <trkpt lat="43.81502" lon="3.74708">
        <ele>197</ele>
        <time>2014-04-01T13:42:17Z</time>
      </trkpt>
      <trkpt lat="43.81503" lon="3.74717">
        <ele>199</ele>
        <time>2014-04-01T13:42:21Z</time>
      </trkpt>
      <trkpt lat="43.81507" lon="3.7472">
        <ele>200</ele>
        <time>2014-04-01T13:42:25Z</time>
      </trkpt>
      <trkpt lat="43.81511" lon="3.74723">
        <ele>202</ele>
        <time>2014-04-01T13:42:30Z</time>
      </trkpt>
      <trkpt lat="43.81516" lon="3.74726">
        <ele>203</ele>
        <time>2014-04-01T13:42:34Z</time>
      </trkpt>
      <trkpt lat="43.8152" lon="3.74731">
        <ele>204</ele>
        <time>2014-04-01T13:42:38Z</time>
      </trkpt>
      <trkpt lat="43.81523" lon="3.74736">
        <ele>205</ele>
        <time>2014-04-01T13:42:41Z</time>
      </trkpt>
      <trkpt lat="43.81529" lon="3.74741">
        <ele>204</ele>
        <time>2014-04-01T13:42:47Z</time>
      </trkpt>
      <trkpt lat="43.81533" lon="3.74744">
        <ele>203</ele>
        <time>2014-04-01T13:42:53Z</time>
      </trkpt>
      <trkpt lat="43.81535" lon="3.7475">
        <ele>203</ele>
        <time>2014-04-01T13:42:57Z</time>
      </trkpt>
      <trkpt lat="43.81542" lon="3.7476">
        <ele>203</ele>
        <time>2014-04-01T13:43:04Z</time>
      </trkpt>
      <trkpt lat="43.81547" lon="3.74767">
        <ele>203</ele>
        <time>2014-04-01T13:43:07Z</time>
      </trkpt>
      <trkpt lat="43.8155" lon="3.74773">
        <ele>202</ele>
        <time>2014-04-01T13:43:11Z</time>
      </trkpt>
      <trkpt lat="43.81556" lon="3.74772">
        <ele>200</ele>
        <time>2014-04-01T13:43:15Z</time>
      </trkpt>
      <trkpt lat="43.81564" lon="3.74767">
        <ele>198</ele>
        <time>2014-04-01T13:43:22Z</time>
      </trkpt>
      <trkpt lat="43.81574" lon="3.7476">
        <ele>198</ele>
        <time>2014-04-01T13:43:28Z</time>
      </trkpt>
      <trkpt lat="43.8158" lon="3.74761">
        <ele>199</ele>
        <time>2014-04-01T13:43:31Z</time>
      </trkpt>
      <trkpt lat="43.8159" lon="3.74762">
        <ele>199</ele>
        <time>2014-04-01T13:43:37Z</time>
      </trkpt>
      <trkpt lat="43.81598" lon="3.74761">
        <ele>199</ele>
        <time>2014-04-01T13:43:42Z</time>
      </trkpt>
      <trkpt lat="43.81598" lon="3.74768">
        <ele>197</ele>
        <time>2014-04-01T13:43:49Z</time>
      </trkpt>
      <trkpt lat="43.81603" lon="3.74774">
        <ele>195</ele>
        <time>2014-04-01T13:43:54Z</time>
      </trkpt>
      <trkpt lat="43.81606" lon="3.74784">
        <ele>195</ele>
        <time>2014-04-01T13:44:01Z</time>
      </trkpt>
      <trkpt lat="43.8161" lon="3.74789">
        <ele>196</ele>
        <time>2014-04-01T13:44:03Z</time>
      </trkpt>
      <trkpt lat="43.81615" lon="3.74791">
        <ele>195</ele>
        <time>2014-04-01T13:44:08Z</time>
      </trkpt>
      <trkpt lat="43.81619" lon="3.74787">
        <ele>193</ele>
        <time>2014-04-01T13:44:12Z</time>
      </trkpt>
      <trkpt lat="43.81624" lon="3.74785">
        <ele>193</ele>
        <time>2014-04-01T13:44:17Z</time>
      </trkpt>
      <trkpt lat="43.81629" lon="3.74782">
        <ele>192</ele>
        <time>2014-04-01T13:44:20Z</time>
      </trkpt>
      <trkpt lat="43.81638" lon="3.74778">
        <ele>191</ele>
        <time>2014-04-01T13:44:25Z</time>
      </trkpt>
      <trkpt lat="43.81642" lon="3.7479">
        <ele>192</ele>
        <time>2014-04-01T13:44:29Z</time>
      </trkpt>
      <trkpt lat="43.81648" lon="3.748">
        <ele>193</ele>
        <time>2014-04-01T13:44:36Z</time>
      </trkpt>
      <trkpt lat="43.81653" lon="3.74805">
        <ele>194</ele>
        <time>2014-04-01T13:44:40Z</time>
      </trkpt>
      <trkpt lat="43.81658" lon="3.74807">
        <ele>194</ele>
        <time>2014-04-01T13:44:44Z</time>
      </trkpt>
      <trkpt lat="43.81664" lon="3.74805">
        <ele>193</ele>
        <time>2014-04-01T13:44:47Z</time>
      </trkpt>
      <trkpt lat="43.81667" lon="3.7481">
        <ele>192</ele>
        <time>2014-04-01T13:44:52Z</time>
      </trkpt>
      <trkpt lat="43.8167" lon="3.74815">
        <ele>193</ele>
        <time>2014-04-01T13:44:56Z</time>
      </trkpt>
      <trkpt lat="43.81676" lon="3.74824">
        <ele>193</ele>
        <time>2014-04-01T13:45:04Z</time>
      </trkpt>
      <trkpt lat="43.8168" lon="3.74827">
        <ele>192</ele>
        <time>2014-04-01T13:45:08Z</time>
      </trkpt>
      <trkpt lat="43.81687" lon="3.74825">
        <ele>190</ele>
        <time>2014-04-01T13:45:13Z</time>
      </trkpt>
      <trkpt lat="43.81693" lon="3.74826">
        <ele>190</ele>
        <time>2014-04-01T13:45:17Z</time>
      </trkpt>
      <trkpt lat="43.81699" lon="3.74829">
        <ele>190</ele>
        <time>2014-04-01T13:45:22Z</time>
      </trkpt>
      <trkpt lat="43.81705" lon="3.74833">
        <ele>191</ele>
        <time>2014-04-01T13:45:25Z</time>
      </trkpt>
      <trkpt lat="43.81709" lon="3.74837">
        <ele>192</ele>
        <time>2014-04-01T13:45:29Z</time>
      </trkpt>
      <trkpt lat="43.81712" lon="3.74843">
        <ele>193</ele>
        <time>2014-04-01T13:45:34Z</time>
      </trkpt>
      <trkpt lat="43.81716" lon="3.74847">
        <ele>194</ele>
        <time>2014-04-01T13:45:37Z</time>
      </trkpt>
      <trkpt lat="43.81718" lon="3.74852">
        <ele>194</ele>
        <time>2014-04-01T13:45:43Z</time>
      </trkpt>
      <trkpt lat="43.81723" lon="3.74857">
        <ele>195</ele>
        <time>2014-04-01T13:45:47Z</time>
      </trkpt>
      <trkpt lat="43.81729" lon="3.74859">
        <ele>196</ele>
        <time>2014-04-01T13:45:51Z</time>
      </trkpt>
      <trkpt lat="43.81732" lon="3.74864">
        <ele>197</ele>
        <time>2014-04-01T13:45:57Z</time>
      </trkpt>
      <trkpt lat="43.81736" lon="3.74868">
        <ele>197</ele>
        <time>2014-04-01T13:46:01Z</time>
      </trkpt>
      <trkpt lat="43.8174" lon="3.74872">
        <ele>197</ele>
        <time>2014-04-01T13:46:05Z</time>
      </trkpt>
      <trkpt lat="43.81745" lon="3.74874">
        <ele>198</ele>
        <time>2014-04-01T13:46:11Z</time>
      </trkpt>
      <trkpt lat="43.8175" lon="3.74878">
        <ele>198</ele>
        <time>2014-04-01T13:46:15Z</time>
      </trkpt>
      <trkpt lat="43.81755" lon="3.74882">
        <ele>198</ele>
        <time>2014-04-01T13:46:19Z</time>
      </trkpt>
      <trkpt lat="43.81758" lon="3.74886">
        <ele>198</ele>
        <time>2014-04-01T13:46:23Z</time>
      </trkpt>
      <trkpt lat="43.81761" lon="3.74892">
        <ele>200</ele>
        <time>2014-04-01T13:46:26Z</time>
      </trkpt>
      <trkpt lat="43.81762" lon="3.74898">
        <ele>201</ele>
        <time>2014-04-01T13:46:28Z</time>
      </trkpt>
      <trkpt lat="43.81765" lon="3.74904">
        <ele>202</ele>
        <time>2014-04-01T13:46:31Z</time>
      </trkpt>
      <trkpt lat="43.8177" lon="3.74906">
        <ele>203</ele>
        <time>2014-04-01T13:46:36Z</time>
      </trkpt>
      <trkpt lat="43.81775" lon="3.74906">
        <ele>202</ele>
        <time>2014-04-01T13:46:41Z</time>
      </trkpt>
      <trkpt lat="43.81778" lon="3.74911">
        <ele>202</ele>
        <time>2014-04-01T13:46:46Z</time>
      </trkpt>
      <trkpt lat="43.81779" lon="3.74919">
        <ele>203</ele>
        <time>2014-04-01T13:46:48Z</time>
      </trkpt>
      <trkpt lat="43.8178" lon="3.74925">
        <ele>203</ele>
        <time>2014-04-01T13:46:51Z</time>
      </trkpt>
      <trkpt lat="43.81785" lon="3.74921">
        <ele>202</ele>
        <time>2014-04-01T13:46:57Z</time>
      </trkpt>
      <trkpt lat="43.81789" lon="3.74919">
        <ele>200</ele>
        <time>2014-04-01T13:47:01Z</time>
      </trkpt>
      <trkpt lat="43.81794" lon="3.74921">
        <ele>200</ele>
        <time>2014-04-01T13:47:04Z</time>
      </trkpt>
      <trkpt lat="43.81799" lon="3.74922">
        <ele>199</ele>
        <time>2014-04-01T13:47:08Z</time>
      </trkpt>
      <trkpt lat="43.81804" lon="3.74922">
        <ele>199</ele>
        <time>2014-04-01T13:47:14Z</time>
      </trkpt>
      <trkpt lat="43.81809" lon="3.74922">
        <ele>199</ele>
        <time>2014-04-01T13:47:19Z</time>
      </trkpt>
      <trkpt lat="43.81814" lon="3.74924">
        <ele>199</ele>
        <time>2014-04-01T13:47:22Z</time>
      </trkpt>
      <trkpt lat="43.81819" lon="3.74925">
        <ele>198</ele>
        <time>2014-04-01T13:47:26Z</time>
      </trkpt>
      <trkpt lat="43.81823" lon="3.74922">
        <ele>198</ele>
        <time>2014-04-01T13:47:29Z</time>
      </trkpt>
      <trkpt lat="43.81829" lon="3.74926">
        <ele>196</ele>
        <time>2014-04-01T13:47:34Z</time>
      </trkpt>
      <trkpt lat="43.81834" lon="3.7493">
        <ele>194</ele>
        <time>2014-04-01T13:47:39Z</time>
      </trkpt>
      <trkpt lat="43.81836" lon="3.74936">
        <ele>193</ele>
        <time>2014-04-01T13:47:42Z</time>
      </trkpt>
      <trkpt lat="43.81838" lon="3.74944">
        <ele>193</ele>
        <time>2014-04-01T13:47:45Z</time>
      </trkpt>
      <trkpt lat="43.8184" lon="3.74953">
        <ele>194</ele>
        <time>2014-04-01T13:47:47Z</time>
      </trkpt>
      <trkpt lat="43.81842" lon="3.7496">
        <ele>194</ele>
        <time>2014-04-01T13:47:49Z</time>
      </trkpt>
      <trkpt lat="43.81845" lon="3.74967">
        <ele>195</ele>
        <time>2014-04-01T13:47:52Z</time>
      </trkpt>
      <trkpt lat="43.81852" lon="3.7497">
        <ele>198</ele>
        <time>2014-04-01T13:48:02Z</time>
      </trkpt>
      <trkpt lat="43.81856" lon="3.74974">
        <ele>199</ele>
        <time>2014-04-01T13:48:06Z</time>
      </trkpt>
      <trkpt lat="43.81861" lon="3.74969">
        <ele>197</ele>
        <time>2014-04-01T13:48:10Z</time>
      </trkpt>
      <trkpt lat="43.81865" lon="3.74965">
        <ele>195</ele>
        <time>2014-04-01T13:48:13Z</time>
      </trkpt>
      <trkpt lat="43.81869" lon="3.74963">
        <ele>193</ele>
        <time>2014-04-01T13:48:17Z</time>
      </trkpt>
      <trkpt lat="43.81874" lon="3.74964">
        <ele>192</ele>
        <time>2014-04-01T13:48:21Z</time>
      </trkpt>
      <trkpt lat="43.81879" lon="3.74966">
        <ele>191</ele>
        <time>2014-04-01T13:48:24Z</time>
      </trkpt>
      <trkpt lat="43.81882" lon="3.74971">
        <ele>192</ele>
        <time>2014-04-01T13:48:29Z</time>
      </trkpt>
      <trkpt lat="43.81887" lon="3.74973">
        <ele>193</ele>
        <time>2014-04-01T13:48:35Z</time>
      </trkpt>
      <trkpt lat="43.81893" lon="3.74974">
        <ele>193</ele>
        <time>2014-04-01T13:48:39Z</time>
      </trkpt>
      <trkpt lat="43.81898" lon="3.74976">
        <ele>193</ele>
        <time>2014-04-01T13:48:42Z</time>
      </trkpt>
      <trkpt lat="43.81902" lon="3.7498">
        <ele>195</ele>
        <time>2014-04-01T13:48:47Z</time>
      </trkpt>
      <trkpt lat="43.81907" lon="3.7498">
        <ele>197</ele>
        <time>2014-04-01T13:48:55Z</time>
      </trkpt>
      <trkpt lat="43.81912" lon="3.74985">
        <ele>199</ele>
        <time>2014-04-01T13:48:59Z</time>
      </trkpt>
      <trkpt lat="43.81913" lon="3.74993">
        <ele>201</ele>
        <time>2014-04-01T13:49:01Z</time>
      </trkpt>
      <trkpt lat="43.81914" lon="3.74999">
        <ele>202</ele>
        <time>2014-04-01T13:49:03Z</time>
      </trkpt>
      <trkpt lat="43.81915" lon="3.75004">
        <ele>203</ele>
        <time>2014-04-01T13:49:05Z</time>
      </trkpt>
      <trkpt lat="43.81919" lon="3.7501">
        <ele>205</ele>
        <time>2014-04-01T13:49:10Z</time>
      </trkpt>
      <trkpt lat="43.81921" lon="3.75018">
        <ele>207</ele>
        <time>2014-04-01T13:49:13Z</time>
      </trkpt>
      <trkpt lat="43.81926" lon="3.75018">
        <ele>207</ele>
        <time>2014-04-01T13:49:18Z</time>
      </trkpt>
      <trkpt lat="43.81931" lon="3.75014">
        <ele>205</ele>
        <time>2014-04-01T13:49:21Z</time>
      </trkpt>
      <trkpt lat="43.81935" lon="3.75016">
        <ele>203</ele>
        <time>2014-04-01T13:49:24Z</time>
      </trkpt>
      <trkpt lat="43.8194" lon="3.75018">
        <ele>202</ele>
        <time>2014-04-01T13:49:30Z</time>
      </trkpt>
      <trkpt lat="43.81944" lon="3.75021">
        <ele>202</ele>
        <time>2014-04-01T13:49:35Z</time>
      </trkpt>
      <trkpt lat="43.81954" lon="3.75021">
        <ele>202</ele>
        <time>2014-04-01T13:49:46Z</time>
      </trkpt>
      <trkpt lat="43.81958" lon="3.75025">
        <ele>203</ele>
        <time>2014-04-01T13:49:48Z</time>
      </trkpt>
      <trkpt lat="43.81963" lon="3.75029">
        <ele>204</ele>
        <time>2014-04-01T13:49:53Z</time>
      </trkpt>
      <trkpt lat="43.81969" lon="3.75029">
        <ele>204</ele>
        <time>2014-04-01T13:49:56Z</time>
      </trkpt>
      <trkpt lat="43.81974" lon="3.7503">
        <ele>204</ele>
        <time>2014-04-01T13:49:58Z</time>
      </trkpt>
      <trkpt lat="43.81978" lon="3.75028">
        <ele>204</ele>
        <time>2014-04-01T13:50:01Z</time>
      </trkpt>
      <trkpt lat="43.81982" lon="3.75025">
        <ele>202</ele>
        <time>2014-04-01T13:50:09Z</time>
      </trkpt>
      <trkpt lat="43.81988" lon="3.75027">
        <ele>200</ele>
        <time>2014-04-01T13:50:14Z</time>
      </trkpt>
      <trkpt lat="43.81992" lon="3.75032">
        <ele>199</ele>
        <time>2014-04-01T13:50:18Z</time>
      </trkpt>
      <trkpt lat="43.81996" lon="3.75035">
        <ele>198</ele>
        <time>2014-04-01T13:50:22Z</time>
      </trkpt>
      <trkpt lat="43.82004" lon="3.75042">
        <ele>198</ele>
        <time>2014-04-01T13:50:30Z</time>
      </trkpt>
      <trkpt lat="43.82011" lon="3.75043">
        <ele>198</ele>
        <time>2014-04-01T13:50:35Z</time>
      </trkpt>
      <trkpt lat="43.82016" lon="3.75043">
        <ele>197</ele>
        <time>2014-04-01T13:50:39Z</time>
      </trkpt>
      <trkpt lat="43.82021" lon="3.75046">
        <ele>197</ele>
        <time>2014-04-01T13:50:42Z</time>
      </trkpt>
      <trkpt lat="43.82029" lon="3.75051">
        <ele>199</ele>
        <time>2014-04-01T13:50:49Z</time>
      </trkpt>
      <trkpt lat="43.82033" lon="3.75056">
        <ele>201</ele>
        <time>2014-04-01T13:50:53Z</time>
      </trkpt>
      <trkpt lat="43.82036" lon="3.7506">
        <ele>202</ele>
        <time>2014-04-01T13:50:56Z</time>
      </trkpt>
      <trkpt lat="43.8204" lon="3.75064">
        <ele>203</ele>
        <time>2014-04-01T13:50:59Z</time>
      </trkpt>
      <trkpt lat="43.82044" lon="3.75069">
        <ele>203</ele>
        <time>2014-04-01T13:51:04Z</time>
      </trkpt>
      <trkpt lat="43.82047" lon="3.75074">
        <ele>202</ele>
        <time>2014-04-01T13:51:08Z</time>
      </trkpt>
      <trkpt lat="43.82051" lon="3.75078">
        <ele>201</ele>
        <time>2014-04-01T13:51:13Z</time>
      </trkpt>
      <trkpt lat="43.82055" lon="3.75083">
        <ele>200</ele>
        <time>2014-04-01T13:51:18Z</time>
      </trkpt>
      <trkpt lat="43.82059" lon="3.75089">
        <ele>199</ele>
        <time>2014-04-01T13:51:23Z</time>
      </trkpt>
      <trkpt lat="43.82062" lon="3.75095">
        <ele>199</ele>
        <time>2014-04-01T13:51:27Z</time>
      </trkpt>
      <trkpt lat="43.82065" lon="3.751">
        <ele>199</ele>
        <time>2014-04-01T13:51:32Z</time>
      </trkpt>
      <trkpt lat="43.82068" lon="3.75106">
        <ele>200</ele>
        <time>2014-04-01T13:51:36Z</time>
      </trkpt>
      <trkpt lat="43.82071" lon="3.75112">
        <ele>200</ele>
        <time>2014-04-01T13:51:40Z</time>
      </trkpt>
      <trkpt lat="43.82077" lon="3.75122">
        <ele>200</ele>
        <time>2014-04-01T13:51:48Z</time>
      </trkpt>
      <trkpt lat="43.8208" lon="3.75127">
        <ele>200</ele>
        <time>2014-04-01T13:51:52Z</time>
      </trkpt>
      <trkpt lat="43.82086" lon="3.75128">
        <ele>202</ele>
        <time>2014-04-01T13:51:56Z</time>
      </trkpt>
      <trkpt lat="43.8209" lon="3.75131">
        <ele>204</ele>
        <time>2014-04-01T13:52:03Z</time>
      </trkpt>
      <trkpt lat="43.82095" lon="3.75133">
        <ele>204</ele>
        <time>2014-04-01T13:52:08Z</time>
      </trkpt>
      <trkpt lat="43.82104" lon="3.75139">
        <ele>204</ele>
        <time>2014-04-01T13:52:16Z</time>
      </trkpt>
      <trkpt lat="43.82109" lon="3.75145">
        <ele>203</ele>
        <time>2014-04-01T13:52:22Z</time>
      </trkpt>
      <trkpt lat="43.82113" lon="3.75151">
        <ele>203</ele>
        <time>2014-04-01T13:52:26Z</time>
      </trkpt>
      <trkpt lat="43.82116" lon="3.75157">
        <ele>202</ele>
        <time>2014-04-01T13:52:30Z</time>
      </trkpt>
      <trkpt lat="43.8212" lon="3.75162">
        <ele>202</ele>
        <time>2014-04-01T13:52:35Z</time>
      </trkpt>
      <trkpt lat="43.82124" lon="3.75167">
        <ele>202</ele>
        <time>2014-04-01T13:52:39Z</time>
      </trkpt>
      <trkpt lat="43.82128" lon="3.7517">
        <ele>200</ele>
        <time>2014-04-01T13:52:46Z</time>
      </trkpt>
      <trkpt lat="43.82131" lon="3.75176">
        <ele>200</ele>
        <time>2014-04-01T13:52:49Z</time>
      </trkpt>
      <trkpt lat="43.82134" lon="3.75182">
        <ele>200</ele>
        <time>2014-04-01T13:52:52Z</time>
      </trkpt>
      <trkpt lat="43.8214" lon="3.75185">
        <ele>200</ele>
        <time>2014-04-01T13:52:56Z</time>
      </trkpt>
      <trkpt lat="43.82145" lon="3.75184">
        <ele>199</ele>
        <time>2014-04-01T13:52:58Z</time>
      </trkpt>
      <trkpt lat="43.82149" lon="3.75183">
        <ele>198</ele>
        <time>2014-04-01T13:53:01Z</time>
      </trkpt>
      <trkpt lat="43.82154" lon="3.75183">
        <ele>198</ele>
        <time>2014-04-01T13:53:05Z</time>
      </trkpt>
      <trkpt lat="43.8216" lon="3.75184">
        <ele>197</ele>
        <time>2014-04-01T13:53:10Z</time>
      </trkpt>
      <trkpt lat="43.82168" lon="3.75186">
        <ele>198</ele>
        <time>2014-04-01T13:53:14Z</time>
      </trkpt>
      <trkpt lat="43.82173" lon="3.75187">
        <ele>199</ele>
        <time>2014-04-01T13:53:16Z</time>
      </trkpt>
      <trkpt lat="43.82178" lon="3.75188">
        <ele>201</ele>
        <time>2014-04-01T13:53:19Z</time>
      </trkpt>
      <trkpt lat="43.82182" lon="3.75188">
        <ele>203</ele>
        <time>2014-04-01T13:53:24Z</time>
      </trkpt>
      <trkpt lat="43.82187" lon="3.7519">
        <ele>203</ele>
        <time>2014-04-01T13:53:28Z</time>
      </trkpt>
      <trkpt lat="43.82194" lon="3.75192">
        <ele>203</ele>
        <time>2014-04-01T13:53:36Z</time>
      </trkpt>
      <trkpt lat="43.82201" lon="3.75193">
        <ele>203</ele>
        <time>2014-04-01T13:53:40Z</time>
      </trkpt>
      <trkpt lat="43.82205" lon="3.75196">
        <ele>201</ele>
        <time>2014-04-01T13:53:44Z</time>
      </trkpt>
      <trkpt lat="43.82207" lon="3.75197">
        <ele>199</ele>
        <time>2014-04-01T13:53:50Z</time>
      </trkpt>
      <trkpt lat="43.82212" lon="3.75197">
        <ele>199</ele>
        <time>2014-04-01T13:53:58Z</time>
      </trkpt>
      <trkpt lat="43.82217" lon="3.75195">
        <ele>200</ele>
        <time>2014-04-01T13:54:02Z</time>
      </trkpt>
      <trkpt lat="43.82222" lon="3.75192">
        <ele>200</ele>
        <time>2014-04-01T13:54:06Z</time>
      </trkpt>
      <trkpt lat="43.82227" lon="3.75191">
        <ele>201</ele>
        <time>2014-04-01T13:54:10Z</time>
      </trkpt>
      <trkpt lat="43.82232" lon="3.7519">
        <ele>201</ele>
        <time>2014-04-01T13:54:14Z</time>
      </trkpt>
      <trkpt lat="43.82236" lon="3.75187">
        <ele>200</ele>
        <time>2014-04-01T13:54:18Z</time>
      </trkpt>
      <trkpt lat="43.8224" lon="3.75185">
        <ele>200</ele>
        <time>2014-04-01T13:54:26Z</time>
      </trkpt>
      <trkpt lat="43.82245" lon="3.75184">
        <ele>200</ele>
        <time>2014-04-01T13:54:30Z</time>
      </trkpt>
      <trkpt lat="43.82248" lon="3.75189">
        <ele>202</ele>
        <time>2014-04-01T13:54:34Z</time>
      </trkpt>
      <trkpt lat="43.8225" lon="3.75196">
        <ele>203</ele>
        <time>2014-04-01T13:54:39Z</time>
      </trkpt>
      <trkpt lat="43.82252" lon="3.75209">
        <ele>204</ele>
        <time>2014-04-01T13:54:49Z</time>
      </trkpt>
      <trkpt lat="43.82254" lon="3.75214">
        <ele>205</ele>
        <time>2014-04-01T13:54:54Z</time>
      </trkpt>
      <trkpt lat="43.82257" lon="3.75223">
        <ele>207</ele>
        <time>2014-04-01T13:54:58Z</time>
      </trkpt>
      <trkpt lat="43.8226" lon="3.75229">
        <ele>208</ele>
        <time>2014-04-01T13:55:00Z</time>
      </trkpt>
      <trkpt lat="43.82264" lon="3.75237">
        <ele>209</ele>
        <time>2014-04-01T13:55:05Z</time>
      </trkpt>
      <trkpt lat="43.82266" lon="3.75243">
        <ele>210</ele>
        <time>2014-04-01T13:55:11Z</time>
      </trkpt>
      <trkpt lat="43.8227" lon="3.75248">
        <ele>210</ele>
        <time>2014-04-01T13:55:17Z</time>
      </trkpt>
      <trkpt lat="43.82271" lon="3.75254">
        <ele>211</ele>
        <time>2014-04-01T13:55:21Z</time>
      </trkpt>
      <trkpt lat="43.82273" lon="3.7526">
        <ele>210</ele>
        <time>2014-04-01T13:55:25Z</time>
      </trkpt>
      <trkpt lat="43.82276" lon="3.75266">
        <ele>209</ele>
        <time>2014-04-01T13:55:30Z</time>
      </trkpt>
      <trkpt lat="43.82279" lon="3.7527">
        <ele>208</ele>
        <time>2014-04-01T13:55:35Z</time>
      </trkpt>
      <trkpt lat="43.82283" lon="3.75275">
        <ele>207</ele>
        <time>2014-04-01T13:55:39Z</time>
      </trkpt>
      <trkpt lat="43.82285" lon="3.75281">
        <ele>208</ele>
        <time>2014-04-01T13:55:43Z</time>
      </trkpt>
      <trkpt lat="43.82287" lon="3.75287">
        <ele>209</ele>
        <time>2014-04-01T13:55:47Z</time>
      </trkpt>
      <trkpt lat="43.82289" lon="3.75294">
        <ele>210</ele>
        <time>2014-04-01T13:55:51Z</time>
      </trkpt>
      <trkpt lat="43.82293" lon="3.75298">
        <ele>209</ele>
        <time>2014-04-01T13:55:56Z</time>
      </trkpt>
      <trkpt lat="43.82296" lon="3.75304">
        <ele>209</ele>
        <time>2014-04-01T13:56:01Z</time>
      </trkpt>
      <trkpt lat="43.82298" lon="3.7531">
        <ele>208</ele>
        <time>2014-04-01T13:56:06Z</time>
      </trkpt>
      <trkpt lat="43.82301" lon="3.75315">
        <ele>209</ele>
        <time>2014-04-01T13:56:12Z</time>
      </trkpt>
      <trkpt lat="43.82303" lon="3.75321">
        <ele>209</ele>
        <time>2014-04-01T13:56:16Z</time>
      </trkpt>
      <trkpt lat="43.82305" lon="3.75327">
        <ele>209</ele>
        <time>2014-04-01T13:56:20Z</time>
      </trkpt>
      <trkpt lat="43.82307" lon="3.75333">
        <ele>210</ele>
        <time>2014-04-01T13:56:25Z</time>
      </trkpt>
      <trkpt lat="43.82309" lon="3.75339">
        <ele>210</ele>
        <time>2014-04-01T13:56:30Z</time>
      </trkpt>
      <trkpt lat="43.82312" lon="3.75346">
        <ele>210</ele>
        <time>2014-04-01T13:56:34Z</time>
      </trkpt>
      <trkpt lat="43.82316" lon="3.75351">
        <ele>210</ele>
        <time>2014-04-01T13:56:38Z</time>
      </trkpt>
      <trkpt lat="43.8232" lon="3.75355">
        <ele>211</ele>
        <time>2014-04-01T13:56:45Z</time>
      </trkpt>
      <trkpt lat="43.82323" lon="3.7536">
        <ele>213</ele>
        <time>2014-04-01T13:56:50Z</time>
      </trkpt>
      <trkpt lat="43.82327" lon="3.75364">
        <ele>212</ele>
        <time>2014-04-01T13:56:55Z</time>
      </trkpt>
      <trkpt lat="43.82332" lon="3.75368">
        <ele>211</ele>
        <time>2014-04-01T13:56:59Z</time>
      </trkpt>
      <trkpt lat="43.82334" lon="3.75374">
        <ele>211</ele>
        <time>2014-04-01T13:57:03Z</time>
      </trkpt>
      <trkpt lat="43.82336" lon="3.7538">
        <ele>211</ele>
        <time>2014-04-01T13:57:07Z</time>
      </trkpt>
      <trkpt lat="43.82339" lon="3.75386">
        <ele>210</ele>
        <time>2014-04-01T13:57:12Z</time>
      </trkpt>
      <trkpt lat="43.82342" lon="3.7539">
        <ele>209</ele>
        <time>2014-04-01T13:57:16Z</time>
      </trkpt>
      <trkpt lat="43.82347" lon="3.75394">
        <ele>208</ele>
        <time>2014-04-01T13:57:21Z</time>
      </trkpt>
      <trkpt lat="43.82351" lon="3.75397">
        <ele>206</ele>
        <time>2014-04-01T13:57:25Z</time>
      </trkpt>
      <trkpt lat="43.82354" lon="3.75401">
        <ele>205</ele>
        <time>2014-04-01T13:57:29Z</time>
      </trkpt>
      <trkpt lat="43.82358" lon="3.75406">
        <ele>204</ele>
        <time>2014-04-01T13:57:40Z</time>
      </trkpt>
      <trkpt lat="43.8236" lon="3.75412">
        <ele>204</ele>
        <time>2014-04-01T13:57:44Z</time>
      </trkpt>
      <trkpt lat="43.82363" lon="3.75417">
        <ele>203</ele>
        <time>2014-04-01T13:57:49Z</time>
      </trkpt>
      <trkpt lat="43.82365" lon="3.75423">
        <ele>203</ele>
        <time>2014-04-01T13:57:52Z</time>
      </trkpt>
      <trkpt lat="43.82369" lon="3.75428">
        <ele>202</ele>
        <time>2014-04-01T13:57:57Z</time>
      </trkpt>
      <trkpt lat="43.82372" lon="3.75434">
        <ele>201</ele>
        <time>2014-04-01T13:58:01Z</time>
      </trkpt>
      <trkpt lat="43.82375" lon="3.75438">
        <ele>201</ele>
        <time>2014-04-01T13:58:06Z</time>
      </trkpt>
      <trkpt lat="43.82379" lon="3.75442">
        <ele>201</ele>
        <time>2014-04-01T13:58:11Z</time>
      </trkpt>
      <trkpt lat="43.82381" lon="3.75449">
        <ele>200</ele>
        <time>2014-04-01T13:58:15Z</time>
      </trkpt>
      <trkpt lat="43.82385" lon="3.75452">
        <ele>200</ele>
        <time>2014-04-01T13:58:19Z</time>
      </trkpt>
      <trkpt lat="43.8239" lon="3.75456">
        <ele>199</ele>
        <time>2014-04-01T13:58:23Z</time>
      </trkpt>
      <trkpt lat="43.82394" lon="3.75462">
        <ele>199</ele>
        <time>2014-04-01T13:58:30Z</time>
      </trkpt>
      <trkpt lat="43.82397" lon="3.75467">
        <ele>199</ele>
        <time>2014-04-01T13:58:34Z</time>
      </trkpt>
      <trkpt lat="43.82398" lon="3.75474">
        <ele>197</ele>
        <time>2014-04-01T13:58:39Z</time>
      </trkpt>
      <trkpt lat="43.82398" lon="3.7548">
        <ele>196</ele>
        <time>2014-04-01T13:58:43Z</time>
      </trkpt>
      <trkpt lat="43.824" lon="3.75487">
        <ele>196</ele>
        <time>2014-04-01T13:58:47Z</time>
      </trkpt>
      <trkpt lat="43.82403" lon="3.75492">
        <ele>196</ele>
        <time>2014-04-01T13:58:51Z</time>
      </trkpt>
      <trkpt lat="43.82407" lon="3.75496">
        <ele>195</ele>
        <time>2014-04-01T13:58:56Z</time>
      </trkpt>
      <trkpt lat="43.8241" lon="3.75502">
        <ele>196</ele>
        <time>2014-04-01T13:58:59Z</time>
      </trkpt>
      <trkpt lat="43.82413" lon="3.75507">
        <ele>196</ele>
        <time>2014-04-01T13:59:02Z</time>
      </trkpt>
      <trkpt lat="43.82416" lon="3.75513">
        <ele>196</ele>
        <time>2014-04-01T13:59:06Z</time>
      </trkpt>
      <trkpt lat="43.8242" lon="3.75519">
        <ele>196</ele>
        <time>2014-04-01T13:59:10Z</time>
      </trkpt>
      <trkpt lat="43.82425" lon="3.75523">
        <ele>196</ele>
        <time>2014-04-01T13:59:15Z</time>
      </trkpt>
      <trkpt lat="43.8243" lon="3.75527">
        <ele>196</ele>
        <time>2014-04-01T13:59:18Z</time>
      </trkpt>
      <trkpt lat="43.82433" lon="3.75531">
        <ele>196</ele>
        <time>2014-04-01T13:59:24Z</time>
      </trkpt>
      <trkpt lat="43.82433" lon="3.75538">
        <ele>194</ele>
        <time>2014-04-01T13:59:31Z</time>
      </trkpt>
      <trkpt lat="43.82434" lon="3.75545">
        <ele>193</ele>
        <time>2014-04-01T13:59:35Z</time>
      </trkpt>
      <trkpt lat="43.82435" lon="3.75552">
        <ele>193</ele>
        <time>2014-04-01T13:59:39Z</time>
      </trkpt>
      <trkpt lat="43.82437" lon="3.75561">
        <ele>193</ele>
        <time>2014-04-01T13:59:41Z</time>
      </trkpt>
      <trkpt lat="43.82438" lon="3.75568">
        <ele>194</ele>
        <time>2014-04-01T13:59:45Z</time>
      </trkpt>
      <trkpt lat="43.8244" lon="3.75576">
        <ele>194</ele>
        <time>2014-04-01T13:59:47Z</time>
      </trkpt>
      <trkpt lat="43.82441" lon="3.75582">
        <ele>194</ele>
        <time>2014-04-01T13:59:51Z</time>
      </trkpt>
      <trkpt lat="43.82443" lon="3.75589">
        <ele>195</ele>
        <time>2014-04-01T13:59:57Z</time>
      </trkpt>
      <trkpt lat="43.82444" lon="3.75595">
        <ele>195</ele>
        <time>2014-04-01T14:00:01Z</time>
      </trkpt>
      <trkpt lat="43.82446" lon="3.75601">
        <ele>193</ele>
        <time>2014-04-01T14:00:09Z</time>
      </trkpt>
      <trkpt lat="43.82447" lon="3.75608">
        <ele>193</ele>
        <time>2014-04-01T14:00:12Z</time>
      </trkpt>
      <trkpt lat="43.82448" lon="3.75617">
        <ele>194</ele>
        <time>2014-04-01T14:00:15Z</time>
      </trkpt>
      <trkpt lat="43.8245" lon="3.75626">
        <ele>194</ele>
        <time>2014-04-01T14:00:18Z</time>
      </trkpt>
      <trkpt lat="43.82453" lon="3.75633">
        <ele>195</ele>
        <time>2014-04-01T14:00:26Z</time>
      </trkpt>
      <trkpt lat="43.82455" lon="3.75639">
        <ele>195</ele>
        <time>2014-04-01T14:00:30Z</time>
      </trkpt>
      <trkpt lat="43.82457" lon="3.75644">
        <ele>195</ele>
        <time>2014-04-01T14:00:33Z</time>
      </trkpt>
      <trkpt lat="43.82462" lon="3.75646">
        <ele>194</ele>
        <time>2014-04-01T14:00:40Z</time>
      </trkpt>
      <trkpt lat="43.82466" lon="3.75651">
        <ele>195</ele>
        <time>2014-04-01T14:00:44Z</time>
      </trkpt>
      <trkpt lat="43.8247" lon="3.75657">
        <ele>195</ele>
        <time>2014-04-01T14:00:48Z</time>
      </trkpt>
      <trkpt lat="43.82473" lon="3.75661">
        <ele>195</ele>
        <time>2014-04-01T14:00:52Z</time>
      </trkpt>
      <trkpt lat="43.82478" lon="3.75664">
        <ele>195</ele>
        <time>2014-04-01T14:00:55Z</time>
      </trkpt>
      <trkpt lat="43.82481" lon="3.7567">
        <ele>198</ele>
        <time>2014-04-01T14:00:59Z</time>
      </trkpt>
      <trkpt lat="43.82486" lon="3.75673">
        <ele>199</ele>
        <time>2014-04-01T14:01:03Z</time>
      </trkpt>
      <trkpt lat="43.82491" lon="3.75672">
        <ele>199</ele>
        <time>2014-04-01T14:01:08Z</time>
      </trkpt>
      <trkpt lat="43.82497" lon="3.75673">
        <ele>198</ele>
        <time>2014-04-01T14:01:11Z</time>
      </trkpt>
      <trkpt lat="43.82502" lon="3.75674">
        <ele>198</ele>
        <time>2014-04-01T14:01:14Z</time>
      </trkpt>
      <trkpt lat="43.82508" lon="3.75673">
        <ele>198</ele>
        <time>2014-04-01T14:01:17Z</time>
      </trkpt>
      <trkpt lat="43.82512" lon="3.75672">
        <ele>198</ele>
        <time>2014-04-01T14:01:22Z</time>
      </trkpt>
      <trkpt lat="43.82517" lon="3.75669">
        <ele>198</ele>
        <time>2014-04-01T14:01:26Z</time>
      </trkpt>
      <trkpt lat="43.8252" lon="3.75664">
        <ele>197</ele>
        <time>2014-04-01T14:01:32Z</time>
      </trkpt>
      <trkpt lat="43.82525" lon="3.75659">
        <ele>197</ele>
        <time>2014-04-01T14:01:36Z</time>
      </trkpt>
      <trkpt lat="43.8253" lon="3.75654">
        <ele>196</ele>
        <time>2014-04-01T14:01:40Z</time>
      </trkpt>
      <trkpt lat="43.82535" lon="3.75651">
        <ele>195</ele>
        <time>2014-04-01T14:01:43Z</time>
      </trkpt>
      <trkpt lat="43.82537" lon="3.75645">
        <ele>193</ele>
        <time>2014-04-01T14:01:49Z</time>
      </trkpt>
      <trkpt lat="43.82541" lon="3.75641">
        <ele>192</ele>
        <time>2014-04-01T14:01:51Z</time>
      </trkpt>
      <trkpt lat="43.82546" lon="3.75636">
        <ele>192</ele>
        <time>2014-04-01T14:01:54Z</time>
      </trkpt>
      <trkpt lat="43.82549" lon="3.75631">
        <ele>190</ele>
        <time>2014-04-01T14:01:59Z</time>
      </trkpt>
      <trkpt lat="43.82553" lon="3.7563">
        <ele>189</ele>
        <time>2014-04-01T14:02:07Z</time>
      </trkpt>
      <trkpt lat="43.82558" lon="3.7563">
        <ele>189</ele>
        <time>2014-04-01T14:02:11Z</time>
      </trkpt>
      <trkpt lat="43.82563" lon="3.75631">
        <ele>189</ele>
        <time>2014-04-01T14:02:14Z</time>
      </trkpt>
      <trkpt lat="43.82568" lon="3.75633">
        <ele>190</ele>
        <time>2014-04-01T14:02:17Z</time>
      </trkpt>
      <trkpt lat="43.82573" lon="3.75633">
        <ele>191</ele>
        <time>2014-04-01T14:02:20Z</time>
      </trkpt>
      <trkpt lat="43.82578" lon="3.75636">
        <ele>192</ele>
        <time>2014-04-01T14:02:24Z</time>
      </trkpt>
      <trkpt lat="43.8258" lon="3.75642">
        <ele>193</ele>
        <time>2014-04-01T14:02:32Z</time>
      </trkpt>
      <trkpt lat="43.82585" lon="3.75644">
        <ele>193</ele>
        <time>2014-04-01T14:02:36Z</time>
      </trkpt>
      <trkpt lat="43.82591" lon="3.75641">
        <ele>192</ele>
        <time>2014-04-01T14:02:42Z</time>
      </trkpt>
      <trkpt lat="43.82596" lon="3.75638">
        <ele>190</ele>
        <time>2014-04-01T14:02:43Z</time>
      </trkpt>
      <trkpt lat="43.82602" lon="3.75637">
        <ele>188</ele>
        <time>2014-04-01T14:02:47Z</time>
      </trkpt>
      <trkpt lat="43.82607" lon="3.75638">
        <ele>188</ele>
        <time>2014-04-01T14:02:49Z</time>
      </trkpt>
      <trkpt lat="43.82612" lon="3.75639">
        <ele>187</ele>
        <time>2014-04-01T14:02:51Z</time>
      </trkpt>
      <trkpt lat="43.82617" lon="3.75642">
        <ele>188</ele>
        <time>2014-04-01T14:02:52Z</time>
      </trkpt>
      <trkpt lat="43.82619" lon="3.75644">
        <ele>188</ele>
        <time>2014-04-01T14:02:54Z</time>
      </trkpt>
      <trkpt lat="43.82621" lon="3.75646">
        <ele>188</ele>
        <time>2014-04-01T14:02:55Z</time>
      </trkpt>
      <trkpt lat="43.82626" lon="3.75653">
        <ele>189</ele>
        <time>2014-04-01T14:02:59Z</time>
      </trkpt>
      <trkpt lat="43.8263" lon="3.75655">
        <ele>190</ele>
        <time>2014-04-01T14:03:01Z</time>
      </trkpt>
      <trkpt lat="43.82633" lon="3.75657">
        <ele>191</ele>
        <time>2014-04-01T14:03:03Z</time>
      </trkpt>
      <trkpt lat="43.82635" lon="3.75657">
        <ele>191</ele>
        <time>2014-04-01T14:03:04Z</time>
      </trkpt>
      <trkpt lat="43.8264" lon="3.75658">
        <ele>192</ele>
        <time>2014-04-01T14:03:06Z</time>
      </trkpt>
      <trkpt lat="43.82645" lon="3.75664">
        <ele>195</ele>
        <time>2014-04-01T14:03:23Z</time>
      </trkpt>
      <trkpt lat="43.8265" lon="3.75665">
        <ele>196</ele>
        <time>2014-04-01T14:03:26Z</time>
      </trkpt>
      <trkpt lat="43.82655" lon="3.75667">
        <ele>197</ele>
        <time>2014-04-01T14:03:35Z</time>
      </trkpt>
      <trkpt lat="43.82659" lon="3.75669">
        <ele>196</ele>
        <time>2014-04-01T14:03:39Z</time>
      </trkpt>
      <trkpt lat="43.82663" lon="3.75673">
        <ele>195</ele>
        <time>2014-04-01T14:03:43Z</time>
      </trkpt>
      <trkpt lat="43.82668" lon="3.75676">
        <ele>194</ele>
        <time>2014-04-01T14:03:47Z</time>
      </trkpt>
      <trkpt lat="43.82673" lon="3.75676">
        <ele>194</ele>
        <time>2014-04-01T14:03:51Z</time>
      </trkpt>
      <trkpt lat="43.82678" lon="3.75676">
        <ele>194</ele>
        <time>2014-04-01T14:03:54Z</time>
      </trkpt>
      <trkpt lat="43.82683" lon="3.75676">
        <ele>195</ele>
        <time>2014-04-01T14:04:01Z</time>
      </trkpt>
      <trkpt lat="43.82687" lon="3.75673">
        <ele>195</ele>
        <time>2014-04-01T14:04:04Z</time>
      </trkpt>
      <trkpt lat="43.82693" lon="3.75675">
        <ele>196</ele>
        <time>2014-04-01T14:04:07Z</time>
      </trkpt>
      <trkpt lat="43.82697" lon="3.75679">
        <ele>198</ele>
        <time>2014-04-01T14:04:12Z</time>
      </trkpt>
      <trkpt lat="43.82701" lon="3.75684">
        <ele>199</ele>
        <time>2014-04-01T14:04:18Z</time>
      </trkpt>
      <trkpt lat="43.82704" lon="3.75689">
        <ele>199</ele>
        <time>2014-04-01T14:04:24Z</time>
      </trkpt>
      <trkpt lat="43.82707" lon="3.75694">
        <ele>200</ele>
        <time>2014-04-01T14:04:28Z</time>
      </trkpt>
      <trkpt lat="43.82713" lon="3.75696">
        <ele>199</ele>
        <time>2014-04-01T14:04:34Z</time>
      </trkpt>
      <trkpt lat="43.82718" lon="3.75696">
        <ele>198</ele>
        <time>2014-04-01T14:04:38Z</time>
      </trkpt>
      <trkpt lat="43.82723" lon="3.75698">
        <ele>197</ele>
        <time>2014-04-01T14:04:43Z</time>
      </trkpt>
      <trkpt lat="43.82728" lon="3.75703">
        <ele>197</ele>
        <time>2014-04-01T14:04:46Z</time>
      </trkpt>
      <trkpt lat="43.82733" lon="3.75704">
        <ele>197</ele>
        <time>2014-04-01T14:04:49Z</time>
      </trkpt>
      <trkpt lat="43.82738" lon="3.75705">
        <ele>197</ele>
        <time>2014-04-01T14:04:53Z</time>
      </trkpt>
      <trkpt lat="43.82743" lon="3.75703">
        <ele>195</ele>
        <time>2014-04-01T14:04:57Z</time>
      </trkpt>
      <trkpt lat="43.82748" lon="3.75703">
        <ele>193</ele>
        <time>2014-04-01T14:05:01Z</time>
      </trkpt>
      <trkpt lat="43.82753" lon="3.75706">
        <ele>193</ele>
        <time>2014-04-01T14:05:05Z</time>
      </trkpt>
      <trkpt lat="43.82757" lon="3.7571">
        <ele>192</ele>
        <time>2014-04-01T14:05:12Z</time>
      </trkpt>
      <trkpt lat="43.82762" lon="3.75712">
        <ele>192</ele>
        <time>2014-04-01T14:05:15Z</time>
      </trkpt>
      <trkpt lat="43.82766" lon="3.75714">
        <ele>193</ele>
        <time>2014-04-01T14:05:18Z</time>
      </trkpt>
      <trkpt lat="43.8277" lon="3.75717">
        <ele>193</ele>
        <time>2014-04-01T14:05:21Z</time>
      </trkpt>
      <trkpt lat="43.82775" lon="3.7572">
        <ele>193</ele>
        <time>2014-04-01T14:05:25Z</time>
      </trkpt>
      <trkpt lat="43.8278" lon="3.75723">
        <ele>194</ele>
        <time>2014-04-01T14:05:29Z</time>
      </trkpt>
      <trkpt lat="43.82784" lon="3.75725">
        <ele>195</ele>
        <time>2014-04-01T14:05:32Z</time>
      </trkpt>
      <trkpt lat="43.82789" lon="3.75726">
        <ele>195</ele>
        <time>2014-04-01T14:05:35Z</time>
      </trkpt>
      <trkpt lat="43.82793" lon="3.75729">
        <ele>196</ele>
        <time>2014-04-01T14:05:38Z</time>
      </trkpt>
      <trkpt lat="43.82798" lon="3.75731">
        <ele>197</ele>
        <time>2014-04-01T14:05:41Z</time>
      </trkpt>
      <trkpt lat="43.82802" lon="3.75733">
        <ele>198</ele>
        <time>2014-04-01T14:05:44Z</time>
      </trkpt>
      <trkpt lat="43.82806" lon="3.75736">
        <ele>198</ele>
        <time>2014-04-01T14:05:48Z</time>
      </trkpt>
      <trkpt lat="43.82811" lon="3.7574">
        <ele>198</ele>
        <time>2014-04-01T14:05:54Z</time>
      </trkpt>
      <trkpt lat="43.82815" lon="3.75743">
        <ele>197</ele>
        <time>2014-04-01T14:06:00Z</time>
      </trkpt>
      <trkpt lat="43.8282" lon="3.75745">
        <ele>197</ele>
        <time>2014-04-01T14:06:05Z</time>
      </trkpt>
      <trkpt lat="43.82826" lon="3.75748">
        <ele>198</ele>
        <time>2014-04-01T14:06:09Z</time>
      </trkpt>
      <trkpt lat="43.8283" lon="3.7575">
        <ele>199</ele>
        <time>2014-04-01T14:06:13Z</time>
      </trkpt>
      <trkpt lat="43.82834" lon="3.75753">
        <ele>199</ele>
        <time>2014-04-01T14:06:18Z</time>
      </trkpt>
      <trkpt lat="43.82836" lon="3.75757">
        <ele>200</ele>
        <time>2014-04-01T14:06:27Z</time>
      </trkpt>
      <trkpt lat="43.8284" lon="3.75755">
        <ele>199</ele>
        <time>2014-04-01T14:06:33Z</time>
      </trkpt>
      <trkpt lat="43.82845" lon="3.75753">
        <ele>199</ele>
        <time>2014-04-01T14:06:37Z</time>
      </trkpt>
      <trkpt lat="43.82845" lon="3.75753">
        <ele>197</ele>
        <time>2014-04-01T14:06:52Z</time>
      </trkpt>
      <trkpt lat="43.82849" lon="3.75747">
        <ele>196</ele>
        <time>2014-04-01T14:06:57Z</time>
      </trkpt>
      <trkpt lat="43.82852" lon="3.75752">
        <ele>195</ele>
        <time>2014-04-01T14:07:03Z</time>
      </trkpt>
      <trkpt lat="43.82854" lon="3.75753">
        <ele>196</ele>
        <time>2014-04-01T14:07:32Z</time>
      </trkpt>
      <trkpt lat="43.82854" lon="3.75752">
        <ele>199</ele>
        <time>2014-04-01T14:09:04Z</time>
      </trkpt>
      <trkpt lat="43.82853" lon="3.75746">
        <ele>197</ele>
        <time>2014-04-01T14:09:53Z</time>
      </trkpt>
      <trkpt lat="43.82854" lon="3.75751">
        <ele>199</ele>
        <time>2014-04-01T14:10:16Z</time>
      </trkpt>
      <trkpt lat="43.82856" lon="3.75754">
        <ele>199</ele>
        <time>2014-04-01T14:10:24Z</time>
      </trkpt>
      <trkpt lat="43.82859" lon="3.7576">
        <ele>199</ele>
        <time>2014-04-01T14:10:31Z</time>
      </trkpt>
      <trkpt lat="43.82864" lon="3.75761">
        <ele>199</ele>
        <time>2014-04-01T14:10:37Z</time>
      </trkpt>
      <trkpt lat="43.8287" lon="3.75763">
        <ele>198</ele>
        <time>2014-04-01T14:10:41Z</time>
      </trkpt>
      <trkpt lat="43.82876" lon="3.75762">
        <ele>198</ele>
        <time>2014-04-01T14:10:45Z</time>
      </trkpt>
      <trkpt lat="43.8288" lon="3.75763">
        <ele>198</ele>
        <time>2014-04-01T14:10:49Z</time>
      </trkpt>
      <trkpt lat="43.82884" lon="3.75767">
        <ele>197</ele>
        <time>2014-04-01T14:10:56Z</time>
      </trkpt>
      <trkpt lat="43.8289" lon="3.75767">
        <ele>198</ele>
        <time>2014-04-01T14:11:02Z</time>
      </trkpt>
      <trkpt lat="43.82895" lon="3.75768">
        <ele>197</ele>
        <time>2014-04-01T14:11:06Z</time>
      </trkpt>
      <trkpt lat="43.829" lon="3.7577">
        <ele>196</ele>
        <time>2014-04-01T14:11:11Z</time>
      </trkpt>
      <trkpt lat="43.82906" lon="3.75769">
        <ele>195</ele>
        <time>2014-04-01T14:11:15Z</time>
      </trkpt>
      <trkpt lat="43.8291" lon="3.75768">
        <ele>197</ele>
        <time>2014-04-01T14:11:20Z</time>
      </trkpt>
      <trkpt lat="43.82915" lon="3.75768">
        <ele>197</ele>
        <time>2014-04-01T14:11:27Z</time>
      </trkpt>
      <trkpt lat="43.8292" lon="3.75766">
        <ele>199</ele>
        <time>2014-04-01T14:11:31Z</time>
      </trkpt>
      <trkpt lat="43.82924" lon="3.75766">
        <ele>199</ele>
        <time>2014-04-01T14:11:36Z</time>
      </trkpt>
      <trkpt lat="43.8293" lon="3.75766">
        <ele>200</ele>
        <time>2014-04-01T14:11:41Z</time>
      </trkpt>
      <trkpt lat="43.82935" lon="3.75765">
        <ele>200</ele>
        <time>2014-04-01T14:11:45Z</time>
      </trkpt>
      <trkpt lat="43.82939" lon="3.75762">
        <ele>200</ele>
        <time>2014-04-01T14:11:48Z</time>
      </trkpt>
      <trkpt lat="43.82944" lon="3.75766">
        <ele>200</ele>
        <time>2014-04-01T14:11:54Z</time>
      </trkpt>
      <trkpt lat="43.82949" lon="3.75767">
        <ele>200</ele>
        <time>2014-04-01T14:11:58Z</time>
      </trkpt>
      <trkpt lat="43.82953" lon="3.7577">
        <ele>201</ele>
        <time>2014-04-01T14:12:04Z</time>
      </trkpt>
      <trkpt lat="43.82958" lon="3.75771">
        <ele>199</ele>
        <time>2014-04-01T14:12:09Z</time>
      </trkpt>
      <trkpt lat="43.82963" lon="3.75768">
        <ele>198</ele>
        <time>2014-04-01T14:12:12Z</time>
      </trkpt>
      <trkpt lat="43.82968" lon="3.7577">
        <ele>197</ele>
        <time>2014-04-01T14:12:16Z</time>
      </trkpt>
      <trkpt lat="43.82972" lon="3.7577">
        <ele>197</ele>
        <time>2014-04-01T14:12:20Z</time>
      </trkpt>
      <trkpt lat="43.82977" lon="3.75769">
        <ele>197</ele>
        <time>2014-04-01T14:12:22Z</time>
      </trkpt>
      <trkpt lat="43.82981" lon="3.75766">
        <ele>197</ele>
        <time>2014-04-01T14:12:26Z</time>
      </trkpt>
      <trkpt lat="43.82986" lon="3.75767">
        <ele>197</ele>
        <time>2014-04-01T14:12:30Z</time>
      </trkpt>
      <trkpt lat="43.82992" lon="3.75769">
        <ele>197</ele>
        <time>2014-04-01T14:12:36Z</time>
      </trkpt>
      <trkpt lat="43.82996" lon="3.75772">
        <ele>198</ele>
        <time>2014-04-01T14:12:41Z</time>
      </trkpt>
      <trkpt lat="43.83001" lon="3.75774">
        <ele>198</ele>
        <time>2014-04-01T14:12:46Z</time>
      </trkpt>
      <trkpt lat="43.83006" lon="3.75774">
        <ele>198</ele>
        <time>2014-04-01T14:12:51Z</time>
      </trkpt>
      <trkpt lat="43.83011" lon="3.75771">
        <ele>197</ele>
        <time>2014-04-01T14:12:55Z</time>
      </trkpt>
      <trkpt lat="43.83016" lon="3.75771">
        <ele>195</ele>
        <time>2014-04-01T14:13:02Z</time>
      </trkpt>
      <trkpt lat="43.83021" lon="3.75769">
        <ele>194</ele>
        <time>2014-04-01T14:13:05Z</time>
      </trkpt>
      <trkpt lat="43.83026" lon="3.75766">
        <ele>194</ele>
        <time>2014-04-01T14:13:08Z</time>
      </trkpt>
      <trkpt lat="43.8303" lon="3.75762">
        <ele>194</ele>
        <time>2014-04-01T14:13:12Z</time>
      </trkpt>
      <trkpt lat="43.83032" lon="3.75755">
        <ele>194</ele>
        <time>2014-04-01T14:13:17Z</time>
      </trkpt>
      <trkpt lat="43.83036" lon="3.75751">
        <ele>193</ele>
        <time>2014-04-01T14:13:22Z</time>
      </trkpt>
      <trkpt lat="43.83041" lon="3.75751">
        <ele>191</ele>
        <time>2014-04-01T14:13:30Z</time>
      </trkpt>
      <trkpt lat="43.83046" lon="3.75749">
        <ele>190</ele>
        <time>2014-04-01T14:13:34Z</time>
      </trkpt>
      <trkpt lat="43.83051" lon="3.75747">
        <ele>190</ele>
        <time>2014-04-01T14:13:37Z</time>
      </trkpt>
      <trkpt lat="43.83056" lon="3.75746">
        <ele>190</ele>
        <time>2014-04-01T14:13:40Z</time>
      </trkpt>
      <trkpt lat="43.83061" lon="3.75744">
        <ele>190</ele>
        <time>2014-04-01T14:13:43Z</time>
      </trkpt>
      <trkpt lat="43.83068" lon="3.75743">
        <ele>190</ele>
        <time>2014-04-01T14:13:46Z</time>
      </trkpt>
      <trkpt lat="43.83073" lon="3.75742">
        <ele>190</ele>
        <time>2014-04-01T14:13:47Z</time>
      </trkpt>
      <trkpt lat="43.83079" lon="3.75743">
        <ele>190</ele>
        <time>2014-04-01T14:13:52Z</time>
      </trkpt>
      <trkpt lat="43.83083" lon="3.75745">
        <ele>191</ele>
        <time>2014-04-01T14:13:57Z</time>
      </trkpt>
      <trkpt lat="43.83088" lon="3.75742">
        <ele>193</ele>
        <time>2014-04-01T14:14:04Z</time>
      </trkpt>
      <trkpt lat="43.83092" lon="3.75739">
        <ele>194</ele>
        <time>2014-04-01T14:14:10Z</time>
      </trkpt>
      <trkpt lat="43.83098" lon="3.75738">
        <ele>195</ele>
        <time>2014-04-01T14:14:16Z</time>
      </trkpt>
      <trkpt lat="43.83103" lon="3.75736">
        <ele>197</ele>
        <time>2014-04-01T14:14:20Z</time>
      </trkpt>
      <trkpt lat="43.83108" lon="3.75734">
        <ele>198</ele>
        <time>2014-04-01T14:14:24Z</time>
      </trkpt>
      <trkpt lat="43.83113" lon="3.75731">
        <ele>200</ele>
        <time>2014-04-01T14:14:28Z</time>
      </trkpt>
      <trkpt lat="43.83118" lon="3.7573">
        <ele>201</ele>
        <time>2014-04-01T14:14:32Z</time>
      </trkpt>
      <trkpt lat="43.83122" lon="3.75727">
        <ele>202</ele>
        <time>2014-04-01T14:14:37Z</time>
      </trkpt>
      <trkpt lat="43.83127" lon="3.75725">
        <ele>202</ele>
        <time>2014-04-01T14:14:42Z</time>
      </trkpt>
      <trkpt lat="43.83133" lon="3.75724">
        <ele>202</ele>
        <time>2014-04-01T14:14:46Z</time>
      </trkpt>
      <trkpt lat="43.83137" lon="3.75722">
        <ele>201</ele>
        <time>2014-04-01T14:14:50Z</time>
      </trkpt>
      <trkpt lat="43.83142" lon="3.7572">
        <ele>200</ele>
        <time>2014-04-01T14:14:55Z</time>
      </trkpt>
      <trkpt lat="43.83147" lon="3.75719">
        <ele>201</ele>
        <time>2014-04-01T14:14:58Z</time>
      </trkpt>
      <trkpt lat="43.83151" lon="3.7572">
        <ele>201</ele>
        <time>2014-04-01T14:15:01Z</time>
      </trkpt>
      <trkpt lat="43.83155" lon="3.75716">
        <ele>201</ele>
        <time>2014-04-01T14:15:06Z</time>
      </trkpt>
      <trkpt lat="43.83161" lon="3.75712">
        <ele>201</ele>
        <time>2014-04-01T14:15:10Z</time>
      </trkpt>
      <trkpt lat="43.83166" lon="3.75711">
        <ele>202</ele>
        <time>2014-04-01T14:15:13Z</time>
      </trkpt>
      <trkpt lat="43.83171" lon="3.75709">
        <ele>202</ele>
        <time>2014-04-01T14:15:16Z</time>
      </trkpt>
      <trkpt lat="43.83176" lon="3.75709">
        <ele>197</ele>
        <time>2014-04-01T14:15:23Z</time>
      </trkpt>
      <trkpt lat="43.83181" lon="3.75711">
        <ele>196</ele>
        <time>2014-04-01T14:15:28Z</time>
      </trkpt>
      <trkpt lat="43.83185" lon="3.75714">
        <ele>196</ele>
        <time>2014-04-01T14:15:34Z</time>
      </trkpt>
      <trkpt lat="43.83189" lon="3.75716">
        <ele>197</ele>
        <time>2014-04-01T14:15:38Z</time>
      </trkpt>
      <trkpt lat="43.83193" lon="3.75719">
        <ele>198</ele>
        <time>2014-04-01T14:15:43Z</time>
      </trkpt>
      <trkpt lat="43.83199" lon="3.75722">
        <ele>200</ele>
        <time>2014-04-01T14:15:53Z</time>
      </trkpt>
      <trkpt lat="43.83204" lon="3.75723">
        <ele>201</ele>
        <time>2014-04-01T14:15:56Z</time>
      </trkpt>
      <trkpt lat="43.83209" lon="3.75725">
        <ele>202</ele>
        <time>2014-04-01T14:15:59Z</time>
      </trkpt>
      <trkpt lat="43.83214" lon="3.75727">
        <ele>202</ele>
        <time>2014-04-01T14:16:02Z</time>
      </trkpt>
      <trkpt lat="43.83219" lon="3.75726">
        <ele>201</ele>
        <time>2014-04-01T14:16:09Z</time>
      </trkpt>
      <trkpt lat="43.83224" lon="3.75726">
        <ele>200</ele>
        <time>2014-04-01T14:16:13Z</time>
      </trkpt>
      <trkpt lat="43.8323" lon="3.75727">
        <ele>200</ele>
        <time>2014-04-01T14:16:16Z</time>
      </trkpt>
      <trkpt lat="43.83234" lon="3.7573">
        <ele>200</ele>
        <time>2014-04-01T14:16:20Z</time>
      </trkpt>
      <trkpt lat="43.83238" lon="3.75734">
        <ele>200</ele>
        <time>2014-04-01T14:16:25Z</time>
      </trkpt>
      <trkpt lat="43.83243" lon="3.75736">
        <ele>200</ele>
        <time>2014-04-01T14:16:29Z</time>
      </trkpt>
      <trkpt lat="43.83247" lon="3.7574">
        <ele>202</ele>
        <time>2014-04-01T14:16:33Z</time>
      </trkpt>
      <trkpt lat="43.8325" lon="3.75746">
        <ele>203</ele>
        <time>2014-04-01T14:16:37Z</time>
      </trkpt>
      <trkpt lat="43.83257" lon="3.75744">
        <ele>205</ele>
        <time>2014-04-01T14:16:51Z</time>
      </trkpt>
      <trkpt lat="43.83259" lon="3.75739">
        <ele>204</ele>
        <time>2014-04-01T14:16:55Z</time>
      </trkpt>
      <trkpt lat="43.83262" lon="3.75741">
        <ele>204</ele>
        <time>2014-04-01T14:17:12Z</time>
      </trkpt>
      <trkpt lat="43.83263" lon="3.75744">
        <ele>204</ele>
        <time>2014-04-01T14:17:30Z</time>
      </trkpt>
      <trkpt lat="43.83267" lon="3.75737">
        <ele>203</ele>
        <time>2014-04-01T14:17:56Z</time>
      </trkpt>
      <trkpt lat="43.83271" lon="3.75731">
        <ele>203</ele>
        <time>2014-04-01T14:17:59Z</time>
      </trkpt>
      <trkpt lat="43.83272" lon="3.75724">
        <ele>203</ele>
        <time>2014-04-01T14:18:03Z</time>
      </trkpt>
      <trkpt lat="43.83271" lon="3.75717">
        <ele>203</ele>
        <time>2014-04-01T14:18:08Z</time>
      </trkpt>
      <trkpt lat="43.83273" lon="3.75711">
        <ele>203</ele>
        <time>2014-04-01T14:18:13Z</time>
      </trkpt>
      <trkpt lat="43.83275" lon="3.75705">
        <ele>203</ele>
        <time>2014-04-01T14:18:17Z</time>
      </trkpt>
      <trkpt lat="43.83278" lon="3.75699">
        <ele>205</ele>
        <time>2014-04-01T14:18:22Z</time>
      </trkpt>
      <trkpt lat="43.83282" lon="3.75695">
        <ele>205</ele>
        <time>2014-04-01T14:18:27Z</time>
      </trkpt>
      <trkpt lat="43.83285" lon="3.75689">
        <ele>204</ele>
        <time>2014-04-01T14:18:31Z</time>
      </trkpt>
      <trkpt lat="43.83289" lon="3.75685">
        <ele>203</ele>
        <time>2014-04-01T14:18:36Z</time>
      </trkpt>
      <trkpt lat="43.83293" lon="3.7568">
        <ele>203</ele>
        <time>2014-04-01T14:18:40Z</time>
      </trkpt>
      <trkpt lat="43.83297" lon="3.75677">
        <ele>204</ele>
        <time>2014-04-01T14:18:44Z</time>
      </trkpt>
      <trkpt lat="43.83301" lon="3.75673">
        <ele>205</ele>
        <time>2014-04-01T14:18:48Z</time>
      </trkpt>
      <trkpt lat="43.83305" lon="3.75668">
        <ele>206</ele>
        <time>2014-04-01T14:18:52Z</time>
      </trkpt>
      <trkpt lat="43.83309" lon="3.75664">
        <ele>207</ele>
        <time>2014-04-01T14:18:57Z</time>
      </trkpt>
      <trkpt lat="43.83312" lon="3.75659">
        <ele>207</ele>
        <time>2014-04-01T14:19:01Z</time>
      </trkpt>
      <trkpt lat="43.83316" lon="3.75654">
        <ele>205</ele>
        <time>2014-04-01T14:19:05Z</time>
      </trkpt>
      <trkpt lat="43.8332" lon="3.75649">
        <ele>204</ele>
        <time>2014-04-01T14:19:09Z</time>
      </trkpt>
      <trkpt lat="43.83324" lon="3.75645">
        <ele>204</ele>
        <time>2014-04-01T14:19:13Z</time>
      </trkpt>
      <trkpt lat="43.83327" lon="3.7564">
        <ele>205</ele>
        <time>2014-04-01T14:19:17Z</time>
      </trkpt>
      <trkpt lat="43.83328" lon="3.75634">
        <ele>204</ele>
        <time>2014-04-01T14:19:21Z</time>
      </trkpt>
      <trkpt lat="43.83332" lon="3.75629">
        <ele>204</ele>
        <time>2014-04-01T14:19:26Z</time>
      </trkpt>
      <trkpt lat="43.83335" lon="3.75624">
        <ele>204</ele>
        <time>2014-04-01T14:19:33Z</time>
      </trkpt>
      <trkpt lat="43.83338" lon="3.75617">
        <ele>204</ele>
        <time>2014-04-01T14:19:38Z</time>
      </trkpt>
      <trkpt lat="43.83341" lon="3.75611">
        <ele>204</ele>
        <time>2014-04-01T14:19:42Z</time>
      </trkpt>
      <trkpt lat="43.83345" lon="3.75607">
        <ele>204</ele>
        <time>2014-04-01T14:19:47Z</time>
      </trkpt>
      <trkpt lat="43.83347" lon="3.756">
        <ele>205</ele>
        <time>2014-04-01T14:19:51Z</time>
      </trkpt>
      <trkpt lat="43.83351" lon="3.75594">
        <ele>205</ele>
        <time>2014-04-01T14:19:55Z</time>
      </trkpt>
      <trkpt lat="43.83355" lon="3.75589">
        <ele>205</ele>
        <time>2014-04-01T14:19:59Z</time>
      </trkpt>
      <trkpt lat="43.83356" lon="3.75582">
        <ele>205</ele>
        <time>2014-04-01T14:20:04Z</time>
      </trkpt>
      <trkpt lat="43.83358" lon="3.75577">
        <ele>205</ele>
        <time>2014-04-01T14:20:09Z</time>
      </trkpt>
      <trkpt lat="43.83361" lon="3.7557">
        <ele>204</ele>
        <time>2014-04-01T14:20:13Z</time>
      </trkpt>
      <trkpt lat="43.83363" lon="3.75564">
        <ele>204</ele>
        <time>2014-04-01T14:20:16Z</time>
      </trkpt>
      <trkpt lat="43.83365" lon="3.75558">
        <ele>204</ele>
        <time>2014-04-01T14:20:21Z</time>
      </trkpt>
      <trkpt lat="43.83367" lon="3.75552">
        <ele>203</ele>
        <time>2014-04-01T14:20:26Z</time>
      </trkpt>
      <trkpt lat="43.83372" lon="3.75549">
        <ele>203</ele>
        <time>2014-04-01T14:20:31Z</time>
      </trkpt>
      <trkpt lat="43.83375" lon="3.75544">
        <ele>203</ele>
        <time>2014-04-01T14:20:37Z</time>
      </trkpt>
      <trkpt lat="43.83377" lon="3.75538">
        <ele>205</ele>
        <time>2014-04-01T14:20:42Z</time>
      </trkpt>
      <trkpt lat="43.83379" lon="3.75531">
        <ele>205</ele>
        <time>2014-04-01T14:20:46Z</time>
      </trkpt>
      <trkpt lat="43.83381" lon="3.75524">
        <ele>206</ele>
        <time>2014-04-01T14:20:51Z</time>
      </trkpt>
      <trkpt lat="43.83383" lon="3.75518">
        <ele>207</ele>
        <time>2014-04-01T14:20:55Z</time>
      </trkpt>
      <trkpt lat="43.83382" lon="3.75512">
        <ele>207</ele>
        <time>2014-04-01T14:21:01Z</time>
      </trkpt>
      <trkpt lat="43.83384" lon="3.75504">
        <ele>208</ele>
        <time>2014-04-01T14:21:08Z</time>
      </trkpt>
      <trkpt lat="43.83387" lon="3.75498">
        <ele>208</ele>
        <time>2014-04-01T14:21:11Z</time>
      </trkpt>
      <trkpt lat="43.83389" lon="3.75492">
        <ele>208</ele>
        <time>2014-04-01T14:21:14Z</time>
      </trkpt>
      <trkpt lat="43.83393" lon="3.75484">
        <ele>209</ele>
        <time>2014-04-01T14:21:18Z</time>
      </trkpt>
      <trkpt lat="43.83395" lon="3.75478">
        <ele>208</ele>
        <time>2014-04-01T14:21:23Z</time>
      </trkpt>
      <trkpt lat="43.83396" lon="3.75472">
        <ele>208</ele>
        <time>2014-04-01T14:21:28Z</time>
      </trkpt>
      <trkpt lat="43.83401" lon="3.75468">
        <ele>207</ele>
        <time>2014-04-01T14:21:33Z</time>
      </trkpt>
      <trkpt lat="43.83405" lon="3.75463">
        <ele>206</ele>
        <time>2014-04-01T14:21:38Z</time>
      </trkpt>
      <trkpt lat="43.83407" lon="3.75457">
        <ele>206</ele>
        <time>2014-04-01T14:21:42Z</time>
      </trkpt>
      <trkpt lat="43.8341" lon="3.75451">
        <ele>206</ele>
        <time>2014-04-01T14:21:46Z</time>
      </trkpt>
      <trkpt lat="43.83412" lon="3.75445">
        <ele>206</ele>
        <time>2014-04-01T14:21:49Z</time>
      </trkpt>
      <trkpt lat="43.83415" lon="3.7544">
        <ele>206</ele>
        <time>2014-04-01T14:21:53Z</time>
      </trkpt>
      <trkpt lat="43.83417" lon="3.75433">
        <ele>207</ele>
        <time>2014-04-01T14:21:57Z</time>
      </trkpt>
      <trkpt lat="43.8342" lon="3.75428">
        <ele>207</ele>
        <time>2014-04-01T14:22:01Z</time>
      </trkpt>
      <trkpt lat="43.83419" lon="3.75421">
        <ele>208</ele>
        <time>2014-04-01T14:22:05Z</time>
      </trkpt>
      <trkpt lat="43.83422" lon="3.75416">
        <ele>208</ele>
        <time>2014-04-01T14:22:09Z</time>
      </trkpt>
      <trkpt lat="43.83424" lon="3.7541">
        <ele>210</ele>
        <time>2014-04-01T14:22:13Z</time>
      </trkpt>
      <trkpt lat="43.83427" lon="3.75405">
        <ele>210</ele>
        <time>2014-04-01T14:22:17Z</time>
      </trkpt>
      <trkpt lat="43.8343" lon="3.754">
        <ele>210</ele>
        <time>2014-04-01T14:22:22Z</time>
      </trkpt>
      <trkpt lat="43.83435" lon="3.75396">
        <ele>211</ele>
        <time>2014-04-01T14:22:26Z</time>
      </trkpt>
      <trkpt lat="43.83439" lon="3.75391">
        <ele>212</ele>
        <time>2014-04-01T14:22:29Z</time>
      </trkpt>
      <trkpt lat="43.83443" lon="3.75386">
        <ele>213</ele>
        <time>2014-04-01T14:22:32Z</time>
      </trkpt>
      <trkpt lat="43.83444" lon="3.75379">
        <ele>213</ele>
        <time>2014-04-01T14:22:38Z</time>
      </trkpt>
      <trkpt lat="43.83444" lon="3.75372">
        <ele>213</ele>
        <time>2014-04-01T14:22:42Z</time>
      </trkpt>
      <trkpt lat="43.83448" lon="3.75368">
        <ele>214</ele>
        <time>2014-04-01T14:22:46Z</time>
      </trkpt>
      <trkpt lat="43.83452" lon="3.75365">
        <ele>214</ele>
        <time>2014-04-01T14:22:51Z</time>
      </trkpt>
      <trkpt lat="43.83456" lon="3.7536">
        <ele>214</ele>
        <time>2014-04-01T14:22:56Z</time>
      </trkpt>
      <trkpt lat="43.83459" lon="3.75355">
        <ele>213</ele>
        <time>2014-04-01T14:23:02Z</time>
      </trkpt>
      <trkpt lat="43.83462" lon="3.75349">
        <ele>212</ele>
        <time>2014-04-01T14:23:06Z</time>
      </trkpt>
      <trkpt lat="43.83467" lon="3.75343">
        <ele>211</ele>
        <time>2014-04-01T14:23:11Z</time>
      </trkpt>
      <trkpt lat="43.83472" lon="3.7534">
        <ele>210</ele>
        <time>2014-04-01T14:23:15Z</time>
      </trkpt>
      <trkpt lat="43.83477" lon="3.7534">
        <ele>209</ele>
        <time>2014-04-01T14:23:20Z</time>
      </trkpt>
      <trkpt lat="43.83481" lon="3.75336">
        <ele>209</ele>
        <time>2014-04-01T14:23:25Z</time>
      </trkpt>
      <trkpt lat="43.83483" lon="3.7533">
        <ele>209</ele>
        <time>2014-04-01T14:23:28Z</time>
      </trkpt>
      <trkpt lat="43.83485" lon="3.75323">
        <ele>209</ele>
        <time>2014-04-01T14:23:32Z</time>
      </trkpt>
      <trkpt lat="43.83487" lon="3.75315">
        <ele>210</ele>
        <time>2014-04-01T14:23:36Z</time>
      </trkpt>
      <trkpt lat="43.8349" lon="3.75309">
        <ele>211</ele>
        <time>2014-04-01T14:23:41Z</time>
      </trkpt>
      <trkpt lat="43.83494" lon="3.75304">
        <ele>211</ele>
        <time>2014-04-01T14:23:46Z</time>
      </trkpt>
      <trkpt lat="43.83498" lon="3.753">
        <ele>211</ele>
        <time>2014-04-01T14:23:49Z</time>
      </trkpt>
      <trkpt lat="43.83501" lon="3.75297">
        <ele>211</ele>
        <time>2014-04-01T14:23:53Z</time>
      </trkpt>
      <trkpt lat="43.83505" lon="3.75293">
        <ele>211</ele>
        <time>2014-04-01T14:23:58Z</time>
      </trkpt>
      <trkpt lat="43.8351" lon="3.75291">
        <ele>211</ele>
        <time>2014-04-01T14:24:03Z</time>
      </trkpt>
      <trkpt lat="43.83514" lon="3.75288">
        <ele>212</ele>
        <time>2014-04-01T14:24:09Z</time>
      </trkpt>
      <trkpt lat="43.83519" lon="3.75286">
        <ele>212</ele>
        <time>2014-04-01T14:24:13Z</time>
      </trkpt>
      <trkpt lat="43.83524" lon="3.75285">
        <ele>213</ele>
        <time>2014-04-01T14:24:17Z</time>
      </trkpt>
      <trkpt lat="43.83529" lon="3.75282">
        <ele>212</ele>
        <time>2014-04-01T14:24:21Z</time>
      </trkpt>
      <trkpt lat="43.83533" lon="3.75279">
        <ele>212</ele>
        <time>2014-04-01T14:24:26Z</time>
      </trkpt>
      <trkpt lat="43.83538" lon="3.75278">
        <ele>213</ele>
        <time>2014-04-01T14:24:31Z</time>
      </trkpt>
      <trkpt lat="43.83544" lon="3.75279">
        <ele>211</ele>
        <time>2014-04-01T14:24:43Z</time>
      </trkpt>
      <trkpt lat="43.83549" lon="3.75276">
        <ele>212</ele>
        <time>2014-04-01T14:24:46Z</time>
      </trkpt>
      <trkpt lat="43.83555" lon="3.75279">
        <ele>213</ele>
        <time>2014-04-01T14:24:49Z</time>
      </trkpt>
      <trkpt lat="43.8356" lon="3.75278">
        <ele>213</ele>
        <time>2014-04-01T14:24:52Z</time>
      </trkpt>
      <trkpt lat="43.83563" lon="3.75273">
        <ele>214</ele>
        <time>2014-04-01T14:24:55Z</time>
      </trkpt>
      <trkpt lat="43.83567" lon="3.75268">
        <ele>214</ele>
        <time>2014-04-01T14:24:59Z</time>
      </trkpt>
      <trkpt lat="43.83571" lon="3.75266">
        <ele>215</ele>
        <time>2014-04-01T14:25:03Z</time>
      </trkpt>
      <trkpt lat="43.83577" lon="3.75265">
        <ele>214</ele>
        <time>2014-04-01T14:25:07Z</time>
      </trkpt>
      <trkpt lat="43.8358" lon="3.75261">
        <ele>214</ele>
        <time>2014-04-01T14:25:10Z</time>
      </trkpt>
      <trkpt lat="43.83584" lon="3.75256">
        <ele>214</ele>
        <time>2014-04-01T14:25:14Z</time>
      </trkpt>
      <trkpt lat="43.83586" lon="3.7525">
        <ele>214</ele>
        <time>2014-04-01T14:25:18Z</time>
      </trkpt>
      <trkpt lat="43.83589" lon="3.75245">
        <ele>215</ele>
        <time>2014-04-01T14:25:23Z</time>
      </trkpt>
      <trkpt lat="43.83594" lon="3.7524">
        <ele>216</ele>
        <time>2014-04-01T14:25:27Z</time>
      </trkpt>
      <trkpt lat="43.83596" lon="3.75236">
        <ele>216</ele>
        <time>2014-04-01T14:25:36Z</time>
      </trkpt>
      <trkpt lat="43.83602" lon="3.75235">
        <ele>216</ele>
        <time>2014-04-01T14:25:43Z</time>
      </trkpt>
      <trkpt lat="43.83606" lon="3.75229">
        <ele>216</ele>
        <time>2014-04-01T14:25:47Z</time>
      </trkpt>
      <trkpt lat="43.83608" lon="3.75224">
        <ele>217</ele>
        <time>2014-04-01T14:25:50Z</time>
      </trkpt>
      <trkpt lat="43.8361" lon="3.75217">
        <ele>219</ele>
        <time>2014-04-01T14:25:54Z</time>
      </trkpt>
      <trkpt lat="43.83613" lon="3.75211">
        <ele>219</ele>
        <time>2014-04-01T14:25:58Z</time>
      </trkpt>
      <trkpt lat="43.83616" lon="3.75206">
        <ele>219</ele>
        <time>2014-04-01T14:26:02Z</time>
      </trkpt>
      <trkpt lat="43.8362" lon="3.75199">
        <ele>220</ele>
        <time>2014-04-01T14:26:06Z</time>
      </trkpt>
      <trkpt lat="43.83624" lon="3.75193">
        <ele>221</ele>
        <time>2014-04-01T14:26:11Z</time>
      </trkpt>
      <trkpt lat="43.83629" lon="3.75189">
        <ele>221</ele>
        <time>2014-04-01T14:26:15Z</time>
      </trkpt>
      <trkpt lat="43.83633" lon="3.75186">
        <ele>222</ele>
        <time>2014-04-01T14:26:20Z</time>
      </trkpt>
      <trkpt lat="43.83638" lon="3.7518">
        <ele>222</ele>
        <time>2014-04-01T14:26:24Z</time>
      </trkpt>
      <trkpt lat="43.83642" lon="3.75176">
        <ele>221</ele>
        <time>2014-04-01T14:26:28Z</time>
      </trkpt>
      <trkpt lat="43.83646" lon="3.75172">
        <ele>221</ele>
        <time>2014-04-01T14:26:32Z</time>
      </trkpt>
      <trkpt lat="43.83649" lon="3.75165">
        <ele>220</ele>
        <time>2014-04-01T14:26:36Z</time>
      </trkpt>
      <trkpt lat="43.83651" lon="3.75158">
        <ele>220</ele>
        <time>2014-04-01T14:26:40Z</time>
      </trkpt>
      <trkpt lat="43.83656" lon="3.75153">
        <ele>221</ele>
        <time>2014-04-01T14:26:44Z</time>
      </trkpt>
      <trkpt lat="43.83659" lon="3.75148">
        <ele>221</ele>
        <time>2014-04-01T14:26:49Z</time>
      </trkpt>
      <trkpt lat="43.83664" lon="3.75143">
        <ele>221</ele>
        <time>2014-04-01T14:26:53Z</time>
      </trkpt>
      <trkpt lat="43.83667" lon="3.75138">
        <ele>221</ele>
        <time>2014-04-01T14:26:57Z</time>
      </trkpt>
      <trkpt lat="43.83672" lon="3.75134">
        <ele>222</ele>
        <time>2014-04-01T14:27:02Z</time>
      </trkpt>
      <trkpt lat="43.83676" lon="3.75131">
        <ele>222</ele>
        <time>2014-04-01T14:27:05Z</time>
      </trkpt>
      <trkpt lat="43.8368" lon="3.75127">
        <ele>223</ele>
        <time>2014-04-01T14:27:10Z</time>
      </trkpt>
      <trkpt lat="43.83685" lon="3.75121">
        <ele>224</ele>
        <time>2014-04-01T14:27:15Z</time>
      </trkpt>
      <trkpt lat="43.83688" lon="3.75118">
        <ele>225</ele>
        <time>2014-04-01T14:27:18Z</time>
      </trkpt>
      <trkpt lat="43.83693" lon="3.75112">
        <ele>226</ele>
        <time>2014-04-01T14:27:21Z</time>
      </trkpt>
      <trkpt lat="43.83697" lon="3.75108">
        <ele>227</ele>
        <time>2014-04-01T14:27:25Z</time>
      </trkpt>
      <trkpt lat="43.83701" lon="3.75103">
        <ele>226</ele>
        <time>2014-04-01T14:27:30Z</time>
      </trkpt>
      <trkpt lat="43.83705" lon="3.751">
        <ele>227</ele>
        <time>2014-04-01T14:27:34Z</time>
      </trkpt>
      <trkpt lat="43.83709" lon="3.75096">
        <ele>226</ele>
        <time>2014-04-01T14:27:37Z</time>
      </trkpt>
      <trkpt lat="43.83712" lon="3.75091">
        <ele>226</ele>
        <time>2014-04-01T14:27:41Z</time>
      </trkpt>
      <trkpt lat="43.83714" lon="3.75084">
        <ele>225</ele>
        <time>2014-04-01T14:27:46Z</time>
      </trkpt>
      <trkpt lat="43.83715" lon="3.75077">
        <ele>225</ele>
        <time>2014-04-01T14:27:49Z</time>
      </trkpt>
      <trkpt lat="43.83718" lon="3.7507">
        <ele>225</ele>
        <time>2014-04-01T14:27:53Z</time>
      </trkpt>
      <trkpt lat="43.83722" lon="3.75065">
        <ele>226</ele>
        <time>2014-04-01T14:27:57Z</time>
      </trkpt>
      <trkpt lat="43.83725" lon="3.75061">
        <ele>227</ele>
        <time>2014-04-01T14:28:01Z</time>
      </trkpt>
      <trkpt lat="43.83729" lon="3.75056">
        <ele>227</ele>
        <time>2014-04-01T14:28:07Z</time>
      </trkpt>
      <trkpt lat="43.83734" lon="3.75052">
        <ele>227</ele>
        <time>2014-04-01T14:28:12Z</time>
      </trkpt>
      <trkpt lat="43.83737" lon="3.75048">
        <ele>226</ele>
        <time>2014-04-01T14:28:16Z</time>
      </trkpt>
      <trkpt lat="43.83741" lon="3.75044">
        <ele>226</ele>
        <time>2014-04-01T14:28:20Z</time>
      </trkpt>
      <trkpt lat="43.83746" lon="3.75041">
        <ele>226</ele>
        <time>2014-04-01T14:28:23Z</time>
      </trkpt>
      <trkpt lat="43.8375" lon="3.75038">
        <ele>226</ele>
        <time>2014-04-01T14:28:27Z</time>
      </trkpt>
      <trkpt lat="43.83754" lon="3.75034">
        <ele>225</ele>
        <time>2014-04-01T14:28:32Z</time>
      </trkpt>
      <trkpt lat="43.83758" lon="3.75028">
        <ele>225</ele>
        <time>2014-04-01T14:28:38Z</time>
      </trkpt>
      <trkpt lat="43.83762" lon="3.75023">
        <ele>224</ele>
        <time>2014-04-01T14:28:43Z</time>
      </trkpt>
      <trkpt lat="43.83767" lon="3.7502">
        <ele>224</ele>
        <time>2014-04-01T14:28:47Z</time>
      </trkpt>
      <trkpt lat="43.83771" lon="3.75017">
        <ele>225</ele>
        <time>2014-04-01T14:28:50Z</time>
      </trkpt>
      <trkpt lat="43.83775" lon="3.75013">
        <ele>224</ele>
        <time>2014-04-01T14:28:57Z</time>
      </trkpt>
      <trkpt lat="43.83779" lon="3.75007">
        <ele>224</ele>
        <time>2014-04-01T14:29:02Z</time>
      </trkpt>
      <trkpt lat="43.83781" lon="3.75001">
        <ele>225</ele>
        <time>2014-04-01T14:29:06Z</time>
      </trkpt>
      <trkpt lat="43.83784" lon="3.74996">
        <ele>226</ele>
        <time>2014-04-01T14:29:11Z</time>
      </trkpt>
      <trkpt lat="43.83785" lon="3.74988">
        <ele>225</ele>
        <time>2014-04-01T14:29:15Z</time>
      </trkpt>
      <trkpt lat="43.83789" lon="3.74983">
        <ele>225</ele>
        <time>2014-04-01T14:29:19Z</time>
      </trkpt>
      <trkpt lat="43.83792" lon="3.74978">
        <ele>225</ele>
        <time>2014-04-01T14:29:23Z</time>
      </trkpt>
      <trkpt lat="43.83797" lon="3.74973">
        <ele>226</ele>
        <time>2014-04-01T14:29:26Z</time>
      </trkpt>
      <trkpt lat="43.83801" lon="3.7497">
        <ele>227</ele>
        <time>2014-04-01T14:29:29Z</time>
      </trkpt>
      <trkpt lat="43.83805" lon="3.74967">
        <ele>228</ele>
        <time>2014-04-01T14:29:36Z</time>
      </trkpt>
      <trkpt lat="43.83807" lon="3.74959">
        <ele>229</ele>
        <time>2014-04-01T14:29:40Z</time>
      </trkpt>
      <trkpt lat="43.83809" lon="3.74952">
        <ele>229</ele>
        <time>2014-04-01T14:29:44Z</time>
      </trkpt>
      <trkpt lat="43.83811" lon="3.74946">
        <ele>229</ele>
        <time>2014-04-01T14:29:47Z</time>
      </trkpt>
      <trkpt lat="43.83815" lon="3.74937">
        <ele>229</ele>
        <time>2014-04-01T14:29:50Z</time>
      </trkpt>
      <trkpt lat="43.83818" lon="3.74933">
        <ele>231</ele>
        <time>2014-04-01T14:29:53Z</time>
      </trkpt>
      <trkpt lat="43.8382" lon="3.74926">
        <ele>231</ele>
        <time>2014-04-01T14:29:58Z</time>
      </trkpt>
      <trkpt lat="43.83823" lon="3.74921">
        <ele>232</ele>
        <time>2014-04-01T14:30:02Z</time>
      </trkpt>
      <trkpt lat="43.83827" lon="3.74917">
        <ele>233</ele>
        <time>2014-04-01T14:30:06Z</time>
      </trkpt>
      <trkpt lat="43.8383" lon="3.74912">
        <ele>234</ele>
        <time>2014-04-01T14:30:10Z</time>
      </trkpt>
      <trkpt lat="43.83834" lon="3.74907">
        <ele>234</ele>
        <time>2014-04-01T14:30:16Z</time>
      </trkpt>
      <trkpt lat="43.83838" lon="3.74903">
        <ele>234</ele>
        <time>2014-04-01T14:30:20Z</time>
      </trkpt>
      <trkpt lat="43.83841" lon="3.74897">
        <ele>234</ele>
        <time>2014-04-01T14:30:24Z</time>
      </trkpt>
      <trkpt lat="43.83844" lon="3.7489">
        <ele>234</ele>
        <time>2014-04-01T14:30:28Z</time>
      </trkpt>
      <trkpt lat="43.83847" lon="3.74883">
        <ele>235</ele>
        <time>2014-04-01T14:30:32Z</time>
      </trkpt>
      <trkpt lat="43.83849" lon="3.74877">
        <ele>235</ele>
        <time>2014-04-01T14:30:36Z</time>
      </trkpt>
      <trkpt lat="43.83854" lon="3.74873">
        <ele>236</ele>
        <time>2014-04-01T14:30:40Z</time>
      </trkpt>
      <trkpt lat="43.83857" lon="3.74868">
        <ele>236</ele>
        <time>2014-04-01T14:30:45Z</time>
      </trkpt>
      <trkpt lat="43.83859" lon="3.7487">
        <ele>234</ele>
        <time>2014-04-01T14:31:00Z</time>
      </trkpt>
      <trkpt lat="43.83862" lon="3.74865">
        <ele>233</ele>
        <time>2014-04-01T14:31:04Z</time>
      </trkpt>
      <trkpt lat="43.83865" lon="3.7486">
        <ele>233</ele>
        <time>2014-04-01T14:31:08Z</time>
      </trkpt>
      <trkpt lat="43.83867" lon="3.74854">
        <ele>234</ele>
        <time>2014-04-01T14:31:12Z</time>
      </trkpt>
      <trkpt lat="43.8387" lon="3.74847">
        <ele>234</ele>
        <time>2014-04-01T14:31:16Z</time>
      </trkpt>
      <trkpt lat="43.83874" lon="3.74841">
        <ele>234</ele>
        <time>2014-04-01T14:31:20Z</time>
      </trkpt>
      <trkpt lat="43.83877" lon="3.74835">
        <ele>234</ele>
        <time>2014-04-01T14:31:25Z</time>
      </trkpt>
      <trkpt lat="43.83881" lon="3.74831">
        <ele>235</ele>
        <time>2014-04-01T14:31:29Z</time>
      </trkpt>
      <trkpt lat="43.83885" lon="3.74827">
        <ele>234</ele>
        <time>2014-04-01T14:31:34Z</time>
      </trkpt>
      <trkpt lat="43.83888" lon="3.74822">
        <ele>234</ele>
        <time>2014-04-01T14:31:39Z</time>
      </trkpt>
      <trkpt lat="43.83892" lon="3.74818">
        <ele>233</ele>
        <time>2014-04-01T14:31:43Z</time>
      </trkpt>
      <trkpt lat="43.83896" lon="3.74814">
        <ele>234</ele>
        <time>2014-04-01T14:31:47Z</time>
      </trkpt>
      <trkpt lat="43.83899" lon="3.74808">
        <ele>234</ele>
        <time>2014-04-01T14:31:52Z</time>
      </trkpt>
      <trkpt lat="43.83903" lon="3.74803">
        <ele>235</ele>
        <time>2014-04-01T14:31:57Z</time>
      </trkpt>
      <trkpt lat="43.83906" lon="3.74798">
        <ele>235</ele>
        <time>2014-04-01T14:32:02Z</time>
      </trkpt>
      <trkpt lat="43.83911" lon="3.74794">
        <ele>236</ele>
        <time>2014-04-01T14:32:06Z</time>
      </trkpt>
      <trkpt lat="43.83915" lon="3.74791">
        <ele>236</ele>
        <time>2014-04-01T14:32:10Z</time>
      </trkpt>
      <trkpt lat="43.83918" lon="3.74785">
        <ele>236</ele>
        <time>2014-04-01T14:32:14Z</time>
      </trkpt>
      <trkpt lat="43.83917" lon="3.74778">
        <ele>235</ele>
        <time>2014-04-01T14:32:19Z</time>
      </trkpt>
      <trkpt lat="43.83917" lon="3.74774">
        <ele>233</ele>
        <time>2014-04-01T14:32:26Z</time>
      </trkpt>
      <trkpt lat="43.83922" lon="3.74779">
        <ele>232</ele>
        <time>2014-04-01T14:32:41Z</time>
      </trkpt>
      <trkpt lat="43.83925" lon="3.74782">
        <ele>230</ele>
        <time>2014-04-01T14:32:54Z</time>
      </trkpt>
      <trkpt lat="43.83922" lon="3.74782">
        <ele>235</ele>
        <time>2014-04-01T14:33:43Z</time>
      </trkpt>
      <trkpt lat="43.83922" lon="3.74785">
        <ele>236</ele>
        <time>2014-04-01T14:34:10Z</time>
      </trkpt>
      <trkpt lat="43.83926" lon="3.74791">
        <ele>236</ele>
        <time>2014-04-01T14:34:15Z</time>
      </trkpt>
      <trkpt lat="43.83929" lon="3.74784">
        <ele>236</ele>
        <time>2014-04-01T14:34:49Z</time>
      </trkpt>
      <trkpt lat="43.83928" lon="3.74778">
        <ele>235</ele>
        <time>2014-04-01T14:35:24Z</time>
      </trkpt>
      <trkpt lat="43.83926" lon="3.74782">
        <ele>235</ele>
        <time>2014-04-01T14:36:42Z</time>
      </trkpt>
      <trkpt lat="43.83923" lon="3.74775">
        <ele>235</ele>
        <time>2014-04-01T14:36:50Z</time>
      </trkpt>
      <trkpt lat="43.83927" lon="3.74771">
        <ele>235</ele>
        <time>2014-04-01T14:36:57Z</time>
      </trkpt>
      <trkpt lat="43.83931" lon="3.74767">
        <ele>236</ele>
        <time>2014-04-01T14:37:03Z</time>
      </trkpt>
      <trkpt lat="43.83935" lon="3.74761">
        <ele>237</ele>
        <time>2014-04-01T14:37:08Z</time>
      </trkpt>
      <trkpt lat="43.83939" lon="3.74758">
        <ele>238</ele>
        <time>2014-04-01T14:37:14Z</time>
      </trkpt>
      <trkpt lat="43.83943" lon="3.74753">
        <ele>238</ele>
        <time>2014-04-01T14:37:18Z</time>
      </trkpt>
      <trkpt lat="43.83945" lon="3.74748">
        <ele>239</ele>
        <time>2014-04-01T14:37:21Z</time>
      </trkpt>
      <trkpt lat="43.83948" lon="3.74742">
        <ele>239</ele>
        <time>2014-04-01T14:37:25Z</time>
      </trkpt>
      <trkpt lat="43.83951" lon="3.74737">
        <ele>240</ele>
        <time>2014-04-01T14:37:29Z</time>
      </trkpt>
      <trkpt lat="43.83954" lon="3.74732">
        <ele>242</ele>
        <time>2014-04-01T14:37:33Z</time>
      </trkpt>
      <trkpt lat="43.83958" lon="3.74728">
        <ele>242</ele>
        <time>2014-04-01T14:37:36Z</time>
      </trkpt>
      <trkpt lat="43.83961" lon="3.74723">
        <ele>244</ele>
        <time>2014-04-01T14:37:40Z</time>
      </trkpt>
      <trkpt lat="43.83964" lon="3.74717">
        <ele>244</ele>
        <time>2014-04-01T14:37:45Z</time>
      </trkpt>
      <trkpt lat="43.83968" lon="3.74711">
        <ele>244</ele>
        <time>2014-04-01T14:37:50Z</time>
      </trkpt>
      <trkpt lat="43.83972" lon="3.74708">
        <ele>243</ele>
        <time>2014-04-01T14:37:55Z</time>
      </trkpt>
      <trkpt lat="43.83977" lon="3.74704">
        <ele>242</ele>
        <time>2014-04-01T14:38:01Z</time>
      </trkpt>
      <trkpt lat="43.83982" lon="3.74701">
        <ele>242</ele>
        <time>2014-04-01T14:38:05Z</time>
      </trkpt>
      <trkpt lat="43.83983" lon="3.74695">
        <ele>242</ele>
        <time>2014-04-01T14:38:10Z</time>
      </trkpt>
      <trkpt lat="43.83987" lon="3.74691">
        <ele>242</ele>
        <time>2014-04-01T14:38:15Z</time>
      </trkpt>
      <trkpt lat="43.83991" lon="3.74694">
        <ele>242</ele>
        <time>2014-04-01T14:38:27Z</time>
      </trkpt>
      <trkpt lat="43.83992" lon="3.74687">
        <ele>241</ele>
        <time>2014-04-01T14:38:30Z</time>
      </trkpt>
      <trkpt lat="43.83994" lon="3.74681">
        <ele>240</ele>
        <time>2014-04-01T14:38:34Z</time>
      </trkpt>
      <trkpt lat="43.83997" lon="3.74675">
        <ele>240</ele>
        <time>2014-04-01T14:38:38Z</time>
      </trkpt>
      <trkpt lat="43.84001" lon="3.74669">
        <ele>240</ele>
        <time>2014-04-01T14:38:42Z</time>
      </trkpt>
      <trkpt lat="43.84005" lon="3.74664">
        <ele>241</ele>
        <time>2014-04-01T14:38:46Z</time>
      </trkpt>
      <trkpt lat="43.84008" lon="3.74659">
        <ele>240</ele>
        <time>2014-04-01T14:38:50Z</time>
      </trkpt>
      <trkpt lat="43.84009" lon="3.74653">
        <ele>240</ele>
        <time>2014-04-01T14:38:55Z</time>
      </trkpt>
      <trkpt lat="43.84014" lon="3.74649">
        <ele>242</ele>
        <time>2014-04-01T14:39:01Z</time>
      </trkpt>
      <trkpt lat="43.84018" lon="3.74643">
        <ele>242</ele>
        <time>2014-04-01T14:39:05Z</time>
      </trkpt>
      <trkpt lat="43.84021" lon="3.74638">
        <ele>243</ele>
        <time>2014-04-01T14:39:09Z</time>
      </trkpt>
      <trkpt lat="43.84023" lon="3.74632">
        <ele>243</ele>
        <time>2014-04-01T14:39:13Z</time>
      </trkpt>
      <trkpt lat="43.84027" lon="3.74627">
        <ele>244</ele>
        <time>2014-04-01T14:39:18Z</time>
      </trkpt>
      <trkpt lat="43.84031" lon="3.74625">
        <ele>244</ele>
        <time>2014-04-01T14:39:22Z</time>
      </trkpt>
      <trkpt lat="43.84037" lon="3.74625">
        <ele>245</ele>
        <time>2014-04-01T14:39:26Z</time>
      </trkpt>
      <trkpt lat="43.84042" lon="3.74624">
        <ele>245</ele>
        <time>2014-04-01T14:39:30Z</time>
      </trkpt>
      <trkpt lat="43.84046" lon="3.74622">
        <ele>246</ele>
        <time>2014-04-01T14:39:34Z</time>
      </trkpt>
      <trkpt lat="43.8405" lon="3.7462">
        <ele>248</ele>
        <time>2014-04-01T14:39:42Z</time>
      </trkpt>
      <trkpt lat="43.84055" lon="3.74622">
        <ele>249</ele>
        <time>2014-04-01T14:39:47Z</time>
      </trkpt>
      <trkpt lat="43.84061" lon="3.74623">
        <ele>250</ele>
        <time>2014-04-01T14:39:51Z</time>
      </trkpt>
      <trkpt lat="43.84063" lon="3.74622">
        <ele>250</ele>
        <time>2014-04-01T14:40:01Z</time>
      </trkpt>
      <trkpt lat="43.84063" lon="3.74614">
        <ele>250</ele>
        <time>2014-04-01T14:40:07Z</time>
      </trkpt>
      <trkpt lat="43.84063" lon="3.74606">
        <ele>250</ele>
        <time>2014-04-01T14:40:11Z</time>
      </trkpt>
      <trkpt lat="43.84065" lon="3.746">
        <ele>249</ele>
        <time>2014-04-01T14:40:15Z</time>
      </trkpt>
      <trkpt lat="43.84061" lon="3.74597">
        <ele>249</ele>
        <time>2014-04-01T14:40:24Z</time>
      </trkpt>
      <trkpt lat="43.8406" lon="3.74602">
        <ele>247</ele>
        <time>2014-04-01T14:40:36Z</time>
      </trkpt>
      <trkpt lat="43.8406" lon="3.74609">
        <ele>246</ele>
        <time>2014-04-01T14:40:45Z</time>
      </trkpt>
      <trkpt lat="43.84062" lon="3.74617">
        <ele>246</ele>
        <time>2014-04-01T14:40:51Z</time>
      </trkpt>
      <trkpt lat="43.84064" lon="3.74619">
        <ele>246</ele>
        <time>2014-04-01T14:40:57Z</time>
      </trkpt>
      <trkpt lat="43.84069" lon="3.74617">
        <ele>246</ele>
        <time>2014-04-01T14:41:02Z</time>
      </trkpt>
      <trkpt lat="43.84073" lon="3.74621">
        <ele>245</ele>
        <time>2014-04-01T14:41:07Z</time>
      </trkpt>
      <trkpt lat="43.84075" lon="3.74628">
        <ele>246</ele>
        <time>2014-04-01T14:41:13Z</time>
      </trkpt>
      <trkpt lat="43.84078" lon="3.74632">
        <ele>247</ele>
        <time>2014-04-01T14:41:18Z</time>
      </trkpt>
      <trkpt lat="43.84083" lon="3.74636">
        <ele>247</ele>
        <time>2014-04-01T14:41:23Z</time>
      </trkpt>
      <trkpt lat="43.84088" lon="3.74632">
        <ele>250</ele>
        <time>2014-04-01T14:41:36Z</time>
      </trkpt>
      <trkpt lat="43.84095" lon="3.7463">
        <ele>250</ele>
        <time>2014-04-01T14:41:40Z</time>
      </trkpt>
      <trkpt lat="43.84099" lon="3.74626">
        <ele>249</ele>
        <time>2014-04-01T14:41:46Z</time>
      </trkpt>
      <trkpt lat="43.84103" lon="3.74625">
        <ele>248</ele>
        <time>2014-04-01T14:41:52Z</time>
      </trkpt>
      <trkpt lat="43.84108" lon="3.74626">
        <ele>247</ele>
        <time>2014-04-01T14:42:00Z</time>
      </trkpt>
      <trkpt lat="43.84113" lon="3.74629">
        <ele>247</ele>
        <time>2014-04-01T14:42:04Z</time>
      </trkpt>
      <trkpt lat="43.84118" lon="3.7463">
        <ele>248</ele>
        <time>2014-04-01T14:42:08Z</time>
      </trkpt>
      <trkpt lat="43.84123" lon="3.7463">
        <ele>248</ele>
        <time>2014-04-01T14:42:11Z</time>
      </trkpt>
      <trkpt lat="43.84129" lon="3.74628">
        <ele>248</ele>
        <time>2014-04-01T14:42:16Z</time>
      </trkpt>
      <trkpt lat="43.84133" lon="3.74628">
        <ele>249</ele>
        <time>2014-04-01T14:42:20Z</time>
      </trkpt>
      <trkpt lat="43.84139" lon="3.74628">
        <ele>250</ele>
        <time>2014-04-01T14:42:25Z</time>
      </trkpt>
      <trkpt lat="43.84143" lon="3.74631">
        <ele>251</ele>
        <time>2014-04-01T14:42:29Z</time>
      </trkpt>
      <trkpt lat="43.84148" lon="3.74632">
        <ele>251</ele>
        <time>2014-04-01T14:42:34Z</time>
      </trkpt>
      <trkpt lat="43.84153" lon="3.74633">
        <ele>251</ele>
        <time>2014-04-01T14:42:39Z</time>
      </trkpt>
      <trkpt lat="43.84158" lon="3.74633">
        <ele>251</ele>
        <time>2014-04-01T14:42:45Z</time>
      </trkpt>
      <trkpt lat="43.84163" lon="3.74632">
        <ele>251</ele>
        <time>2014-04-01T14:42:49Z</time>
      </trkpt>
      <trkpt lat="43.84168" lon="3.7463">
        <ele>251</ele>
        <time>2014-04-01T14:42:52Z</time>
      </trkpt>
      <trkpt lat="43.84172" lon="3.7463">
        <ele>251</ele>
        <time>2014-04-01T14:42:55Z</time>
      </trkpt>
      <trkpt lat="43.84178" lon="3.7463">
        <ele>251</ele>
        <time>2014-04-01T14:43:01Z</time>
      </trkpt>
      <trkpt lat="43.84181" lon="3.74634">
        <ele>248</ele>
        <time>2014-04-01T14:43:09Z</time>
      </trkpt>
      <trkpt lat="43.84186" lon="3.74633">
        <ele>247</ele>
        <time>2014-04-01T14:43:13Z</time>
      </trkpt>
      <trkpt lat="43.84191" lon="3.74631">
        <ele>247</ele>
        <time>2014-04-01T14:43:17Z</time>
      </trkpt>
      <trkpt lat="43.84196" lon="3.74629">
        <ele>247</ele>
        <time>2014-04-01T14:43:21Z</time>
      </trkpt>
      <trkpt lat="43.84201" lon="3.74628">
        <ele>247</ele>
        <time>2014-04-01T14:43:25Z</time>
      </trkpt>
      <trkpt lat="43.84206" lon="3.74629">
        <ele>247</ele>
        <time>2014-04-01T14:43:29Z</time>
      </trkpt>
      <trkpt lat="43.84211" lon="3.74628">
        <ele>248</ele>
        <time>2014-04-01T14:43:33Z</time>
      </trkpt>
      <trkpt lat="43.84217" lon="3.74627">
        <ele>251</ele>
        <time>2014-04-01T14:43:37Z</time>
      </trkpt>
      <trkpt lat="43.84222" lon="3.74627">
        <ele>253</ele>
        <time>2014-04-01T14:43:40Z</time>
      </trkpt>
      <trkpt lat="43.84228" lon="3.74626">
        <ele>255</ele>
        <time>2014-04-01T14:43:44Z</time>
      </trkpt>
      <trkpt lat="43.84233" lon="3.74625">
        <ele>257</ele>
        <time>2014-04-01T14:43:48Z</time>
      </trkpt>
      <trkpt lat="43.84238" lon="3.74624">
        <ele>257</ele>
        <time>2014-04-01T14:43:51Z</time>
      </trkpt>
      <trkpt lat="43.84243" lon="3.74624">
        <ele>258</ele>
        <time>2014-04-01T14:43:55Z</time>
      </trkpt>
      <trkpt lat="43.84245" lon="3.74622">
        <ele>258</ele>
        <time>2014-04-01T14:44:00Z</time>
      </trkpt>
      <trkpt lat="43.84249" lon="3.74619">
        <ele>259</ele>
        <time>2014-04-01T14:44:05Z</time>
      </trkpt>
      <trkpt lat="43.84254" lon="3.74615">
        <ele>261</ele>
        <time>2014-04-01T14:44:09Z</time>
      </trkpt>
      <trkpt lat="43.84258" lon="3.74611">
        <ele>262</ele>
        <time>2014-04-01T14:44:14Z</time>
      </trkpt>
      <trkpt lat="43.84265" lon="3.74607">
        <ele>261</ele>
        <time>2014-04-01T14:44:24Z</time>
      </trkpt>
      <trkpt lat="43.8427" lon="3.74603">
        <ele>261</ele>
        <time>2014-04-01T14:44:28Z</time>
      </trkpt>
      <trkpt lat="43.84274" lon="3.746">
        <ele>261</ele>
        <time>2014-04-01T14:44:32Z</time>
      </trkpt>
      <trkpt lat="43.84278" lon="3.74597">
        <ele>262</ele>
        <time>2014-04-01T14:44:36Z</time>
      </trkpt>
      <trkpt lat="43.8428" lon="3.74591">
        <ele>261</ele>
        <time>2014-04-01T14:44:40Z</time>
      </trkpt>
      <trkpt lat="43.84285" lon="3.74586">
        <ele>260</ele>
        <time>2014-04-01T14:44:45Z</time>
      </trkpt>
      <trkpt lat="43.8429" lon="3.74582">
        <ele>260</ele>
        <time>2014-04-01T14:44:49Z</time>
      </trkpt>
      <trkpt lat="43.84296" lon="3.74581">
        <ele>260</ele>
        <time>2014-04-01T14:44:52Z</time>
      </trkpt>
      <trkpt lat="43.84302" lon="3.74579">
        <ele>262</ele>
        <time>2014-04-01T14:44:55Z</time>
      </trkpt>
      <trkpt lat="43.84306" lon="3.74576">
        <ele>262</ele>
        <time>2014-04-01T14:44:59Z</time>
      </trkpt>
      <trkpt lat="43.84309" lon="3.74571">
        <ele>262</ele>
        <time>2014-04-01T14:45:04Z</time>
      </trkpt>
      <trkpt lat="43.84312" lon="3.74565">
        <ele>262</ele>
        <time>2014-04-01T14:45:08Z</time>
      </trkpt>
      <trkpt lat="43.84315" lon="3.7456">
        <ele>263</ele>
        <time>2014-04-01T14:45:12Z</time>
      </trkpt>
      <trkpt lat="43.84319" lon="3.74555">
        <ele>262</ele>
        <time>2014-04-01T14:45:17Z</time>
      </trkpt>
      <trkpt lat="43.84323" lon="3.74554">
        <ele>263</ele>
        <time>2014-04-01T14:45:21Z</time>
      </trkpt>
      <trkpt lat="43.84328" lon="3.7455">
        <ele>263</ele>
        <time>2014-04-01T14:45:26Z</time>
      </trkpt>
      <trkpt lat="43.84331" lon="3.74546">
        <ele>264</ele>
        <time>2014-04-01T14:45:30Z</time>
      </trkpt>
      <trkpt lat="43.84336" lon="3.74543">
        <ele>264</ele>
        <time>2014-04-01T14:45:35Z</time>
      </trkpt>
      <trkpt lat="43.8434" lon="3.74541">
        <ele>263</ele>
        <time>2014-04-01T14:45:40Z</time>
      </trkpt>
      <trkpt lat="43.84345" lon="3.74539">
        <ele>262</ele>
        <time>2014-04-01T14:45:44Z</time>
      </trkpt>
      <trkpt lat="43.84351" lon="3.74539">
        <ele>260</ele>
        <time>2014-04-01T14:45:51Z</time>
      </trkpt>
      <trkpt lat="43.84355" lon="3.74538">
        <ele>260</ele>
        <time>2014-04-01T14:45:54Z</time>
      </trkpt>
      <trkpt lat="43.8436" lon="3.74538">
        <ele>260</ele>
        <time>2014-04-01T14:45:57Z</time>
      </trkpt>
      <trkpt lat="43.84365" lon="3.74537">
        <ele>261</ele>
        <time>2014-04-01T14:46:01Z</time>
      </trkpt>
      <trkpt lat="43.84371" lon="3.74536">
        <ele>261</ele>
        <time>2014-04-01T14:46:06Z</time>
      </trkpt>
      <trkpt lat="43.84377" lon="3.74536">
        <ele>262</ele>
        <time>2014-04-01T14:46:10Z</time>
      </trkpt>
      <trkpt lat="43.84382" lon="3.74537">
        <ele>262</ele>
        <time>2014-04-01T14:46:14Z</time>
      </trkpt>
      <trkpt lat="43.84387" lon="3.74537">
        <ele>262</ele>
        <time>2014-04-01T14:46:18Z</time>
      </trkpt>
      <trkpt lat="43.84392" lon="3.74535">
        <ele>263</ele>
        <time>2014-04-01T14:46:22Z</time>
      </trkpt>
      <trkpt lat="43.84397" lon="3.74533">
        <ele>264</ele>
        <time>2014-04-01T14:46:26Z</time>
      </trkpt>
      <trkpt lat="43.84401" lon="3.74529">
        <ele>263</ele>
        <time>2014-04-01T14:46:32Z</time>
      </trkpt>
      <trkpt lat="43.84405" lon="3.74527">
        <ele>262</ele>
        <time>2014-04-01T14:46:37Z</time>
      </trkpt>
      <trkpt lat="43.84409" lon="3.74521">
        <ele>262</ele>
        <time>2014-04-01T14:46:41Z</time>
      </trkpt>
      <trkpt lat="43.84411" lon="3.74515">
        <ele>263</ele>
        <time>2014-04-01T14:46:44Z</time>
      </trkpt>
      <trkpt lat="43.84414" lon="3.7451">
        <ele>263</ele>
        <time>2014-04-01T14:46:47Z</time>
      </trkpt>
      <trkpt lat="43.84419" lon="3.74506">
        <ele>262</ele>
        <time>2014-04-01T14:46:53Z</time>
      </trkpt>
      <trkpt lat="43.84423" lon="3.74504">
        <ele>262</ele>
        <time>2014-04-01T14:46:57Z</time>
      </trkpt>
      <trkpt lat="43.84428" lon="3.74502">
        <ele>263</ele>
        <time>2014-04-01T14:47:00Z</time>
      </trkpt>
      <trkpt lat="43.84433" lon="3.74497">
        <ele>263</ele>
        <time>2014-04-01T14:47:04Z</time>
      </trkpt>
      <trkpt lat="43.84437" lon="3.74497">
        <ele>264</ele>
        <time>2014-04-01T14:47:07Z</time>
      </trkpt>
      <trkpt lat="43.84442" lon="3.74495">
        <ele>264</ele>
        <time>2014-04-01T14:47:10Z</time>
      </trkpt>
      <trkpt lat="43.84447" lon="3.74494">
        <ele>264</ele>
        <time>2014-04-01T14:47:13Z</time>
      </trkpt>
      <trkpt lat="43.84451" lon="3.74495">
        <ele>263</ele>
        <time>2014-04-01T14:47:17Z</time>
      </trkpt>
      <trkpt lat="43.84454" lon="3.74488">
        <ele>263</ele>
        <time>2014-04-01T14:47:22Z</time>
      </trkpt>
      <trkpt lat="43.84457" lon="3.74484">
        <ele>262</ele>
        <time>2014-04-01T14:47:32Z</time>
      </trkpt>
      <trkpt lat="43.84463" lon="3.74483">
        <ele>262</ele>
        <time>2014-04-01T14:47:36Z</time>
      </trkpt>
      <trkpt lat="43.84469" lon="3.74482">
        <ele>261</ele>
        <time>2014-04-01T14:47:39Z</time>
      </trkpt>
      <trkpt lat="43.84474" lon="3.7448">
        <ele>260</ele>
        <time>2014-04-01T14:47:43Z</time>
      </trkpt>
      <trkpt lat="43.84478" lon="3.74474">
        <ele>260</ele>
        <time>2014-04-01T14:47:51Z</time>
      </trkpt>
      <trkpt lat="43.84482" lon="3.74468">
        <ele>260</ele>
        <time>2014-04-01T14:47:54Z</time>
      </trkpt>
      <trkpt lat="43.84486" lon="3.74462">
        <ele>260</ele>
        <time>2014-04-01T14:47:57Z</time>
      </trkpt>
      <trkpt lat="43.8449" lon="3.7446">
        <ele>261</ele>
        <time>2014-04-01T14:48:03Z</time>
      </trkpt>
      <trkpt lat="43.84495" lon="3.74458">
        <ele>262</ele>
        <time>2014-04-01T14:48:07Z</time>
      </trkpt>
      <trkpt lat="43.84499" lon="3.74455">
        <ele>262</ele>
        <time>2014-04-01T14:48:10Z</time>
      </trkpt>
      <trkpt lat="43.84504" lon="3.74452">
        <ele>262</ele>
        <time>2014-04-01T14:48:15Z</time>
      </trkpt>
      <trkpt lat="43.84508" lon="3.74448">
        <ele>261</ele>
        <time>2014-04-01T14:48:19Z</time>
      </trkpt>
      <trkpt lat="43.84512" lon="3.74443">
        <ele>262</ele>
        <time>2014-04-01T14:48:23Z</time>
      </trkpt>
      <trkpt lat="43.84515" lon="3.74439">
        <ele>262</ele>
        <time>2014-04-01T14:48:27Z</time>
      </trkpt>
      <trkpt lat="43.84519" lon="3.74434">
        <ele>263</ele>
        <time>2014-04-01T14:48:34Z</time>
      </trkpt>
      <trkpt lat="43.84524" lon="3.74434">
        <ele>263</ele>
        <time>2014-04-01T14:48:41Z</time>
      </trkpt>
      <trkpt lat="43.84528" lon="3.74428">
        <ele>262</ele>
        <time>2014-04-01T14:48:45Z</time>
      </trkpt>
      <trkpt lat="43.84528" lon="3.74421">
        <ele>261</ele>
        <time>2014-04-01T14:48:51Z</time>
      </trkpt>
      <trkpt lat="43.84532" lon="3.74416">
        <ele>261</ele>
        <time>2014-04-01T14:48:58Z</time>
      </trkpt>
      <trkpt lat="43.84536" lon="3.74412">
        <ele>261</ele>
        <time>2014-04-01T14:49:01Z</time>
      </trkpt>
      <trkpt lat="43.84541" lon="3.74406">
        <ele>261</ele>
        <time>2014-04-01T14:49:05Z</time>
      </trkpt>
      <trkpt lat="43.84545" lon="3.74403">
        <ele>263</ele>
        <time>2014-04-01T14:49:08Z</time>
      </trkpt>
      <trkpt lat="43.8455" lon="3.74402">
        <ele>264</ele>
        <time>2014-04-01T14:49:11Z</time>
      </trkpt>
      <trkpt lat="43.84555" lon="3.74401">
        <ele>265</ele>
        <time>2014-04-01T14:49:14Z</time>
      </trkpt>
      <trkpt lat="43.84558" lon="3.74401">
        <ele>266</ele>
        <time>2014-04-01T14:49:21Z</time>
      </trkpt>
      <trkpt lat="43.84562" lon="3.74401">
        <ele>266</ele>
        <time>2014-04-01T14:49:27Z</time>
      </trkpt>
      <trkpt lat="43.84566" lon="3.74396">
        <ele>265</ele>
        <time>2014-04-01T14:49:32Z</time>
      </trkpt>
      <trkpt lat="43.84571" lon="3.74394">
        <ele>265</ele>
        <time>2014-04-01T14:49:37Z</time>
      </trkpt>
      <trkpt lat="43.84575" lon="3.74393">
        <ele>266</ele>
        <time>2014-04-01T14:49:40Z</time>
      </trkpt>
      <trkpt lat="43.8458" lon="3.74392">
        <ele>266</ele>
        <time>2014-04-01T14:49:44Z</time>
      </trkpt>
      <trkpt lat="43.84585" lon="3.74389">
        <ele>267</ele>
        <time>2014-04-01T14:49:49Z</time>
      </trkpt>
      <trkpt lat="43.84589" lon="3.74387">
        <ele>268</ele>
        <time>2014-04-01T14:49:53Z</time>
      </trkpt>
      <trkpt lat="43.84593" lon="3.74384">
        <ele>269</ele>
        <time>2014-04-01T14:49:57Z</time>
      </trkpt>
      <trkpt lat="43.84598" lon="3.74383">
        <ele>270</ele>
        <time>2014-04-01T14:50:01Z</time>
      </trkpt>
      <trkpt lat="43.84603" lon="3.74381">
        <ele>270</ele>
        <time>2014-04-01T14:50:05Z</time>
      </trkpt>
      <trkpt lat="43.84607" lon="3.74375">
        <ele>271</ele>
        <time>2014-04-01T14:50:10Z</time>
      </trkpt>
      <trkpt lat="43.84611" lon="3.7437">
        <ele>271</ele>
        <time>2014-04-01T14:50:14Z</time>
      </trkpt>
      <trkpt lat="43.84616" lon="3.74368">
        <ele>270</ele>
        <time>2014-04-01T14:50:19Z</time>
      </trkpt>
      <trkpt lat="43.8462" lon="3.74366">
        <ele>270</ele>
        <time>2014-04-01T14:50:23Z</time>
      </trkpt>
      <trkpt lat="43.84625" lon="3.74364">
        <ele>270</ele>
        <time>2014-04-01T14:50:29Z</time>
      </trkpt>
      <trkpt lat="43.8463" lon="3.74363">
        <ele>270</ele>
        <time>2014-04-01T14:50:33Z</time>
      </trkpt>
      <trkpt lat="43.84635" lon="3.7436">
        <ele>270</ele>
        <time>2014-04-01T14:50:37Z</time>
      </trkpt>
      <trkpt lat="43.84639" lon="3.74358">
        <ele>271</ele>
        <time>2014-04-01T14:50:41Z</time>
      </trkpt>
      <trkpt lat="43.84644" lon="3.74359">
        <ele>271</ele>
        <time>2014-04-01T14:50:45Z</time>
      </trkpt>
      <trkpt lat="43.8465" lon="3.74359">
        <ele>272</ele>
        <time>2014-04-01T14:50:49Z</time>
      </trkpt>
      <trkpt lat="43.84654" lon="3.74357">
        <ele>274</ele>
        <time>2014-04-01T14:50:52Z</time>
      </trkpt>
      <trkpt lat="43.84659" lon="3.74355">
        <ele>274</ele>
        <time>2014-04-01T14:50:55Z</time>
      </trkpt>
      <trkpt lat="43.84664" lon="3.74353">
        <ele>275</ele>
        <time>2014-04-01T14:51:01Z</time>
      </trkpt>
      <trkpt lat="43.84668" lon="3.74354">
        <ele>276</ele>
        <time>2014-04-01T14:51:06Z</time>
      </trkpt>
      <trkpt lat="43.84673" lon="3.74352">
        <ele>276</ele>
        <time>2014-04-01T14:51:12Z</time>
      </trkpt>
      <trkpt lat="43.84677" lon="3.74348">
        <ele>275</ele>
        <time>2014-04-01T14:51:17Z</time>
      </trkpt>
      <trkpt lat="43.84681" lon="3.74346">
        <ele>275</ele>
        <time>2014-04-01T14:51:22Z</time>
      </trkpt>
      <trkpt lat="43.84685" lon="3.74341">
        <ele>275</ele>
        <time>2014-04-01T14:51:27Z</time>
      </trkpt>
      <trkpt lat="43.84689" lon="3.74337">
        <ele>275</ele>
        <time>2014-04-01T14:51:30Z</time>
      </trkpt>
      <trkpt lat="43.84694" lon="3.74334">
        <ele>276</ele>
        <time>2014-04-01T14:51:33Z</time>
      </trkpt>
      <trkpt lat="43.84699" lon="3.74334">
        <ele>279</ele>
        <time>2014-04-01T14:51:39Z</time>
      </trkpt>
      <trkpt lat="43.84703" lon="3.7433">
        <ele>280</ele>
        <time>2014-04-01T14:51:44Z</time>
      </trkpt>
      <trkpt lat="43.84707" lon="3.74331">
        <ele>281</ele>
        <time>2014-04-01T14:51:47Z</time>
      </trkpt>
      <trkpt lat="43.84712" lon="3.74331">
        <ele>281</ele>
        <time>2014-04-01T14:51:50Z</time>
      </trkpt>
      <trkpt lat="43.84717" lon="3.7433">
        <ele>281</ele>
        <time>2014-04-01T14:51:54Z</time>
      </trkpt>
      <trkpt lat="43.84721" lon="3.74329">
        <ele>281</ele>
        <time>2014-04-01T14:51:57Z</time>
      </trkpt>
      <trkpt lat="43.84726" lon="3.74329">
        <ele>281</ele>
        <time>2014-04-01T14:52:01Z</time>
      </trkpt>
      <trkpt lat="43.84731" lon="3.74325">
        <ele>282</ele>
        <time>2014-04-01T14:52:05Z</time>
      </trkpt>
      <trkpt lat="43.84736" lon="3.74323">
        <ele>283</ele>
        <time>2014-04-01T14:52:11Z</time>
      </trkpt>
      <trkpt lat="43.84741" lon="3.74323">
        <ele>284</ele>
        <time>2014-04-01T14:52:16Z</time>
      </trkpt>
      <trkpt lat="43.84747" lon="3.74323">
        <ele>284</ele>
        <time>2014-04-01T14:52:21Z</time>
      </trkpt>
      <trkpt lat="43.8475" lon="3.74319">
        <ele>283</ele>
        <time>2014-04-01T14:52:26Z</time>
      </trkpt>
      <trkpt lat="43.84755" lon="3.74315">
        <ele>284</ele>
        <time>2014-04-01T14:52:29Z</time>
      </trkpt>
      <trkpt lat="43.8476" lon="3.74313">
        <ele>285</ele>
        <time>2014-04-01T14:52:33Z</time>
      </trkpt>
      <trkpt lat="43.84762" lon="3.74312">
        <ele>285</ele>
        <time>2014-04-01T14:52:39Z</time>
      </trkpt>
      <trkpt lat="43.84767" lon="3.74308">
        <ele>284</ele>
        <time>2014-04-01T14:52:44Z</time>
      </trkpt>
      <trkpt lat="43.84771" lon="3.74305">
        <ele>284</ele>
        <time>2014-04-01T14:52:48Z</time>
      </trkpt>
      <trkpt lat="43.84777" lon="3.74302">
        <ele>283</ele>
        <time>2014-04-01T14:52:53Z</time>
      </trkpt>
      <trkpt lat="43.84782" lon="3.74301">
        <ele>284</ele>
        <time>2014-04-01T14:52:56Z</time>
      </trkpt>
      <trkpt lat="43.84788" lon="3.74299">
        <ele>286</ele>
        <time>2014-04-01T14:52:59Z</time>
      </trkpt>
      <trkpt lat="43.84793" lon="3.74298">
        <ele>286</ele>
        <time>2014-04-01T14:53:04Z</time>
      </trkpt>
      <trkpt lat="43.84797" lon="3.74294">
        <ele>287</ele>
        <time>2014-04-01T14:53:09Z</time>
      </trkpt>
      <trkpt lat="43.848" lon="3.7429">
        <ele>288</ele>
        <time>2014-04-01T14:53:12Z</time>
      </trkpt>
      <trkpt lat="43.84806" lon="3.74288">
        <ele>288</ele>
        <time>2014-04-01T14:53:16Z</time>
      </trkpt>
      <trkpt lat="43.84811" lon="3.74287">
        <ele>288</ele>
        <time>2014-04-01T14:53:20Z</time>
      </trkpt>
      <trkpt lat="43.84812" lon="3.74281">
        <ele>286</ele>
        <time>2014-04-01T14:53:28Z</time>
      </trkpt>
      <trkpt lat="43.84815" lon="3.74274">
        <ele>285</ele>
        <time>2014-04-01T14:53:34Z</time>
      </trkpt>
      <trkpt lat="43.8482" lon="3.74271">
        <ele>285</ele>
        <time>2014-04-01T14:53:38Z</time>
      </trkpt>
      <trkpt lat="43.84825" lon="3.7427">
        <ele>286</ele>
        <time>2014-04-01T14:53:45Z</time>
      </trkpt>
      <trkpt lat="43.84831" lon="3.74268">
        <ele>287</ele>
        <time>2014-04-01T14:53:49Z</time>
      </trkpt>
      <trkpt lat="43.84835" lon="3.74265">
        <ele>288</ele>
        <time>2014-04-01T14:53:52Z</time>
      </trkpt>
      <trkpt lat="43.84839" lon="3.74262">
        <ele>289</ele>
        <time>2014-04-01T14:53:55Z</time>
      </trkpt>
      <trkpt lat="43.84844" lon="3.74259">
        <ele>291</ele>
        <time>2014-04-01T14:53:59Z</time>
      </trkpt>
      <trkpt lat="43.84849" lon="3.74255">
        <ele>292</ele>
        <time>2014-04-01T14:54:03Z</time>
      </trkpt>
      <trkpt lat="43.84854" lon="3.74253">
        <ele>293</ele>
        <time>2014-04-01T14:54:08Z</time>
      </trkpt>
      <trkpt lat="43.84858" lon="3.74253">
        <ele>294</ele>
        <time>2014-04-01T14:54:12Z</time>
      </trkpt>
      <trkpt lat="43.84864" lon="3.74251">
        <ele>294</ele>
        <time>2014-04-01T14:54:16Z</time>
      </trkpt>
      <trkpt lat="43.84869" lon="3.74251">
        <ele>295</ele>
        <time>2014-04-01T14:54:19Z</time>
      </trkpt>
      <trkpt lat="43.84874" lon="3.74248">
        <ele>296</ele>
        <time>2014-04-01T14:54:22Z</time>
      </trkpt>
      <trkpt lat="43.84879" lon="3.74245">
        <ele>298</ele>
        <time>2014-04-01T14:54:26Z</time>
      </trkpt>
      <trkpt lat="43.84884" lon="3.74244">
        <ele>299</ele>
        <time>2014-04-01T14:54:31Z</time>
      </trkpt>
      <trkpt lat="43.8489" lon="3.74241">
        <ele>298</ele>
        <time>2014-04-01T14:54:42Z</time>
      </trkpt>
      <trkpt lat="43.84893" lon="3.74236">
        <ele>298</ele>
        <time>2014-04-01T14:54:46Z</time>
      </trkpt>
      <trkpt lat="43.84897" lon="3.74231">
        <ele>299</ele>
        <time>2014-04-01T14:54:50Z</time>
      </trkpt>
      <trkpt lat="43.849" lon="3.74226">
        <ele>299</ele>
        <time>2014-04-01T14:54:53Z</time>
      </trkpt>
      <trkpt lat="43.84901" lon="3.74219">
        <ele>298</ele>
        <time>2014-04-01T14:54:58Z</time>
      </trkpt>
      <trkpt lat="43.84901" lon="3.74212">
        <ele>297</ele>
        <time>2014-04-01T14:55:02Z</time>
      </trkpt>
      <trkpt lat="43.84903" lon="3.74205">
        <ele>297</ele>
        <time>2014-04-01T14:55:06Z</time>
      </trkpt>
      <trkpt lat="43.84905" lon="3.74198">
        <ele>297</ele>
        <time>2014-04-01T14:55:11Z</time>
      </trkpt>
      <trkpt lat="43.84906" lon="3.74191">
        <ele>297</ele>
        <time>2014-04-01T14:55:15Z</time>
      </trkpt>
      <trkpt lat="43.84907" lon="3.74185">
        <ele>296</ele>
        <time>2014-04-01T14:55:21Z</time>
      </trkpt>
      <trkpt lat="43.84906" lon="3.74178">
        <ele>296</ele>
        <time>2014-04-01T14:55:26Z</time>
      </trkpt>
      <trkpt lat="43.84905" lon="3.74171">
        <ele>296</ele>
        <time>2014-04-01T14:55:30Z</time>
      </trkpt>
      <trkpt lat="43.84906" lon="3.74163">
        <ele>296</ele>
        <time>2014-04-01T14:55:34Z</time>
      </trkpt>
      <trkpt lat="43.84905" lon="3.74155">
        <ele>296</ele>
        <time>2014-04-01T14:55:38Z</time>
      </trkpt>
      <trkpt lat="43.84907" lon="3.74148">
        <ele>298</ele>
        <time>2014-04-01T14:55:42Z</time>
      </trkpt>
      <trkpt lat="43.84909" lon="3.74142">
        <ele>300</ele>
        <time>2014-04-01T14:55:47Z</time>
      </trkpt>
      <trkpt lat="43.84913" lon="3.74136">
        <ele>300</ele>
        <time>2014-04-01T14:55:55Z</time>
      </trkpt>
      <trkpt lat="43.84918" lon="3.74134">
        <ele>300</ele>
        <time>2014-04-01T14:55:59Z</time>
      </trkpt>
      <trkpt lat="43.84923" lon="3.74134">
        <ele>302</ele>
        <time>2014-04-01T14:56:03Z</time>
      </trkpt>
      <trkpt lat="43.84928" lon="3.74132">
        <ele>303</ele>
        <time>2014-04-01T14:56:07Z</time>
      </trkpt>
      <trkpt lat="43.84932" lon="3.74128">
        <ele>304</ele>
        <time>2014-04-01T14:56:11Z</time>
      </trkpt>
      <trkpt lat="43.84937" lon="3.74128">
        <ele>304</ele>
        <time>2014-04-01T14:56:17Z</time>
      </trkpt>
      <trkpt lat="43.84942" lon="3.74125">
        <ele>306</ele>
        <time>2014-04-01T14:56:22Z</time>
      </trkpt>
      <trkpt lat="43.84947" lon="3.74122">
        <ele>308</ele>
        <time>2014-04-01T14:56:26Z</time>
      </trkpt>
      <trkpt lat="43.84952" lon="3.7412">
        <ele>309</ele>
        <time>2014-04-01T14:56:30Z</time>
      </trkpt>
      <trkpt lat="43.84956" lon="3.74121">
        <ele>310</ele>
        <time>2014-04-01T14:56:32Z</time>
      </trkpt>
      <trkpt lat="43.84961" lon="3.74122">
        <ele>311</ele>
        <time>2014-04-01T14:56:34Z</time>
      </trkpt>
      <trkpt lat="43.84967" lon="3.74119">
        <ele>311</ele>
        <time>2014-04-01T14:56:37Z</time>
      </trkpt>
      <trkpt lat="43.84972" lon="3.74114">
        <ele>312</ele>
        <time>2014-04-01T14:56:41Z</time>
      </trkpt>
      <trkpt lat="43.84976" lon="3.74112">
        <ele>313</ele>
        <time>2014-04-01T14:56:46Z</time>
      </trkpt>
      <trkpt lat="43.84981" lon="3.74109">
        <ele>314</ele>
        <time>2014-04-01T14:56:52Z</time>
      </trkpt>
      <trkpt lat="43.84985" lon="3.74106">
        <ele>316</ele>
        <time>2014-04-01T14:56:59Z</time>
      </trkpt>
      <trkpt lat="43.84987" lon="3.74099">
        <ele>315</ele>
        <time>2014-04-01T14:57:02Z</time>
      </trkpt>
      <trkpt lat="43.84991" lon="3.74097">
        <ele>314</ele>
        <time>2014-04-01T14:57:07Z</time>
      </trkpt>
      <trkpt lat="43.84996" lon="3.74099">
        <ele>315</ele>
        <time>2014-04-01T14:57:11Z</time>
      </trkpt>
      <trkpt lat="43.85001" lon="3.74101">
        <ele>315</ele>
        <time>2014-04-01T14:57:15Z</time>
      </trkpt>
      <trkpt lat="43.85006" lon="3.741">
        <ele>315</ele>
        <time>2014-04-01T14:57:19Z</time>
      </trkpt>
      <trkpt lat="43.85011" lon="3.74097">
        <ele>315</ele>
        <time>2014-04-01T14:57:23Z</time>
      </trkpt>
      <trkpt lat="43.85014" lon="3.74093">
        <ele>316</ele>
        <time>2014-04-01T14:57:30Z</time>
      </trkpt>
      <trkpt lat="43.85021" lon="3.74092">
        <ele>315</ele>
        <time>2014-04-01T14:57:38Z</time>
      </trkpt>
      <trkpt lat="43.85027" lon="3.74092">
        <ele>315</ele>
        <time>2014-04-01T14:57:41Z</time>
      </trkpt>
      <trkpt lat="43.85032" lon="3.7409">
        <ele>317</ele>
        <time>2014-04-01T14:57:45Z</time>
      </trkpt>
      <trkpt lat="43.85037" lon="3.74089">
        <ele>317</ele>
        <time>2014-04-01T14:57:48Z</time>
      </trkpt>
      <trkpt lat="43.85039" lon="3.74094">
        <ele>317</ele>
        <time>2014-04-01T14:57:58Z</time>
      </trkpt>
    </trkseg>
  </trk>
</gpx>